<?xml version='1.0' encoding='UTF-8'?><gpx version="1.1" creator="JPX - https://github.com/jenetics/jpx" xmlns="http://www.topografix.com/GPX/1/1"><trk><trkseg><trkpt lat="46.13899646509019" lon="13.43756129085316"><ele>213.99999999999997</ele><time>2026-05-02T15:28:06Z</time></trkpt><trkpt lat="46.13896970758926" lon="13.437647793033163"><ele>214.0</ele><time>2026-05-02T15:28:07Z</time></trkpt><trkpt lat="46.13895586679704" lon="13.437739256620189"><ele>214.0</ele><time>2026-05-02T15:28:08Z</time></trkpt><trkpt lat="46.138960311004965" lon="13.43784892915356"><ele>214.0</ele><time>2026-05-02T15:28:09Z</time></trkpt><trkpt lat="46.138963348496304" lon="13.437965103105888"><ele>213.99999999999997</ele><time>2026-05-02T15:28:10Z</time></trkpt><trkpt lat="46.13896613237313" lon="13.438069533526745"><ele>214.0</ele><time>2026-05-02T15:28:11Z</time></trkpt><trkpt lat="46.13897008945561" lon="13.438202675959692"><ele>213.16666666666666</ele><time>2026-05-02T15:28:13Z</time></trkpt><trkpt lat="46.13889011217099" lon="13.438311649776805"><ele>212.33333333333331</ele><time>2026-05-02T15:28:26.001Z</time></trkpt><trkpt lat="46.138825394627276" lon="13.438354811122784"><ele>211.5</ele><time>2026-05-02T15:28:27.001Z</time></trkpt><trkpt lat="46.13875408471901" lon="13.438408686695812"><ele>210.66666666666669</ele><time>2026-05-02T15:28:28.001Z</time></trkpt><trkpt lat="46.13868528445565" lon="13.438465726751222"><ele>209.83333333333334</ele><time>2026-05-02T15:28:29.001Z</time></trkpt><trkpt lat="46.138605656760724" lon="13.438499515976172"><ele>209.0</ele><time>2026-05-02T15:28:30.001Z</time></trkpt><trkpt lat="46.138540799001795" lon="13.438577242974011"><ele>209.00000000000003</ele><time>2026-05-02T15:28:31.001Z</time></trkpt><trkpt lat="46.13847739358199" lon="13.43863834507427"><ele>209.0</ele><time>2026-05-02T15:28:32.001Z</time></trkpt><trkpt lat="46.138406440048925" lon="13.438698550655687"><ele>209.0</ele><time>2026-05-02T15:28:33.001Z</time></trkpt><trkpt lat="46.13832819500589" lon="13.438730729199468"><ele>209.0</ele><time>2026-05-02T15:28:34.001Z</time></trkpt><trkpt lat="46.13825098006092" lon="13.43875082209908"><ele>209.00000000000003</ele><time>2026-05-02T15:28:35.001Z</time></trkpt><trkpt lat="46.13817068457006" lon="13.438744487693608"><ele>209.0</ele><time>2026-05-02T15:28:36.001Z</time></trkpt><trkpt lat="46.13809300946423" lon="13.438676929384716"><ele>208.50000000000003</ele><time>2026-05-02T15:28:37.001Z</time></trkpt><trkpt lat="46.1380117468309" lon="13.43863793737873"><ele>208.0</ele><time>2026-05-02T15:28:38.001Z</time></trkpt><trkpt lat="46.13792725656852" lon="13.438601005172728"><ele>207.5</ele><time>2026-05-02T15:28:39.001Z</time></trkpt><trkpt lat="46.13784727641249" lon="13.438593412352308"><ele>207.0</ele><time>2026-05-02T15:28:40.001Z</time></trkpt><trkpt lat="46.13778227289424" lon="13.438564557380035"><ele>206.50000000000003</ele><time>2026-05-02T15:28:41.001Z</time></trkpt><trkpt lat="46.13770593935601" lon="13.43855158887428"><ele>206.0</ele><time>2026-05-02T15:28:43.001Z</time></trkpt><trkpt lat="46.1376364842882" lon="13.438532621524457"><ele>206.00000000000003</ele><time>2026-05-02T15:28:46.001Z</time></trkpt><trkpt lat="46.13772638325525" lon="13.43853810210853"><ele>206.0</ele><time>2026-05-02T15:29:55Z</time></trkpt><trkpt lat="46.137808856078706" lon="13.438583391932829"><ele>206.0</ele><time>2026-05-02T15:29:56Z</time></trkpt><trkpt lat="46.137879105422186" lon="13.438616670657812"><ele>206.0</ele><time>2026-05-02T15:29:57Z</time></trkpt><trkpt lat="46.137951935178144" lon="13.438639220476256"><ele>206.00000000000003</ele><time>2026-05-02T15:29:58Z</time></trkpt><trkpt lat="46.13802486595816" lon="13.438660928263863"><ele>206.0</ele><time>2026-05-02T15:29:59Z</time></trkpt><trkpt lat="46.13810152505242" lon="13.43869034712629"><ele>206.00000000000003</ele><time>2026-05-02T15:30:00Z</time></trkpt><trkpt lat="46.13817810699796" lon="13.43872270096857"><ele>206.0</ele><time>2026-05-02T15:30:01Z</time></trkpt><trkpt lat="46.13825311972992" lon="13.438748275130818"><ele>206.0</ele><time>2026-05-02T15:30:02Z</time></trkpt><trkpt lat="46.13833489065066" lon="13.438746284670783"><ele>206.0</ele><time>2026-05-02T15:30:03Z</time></trkpt><trkpt lat="46.13842125394781" lon="13.438709473336697"><ele>206.00000000000003</ele><time>2026-05-02T15:30:04Z</time></trkpt><trkpt lat="46.13850494660121" lon="13.438635759131737"><ele>206.0</ele><time>2026-05-02T15:30:05Z</time></trkpt><trkpt lat="46.13859635468607" lon="13.438552556956301"><ele>206.60000000000002</ele><time>2026-05-02T15:30:06Z</time></trkpt><trkpt lat="46.13869015647243" lon="13.438474899161099"><ele>207.2</ele><time>2026-05-02T15:30:07Z</time></trkpt><trkpt lat="46.13877261968681" lon="13.438409088578407"><ele>207.8</ele><time>2026-05-02T15:30:08Z</time></trkpt><trkpt lat="46.13884544444569" lon="13.438357153097554"><ele>208.39999999999998</ele><time>2026-05-02T15:30:09Z</time></trkpt><trkpt lat="46.138909619683126" lon="13.43831337256953"><ele>209.0</ele><time>2026-05-02T15:30:10Z</time></trkpt><trkpt lat="46.139001872301655" lon="13.438257377960364"><ele>209.0</ele><time>2026-05-02T15:30:12Z</time></trkpt><trkpt lat="46.138938166587984" lon="13.438316139584257"><ele>209.0</ele><time>2026-05-02T15:31:13.001Z</time></trkpt><trkpt lat="46.1388353433803" lon="13.43835077965147"><ele>209.0</ele><time>2026-05-02T15:31:15.001Z</time></trkpt><trkpt lat="46.138718913879245" lon="13.43844095996506"><ele>209.0</ele><time>2026-05-02T15:31:16.001Z</time></trkpt><trkpt lat="46.138622987266906" lon="13.438513098203847"><ele>209.0</ele><time>2026-05-02T15:31:17.001Z</time></trkpt><trkpt lat="46.13853049240335" lon="13.43857917025217"><ele>209.0</ele><time>2026-05-02T15:31:18.001Z</time></trkpt><trkpt lat="46.13843138627468" lon="13.438655830767708"><ele>209.0</ele><time>2026-05-02T15:31:19.001Z</time></trkpt><trkpt lat="46.13832870112779" lon="13.438718525746282"><ele>209.0</ele><time>2026-05-02T15:31:20.001Z</time></trkpt><trkpt lat="46.138218756353034" lon="13.438738400505848"><ele>209.0</ele><time>2026-05-02T15:31:21.001Z</time></trkpt><trkpt lat="46.138105402285724" lon="13.43871742932098"><ele>209.0</ele><time>2026-05-02T15:31:22.001Z</time></trkpt><trkpt lat="46.13798986507692" lon="13.438670795259238"><ele>208.25</ele><time>2026-05-02T15:31:23.001Z</time></trkpt><trkpt lat="46.137866036336895" lon="13.438623063577444"><ele>207.5</ele><time>2026-05-02T15:31:24.001Z</time></trkpt><trkpt lat="46.13773146189633" lon="13.438589892367911"><ele>206.75</ele><time>2026-05-02T15:31:25.001Z</time></trkpt><trkpt lat="46.137592180104186" lon="13.43856823315245"><ele>206.0</ele><time>2026-05-02T15:31:26.001Z</time></trkpt><trkpt lat="46.13745428649516" lon="13.438564478471465"><ele>205.5</ele><time>2026-05-02T15:31:27.001Z</time></trkpt><trkpt lat="46.137322939158466" lon="13.438556804925748"><ele>205.0</ele><time>2026-05-02T15:31:28.001Z</time></trkpt><trkpt lat="46.137194892109754" lon="13.43851991919267"><ele>204.5</ele><time>2026-05-02T15:31:29.001Z</time></trkpt><trkpt lat="46.13707392090515" lon="13.43845876909437"><ele>204.0</ele><time>2026-05-02T15:31:30.001Z</time></trkpt><trkpt lat="46.13696768030067" lon="13.438350801727774"><ele>204.0</ele><time>2026-05-02T15:31:31.001Z</time></trkpt><trkpt lat="46.13685404421222" lon="13.438260081597056"><ele>204.0</ele><time>2026-05-02T15:31:32.001Z</time></trkpt><trkpt lat="46.13674489550488" lon="13.438170980985442"><ele>204.0</ele><time>2026-05-02T15:31:33Z</time></trkpt><trkpt lat="46.13664527007984" lon="13.438087006701164"><ele>204.0</ele><time>2026-05-02T15:31:34Z</time></trkpt><trkpt lat="46.13654157248272" lon="13.43802710540145"><ele>203.5</ele><time>2026-05-02T15:31:35Z</time></trkpt><trkpt lat="46.13644064076516" lon="13.437965976139047"><ele>203.0</ele><time>2026-05-02T15:31:36Z</time></trkpt><trkpt lat="46.13633414426331" lon="13.437906418720575"><ele>202.5</ele><time>2026-05-02T15:31:37Z</time></trkpt><trkpt lat="46.1362123877175" lon="13.437935607590925"><ele>202.0</ele><time>2026-05-02T15:31:38Z</time></trkpt><trkpt lat="46.13608422595716" lon="13.437953486900728"><ele>201.75</ele><time>2026-05-02T15:31:39Z</time></trkpt><trkpt lat="46.135960760136385" lon="13.437986940837206"><ele>201.5</ele><time>2026-05-02T15:31:40Z</time></trkpt><trkpt lat="46.13583301891486" lon="13.438022606170197"><ele>201.25</ele><time>2026-05-02T15:31:41Z</time></trkpt><trkpt lat="46.135706708028856" lon="13.438083857296684"><ele>201.0</ele><time>2026-05-02T15:31:42Z</time></trkpt><trkpt lat="46.13557212599466" lon="13.438101386027611"><ele>200.5</ele><time>2026-05-02T15:31:43Z</time></trkpt><trkpt lat="46.13545566509895" lon="13.438162858959984"><ele>200.0</ele><time>2026-05-02T15:31:44Z</time></trkpt><trkpt lat="46.13533997975952" lon="13.43819904484896"><ele>199.5</ele><time>2026-05-02T15:31:45Z</time></trkpt><trkpt lat="46.13522239253423" lon="13.438200980691404"><ele>199.0</ele><time>2026-05-02T15:31:46Z</time></trkpt><trkpt lat="46.13511845447547" lon="13.43814124559196"><ele>199.0</ele><time>2026-05-02T15:31:47Z</time></trkpt><trkpt lat="46.135000799891046" lon="13.438090663548529"><ele>199.0</ele><time>2026-05-02T15:31:48Z</time></trkpt><trkpt lat="46.13488863439261" lon="13.438017477255922"><ele>199.0</ele><time>2026-05-02T15:31:49Z</time></trkpt><trkpt lat="46.134774167613315" lon="13.437938076938918"><ele>199.0</ele><time>2026-05-02T15:31:50Z</time></trkpt><trkpt lat="46.13466121608255" lon="13.437861077480594"><ele>198.5</ele><time>2026-05-02T15:31:51Z</time></trkpt><trkpt lat="46.134550474117034" lon="13.437768691066472"><ele>198.0</ele><time>2026-05-02T15:31:52Z</time></trkpt><trkpt lat="46.1344483131891" lon="13.437664460418608"><ele>197.5</ele><time>2026-05-02T15:31:53Z</time></trkpt><trkpt lat="46.134357913353746" lon="13.437542470800986"><ele>197.0</ele><time>2026-05-02T15:31:54Z</time></trkpt><trkpt lat="46.13428099977732" lon="13.437402772563443"><ele>197.0</ele><time>2026-05-02T15:31:55Z</time></trkpt><trkpt lat="46.134217061022646" lon="13.43725505843846"><ele>197.0</ele><time>2026-05-02T15:31:56Z</time></trkpt><trkpt lat="46.1341605735079" lon="13.437096421868288"><ele>197.0</ele><time>2026-05-02T15:31:57Z</time></trkpt><trkpt lat="46.13410729728275" lon="13.436944639368548"><ele>197.0</ele><time>2026-05-02T15:31:58Z</time></trkpt><trkpt lat="46.13404675376584" lon="13.436803990817813"><ele>196.5</ele><time>2026-05-02T15:31:59Z</time></trkpt><trkpt lat="46.133986889768366" lon="13.436663346505727"><ele>196.0</ele><time>2026-05-02T15:32:00Z</time></trkpt><trkpt lat="46.133895471070915" lon="13.436559250714181"><ele>195.5</ele><time>2026-05-02T15:32:01Z</time></trkpt><trkpt lat="46.133803033890906" lon="13.436462732728998"><ele>195.0</ele><time>2026-05-02T15:32:02Z</time></trkpt><trkpt lat="46.13372848037519" lon="13.436342496513452"><ele>194.8</ele><time>2026-05-02T15:32:03Z</time></trkpt><trkpt lat="46.133635706031754" lon="13.43626476873155"><ele>194.6</ele><time>2026-05-02T15:32:04Z</time></trkpt><trkpt lat="46.1335502580207" lon="13.436172631143902"><ele>194.39999999999998</ele><time>2026-05-02T15:32:05Z</time></trkpt><trkpt lat="46.133459713580756" lon="13.436086432675078"><ele>194.2</ele><time>2026-05-02T15:32:06Z</time></trkpt><trkpt lat="46.13336039271899" lon="13.43601147793228"><ele>194.0</ele><time>2026-05-02T15:32:07Z</time></trkpt><trkpt lat="46.13326327434846" lon="13.435929278380387"><ele>193.39999999999998</ele><time>2026-05-02T15:32:08Z</time></trkpt><trkpt lat="46.13316685240956" lon="13.435843211295145"><ele>192.8</ele><time>2026-05-02T15:32:09Z</time></trkpt><trkpt lat="46.13305955456807" lon="13.43577089236426"><ele>192.2</ele><time>2026-05-02T15:32:10Z</time></trkpt><trkpt lat="46.13295734710501" lon="13.435696069559095"><ele>191.60000000000002</ele><time>2026-05-02T15:32:11Z</time></trkpt><trkpt lat="46.132876847208536" lon="13.435624416167247"><ele>191.0</ele><time>2026-05-02T15:32:12Z</time></trkpt><trkpt lat="46.132812192747366" lon="13.435546237503743"><ele>191.0</ele><time>2026-05-02T15:32:13Z</time></trkpt><trkpt lat="46.1327484902745" lon="13.435468831931741"><ele>191.0</ele><time>2026-05-02T15:32:14Z</time></trkpt><trkpt lat="46.1326880914407" lon="13.435403636743436"><ele>191.0</ele><time>2026-05-02T15:32:15Z</time></trkpt><trkpt lat="46.132601870439316" lon="13.435303096556083"><ele>191.0</ele><time>2026-05-02T15:32:17Z</time></trkpt><trkpt lat="46.13270785118619" lon="13.435432829930967"><ele>191.0</ele><time>2026-05-02T15:32:44.001Z</time></trkpt><trkpt lat="46.13276510487457" lon="13.435565694721285"><ele>191.0</ele><time>2026-05-02T15:32:46.001Z</time></trkpt><trkpt lat="46.132766936784066" lon="13.435704002593027"><ele>191.0</ele><time>2026-05-02T15:32:48.001Z</time></trkpt><trkpt lat="46.13272390242877" lon="13.435777194957303"><ele>191.0</ele><time>2026-05-02T15:33:34.001Z</time></trkpt><trkpt lat="46.13266676876458" lon="13.435849913531639"><ele>191.0</ele><time>2026-05-02T15:33:43Z</time></trkpt><trkpt lat="46.13262231997425" lon="13.435947719992429"><ele>191.0</ele><time>2026-05-02T15:33:45Z</time></trkpt><trkpt lat="46.13258458130999" lon="13.43602803769903"><ele>191.0</ele><time>2026-05-02T15:33:47Z</time></trkpt><trkpt lat="46.132538620540345" lon="13.436133099973768"><ele>191.0</ele><time>2026-05-02T15:33:49Z</time></trkpt><trkpt lat="46.132480169289686" lon="13.436265497806405"><ele>191.0</ele><time>2026-05-02T15:33:51Z</time></trkpt><trkpt lat="46.132411935062926" lon="13.436421233445929"><ele>191.0</ele><time>2026-05-02T15:33:53Z</time></trkpt><trkpt lat="46.13234616733838" lon="13.436531107789255"><ele>191.0</ele><time>2026-05-02T15:33:54Z</time></trkpt><trkpt lat="46.1322711134017" lon="13.43664791913887"><ele>191.0</ele><time>2026-05-02T15:33:55Z</time></trkpt><trkpt lat="46.132197493157086" lon="13.436765589628354"><ele>193.60000000000002</ele><time>2026-05-02T15:33:56Z</time></trkpt><trkpt lat="46.132125658896726" lon="13.43686218120425"><ele>196.2</ele><time>2026-05-02T15:33:57Z</time></trkpt><trkpt lat="46.132061095416134" lon="13.436899959542746"><ele>198.8</ele><time>2026-05-02T15:33:58Z</time></trkpt><trkpt lat="46.13199546409759" lon="13.436863407567657"><ele>201.39999999999998</ele><time>2026-05-02T15:33:59Z</time></trkpt><trkpt lat="46.1318930027604" lon="13.436758629126373"><ele>204.0</ele><time>2026-05-02T15:34:00Z</time></trkpt><trkpt lat="46.131774988488466" lon="13.436730567001273"><ele>204.0</ele><time>2026-05-02T15:34:01Z</time></trkpt><trkpt lat="46.13166333842048" lon="13.43671149683159"><ele>204.0</ele><time>2026-05-02T15:34:02Z</time></trkpt><trkpt lat="46.13154038582312" lon="13.436748215000627"><ele>204.0</ele><time>2026-05-02T15:34:03Z</time></trkpt><trkpt lat="46.13141082506799" lon="13.436794277123926"><ele>204.0</ele><time>2026-05-02T15:34:04Z</time></trkpt><trkpt lat="46.131312546383135" lon="13.436869361951334"><ele>204.42857142857144</ele><time>2026-05-02T15:34:05Z</time></trkpt><trkpt lat="46.13123580636457" lon="13.436903311380425"><ele>204.85714285714286</ele><time>2026-05-02T15:34:06Z</time></trkpt><trkpt lat="46.131172207451115" lon="13.436868141826242"><ele>205.28571428571428</ele><time>2026-05-02T15:34:07Z</time></trkpt><trkpt lat="46.131100771773085" lon="13.436837009817673"><ele>205.71428571428572</ele><time>2026-05-02T15:34:08Z</time></trkpt><trkpt lat="46.131044573449344" lon="13.436880983638257"><ele>206.14285714285714</ele><time>2026-05-02T15:34:09Z</time></trkpt><trkpt lat="46.131085248263446" lon="13.43699594621835"><ele>206.57142857142858</ele><time>2026-05-02T15:34:10Z</time></trkpt><trkpt lat="46.1311335319783" lon="13.437061184374246"><ele>207.0</ele><time>2026-05-02T15:34:11Z</time></trkpt><trkpt lat="46.13120844470475" lon="13.43708036379392"><ele>207.0</ele><time>2026-05-02T15:34:12Z</time></trkpt><trkpt lat="46.13129382738406" lon="13.43711076829107"><ele>207.0</ele><time>2026-05-02T15:34:13Z</time></trkpt><trkpt lat="46.13140872467465" lon="13.437157338421617"><ele>207.0</ele><time>2026-05-02T15:34:14Z</time></trkpt><trkpt lat="46.13151458449649" lon="13.437192223851945"><ele>207.0</ele><time>2026-05-02T15:34:15Z</time></trkpt><trkpt lat="46.131633595392664" lon="13.437253940070258"><ele>207.0</ele><time>2026-05-02T15:34:16Z</time></trkpt><trkpt lat="46.131728563663124" lon="13.437344194786544"><ele>211.0</ele><time>2026-05-02T15:34:17Z</time></trkpt><trkpt lat="46.13181196429273" lon="13.437465359808527"><ele>215.0</ele><time>2026-05-02T15:34:18Z</time></trkpt><trkpt lat="46.13190127062041" lon="13.437630566747416"><ele>219.0</ele><time>2026-05-02T15:34:19Z</time></trkpt><trkpt lat="46.13197535075742" lon="13.437799449934934"><ele>223.0</ele><time>2026-05-02T15:34:20Z</time></trkpt><trkpt lat="46.132067749937434" lon="13.437986452252195"><ele>228.25</ele><time>2026-05-02T15:34:21Z</time></trkpt><trkpt lat="46.1321443113163" lon="13.438174474063477"><ele>233.5</ele><time>2026-05-02T15:34:22Z</time></trkpt><trkpt lat="46.132192704670715" lon="13.438326209115543"><ele>238.75</ele><time>2026-05-02T15:34:23Z</time></trkpt><trkpt lat="46.13227219402781" lon="13.438522280421319"><ele>244.0</ele><time>2026-05-02T15:34:24Z</time></trkpt><trkpt lat="46.13235064571255" lon="13.438714908503924"><ele>247.0</ele><time>2026-05-02T15:34:25Z</time></trkpt><trkpt lat="46.13245545751437" lon="13.438893039933369"><ele>250.0</ele><time>2026-05-02T15:34:26Z</time></trkpt><trkpt lat="46.13254578937074" lon="13.439016472152488"><ele>253.0</ele><time>2026-05-02T15:34:27Z</time></trkpt><trkpt lat="46.132619723839916" lon="13.439121709747802"><ele>256.0</ele><time>2026-05-02T15:34:28Z</time></trkpt><trkpt lat="46.13268045851079" lon="13.439197363355001"><ele>256.0</ele><time>2026-05-02T15:34:29Z</time></trkpt><trkpt lat="46.132795837556365" lon="13.439333316816134"><ele>256.0</ele><time>2026-05-02T15:34:31Z</time></trkpt><trkpt lat="46.132847805816205" lon="13.439413052646291"><ele>256.0</ele><time>2026-05-02T15:34:32Z</time></trkpt><trkpt lat="46.132913362951186" lon="13.439510033365607"><ele>256.0</ele><time>2026-05-02T15:34:33Z</time></trkpt><trkpt lat="46.13296132153998" lon="13.439590529087027"><ele>256.0</ele><time>2026-05-02T15:34:34Z</time></trkpt><trkpt lat="46.13300956948989" lon="13.439696350105223"><ele>260.40000000000003</ele><time>2026-05-02T15:34:35Z</time></trkpt><trkpt lat="46.13306115897692" lon="13.439785689750543"><ele>264.8</ele><time>2026-05-02T15:34:36Z</time></trkpt><trkpt lat="46.133116918578544" lon="13.439893587797892"><ele>269.20000000000005</ele><time>2026-05-02T15:34:37Z</time></trkpt><trkpt lat="46.13312603530771" lon="13.440030531325228"><ele>273.6</ele><time>2026-05-02T15:34:39Z</time></trkpt><trkpt lat="46.133053314503066" lon="13.439922358712192"><ele>278.0</ele><time>2026-05-02T15:34:42Z</time></trkpt><trkpt lat="46.13297813459186" lon="13.439845598186091"><ele>278.0</ele><time>2026-05-02T15:34:43Z</time></trkpt><trkpt lat="46.132840479648465" lon="13.43975388144176"><ele>278.0</ele><time>2026-05-02T15:34:44Z</time></trkpt><trkpt lat="46.13273681370358" lon="13.439660200343107"><ele>278.0</ele><time>2026-05-02T15:34:45Z</time></trkpt><trkpt lat="46.13263535701702" lon="13.439574791264423"><ele>278.0</ele><time>2026-05-02T15:34:46.001Z</time></trkpt><trkpt lat="46.13252607454743" lon="13.439521798115923"><ele>274.0</ele><time>2026-05-02T15:34:47.001Z</time></trkpt><trkpt lat="46.132412445430816" lon="13.439429408197444"><ele>270.0</ele><time>2026-05-02T15:34:48.001Z</time></trkpt><trkpt lat="46.13226322641936" lon="13.439322068080763"><ele>266.0</ele><time>2026-05-02T15:34:49.001Z</time></trkpt><trkpt lat="46.13210868781727" lon="13.439226373507134"><ele>266.0</ele><time>2026-05-02T15:34:50.001Z</time></trkpt><trkpt lat="46.131949992381266" lon="13.439200037100054"><ele>266.0</ele><time>2026-05-02T15:34:51.001Z</time></trkpt><trkpt lat="46.131820863700604" lon="13.439138865293451"><ele>266.0</ele><time>2026-05-02T15:34:52.001Z</time></trkpt><trkpt lat="46.13172794989422" lon="13.439143584890722"><ele>266.0</ele><time>2026-05-02T15:34:53.001Z</time></trkpt><trkpt lat="46.13160244267962" lon="13.439178013428839"><ele>270.0</ele><time>2026-05-02T15:34:54.001Z</time></trkpt><trkpt lat="46.13148512112731" lon="13.439244994519253"><ele>274.0</ele><time>2026-05-02T15:34:55.001Z</time></trkpt><trkpt lat="46.13136222851782" lon="13.439270845670917"><ele>278.0</ele><time>2026-05-02T15:34:56.001Z</time></trkpt><trkpt lat="46.13127265863664" lon="13.439316408992632"><ele>282.0</ele><time>2026-05-02T15:34:57.001Z</time></trkpt><trkpt lat="46.13121588905047" lon="13.439414001841959"><ele>286.0</ele><time>2026-05-02T15:34:58.001Z</time></trkpt><trkpt lat="46.13119845793444" lon="13.439554800060428"><ele>286.0</ele><time>2026-05-02T15:35:00.001Z</time></trkpt><trkpt lat="46.13132404505106" lon="13.439497678110996"><ele>286.0</ele><time>2026-05-02T15:35:03.001Z</time></trkpt><trkpt lat="46.131545861316845" lon="13.439493114970222"><ele>286.0</ele><time>2026-05-02T15:35:04.001Z</time></trkpt><trkpt lat="46.13164096293805" lon="13.439515869518205"><ele>287.3333333333333</ele><time>2026-05-02T15:35:05.001Z</time></trkpt><trkpt lat="46.13173242892027" lon="13.439499341734239"><ele>288.6666666666667</ele><time>2026-05-02T15:35:06.001Z</time></trkpt><trkpt lat="46.13183464041063" lon="13.43953917489321"><ele>290.0</ele><time>2026-05-02T15:35:07.001Z</time></trkpt><trkpt lat="46.13206643982448" lon="13.43980116093102"><ele>290.0</ele><time>2026-05-02T15:35:08.001Z</time></trkpt><trkpt lat="46.1322373179361" lon="13.439973656386043"><ele>290.0</ele><time>2026-05-02T15:35:09.001Z</time></trkpt><trkpt lat="46.13239736531182" lon="13.440185314174908"><ele>290.0</ele><time>2026-05-02T15:35:10.001Z</time></trkpt><trkpt lat="46.13247980326422" lon="13.440333358528974"><ele>291.0</ele><time>2026-05-02T15:35:11.001Z</time></trkpt><trkpt lat="46.13252323465157" lon="13.440512584478265"><ele>292.0</ele><time>2026-05-02T15:35:12.001Z</time></trkpt><trkpt lat="46.13258195674229" lon="13.440656299390918"><ele>293.0</ele><time>2026-05-02T15:35:13.001Z</time></trkpt><trkpt lat="46.13262659478972" lon="13.440824144749934"><ele>294.0</ele><time>2026-05-02T15:35:14.001Z</time></trkpt><trkpt lat="46.13265253289607" lon="13.440951980398484"><ele>294.0</ele><time>2026-05-02T15:35:15.001Z</time></trkpt><trkpt lat="46.132659269783716" lon="13.441086430383706"><ele>294.0</ele><time>2026-05-02T15:35:16.001Z</time></trkpt><trkpt lat="46.13264650877393" lon="13.441247352675335"><ele>294.0</ele><time>2026-05-02T15:35:17.001Z</time></trkpt><trkpt lat="46.132617101775956" lon="13.441380162943911"><ele>294.0</ele><time>2026-05-02T15:35:18.001Z</time></trkpt><trkpt lat="46.13248126261951" lon="13.44147745895429"><ele>295.8</ele><time>2026-05-02T15:35:19.001Z</time></trkpt><trkpt lat="46.13244059085929" lon="13.44160950147871"><ele>297.59999999999997</ele><time>2026-05-02T15:35:20.001Z</time></trkpt><trkpt lat="46.13240138527949" lon="13.441767942409946"><ele>299.4</ele><time>2026-05-02T15:35:21.001Z</time></trkpt><trkpt lat="46.13235763820846" lon="13.441903490427645"><ele>301.2</ele><time>2026-05-02T15:35:22.001Z</time></trkpt><trkpt lat="46.13230965911691" lon="13.442018676281357"><ele>303.0</ele><time>2026-05-02T15:35:23.001Z</time></trkpt><trkpt lat="46.13229425740932" lon="13.442137397639677"><ele>304.4</ele><time>2026-05-02T15:35:24.001Z</time></trkpt><trkpt lat="46.132280214913244" lon="13.442241157334317"><ele>305.8</ele><time>2026-05-02T15:35:25.001Z</time></trkpt><trkpt lat="46.13230129627712" lon="13.442353719486098"><ele>307.2</ele><time>2026-05-02T15:35:26.001Z</time></trkpt><trkpt lat="46.13241641509594" lon="13.442497130483853"><ele>308.6</ele><time>2026-05-02T15:35:27.001Z</time></trkpt><trkpt lat="46.13249988180604" lon="13.442538522688714"><ele>310.0</ele><time>2026-05-02T15:35:28.001Z</time></trkpt><trkpt lat="46.13255951553454" lon="13.442623185127626"><ele>310.0</ele><time>2026-05-02T15:35:29.001Z</time></trkpt><trkpt lat="46.13259329644533" lon="13.442741777919629"><ele>310.0</ele><time>2026-05-02T15:35:30.001Z</time></trkpt><trkpt lat="46.13261875852519" lon="13.442898342419499"><ele>310.0</ele><time>2026-05-02T15:35:31.001Z</time></trkpt><trkpt lat="46.132649367533" lon="13.44305449649887"><ele>310.0</ele><time>2026-05-02T15:35:32.001Z</time></trkpt><trkpt lat="46.132673537609826" lon="13.443177275236813"><ele>310.0</ele><time>2026-05-02T15:35:33.001Z</time></trkpt><trkpt lat="46.13268401342305" lon="13.443287598568386"><ele>311.8</ele><time>2026-05-02T15:35:34.001Z</time></trkpt><trkpt lat="46.13267208513583" lon="13.443447056188441"><ele>313.6</ele><time>2026-05-02T15:35:35.001Z</time></trkpt><trkpt lat="46.132642451862395" lon="13.443598751803409"><ele>315.4</ele><time>2026-05-02T15:35:36.001Z</time></trkpt><trkpt lat="46.13262654158031" lon="13.44373035768384"><ele>317.2</ele><time>2026-05-02T15:35:37.001Z</time></trkpt><trkpt lat="46.132549088430274" lon="13.443762007250573"><ele>319.0</ele><time>2026-05-02T15:35:38.001Z</time></trkpt><trkpt lat="46.132663991141925" lon="13.443770725955432"><ele>319.0</ele><time>2026-05-02T15:35:41.001Z</time></trkpt><trkpt lat="46.13276826877921" lon="13.443633575533987"><ele>319.0</ele><time>2026-05-02T15:35:42.001Z</time></trkpt><trkpt lat="46.132888791981784" lon="13.443599085414817"><ele>319.0</ele><time>2026-05-02T15:35:43.001Z</time></trkpt><trkpt lat="46.13302575060124" lon="13.443559186693701"><ele>319.0</ele><time>2026-05-02T15:35:45Z</time></trkpt><trkpt lat="46.133272476470076" lon="13.443801205339279"><ele>318.75</ele><time>2026-05-02T15:35:47Z</time></trkpt><trkpt lat="46.13335846794145" lon="13.444005274259313"><ele>318.5</ele><time>2026-05-02T15:35:48Z</time></trkpt><trkpt lat="46.13344050526011" lon="13.444168861439643"><ele>318.25</ele><time>2026-05-02T15:35:49Z</time></trkpt><trkpt lat="46.133507171120854" lon="13.444312076426103"><ele>318.0</ele><time>2026-05-02T15:35:50Z</time></trkpt><trkpt lat="46.133545477979716" lon="13.444432078904718"><ele>318.0</ele><time>2026-05-02T15:35:51Z</time></trkpt><trkpt lat="46.133564827229314" lon="13.44454504128773"><ele>318.0</ele><time>2026-05-02T15:35:52Z</time></trkpt><trkpt lat="46.13356563984629" lon="13.444663731479714"><ele>318.0</ele><time>2026-05-02T15:35:53Z</time></trkpt><trkpt lat="46.13357508373026" lon="13.44476144860236"><ele>318.0</ele><time>2026-05-02T15:35:54Z</time></trkpt><trkpt lat="46.133629076065354" lon="13.444843577140485"><ele>318.0</ele><time>2026-05-02T15:35:55Z</time></trkpt><trkpt lat="46.133768611573565" lon="13.444871702349891"><ele>316.2</ele><time>2026-05-02T15:35:57Z</time></trkpt><trkpt lat="46.133838850550326" lon="13.444770294766995"><ele>314.4</ele><time>2026-05-02T15:35:58Z</time></trkpt><trkpt lat="46.13396122351625" lon="13.444715780493947"><ele>312.59999999999997</ele><time>2026-05-02T15:35:59Z</time></trkpt><trkpt lat="46.13404655229547" lon="13.444648607742547"><ele>310.8</ele><time>2026-05-02T15:36:00Z</time></trkpt><trkpt lat="46.13412892786302" lon="13.44459557675504"><ele>309.0</ele><time>2026-05-02T15:36:01Z</time></trkpt><trkpt lat="46.13421919524566" lon="13.444540909511165"><ele>309.0</ele><time>2026-05-02T15:36:02Z</time></trkpt><trkpt lat="46.134317378472346" lon="13.444475600782809"><ele>309.0</ele><time>2026-05-02T15:36:03Z</time></trkpt><trkpt lat="46.13441236001194" lon="13.44438537654182"><ele>309.0</ele><time>2026-05-02T15:36:04Z</time></trkpt><trkpt lat="46.13450928595466" lon="13.444312550680527"><ele>309.0</ele><time>2026-05-02T15:36:05Z</time></trkpt><trkpt lat="46.13459079804466" lon="13.44422877744291"><ele>309.0</ele><time>2026-05-02T15:36:06Z</time></trkpt><trkpt lat="46.13466942252229" lon="13.44411772627187"><ele>309.0</ele><time>2026-05-02T15:36:07Z</time></trkpt><trkpt lat="46.13474629077107" lon="13.443992254359781"><ele>309.0</ele><time>2026-05-02T15:36:08Z</time></trkpt><trkpt lat="46.1347670670104" lon="13.44383167041505"><ele>309.0</ele><time>2026-05-02T15:36:09Z</time></trkpt><trkpt lat="46.13474189521964" lon="13.443669282747186"><ele>309.0</ele><time>2026-05-02T15:36:10Z</time></trkpt><trkpt lat="46.13474965667531" lon="13.44349462051875"><ele>307.8</ele><time>2026-05-02T15:36:11Z</time></trkpt><trkpt lat="46.13475449047588" lon="13.443328545284185"><ele>306.59999999999997</ele><time>2026-05-02T15:36:12Z</time></trkpt><trkpt lat="46.13477119364487" lon="13.44317351076862"><ele>305.4</ele><time>2026-05-02T15:36:13Z</time></trkpt><trkpt lat="46.13477917794763" lon="13.443031706584215"><ele>304.2</ele><time>2026-05-02T15:36:14Z</time></trkpt><trkpt lat="46.13481341060904" lon="13.442912050527104"><ele>303.0</ele><time>2026-05-02T15:36:15Z</time></trkpt><trkpt lat="46.134911109851075" lon="13.442811656763542"><ele>303.0</ele><time>2026-05-02T15:36:17Z</time></trkpt><trkpt lat="46.135051175821715" lon="13.44280852968674"><ele>303.0</ele><time>2026-05-02T15:36:19Z</time></trkpt><trkpt lat="46.135095960384604" lon="13.442880829738572"><ele>303.0</ele><time>2026-05-02T15:36:20Z</time></trkpt><trkpt lat="46.135168899117964" lon="13.443129713116816"><ele>303.0</ele><time>2026-05-02T15:36:21Z</time></trkpt><trkpt lat="46.13515735783277" lon="13.443393408205432"><ele>304.0</ele><time>2026-05-02T15:36:22Z</time></trkpt><trkpt lat="46.13513361927131" lon="13.443544170618852"><ele>305.0</ele><time>2026-05-02T15:36:23Z</time></trkpt><trkpt lat="46.13508495246317" lon="13.443690881466958"><ele>306.0</ele><time>2026-05-02T15:36:24Z</time></trkpt><trkpt lat="46.135046555357924" lon="13.44382890425543"><ele>307.0</ele><time>2026-05-02T15:36:25Z</time></trkpt><trkpt lat="46.13499968565433" lon="13.443942763724833"><ele>308.0</ele><time>2026-05-02T15:36:26Z</time></trkpt><trkpt lat="46.13495636042498" lon="13.444076048615042"><ele>309.2</ele><time>2026-05-02T15:36:27Z</time></trkpt><trkpt lat="46.13495803763924" lon="13.444229820423965"><ele>310.4</ele><time>2026-05-02T15:36:28Z</time></trkpt><trkpt lat="46.13501072426522" lon="13.444380165363558"><ele>311.59999999999997</ele><time>2026-05-02T15:36:29Z</time></trkpt><trkpt lat="46.13505793252957" lon="13.444535139983333"><ele>312.8</ele><time>2026-05-02T15:36:30Z</time></trkpt><trkpt lat="46.13506647779071" lon="13.444683372244045"><ele>314.0</ele><time>2026-05-02T15:36:31Z</time></trkpt><trkpt lat="46.135089814773124" lon="13.444843482639566"><ele>315.6666666666667</ele><time>2026-05-02T15:36:32Z</time></trkpt><trkpt lat="46.1350801090361" lon="13.444984731402434"><ele>317.33333333333337</ele><time>2026-05-02T15:36:33Z</time></trkpt><trkpt lat="46.13506239716532" lon="13.445114969037869"><ele>319.0</ele><time>2026-05-02T15:36:34Z</time></trkpt><trkpt lat="46.135029847948424" lon="13.445215769608636"><ele>320.6666666666667</ele><time>2026-05-02T15:36:35Z</time></trkpt><trkpt lat="46.13503300327976" lon="13.445323553590798"><ele>322.3333333333333</ele><time>2026-05-02T15:36:36Z</time></trkpt><trkpt lat="46.13506615627548" lon="13.445459363883563"><ele>324.0</ele><time>2026-05-02T15:36:37Z</time></trkpt><trkpt lat="46.13510947059192" lon="13.445569316579782"><ele>327.2</ele><time>2026-05-02T15:36:38Z</time></trkpt><trkpt lat="46.135238615686" lon="13.44562872664837"><ele>330.4</ele><time>2026-05-02T15:36:40Z</time></trkpt><trkpt lat="46.13533043171057" lon="13.44565977151777"><ele>333.6</ele><time>2026-05-02T15:36:41Z</time></trkpt><trkpt lat="46.135419097433" lon="13.445722822470962"><ele>336.8</ele><time>2026-05-02T15:36:42Z</time></trkpt><trkpt lat="46.13549653866462" lon="13.445766869302462"><ele>340.0</ele><time>2026-05-02T15:36:43Z</time></trkpt><trkpt lat="46.135573170097786" lon="13.445856700583963"><ele>340.0</ele><time>2026-05-02T15:36:44Z</time></trkpt><trkpt lat="46.135630863597406" lon="13.445936763569954"><ele>340.0</ele><time>2026-05-02T15:36:45Z</time></trkpt><trkpt lat="46.135697448211424" lon="13.446053124615776"><ele>340.0</ele><time>2026-05-02T15:36:46Z</time></trkpt><trkpt lat="46.13575770595471" lon="13.446132744537906"><ele>340.0</ele><time>2026-05-02T15:36:47Z</time></trkpt><trkpt lat="46.135808577737215" lon="13.446193485765152"><ele>340.0</ele><time>2026-05-02T15:36:48Z</time></trkpt><trkpt lat="46.1358519117391" lon="13.446274987545694"><ele>340.0</ele><time>2026-05-02T15:36:49Z</time></trkpt><trkpt lat="46.13589857252538" lon="13.446369103100578"><ele>344.5</ele><time>2026-05-02T15:36:50Z</time></trkpt><trkpt lat="46.135964695425336" lon="13.446581255706942"><ele>349.0</ele><time>2026-05-02T15:36:52Z</time></trkpt><trkpt lat="46.135976400536" lon="13.446721362328088"><ele>353.5</ele><time>2026-05-02T15:36:53Z</time></trkpt><trkpt lat="46.13600055633229" lon="13.446858941734654"><ele>358.0</ele><time>2026-05-02T15:36:54Z</time></trkpt><trkpt lat="46.13600985462884" lon="13.447001050312554"><ele>361.0</ele><time>2026-05-02T15:36:55Z</time></trkpt><trkpt lat="46.13602365383464" lon="13.447145816279791"><ele>364.0</ele><time>2026-05-02T15:36:56.001Z</time></trkpt><trkpt lat="46.13600596902914" lon="13.447317364221409"><ele>367.0</ele><time>2026-05-02T15:36:57.001Z</time></trkpt><trkpt lat="46.13598096138496" lon="13.447443287944305"><ele>370.0</ele><time>2026-05-02T15:36:58.001Z</time></trkpt><trkpt lat="46.13599544900995" lon="13.447572551827788"><ele>373.0</ele><time>2026-05-02T15:37:00.001Z</time></trkpt><trkpt lat="46.13613439286751" lon="13.447600388132237"><ele>373.0</ele><time>2026-05-02T15:37:01.001Z</time></trkpt><trkpt lat="46.13612634673256" lon="13.44742541261748"><ele>373.0</ele><time>2026-05-02T15:37:02.001Z</time></trkpt><trkpt lat="46.13624991845818" lon="13.447312835168113"><ele>373.0</ele><time>2026-05-02T15:37:03.001Z</time></trkpt><trkpt lat="46.13632989207948" lon="13.44713506148487"><ele>373.0</ele><time>2026-05-02T15:37:04.001Z</time></trkpt><trkpt lat="46.13638878266261" lon="13.44701300089594"><ele>370.79999999999995</ele><time>2026-05-02T15:37:05.001Z</time></trkpt><trkpt lat="46.13646723678044" lon="13.446938809383342"><ele>368.6</ele><time>2026-05-02T15:37:06.001Z</time></trkpt><trkpt lat="46.13660503230071" lon="13.446996064216984"><ele>366.4</ele><time>2026-05-02T15:37:07.001Z</time></trkpt><trkpt lat="46.13666623446633" lon="13.447066971158561"><ele>364.20000000000005</ele><time>2026-05-02T15:37:08.001Z</time></trkpt><trkpt lat="46.13672071058756" lon="13.447204089943405"><ele>362.0</ele><time>2026-05-02T15:37:09.001Z</time></trkpt><trkpt lat="46.13678546314509" lon="13.44735892490213"><ele>362.0</ele><time>2026-05-02T15:37:10.001Z</time></trkpt><trkpt lat="46.136812221167595" lon="13.447566175105608"><ele>362.0</ele><time>2026-05-02T15:37:11.001Z</time></trkpt><trkpt lat="46.1368558908179" lon="13.447732619287482"><ele>362.0</ele><time>2026-05-02T15:37:12.001Z</time></trkpt><trkpt lat="46.13690589402068" lon="13.447890794623198"><ele>362.0</ele><time>2026-05-02T15:37:13.001Z</time></trkpt><trkpt lat="46.13692854270301" lon="13.44803428139243"><ele>365.5</ele><time>2026-05-02T15:37:14.001Z</time></trkpt><trkpt lat="46.13693685969746" lon="13.44820436972502"><ele>369.0</ele><time>2026-05-02T15:37:15.001Z</time></trkpt><trkpt lat="46.136935883143856" lon="13.448388753744505"><ele>372.5</ele><time>2026-05-02T15:37:16.001Z</time></trkpt><trkpt lat="46.13694524771366" lon="13.448553465752855"><ele>376.0</ele><time>2026-05-02T15:37:17.001Z</time></trkpt><trkpt lat="46.136939952522404" lon="13.448720235306828"><ele>378.8</ele><time>2026-05-02T15:37:18.001Z</time></trkpt><trkpt lat="46.136932340546" lon="13.448846792931848"><ele>381.6</ele><time>2026-05-02T15:37:19.001Z</time></trkpt><trkpt lat="46.13694370410513" lon="13.448979533034759"><ele>384.4</ele><time>2026-05-02T15:37:20.001Z</time></trkpt><trkpt lat="46.136926348876344" lon="13.4491079191848"><ele>387.2</ele><time>2026-05-02T15:37:21.001Z</time></trkpt><trkpt lat="46.13689586786762" lon="13.449255660154192"><ele>390.0</ele><time>2026-05-02T15:37:22.001Z</time></trkpt><trkpt lat="46.13686018859601" lon="13.449390412619334"><ele>390.0</ele><time>2026-05-02T15:37:23.001Z</time></trkpt><trkpt lat="46.13683503632499" lon="13.44952689880037"><ele>390.0</ele><time>2026-05-02T15:37:24.001Z</time></trkpt><trkpt lat="46.13679919881257" lon="13.4496507210481"><ele>390.0</ele><time>2026-05-02T15:37:25.001Z</time></trkpt><trkpt lat="46.136763175153284" lon="13.449780121672163"><ele>390.0</ele><time>2026-05-02T15:37:26.001Z</time></trkpt><trkpt lat="46.13681277398951" lon="13.449858242660495"><ele>390.0</ele><time>2026-05-02T15:37:28.001Z</time></trkpt><trkpt lat="46.136932126073816" lon="13.449799292473573"><ele>392.5</ele><time>2026-05-02T15:37:29.001Z</time></trkpt><trkpt lat="46.13700238291831" lon="13.449808430369998"><ele>395.0</ele><time>2026-05-02T15:37:30.001Z</time></trkpt><trkpt lat="46.1371141198569" lon="13.44987129804399"><ele>397.5</ele><time>2026-05-02T15:37:31.001Z</time></trkpt><trkpt lat="46.13720500044707" lon="13.449938337713684"><ele>400.0</ele><time>2026-05-02T15:37:32.001Z</time></trkpt><trkpt lat="46.13726381794366" lon="13.44999644376439"><ele>402.5</ele><time>2026-05-02T15:37:33.001Z</time></trkpt><trkpt lat="46.13727992294833" lon="13.450116042060506"><ele>405.0</ele><time>2026-05-02T15:37:34.001Z</time></trkpt><trkpt lat="46.13725933441608" lon="13.450249826661677"><ele>405.0</ele><time>2026-05-02T15:37:35.001Z</time></trkpt><trkpt lat="46.13726180865758" lon="13.450403131547418"><ele>405.0</ele><time>2026-05-02T15:37:36.001Z</time></trkpt><trkpt lat="46.137234072619606" lon="13.450558153252118"><ele>405.0</ele><time>2026-05-02T15:37:37.001Z</time></trkpt><trkpt lat="46.13717026401297" lon="13.450725369925632"><ele>405.0</ele><time>2026-05-02T15:37:38.001Z</time></trkpt><trkpt lat="46.13707789808503" lon="13.45092634651906"><ele>408.0</ele><time>2026-05-02T15:37:39.001Z</time></trkpt><trkpt lat="46.13700881075348" lon="13.451046125796182"><ele>411.0</ele><time>2026-05-02T15:37:40.001Z</time></trkpt><trkpt lat="46.136984671095526" lon="13.45115140433751"><ele>414.0</ele><time>2026-05-02T15:37:41.001Z</time></trkpt><trkpt lat="46.1370791414676" lon="13.451243091787957"><ele>417.0</ele><time>2026-05-02T15:37:44.001Z</time></trkpt><trkpt lat="46.13716194184752" lon="13.451300530092578"><ele>420.0</ele><time>2026-05-02T15:37:46.001Z</time></trkpt><trkpt lat="46.137225787168276" lon="13.451318973101845"><ele>422.4</ele><time>2026-05-02T15:37:47.001Z</time></trkpt><trkpt lat="46.13730149057783" lon="13.451404745264343"><ele>424.8</ele><time>2026-05-02T15:37:49.001Z</time></trkpt><trkpt lat="46.13721536259466" lon="13.451491088233551"><ele>427.20000000000005</ele><time>2026-05-02T15:37:51Z</time></trkpt><trkpt lat="46.13713136227088" lon="13.451439010825323"><ele>429.6</ele><time>2026-05-02T15:37:52Z</time></trkpt><trkpt lat="46.13706227515648" lon="13.45145329666591"><ele>432.0</ele><time>2026-05-02T15:37:53Z</time></trkpt><trkpt lat="46.136940489705765" lon="13.451464939748686"><ele>432.0</ele><time>2026-05-02T15:37:54Z</time></trkpt><trkpt lat="46.13682843625925" lon="13.451454477964866"><ele>432.0</ele><time>2026-05-02T15:37:55Z</time></trkpt><trkpt lat="46.13675937268074" lon="13.45137810629787"><ele>432.0</ele><time>2026-05-02T15:37:56Z</time></trkpt><trkpt lat="46.136725528568206" lon="13.451245679522092"><ele>432.0</ele><time>2026-05-02T15:37:57Z</time></trkpt><trkpt lat="46.136726254498726" lon="13.45100744381287"><ele>433.0</ele><time>2026-05-02T15:37:58Z</time></trkpt><trkpt lat="46.13671433964528" lon="13.450855248370578"><ele>434.0</ele><time>2026-05-02T15:37:59Z</time></trkpt><trkpt lat="46.1366517350519" lon="13.450650383309176"><ele>435.0</ele><time>2026-05-02T15:38:00Z</time></trkpt><trkpt lat="46.136546702138155" lon="13.450490676529014"><ele>436.0</ele><time>2026-05-02T15:38:01Z</time></trkpt><trkpt lat="46.13642481796441" lon="13.450365828515654"><ele>436.0</ele><time>2026-05-02T15:38:02Z</time></trkpt><trkpt lat="46.13633368483214" lon="13.450220644267738"><ele>436.0</ele><time>2026-05-02T15:38:03Z</time></trkpt><trkpt lat="46.13621749742159" lon="13.450064126546481"><ele>436.0</ele><time>2026-05-02T15:38:04Z</time></trkpt><trkpt lat="46.1360979170571" lon="13.44988795602367"><ele>436.0</ele><time>2026-05-02T15:38:05Z</time></trkpt><trkpt lat="46.13601193256741" lon="13.449691436046628"><ele>436.0</ele><time>2026-05-02T15:38:06Z</time></trkpt><trkpt lat="46.13595643406014" lon="13.44952181223597"><ele>436.0</ele><time>2026-05-02T15:38:07Z</time></trkpt><trkpt lat="46.13591672624729" lon="13.449398488050498"><ele>436.0</ele><time>2026-05-02T15:38:08Z</time></trkpt><trkpt lat="46.13581430541132" lon="13.44928729953548"><ele>436.25</ele><time>2026-05-02T15:38:09Z</time></trkpt><trkpt lat="46.13569354139838" lon="13.449242407192763"><ele>436.5</ele><time>2026-05-02T15:38:10Z</time></trkpt><trkpt lat="46.13553383068417" lon="13.449175934762696"><ele>436.75</ele><time>2026-05-02T15:38:11Z</time></trkpt><trkpt lat="46.135397562536454" lon="13.449122791187166"><ele>437.0</ele><time>2026-05-02T15:38:12Z</time></trkpt><trkpt lat="46.135259403598916" lon="13.449098848892696"><ele>437.0</ele><time>2026-05-02T15:38:13Z</time></trkpt><trkpt lat="46.135146847830754" lon="13.449070017894563"><ele>437.0</ele><time>2026-05-02T15:38:14Z</time></trkpt><trkpt lat="46.13504049406027" lon="13.449082020693757"><ele>437.0</ele><time>2026-05-02T15:38:15Z</time></trkpt><trkpt lat="46.13493130919915" lon="13.44902818453682"><ele>437.0</ele><time>2026-05-02T15:38:16Z</time></trkpt><trkpt lat="46.13484662520999" lon="13.44891445362794"><ele>437.20000000000005</ele><time>2026-05-02T15:38:17Z</time></trkpt><trkpt lat="46.13476608688165" lon="13.448779469244542"><ele>437.40000000000003</ele><time>2026-05-02T15:38:18Z</time></trkpt><trkpt lat="46.13470965303869" lon="13.448630915499512"><ele>437.59999999999997</ele><time>2026-05-02T15:38:19Z</time></trkpt><trkpt lat="46.13464143501931" lon="13.448506738372194"><ele>437.79999999999995</ele><time>2026-05-02T15:38:20Z</time></trkpt><trkpt lat="46.13458451276242" lon="13.448405523114136"><ele>438.0</ele><time>2026-05-02T15:38:21Z</time></trkpt><trkpt lat="46.13451207547166" lon="13.44830286053888"><ele>438.0</ele><time>2026-05-02T15:38:22Z</time></trkpt><trkpt lat="46.13444205440361" lon="13.44822686084151"><ele>438.0</ele><time>2026-05-02T15:38:23Z</time></trkpt><trkpt lat="46.134317614740915" lon="13.448217100613403"><ele>438.0</ele><time>2026-05-02T15:38:24Z</time></trkpt><trkpt lat="46.1341703445128" lon="13.44819371458165"><ele>438.0</ele><time>2026-05-02T15:38:25Z</time></trkpt><trkpt lat="46.13403577892805" lon="13.448144417052717"><ele>440.66666666666663</ele><time>2026-05-02T15:38:26Z</time></trkpt><trkpt lat="46.13387494957568" lon="13.448063564149557"><ele>443.3333333333333</ele><time>2026-05-02T15:38:27Z</time></trkpt><trkpt lat="46.13372576925849" lon="13.447975020674226"><ele>446.0</ele><time>2026-05-02T15:38:28Z</time></trkpt><trkpt lat="46.13359433795062" lon="13.447917469170225"><ele>445.99999999999994</ele><time>2026-05-02T15:38:29Z</time></trkpt><trkpt lat="46.13349629828107" lon="13.447882895666629"><ele>446.0</ele><time>2026-05-02T15:38:30Z</time></trkpt><trkpt lat="46.133425406461235" lon="13.447874926518214"><ele>446.0</ele><time>2026-05-02T15:38:31Z</time></trkpt><trkpt lat="46.133355385652436" lon="13.44789581741915"><ele>446.0</ele><time>2026-05-02T15:38:32Z</time></trkpt><trkpt lat="46.133289832355544" lon="13.447948100304037"><ele>445.99999999999994</ele><time>2026-05-02T15:38:33Z</time></trkpt><trkpt lat="46.1332226837844" lon="13.448066036668981"><ele>446.0</ele><time>2026-05-02T15:38:34Z</time></trkpt><trkpt lat="46.13317148565756" lon="13.448184736602801"><ele>447.99999999999994</ele><time>2026-05-02T15:38:35Z</time></trkpt><trkpt lat="46.13309639291371" lon="13.448263032479977"><ele>450.0</ele><time>2026-05-02T15:38:36Z</time></trkpt><trkpt lat="46.133043553347434" lon="13.448365698024524"><ele>452.0</ele><time>2026-05-02T15:38:37Z</time></trkpt><trkpt lat="46.132992284803564" lon="13.448498823225627"><ele>454.0</ele><time>2026-05-02T15:38:38Z</time></trkpt><trkpt lat="46.132909884797044" lon="13.448558002736636"><ele>455.99999999999994</ele><time>2026-05-02T15:38:39Z</time></trkpt><trkpt lat="46.132842783655185" lon="13.448550392980744"><ele>458.0</ele><time>2026-05-02T15:38:40Z</time></trkpt><trkpt lat="46.13275115299061" lon="13.448471323060609"><ele>457.99999999999994</ele><time>2026-05-02T15:38:42Z</time></trkpt><trkpt lat="46.132704474872725" lon="13.448387266469519"><ele>458.0</ele><time>2026-05-02T15:38:43Z</time></trkpt><trkpt lat="46.13269858780825" lon="13.448204100506574"><ele>458.0</ele><time>2026-05-02T15:38:44Z</time></trkpt><trkpt lat="46.132664944773516" lon="13.44811365034124"><ele>458.0</ele><time>2026-05-02T15:38:45Z</time></trkpt><trkpt lat="46.13262356866312" lon="13.448014003786948"><ele>457.99999999999994</ele><time>2026-05-02T15:38:46Z</time></trkpt><trkpt lat="46.13257573577001" lon="13.447933398244917"><ele>458.0</ele><time>2026-05-02T15:38:47Z</time></trkpt><trkpt lat="46.13252483344644" lon="13.447854704725547"><ele>457.2</ele><time>2026-05-02T15:38:48Z</time></trkpt><trkpt lat="46.13246686824804" lon="13.447800281106895"><ele>456.4</ele><time>2026-05-02T15:38:49Z</time></trkpt><trkpt lat="46.13241837256469" lon="13.447739523164053"><ele>455.59999999999997</ele><time>2026-05-02T15:38:50Z</time></trkpt><trkpt lat="46.132332342526645" lon="13.447629828329259"><ele>454.79999999999995</ele><time>2026-05-02T15:38:52Z</time></trkpt><trkpt lat="46.132221384298106" lon="13.447529918223484"><ele>454.0</ele><time>2026-05-02T15:38:54Z</time></trkpt><trkpt lat="46.13211647122419" lon="13.447453793018287"><ele>454.0</ele><time>2026-05-02T15:38:56Z</time></trkpt><trkpt lat="46.132002413820906" lon="13.44738618420947"><ele>454.0</ele><time>2026-05-02T15:38:58Z</time></trkpt><trkpt lat="46.13189968773982" lon="13.44732013974356"><ele>454.0</ele><time>2026-05-02T15:39:00.001Z</time></trkpt><trkpt lat="46.13177781301145" lon="13.447258870946813"><ele>454.0</ele><time>2026-05-02T15:39:02.001Z</time></trkpt><trkpt lat="46.13169989805354" lon="13.447234710308262"><ele>454.0</ele><time>2026-05-02T15:39:03.001Z</time></trkpt><trkpt lat="46.13162082980838" lon="13.4472329783471"><ele>454.2</ele><time>2026-05-02T15:39:04.001Z</time></trkpt><trkpt lat="46.13153007487131" lon="13.447266592210552"><ele>454.4</ele><time>2026-05-02T15:39:05.001Z</time></trkpt><trkpt lat="46.13142818577212" lon="13.447293419175343"><ele>454.6</ele><time>2026-05-02T15:39:06.001Z</time></trkpt><trkpt lat="46.13133816238268" lon="13.447370397911454"><ele>454.8</ele><time>2026-05-02T15:39:07.001Z</time></trkpt><trkpt lat="46.13126407510081" lon="13.447447582143017"><ele>455.0</ele><time>2026-05-02T15:39:08.001Z</time></trkpt><trkpt lat="46.131200525306525" lon="13.447511577948044"><ele>454.99999999999994</ele><time>2026-05-02T15:39:09.001Z</time></trkpt><trkpt lat="46.13111421004596" lon="13.44758465091147"><ele>455.0</ele><time>2026-05-02T15:39:10.001Z</time></trkpt><trkpt lat="46.13105535566399" lon="13.447628568982728"><ele>455.0</ele><time>2026-05-02T15:39:11.001Z</time></trkpt><trkpt lat="46.13097236428343" lon="13.44766061719555"><ele>455.0</ele><time>2026-05-02T15:39:13.001Z</time></trkpt><trkpt lat="46.130891557401846" lon="13.4476728400162"><ele>454.99999999999994</ele><time>2026-05-02T15:39:18.001Z</time></trkpt><trkpt lat="46.13082773651779" lon="13.447695148013917"><ele>455.0</ele><time>2026-05-02T15:39:24.001Z</time></trkpt><trkpt lat="46.13076206799727" lon="13.447702921106169"><ele>458.42857142857144</ele><time>2026-05-02T15:39:29.001Z</time></trkpt><trkpt lat="46.13069037568831" lon="13.447720803097813"><ele>461.8571428571429</ele><time>2026-05-02T15:39:33.001Z</time></trkpt><trkpt lat="46.13062094654462" lon="13.447697600122686"><ele>465.2857142857143</ele><time>2026-05-02T15:39:37.001Z</time></trkpt><trkpt lat="46.1305645642951" lon="13.447635248739873"><ele>468.7142857142857</ele><time>2026-05-02T15:39:41.001Z</time></trkpt><trkpt lat="46.13053376196502" lon="13.447543158394353"><ele>472.14285714285717</ele><time>2026-05-02T15:39:45.001Z</time></trkpt><trkpt lat="46.13055055400944" lon="13.447432596889334"><ele>475.57142857142856</ele><time>2026-05-02T15:39:51.001Z</time></trkpt><trkpt lat="46.13055358253496" lon="13.447325732065666"><ele>479.0</ele><time>2026-05-02T15:39:54.001Z</time></trkpt><trkpt lat="46.13058492849042" lon="13.447184210039907"><ele>475.6</ele><time>2026-05-02T15:39:56.001Z</time></trkpt><trkpt lat="46.13057131501809" lon="13.446964538001918"><ele>472.2</ele><time>2026-05-02T15:39:58Z</time></trkpt><trkpt lat="46.130588884166585" lon="13.446829378624273"><ele>468.80000000000007</ele><time>2026-05-02T15:39:59Z</time></trkpt><trkpt lat="46.1305923153171" lon="13.446698389361199"><ele>465.40000000000003</ele><time>2026-05-02T15:40:00Z</time></trkpt><trkpt lat="46.1305741881962" lon="13.446573217475995"><ele>462.0</ele><time>2026-05-02T15:40:01Z</time></trkpt><trkpt lat="46.13055252458934" lon="13.446466204408932"><ele>462.0</ele><time>2026-05-02T15:40:02Z</time></trkpt><trkpt lat="46.13052383794966" lon="13.446376126738327"><ele>462.00000000000006</ele><time>2026-05-02T15:40:03Z</time></trkpt><trkpt lat="46.130440894034344" lon="13.446243914204487"><ele>462.00000000000006</ele><time>2026-05-02T15:40:04Z</time></trkpt><trkpt lat="46.13034331587035" lon="13.446192406646453"><ele>462.0</ele><time>2026-05-02T15:40:05Z</time></trkpt><trkpt lat="46.13028748281049" lon="13.446139721877083"><ele>462.0</ele><time>2026-05-02T15:40:06Z</time></trkpt><trkpt lat="46.13020007030253" lon="13.446079652502032"><ele>457.8</ele><time>2026-05-02T15:40:07Z</time></trkpt><trkpt lat="46.13009301405003" lon="13.446014420865026"><ele>453.6</ele><time>2026-05-02T15:40:08Z</time></trkpt><trkpt lat="46.12997577922018" lon="13.44598239459954"><ele>449.40000000000003</ele><time>2026-05-02T15:40:09Z</time></trkpt><trkpt lat="46.12988651737864" lon="13.445943851062369"><ele>445.20000000000005</ele><time>2026-05-02T15:40:10Z</time></trkpt><trkpt lat="46.12978854244208" lon="13.445893942909589"><ele>441.0</ele><time>2026-05-02T15:40:11Z</time></trkpt><trkpt lat="46.12970711129566" lon="13.44585998817089"><ele>440.4</ele><time>2026-05-02T15:40:12Z</time></trkpt><trkpt lat="46.129601637181814" lon="13.445834851683912"><ele>439.8</ele><time>2026-05-02T15:40:13Z</time></trkpt><trkpt lat="46.12949686978216" lon="13.445817435751371"><ele>439.19999999999993</ele><time>2026-05-02T15:40:14Z</time></trkpt><trkpt lat="46.12939576428533" lon="13.445818428664266"><ele>438.59999999999997</ele><time>2026-05-02T15:40:15Z</time></trkpt><trkpt lat="46.129288278809184" lon="13.445811464768683"><ele>438.0</ele><time>2026-05-02T15:40:16Z</time></trkpt><trkpt lat="46.129169379546404" lon="13.445793420936127"><ele>438.0</ele><time>2026-05-02T15:40:17Z</time></trkpt><trkpt lat="46.12908884265839" lon="13.445778228398114"><ele>437.99999999999994</ele><time>2026-05-02T15:40:18Z</time></trkpt><trkpt lat="46.12900514346287" lon="13.445762756330453"><ele>437.99999999999994</ele><time>2026-05-02T15:40:25Z</time></trkpt><trkpt lat="46.12890285225984" lon="13.445707817657533"><ele>438.0</ele><time>2026-05-02T15:40:29Z</time></trkpt><trkpt lat="46.12877139132422" lon="13.445681511526336"><ele>438.0</ele><time>2026-05-02T15:40:31Z</time></trkpt><trkpt lat="46.12865615667425" lon="13.44567623739934"><ele>437.75</ele><time>2026-05-02T15:40:32Z</time></trkpt><trkpt lat="46.12854591113461" lon="13.445675093178146"><ele>437.5</ele><time>2026-05-02T15:40:33Z</time></trkpt><trkpt lat="46.1284486200791" lon="13.445653252695758"><ele>437.25</ele><time>2026-05-02T15:40:34Z</time></trkpt><trkpt lat="46.128322112035306" lon="13.445611124440418"><ele>437.0</ele><time>2026-05-02T15:40:35Z</time></trkpt><trkpt lat="46.128205664810906" lon="13.4455695656791"><ele>436.99999999999994</ele><time>2026-05-02T15:40:36Z</time></trkpt><trkpt lat="46.12810776862663" lon="13.445568629255659"><ele>437.0</ele><time>2026-05-02T15:40:37Z</time></trkpt><trkpt lat="46.12801681219798" lon="13.44552101316341"><ele>437.0</ele><time>2026-05-02T15:40:38Z</time></trkpt><trkpt lat="46.127948440696024" lon="13.445508950309486"><ele>437.0</ele><time>2026-05-02T15:40:39Z</time></trkpt><trkpt lat="46.127888352682966" lon="13.445465144312717"><ele>436.99999999999994</ele><time>2026-05-02T15:40:40Z</time></trkpt><trkpt lat="46.12781439319761" lon="13.445414112742226"><ele>437.0</ele><time>2026-05-02T15:40:42Z</time></trkpt><trkpt lat="46.1277376885943" lon="13.445333183133405"><ele>433.20000000000005</ele><time>2026-05-02T15:40:44Z</time></trkpt><trkpt lat="46.12767261151256" lon="13.445283068434536"><ele>429.40000000000003</ele><time>2026-05-02T15:40:47Z</time></trkpt><trkpt lat="46.12758933344405" lon="13.4452501671607"><ele>425.6</ele><time>2026-05-02T15:40:50Z</time></trkpt><trkpt lat="46.127511570558" lon="13.44519500922376"><ele>421.79999999999995</ele><time>2026-05-02T15:40:55Z</time></trkpt><trkpt lat="46.12741817601479" lon="13.445166805241623"><ele>418.0</ele><time>2026-05-02T15:40:57Z</time></trkpt><trkpt lat="46.12732632374613" lon="13.445063069475218"><ele>418.00000000000006</ele><time>2026-05-02T15:40:59Z</time></trkpt><trkpt lat="46.12727527603748" lon="13.44499528511098"><ele>418.0</ele><time>2026-05-02T15:41:00Z</time></trkpt><trkpt lat="46.12720327552111" lon="13.444914986922782"><ele>418.0</ele><time>2026-05-02T15:41:01Z</time></trkpt><trkpt lat="46.12713410335947" lon="13.444827605779526"><ele>418.0</ele><time>2026-05-02T15:41:02Z</time></trkpt><trkpt lat="46.127071529457986" lon="13.44473263469187"><ele>418.00000000000006</ele><time>2026-05-02T15:41:03Z</time></trkpt><trkpt lat="46.127032584373175" lon="13.444629908619342"><ele>418.0</ele><time>2026-05-02T15:41:04Z</time></trkpt><trkpt lat="46.12698951815488" lon="13.444497768619515"><ele>415.2</ele><time>2026-05-02T15:41:06Z</time></trkpt><trkpt lat="46.12691303453889" lon="13.444354069594054"><ele>412.4</ele><time>2026-05-02T15:41:08Z</time></trkpt><trkpt lat="46.126867651255296" lon="13.444204694937206"><ele>409.59999999999997</ele><time>2026-05-02T15:41:10.001Z</time></trkpt><trkpt lat="46.12681868753169" lon="13.44413805970428"><ele>406.79999999999995</ele><time>2026-05-02T15:41:11.001Z</time></trkpt><trkpt lat="46.12675183917521" lon="13.444027801084376"><ele>404.0</ele><time>2026-05-02T15:41:13.001Z</time></trkpt><trkpt lat="46.126670331371464" lon="13.443974960936167"><ele>403.99999999999994</ele><time>2026-05-02T15:41:14.001Z</time></trkpt><trkpt lat="46.12656736952399" lon="13.443913940510324"><ele>404.0</ele><time>2026-05-02T15:41:16.001Z</time></trkpt><trkpt lat="46.12650408881043" lon="13.443884764128116"><ele>404.0</ele><time>2026-05-02T15:41:17.001Z</time></trkpt><trkpt lat="46.12644360759338" lon="13.443846434048405"><ele>404.0</ele><time>2026-05-02T15:41:18.001Z</time></trkpt><trkpt lat="46.126367772329" lon="13.44381441510018"><ele>403.99999999999994</ele><time>2026-05-02T15:41:19.001Z</time></trkpt><trkpt lat="46.12630181876094" lon="13.44377347177016"><ele>404.0</ele><time>2026-05-02T15:41:20.001Z</time></trkpt><trkpt lat="46.12622366253579" lon="13.443737414196933"><ele>402.25</ele><time>2026-05-02T15:41:21.001Z</time></trkpt><trkpt lat="46.126126146421505" lon="13.443631882938773"><ele>400.5</ele><time>2026-05-02T15:41:23.001Z</time></trkpt><trkpt lat="46.12602151624847" lon="13.443506615234037"><ele>398.75</ele><time>2026-05-02T15:41:25.001Z</time></trkpt><trkpt lat="46.12594461662777" lon="13.443455567340056"><ele>397.0</ele><time>2026-05-02T15:41:27.001Z</time></trkpt><trkpt lat="46.125845972167056" lon="13.443383907054988"><ele>397.00000000000006</ele><time>2026-05-02T15:41:29.001Z</time></trkpt><trkpt lat="46.12577357227547" lon="13.443275736855284"><ele>397.0</ele><time>2026-05-02T15:41:31.001Z</time></trkpt><trkpt lat="46.12572562033329" lon="13.443182353503248"><ele>397.0</ele><time>2026-05-02T15:41:33.001Z</time></trkpt><trkpt lat="46.125666793517574" lon="13.443121064718554"><ele>397.0</ele><time>2026-05-02T15:41:36.001Z</time></trkpt><trkpt lat="46.125718101361585" lon="13.44304373106556"><ele>397.00000000000006</ele><time>2026-05-02T15:43:02Z</time></trkpt><trkpt lat="46.12570189345243" lon="13.442953798748025"><ele>397.0</ele><time>2026-05-02T15:43:07Z</time></trkpt><trkpt lat="46.125658222330216" lon="13.442874603892538"><ele>398.0</ele><time>2026-05-02T15:43:08Z</time></trkpt><trkpt lat="46.125605199410565" lon="13.442719134505932"><ele>399.0</ele><time>2026-05-02T15:43:09Z</time></trkpt><trkpt lat="46.125550948949495" lon="13.442586707912637"><ele>400.0</ele><time>2026-05-02T15:43:10Z</time></trkpt><trkpt lat="46.125499151634756" lon="13.4424480663072"><ele>401.0</ele><time>2026-05-02T15:43:11Z</time></trkpt><trkpt lat="46.12546196088114" lon="13.44233409840447"><ele>402.0</ele><time>2026-05-02T15:43:12Z</time></trkpt><trkpt lat="46.125441208086094" lon="13.442180695224573"><ele>402.6</ele><time>2026-05-02T15:43:14.001Z</time></trkpt><trkpt lat="46.12544285168571" lon="13.442080250707285"><ele>403.20000000000005</ele><time>2026-05-02T15:43:15.001Z</time></trkpt><trkpt lat="46.12543136229062" lon="13.441933256497245"><ele>403.8</ele><time>2026-05-02T15:43:17.001Z</time></trkpt><trkpt lat="46.125407238799866" lon="13.441770219048784"><ele>404.4</ele><time>2026-05-02T15:43:19.001Z</time></trkpt><trkpt lat="46.12536977819416" lon="13.441594910143431"><ele>405.0</ele><time>2026-05-02T15:43:21.001Z</time></trkpt><trkpt lat="46.125345715667514" lon="13.44149452052113"><ele>405.0</ele><time>2026-05-02T15:43:23.001Z</time></trkpt><trkpt lat="46.125288023980914" lon="13.441368348056509"><ele>405.0</ele><time>2026-05-02T15:43:25.001Z</time></trkpt><trkpt lat="46.125256488848144" lon="13.441224179851998"><ele>405.0</ele><time>2026-05-02T15:43:27.001Z</time></trkpt><trkpt lat="46.12521797217564" lon="13.441115519907266"><ele>405.0</ele><time>2026-05-02T15:43:28.001Z</time></trkpt><trkpt lat="46.125176680272105" lon="13.440990936190783"><ele>405.0</ele><time>2026-05-02T15:43:29.001Z</time></trkpt><trkpt lat="46.12519846099153" lon="13.44085063836102"><ele>403.1666666666667</ele><time>2026-05-02T15:43:30.001Z</time></trkpt><trkpt lat="46.125270487827876" lon="13.440710968919692"><ele>401.33333333333337</ele><time>2026-05-02T15:43:31.001Z</time></trkpt><trkpt lat="46.125305148253716" lon="13.440597333642069"><ele>399.5</ele><time>2026-05-02T15:43:32.001Z</time></trkpt><trkpt lat="46.12533344354226" lon="13.440483593355069"><ele>397.6666666666667</ele><time>2026-05-02T15:43:33.001Z</time></trkpt><trkpt lat="46.125347271894434" lon="13.440377826497883"><ele>395.83333333333337</ele><time>2026-05-02T15:43:34.001Z</time></trkpt><trkpt lat="46.12536560802149" lon="13.440276827626516"><ele>394.0</ele><time>2026-05-02T15:43:35.001Z</time></trkpt><trkpt lat="46.12535230434441" lon="13.440184652456686"><ele>391.79999999999995</ele><time>2026-05-02T15:43:36.001Z</time></trkpt><trkpt lat="46.125358919990376" lon="13.440092994462022"><ele>389.59999999999997</ele><time>2026-05-02T15:43:37.001Z</time></trkpt><trkpt lat="46.12531773638772" lon="13.439908739120543"><ele>387.4</ele><time>2026-05-02T15:43:39.001Z</time></trkpt><trkpt lat="46.12527291999311" lon="13.439822834847945"><ele>385.2</ele><time>2026-05-02T15:43:40.001Z</time></trkpt><trkpt lat="46.12523797745418" lon="13.439738008981468"><ele>383.0</ele><time>2026-05-02T15:43:41.001Z</time></trkpt><trkpt lat="46.12515022759694" lon="13.439627390752198"><ele>380.0</ele><time>2026-05-02T15:43:43.001Z</time></trkpt><trkpt lat="46.125103492034974" lon="13.43954009292464"><ele>377.0</ele><time>2026-05-02T15:44:02.001Z</time></trkpt><trkpt lat="46.12498945219067" lon="13.43939815681592"><ele>374.0</ele><time>2026-05-02T15:44:04.001Z</time></trkpt><trkpt lat="46.12494413282394" lon="13.439293750454972"><ele>371.0</ele><time>2026-05-02T15:44:05.001Z</time></trkpt><trkpt lat="46.124882931058195" lon="13.439190102026444"><ele>368.0</ele><time>2026-05-02T15:44:06.001Z</time></trkpt><trkpt lat="46.12483066604287" lon="13.4391025311693"><ele>367.5714285714286</ele><time>2026-05-02T15:44:07.001Z</time></trkpt><trkpt lat="46.12479292722632" lon="13.439014994296894"><ele>367.1428571428571</ele><time>2026-05-02T15:44:08.001Z</time></trkpt><trkpt lat="46.12475839077823" lon="13.438934984640374"><ele>366.7142857142857</ele><time>2026-05-02T15:44:09Z</time></trkpt><trkpt lat="46.12474182998437" lon="13.438821115987112"><ele>366.28571428571433</ele><time>2026-05-02T15:44:10Z</time></trkpt><trkpt lat="46.1247490563673" lon="13.438717473867168"><ele>365.8571428571429</ele><time>2026-05-02T15:44:11Z</time></trkpt><trkpt lat="46.12473120382442" lon="13.438629201951896"><ele>365.42857142857144</ele><time>2026-05-02T15:44:12Z</time></trkpt><trkpt lat="46.12465692271396" lon="13.438580284036595"><ele>365.0</ele><time>2026-05-02T15:44:13Z</time></trkpt><trkpt lat="46.12458835143702" lon="13.43855026446496"><ele>361.0</ele><time>2026-05-02T15:44:14Z</time></trkpt><trkpt lat="46.12447611201578" lon="13.438539297081617"><ele>357.0</ele><time>2026-05-02T15:44:16Z</time></trkpt><trkpt lat="46.124365737008375" lon="13.438547332147591"><ele>353.0</ele><time>2026-05-02T15:44:18Z</time></trkpt><trkpt lat="46.12430409449946" lon="13.438579558951687"><ele>349.0</ele><time>2026-05-02T15:44:19Z</time></trkpt><trkpt lat="46.12422399278066" lon="13.438622941259046"><ele>345.0</ele><time>2026-05-02T15:44:20Z</time></trkpt><trkpt lat="46.12413899465173" lon="13.43865632043339"><ele>345.0</ele><time>2026-05-02T15:44:21Z</time></trkpt><trkpt lat="46.1240755972423" lon="13.438719905859982"><ele>345.0</ele><time>2026-05-02T15:44:22Z</time></trkpt><trkpt lat="46.12403280272635" lon="13.438814965328952"><ele>345.0</ele><time>2026-05-02T15:44:23Z</time></trkpt><trkpt lat="46.12392951387303" lon="13.438920826657728"><ele>345.0</ele><time>2026-05-02T15:44:25Z</time></trkpt><trkpt lat="46.123868078477884" lon="13.4389506450166"><ele>345.0</ele><time>2026-05-02T15:44:26Z</time></trkpt><trkpt lat="46.12374708919652" lon="13.43896973138063"><ele>346.3333333333333</ele><time>2026-05-02T15:44:28Z</time></trkpt><trkpt lat="46.12368126410279" lon="13.438977459796856"><ele>347.6666666666667</ele><time>2026-05-02T15:44:29Z</time></trkpt><trkpt lat="46.12361569985635" lon="13.438979730945526"><ele>349.0</ele><time>2026-05-02T15:44:30Z</time></trkpt><trkpt lat="46.12354517835572" lon="13.438999697222329"><ele>350.33333333333337</ele><time>2026-05-02T15:44:31Z</time></trkpt><trkpt lat="46.12346682721025" lon="13.43898727957031"><ele>351.6666666666667</ele><time>2026-05-02T15:44:32Z</time></trkpt><trkpt lat="46.1233743509256" lon="13.438951662574256"><ele>353.0</ele><time>2026-05-02T15:44:33Z</time></trkpt><trkpt lat="46.12329003934126" lon="13.438942707147111"><ele>353.4</ele><time>2026-05-02T15:44:34Z</time></trkpt><trkpt lat="46.12321802664697" lon="13.438925928660892"><ele>353.79999999999995</ele><time>2026-05-02T15:44:35Z</time></trkpt><trkpt lat="46.12315307699617" lon="13.438935292522467"><ele>354.2</ele><time>2026-05-02T15:44:36Z</time></trkpt><trkpt lat="46.123072600391104" lon="13.438922565406148"><ele>354.6</ele><time>2026-05-02T15:44:37Z</time></trkpt><trkpt lat="46.1229574976507" lon="13.438924240403791"><ele>355.0</ele><time>2026-05-02T15:44:39Z</time></trkpt><trkpt lat="46.12284554043342" lon="13.438822632774187"><ele>350.0</ele><time>2026-05-02T15:44:41Z</time></trkpt><trkpt lat="46.12272135243553" lon="13.438787181390861"><ele>345.0</ele><time>2026-05-02T15:44:43Z</time></trkpt><trkpt lat="46.12259479630548" lon="13.438774631383245"><ele>340.0</ele><time>2026-05-02T15:44:45Z</time></trkpt><trkpt lat="46.12252876985363" lon="13.438768205046946"><ele>335.0</ele><time>2026-05-02T15:44:46Z</time></trkpt><trkpt lat="46.12246038956751" lon="13.438758728651504"><ele>330.0</ele><time>2026-05-02T15:44:47Z</time></trkpt><trkpt lat="46.12239081277134" lon="13.438759550399151"><ele>329.2</ele><time>2026-05-02T15:44:48Z</time></trkpt><trkpt lat="46.122302840962405" lon="13.438744080318738"><ele>328.4</ele><time>2026-05-02T15:44:49Z</time></trkpt><trkpt lat="46.122221414649765" lon="13.438705277955416"><ele>327.6</ele><time>2026-05-02T15:44:50Z</time></trkpt><trkpt lat="46.122143866375424" lon="13.43867716022486"><ele>326.8</ele><time>2026-05-02T15:44:51Z</time></trkpt><trkpt lat="46.122069068249395" lon="13.438641938021004"><ele>326.0</ele><time>2026-05-02T15:44:52Z</time></trkpt><trkpt lat="46.121931225077574" lon="13.438619333611669"><ele>326.0</ele><time>2026-05-02T15:44:54Z</time></trkpt><trkpt lat="46.12186068914721" lon="13.438627100536483"><ele>326.0</ele><time>2026-05-02T15:44:55Z</time></trkpt><trkpt lat="46.121786114592595" lon="13.438617953803961"><ele>326.0</ele><time>2026-05-02T15:44:56Z</time></trkpt><trkpt lat="46.12170689030576" lon="13.43866016582738"><ele>326.0</ele><time>2026-05-02T15:44:57Z</time></trkpt><trkpt lat="46.12163788467323" lon="13.438647982625398"><ele>326.0</ele><time>2026-05-02T15:44:58Z</time></trkpt><trkpt lat="46.12153151008974" lon="13.438574455592855"><ele>326.0</ele><time>2026-05-02T15:45:00Z</time></trkpt><trkpt lat="46.12147925435257" lon="13.438507914677396"><ele>328.0</ele><time>2026-05-02T15:45:01Z</time></trkpt><trkpt lat="46.12137978705083" lon="13.438469494336632"><ele>330.0</ele><time>2026-05-02T15:45:03Z</time></trkpt><trkpt lat="46.12128122084579" lon="13.438478534868844"><ele>332.0</ele><time>2026-05-02T15:45:05Z</time></trkpt><trkpt lat="46.12114972688689" lon="13.438456728208333"><ele>334.0</ele><time>2026-05-02T15:45:07Z</time></trkpt><trkpt lat="46.12103777138031" lon="13.438336937189376"><ele>334.0</ele><time>2026-05-02T15:45:09Z</time></trkpt><trkpt lat="46.1209926214955" lon="13.438249158959335"><ele>334.0</ele><time>2026-05-02T15:45:10Z</time></trkpt><trkpt lat="46.120987884854664" lon="13.438123444223992"><ele>334.0</ele><time>2026-05-02T15:45:11Z</time></trkpt><trkpt lat="46.12088781161093" lon="13.438033767048564"><ele>334.0</ele><time>2026-05-02T15:45:13Z</time></trkpt><trkpt lat="46.120791641983615" lon="13.438018316556404"><ele>334.0</ele><time>2026-05-02T15:45:15Z</time></trkpt><trkpt lat="46.12069795122962" lon="13.4380552897682"><ele>334.4</ele><time>2026-05-02T15:45:17Z</time></trkpt><trkpt lat="46.120603189581644" lon="13.438001181389915"><ele>334.79999999999995</ele><time>2026-05-02T15:45:19Z</time></trkpt><trkpt lat="46.12052364946864" lon="13.437882223319747"><ele>335.20000000000005</ele><time>2026-05-02T15:45:21.001Z</time></trkpt><trkpt lat="46.12050439749075" lon="13.437776114384686"><ele>335.6</ele><time>2026-05-02T15:45:22.001Z</time></trkpt><trkpt lat="46.120506339172316" lon="13.437598343342462"><ele>336.0</ele><time>2026-05-02T15:45:24.001Z</time></trkpt><trkpt lat="46.1205696593087" lon="13.437675333855136"><ele>336.0</ele><time>2026-05-02T15:45:25.001Z</time></trkpt><trkpt lat="46.12055718864165" lon="13.43757874948357"><ele>336.0</ele><time>2026-05-02T15:45:27.001Z</time></trkpt><trkpt lat="46.120569476399695" lon="13.43746690269353"><ele>336.0</ele><time>2026-05-02T15:45:29.001Z</time></trkpt><trkpt lat="46.12054250366806" lon="13.437364761375157"><ele>336.0</ele><time>2026-05-02T15:45:30.001Z</time></trkpt><trkpt lat="46.12059055248959" lon="13.437262351144046"><ele>336.0</ele><time>2026-05-02T15:45:32.001Z</time></trkpt><trkpt lat="46.12060912516794" lon="13.437156461106822"><ele>336.0</ele><time>2026-05-02T15:45:35.001Z</time></trkpt><trkpt lat="46.120643291594256" lon="13.437053986946669"><ele>332.6</ele><time>2026-05-02T15:45:37.001Z</time></trkpt><trkpt lat="46.12065531738822" lon="13.436912293055865"><ele>329.20000000000005</ele><time>2026-05-02T15:45:38.001Z</time></trkpt><trkpt lat="46.120640230082415" lon="13.436782589976126"><ele>325.79999999999995</ele><time>2026-05-02T15:45:39.001Z</time></trkpt><trkpt lat="46.12058186233594" lon="13.43664497608824"><ele>322.4</ele><time>2026-05-02T15:45:40.001Z</time></trkpt><trkpt lat="46.12051400009113" lon="13.436521712078983"><ele>319.0</ele><time>2026-05-02T15:45:41.001Z</time></trkpt><trkpt lat="46.12040934478872" lon="13.436391401210347"><ele>319.0</ele><time>2026-05-02T15:45:42.001Z</time></trkpt><trkpt lat="46.12032767948254" lon="13.436320333043742"><ele>319.0</ele><time>2026-05-02T15:45:43.001Z</time></trkpt><trkpt lat="46.12021140582757" lon="13.436218937569098"><ele>319.0</ele><time>2026-05-02T15:45:44.001Z</time></trkpt><trkpt lat="46.12013425378595" lon="13.436168313715761"><ele>319.0</ele><time>2026-05-02T15:45:45.001Z</time></trkpt><trkpt lat="46.12004041309823" lon="13.43617858495382"><ele>319.0</ele><time>2026-05-02T15:45:46.001Z</time></trkpt><trkpt lat="46.119963688362105" lon="13.436181339209964"><ele>312.2</ele><time>2026-05-02T15:45:47.001Z</time></trkpt><trkpt lat="46.11986946767021" lon="13.436200906763284"><ele>305.4</ele><time>2026-05-02T15:45:48.001Z</time></trkpt><trkpt lat="46.119734391840616" lon="13.436209310410366"><ele>298.6</ele><time>2026-05-02T15:45:49.001Z</time></trkpt><trkpt lat="46.11962092206687" lon="13.436193040269828"><ele>291.8</ele><time>2026-05-02T15:45:50.001Z</time></trkpt><trkpt lat="46.11953386105968" lon="13.436194325420825"><ele>285.0</ele><time>2026-05-02T15:45:51.001Z</time></trkpt><trkpt lat="46.11944625868393" lon="13.436211041526015"><ele>285.0</ele><time>2026-05-02T15:45:52.001Z</time></trkpt><trkpt lat="46.119363217739014" lon="13.436236304241891"><ele>285.0</ele><time>2026-05-02T15:45:53.001Z</time></trkpt><trkpt lat="46.11929066320906" lon="13.436251647339212"><ele>285.0</ele><time>2026-05-02T15:45:54.001Z</time></trkpt><trkpt lat="46.11922534229688" lon="13.436279635344873"><ele>285.0</ele><time>2026-05-02T15:45:55.001Z</time></trkpt><trkpt lat="46.11915566041491" lon="13.436300939892114"><ele>285.0</ele><time>2026-05-02T15:45:56.001Z</time></trkpt><trkpt lat="46.119044314064894" lon="13.436354282737392"><ele>285.0</ele><time>2026-05-02T15:45:58.001Z</time></trkpt><trkpt lat="46.1189296766461" lon="13.43639261260755"><ele>286.4</ele><time>2026-05-02T15:46:00.001Z</time></trkpt><trkpt lat="46.11885590873961" lon="13.436393069075946"><ele>287.8</ele><time>2026-05-02T15:46:01.001Z</time></trkpt><trkpt lat="46.11874884459375" lon="13.436442525697545"><ele>289.2</ele><time>2026-05-02T15:46:03.001Z</time></trkpt><trkpt lat="46.11865320410449" lon="13.436531059770758"><ele>290.6</ele><time>2026-05-02T15:46:05.001Z</time></trkpt><trkpt lat="46.11855186967427" lon="13.436586366517213"><ele>292.0</ele><time>2026-05-02T15:46:07.001Z</time></trkpt><trkpt lat="46.118439253344334" lon="13.436598351512512"><ele>292.0</ele><time>2026-05-02T15:46:09.001Z</time></trkpt><trkpt lat="46.118367277440214" lon="13.436587078109042"><ele>292.0</ele><time>2026-05-02T15:46:11.001Z</time></trkpt><trkpt lat="46.11826591986017" lon="13.436542020707135"><ele>292.0</ele><time>2026-05-02T15:46:13.001Z</time></trkpt><trkpt lat="46.11817368895216" lon="13.436495980575625"><ele>292.0</ele><time>2026-05-02T15:46:15Z</time></trkpt><trkpt lat="46.11807874192393" lon="13.436459188255645"><ele>292.0</ele><time>2026-05-02T15:46:17Z</time></trkpt><trkpt lat="46.1180149836967" lon="13.436426524370882"><ele>292.0</ele><time>2026-05-02T15:46:18Z</time></trkpt><trkpt lat="46.11791273226476" lon="13.436354621549253"><ele>289.66666666666663</ele><time>2026-05-02T15:46:20Z</time></trkpt><trkpt lat="46.11784819656503" lon="13.436291940768935"><ele>287.3333333333333</ele><time>2026-05-02T15:46:21Z</time></trkpt><trkpt lat="46.117782595412315" lon="13.436272662113165"><ele>285.0</ele><time>2026-05-02T15:46:22Z</time></trkpt><trkpt lat="46.11769923319857" lon="13.436231988667103"><ele>282.6666666666667</ele><time>2026-05-02T15:46:24Z</time></trkpt><trkpt lat="46.11758478540437" lon="13.436192167823098"><ele>280.33333333333337</ele><time>2026-05-02T15:47:42.001Z</time></trkpt><trkpt lat="46.11751143344723" lon="13.436229202529729"><ele>278.0</ele><time>2026-05-02T15:47:43.001Z</time></trkpt><trkpt lat="46.11742314915822" lon="13.436225555297323"><ele>280.33333333333337</ele><time>2026-05-02T15:47:44.001Z</time></trkpt><trkpt lat="46.117343680457445" lon="13.436215750686905"><ele>282.6666666666667</ele><time>2026-05-02T15:47:45.001Z</time></trkpt><trkpt lat="46.117280492621596" lon="13.436171563537009"><ele>285.0</ele><time>2026-05-02T15:47:46.001Z</time></trkpt><trkpt lat="46.117206410825084" lon="13.436062901615292"><ele>287.3333333333333</ele><time>2026-05-02T15:47:47.001Z</time></trkpt><trkpt lat="46.1171396566815" lon="13.435971469171966"><ele>289.66666666666663</ele><time>2026-05-02T15:47:48.001Z</time></trkpt><trkpt lat="46.11706910056228" lon="13.435882499655545"><ele>292.0</ele><time>2026-05-02T15:47:49.001Z</time></trkpt><trkpt lat="46.11700184258522" lon="13.43576499914423"><ele>292.0</ele><time>2026-05-02T15:47:50.001Z</time></trkpt><trkpt lat="46.116968190948135" lon="13.435672579491774"><ele>292.0</ele><time>2026-05-02T15:47:51.001Z</time></trkpt><trkpt lat="46.116931029868546" lon="13.43557299483804"><ele>292.0</ele><time>2026-05-02T15:47:52.001Z</time></trkpt><trkpt lat="46.11687523615613" lon="13.435486621836022"><ele>292.0</ele><time>2026-05-02T15:47:53.001Z</time></trkpt><trkpt lat="46.11677882852985" lon="13.43541537527496"><ele>292.0</ele><time>2026-05-02T15:47:54.001Z</time></trkpt><trkpt lat="46.116694904368906" lon="13.435339977560705"><ele>292.0</ele><time>2026-05-02T15:47:55.001Z</time></trkpt><trkpt lat="46.1165930027262" lon="13.435290351676128"><ele>292.6</ele><time>2026-05-02T15:47:56.001Z</time></trkpt><trkpt lat="46.11651538182755" lon="13.435205193768684"><ele>293.2</ele><time>2026-05-02T15:47:57.001Z</time></trkpt><trkpt lat="46.1164365155624" lon="13.43512990338889"><ele>293.8</ele><time>2026-05-02T15:47:58.001Z</time></trkpt><trkpt lat="46.116350854046786" lon="13.435078791004965"><ele>294.4</ele><time>2026-05-02T15:47:59.001Z</time></trkpt><trkpt lat="46.11627129353795" lon="13.435007062047834"><ele>295.0</ele><time>2026-05-02T15:48:00.001Z</time></trkpt><trkpt lat="46.11618133803748" lon="13.434962760230354"><ele>295.0</ele><time>2026-05-02T15:48:01.001Z</time></trkpt><trkpt lat="46.11608646598799" lon="13.434906628159712"><ele>295.0</ele><time>2026-05-02T15:48:02.001Z</time></trkpt><trkpt lat="46.11600257008066" lon="13.434833832560676"><ele>295.0</ele><time>2026-05-02T15:48:03.001Z</time></trkpt><trkpt lat="46.11591783116475" lon="13.434762046347222"><ele>295.0</ele><time>2026-05-02T15:48:04.001Z</time></trkpt><trkpt lat="46.11583899198943" lon="13.434663300690458"><ele>295.0</ele><time>2026-05-02T15:48:05.001Z</time></trkpt><trkpt lat="46.115786806053045" lon="13.434522091183615"><ele>292.0</ele><time>2026-05-02T15:48:06.001Z</time></trkpt><trkpt lat="46.11573923704802" lon="13.43436617790909"><ele>289.0</ele><time>2026-05-02T15:48:07.001Z</time></trkpt><trkpt lat="46.115692989364824" lon="13.43421209905933"><ele>286.0</ele><time>2026-05-02T15:48:08.001Z</time></trkpt><trkpt lat="46.11565265048988" lon="13.434039941764281"><ele>283.0</ele><time>2026-05-02T15:48:09.001Z</time></trkpt><trkpt lat="46.115613927853175" lon="13.433884913137335"><ele>285.8</ele><time>2026-05-02T15:48:10.001Z</time></trkpt><trkpt lat="46.11560310316818" lon="13.43373262568069"><ele>288.6</ele><time>2026-05-02T15:48:11.001Z</time></trkpt><trkpt lat="46.11558238326792" lon="13.433608601860998"><ele>291.4</ele><time>2026-05-02T15:48:12.001Z</time></trkpt><trkpt lat="46.11555483636684" lon="13.433488583035878"><ele>294.2</ele><time>2026-05-02T15:48:13.001Z</time></trkpt><trkpt lat="46.11554516655859" lon="13.433375109414808"><ele>297.0</ele><time>2026-05-02T15:48:14.001Z</time></trkpt><trkpt lat="46.11547118467163" lon="13.433302376838931"><ele>297.0</ele><time>2026-05-02T15:48:15.001Z</time></trkpt><trkpt lat="46.11533636046503" lon="13.433266687276253"><ele>297.0</ele><time>2026-05-02T15:48:16.001Z</time></trkpt><trkpt lat="46.11523155961698" lon="13.43322615082931"><ele>297.0</ele><time>2026-05-02T15:48:17.001Z</time></trkpt><trkpt lat="46.11515108859782" lon="13.433183157146969"><ele>297.0</ele><time>2026-05-02T15:48:18.001Z</time></trkpt><trkpt lat="46.115078341607095" lon="13.433088650908774"><ele>297.0</ele><time>2026-05-02T15:48:19.001Z</time></trkpt><trkpt lat="46.11502673364174" lon="13.432982991197"><ele>292.25</ele><time>2026-05-02T15:48:20.001Z</time></trkpt><trkpt lat="46.11496831099122" lon="13.432847493680114"><ele>287.5</ele><time>2026-05-02T15:48:21Z</time></trkpt><trkpt lat="46.11496498821045" lon="13.432667860594762"><ele>282.75</ele><time>2026-05-02T15:48:22Z</time></trkpt><trkpt lat="46.114948716202456" lon="13.432496217222088"><ele>278.0</ele><time>2026-05-02T15:48:23Z</time></trkpt><trkpt lat="46.11494810336279" lon="13.432343922980396"><ele>278.0</ele><time>2026-05-02T15:48:24Z</time></trkpt><trkpt lat="46.11492069337605" lon="13.432205344606846"><ele>278.0</ele><time>2026-05-02T15:48:25Z</time></trkpt><trkpt lat="46.11487451688266" lon="13.432106419262967"><ele>278.0</ele><time>2026-05-02T15:48:26Z</time></trkpt><trkpt lat="46.1148428376061" lon="13.431994127892438"><ele>278.0</ele><time>2026-05-02T15:48:27Z</time></trkpt><trkpt lat="46.11481977979107" lon="13.431886879112177"><ele>278.0</ele><time>2026-05-02T15:48:28Z</time></trkpt><trkpt lat="46.11478899042321" lon="13.431774171519338"><ele>278.0</ele><time>2026-05-02T15:48:29Z</time></trkpt><trkpt lat="46.11479640244164" lon="13.431645758003082"><ele>279.6</ele><time>2026-05-02T15:48:30Z</time></trkpt><trkpt lat="46.11481530296467" lon="13.431456271534193"><ele>281.20000000000005</ele><time>2026-05-02T15:48:32Z</time></trkpt><trkpt lat="46.1148621301794" lon="13.4313335555933"><ele>282.8</ele><time>2026-05-02T15:48:33Z</time></trkpt><trkpt lat="46.114943436028334" lon="13.431232355653071"><ele>284.40000000000003</ele><time>2026-05-02T15:48:34Z</time></trkpt><trkpt lat="46.114973165384555" lon="13.431115567787238"><ele>286.0</ele><time>2026-05-02T15:48:35Z</time></trkpt><trkpt lat="46.115009476008886" lon="13.430990958628232"><ele>282.8333333333333</ele><time>2026-05-02T15:48:36Z</time></trkpt><trkpt lat="46.11501270476231" lon="13.430843284597186"><ele>279.66666666666663</ele><time>2026-05-02T15:48:37Z</time></trkpt><trkpt lat="46.11501888650577" lon="13.430707531199229"><ele>276.5</ele><time>2026-05-02T15:48:38Z</time></trkpt><trkpt lat="46.11503657921822" lon="13.430583366990161"><ele>273.3333333333333</ele><time>2026-05-02T15:48:39Z</time></trkpt><trkpt lat="46.11505245445504" lon="13.430469665431502"><ele>270.1666666666667</ele><time>2026-05-02T15:48:40Z</time></trkpt><trkpt lat="46.115062282116135" lon="13.43037628863389"><ele>267.0</ele><time>2026-05-02T15:48:41Z</time></trkpt><trkpt lat="46.11496576863436" lon="13.430215149044074"><ele>264.6</ele><time>2026-05-02T15:48:43Z</time></trkpt><trkpt lat="46.114891254590006" lon="13.430155306678044"><ele>262.2</ele><time>2026-05-02T15:48:44Z</time></trkpt><trkpt lat="46.11479394145523" lon="13.430140793404908"><ele>259.8</ele><time>2026-05-02T15:48:45Z</time></trkpt><trkpt lat="46.1146786289144" lon="13.43016268723168"><ele>257.4</ele><time>2026-05-02T15:48:46Z</time></trkpt><trkpt lat="46.11459461261062" lon="13.430200117434755"><ele>255.0</ele><time>2026-05-02T15:48:47Z</time></trkpt><trkpt lat="46.11450998331363" lon="13.430221943684703"><ele>255.0</ele><time>2026-05-02T15:48:48Z</time></trkpt><trkpt lat="46.11443613382427" lon="13.430234843918424"><ele>255.0</ele><time>2026-05-02T15:48:49Z</time></trkpt><trkpt lat="46.1143560326813" lon="13.430240977481034"><ele>255.0</ele><time>2026-05-02T15:48:50Z</time></trkpt><trkpt lat="46.11428465941966" lon="13.430370372057444"><ele>255.0</ele><time>2026-05-02T15:48:52Z</time></trkpt><trkpt lat="46.1142010284653" lon="13.430468898279283"><ele>255.0</ele><time>2026-05-02T15:48:54Z</time></trkpt><trkpt lat="46.11413087738222" lon="13.430602273858032"><ele>254.33333333333334</ele><time>2026-05-02T15:48:56Z</time></trkpt><trkpt lat="46.114070910350826" lon="13.430688590151945"><ele>253.66666666666669</ele><time>2026-05-02T15:48:58Z</time></trkpt><trkpt lat="46.11403897166918" lon="13.43078204768249"><ele>253.0</ele><time>2026-05-02T15:49:00Z</time></trkpt><trkpt lat="46.11397867315169" lon="13.430913825873965"><ele>252.33333333333334</ele><time>2026-05-02T15:49:02Z</time></trkpt><trkpt lat="46.11389894043603" lon="13.430993964957295"><ele>251.66666666666669</ele><time>2026-05-02T15:49:04Z</time></trkpt><trkpt lat="46.11382675839343" lon="13.431051807139953"><ele>251.0</ele><time>2026-05-02T15:49:06Z</time></trkpt><trkpt lat="46.113752760444214" lon="13.431087047803668"><ele>251.00000000000003</ele><time>2026-05-02T15:49:08Z</time></trkpt><trkpt lat="46.11366936734566" lon="13.431085910476092"><ele>251.0</ele><time>2026-05-02T15:49:11Z</time></trkpt><trkpt lat="46.113590415906124" lon="13.43110680180853"><ele>251.0</ele><time>2026-05-02T15:49:13Z</time></trkpt><trkpt lat="46.113532042746854" lon="13.431147826124423"><ele>251.0</ele><time>2026-05-02T15:49:15Z</time></trkpt><trkpt lat="46.11343520350168" lon="13.431195082107543"><ele>251.00000000000003</ele><time>2026-05-02T15:49:18Z</time></trkpt><trkpt lat="46.11334916939094" lon="13.431209186087322"><ele>251.0</ele><time>2026-05-02T15:49:21Z</time></trkpt><trkpt lat="46.1132704228207" lon="13.431161257600778"><ele>250.8</ele><time>2026-05-02T15:49:23Z</time></trkpt><trkpt lat="46.113198689768296" lon="13.43106522645589"><ele>250.60000000000002</ele><time>2026-05-02T15:49:25Z</time></trkpt><trkpt lat="46.113121989105615" lon="13.430957476369315"><ele>250.4</ele><time>2026-05-02T15:49:27Z</time></trkpt><trkpt lat="46.11305418272184" lon="13.430928384172418"><ele>250.2</ele><time>2026-05-02T15:49:28Z</time></trkpt><trkpt lat="46.11299637052391" lon="13.43088799831752"><ele>250.0</ele><time>2026-05-02T15:49:29Z</time></trkpt><trkpt lat="46.11286156535294" lon="13.43084420667735"><ele>250.0</ele><time>2026-05-02T15:49:31Z</time></trkpt><trkpt lat="46.112787466066415" lon="13.430847872473263"><ele>250.0</ele><time>2026-05-02T15:49:32.001Z</time></trkpt><trkpt lat="46.11272470207834" lon="13.430882656605005"><ele>250.0</ele><time>2026-05-02T15:49:33.001Z</time></trkpt><trkpt lat="46.11264772304601" lon="13.430902034516203"><ele>250.0</ele><time>2026-05-02T15:49:34.001Z</time></trkpt><trkpt lat="46.11254190557969" lon="13.43088792197708"><ele>250.0</ele><time>2026-05-02T15:49:36.001Z</time></trkpt><trkpt lat="46.112430587562734" lon="13.43077614996118"><ele>248.99999999999997</ele><time>2026-05-02T15:49:38.001Z</time></trkpt><trkpt lat="46.112351151234904" lon="13.430662278785324"><ele>248.0</ele><time>2026-05-02T15:49:40.001Z</time></trkpt><trkpt lat="46.11231068401914" lon="13.4305878236651"><ele>247.0</ele><time>2026-05-02T15:49:41.001Z</time></trkpt><trkpt lat="46.11229004285045" lon="13.430498321272898"><ele>246.0</ele><time>2026-05-02T15:49:42.001Z</time></trkpt><trkpt lat="46.1122237725568" lon="13.430379147219039"><ele>244.99999999999997</ele><time>2026-05-02T15:49:44.001Z</time></trkpt><trkpt lat="46.11214368495698" lon="13.430312371225845"><ele>244.0</ele><time>2026-05-02T15:49:46.001Z</time></trkpt><trkpt lat="46.11207625735464" lon="13.430248383167863"><ele>244.0</ele><time>2026-05-02T15:49:48.001Z</time></trkpt><trkpt lat="46.11199903547616" lon="13.430152892050033"><ele>243.99999999999997</ele><time>2026-05-02T15:49:50.001Z</time></trkpt><trkpt lat="46.11190935518056" lon="13.430044338538648"><ele>243.99999999999997</ele><time>2026-05-02T15:49:52.001Z</time></trkpt><trkpt lat="46.111833148922166" lon="13.429959529823265"><ele>244.0</ele><time>2026-05-02T15:49:54.001Z</time></trkpt><trkpt lat="46.11176381650409" lon="13.4298442471092"><ele>244.0</ele><time>2026-05-02T15:49:56.001Z</time></trkpt><trkpt lat="46.111692130278556" lon="13.429730984427867"><ele>244.0</ele><time>2026-05-02T15:49:58.001Z</time></trkpt><trkpt lat="46.11161490813198" lon="13.429646571464566"><ele>243.99999999999997</ele><time>2026-05-02T15:50:00.001Z</time></trkpt><trkpt lat="46.111535589810984" lon="13.429598107024017"><ele>243.99999999999997</ele><time>2026-05-02T15:50:02.001Z</time></trkpt><trkpt lat="46.111437902938896" lon="13.429501337883721"><ele>244.0</ele><time>2026-05-02T15:50:04.001Z</time></trkpt><trkpt lat="46.1113583382209" lon="13.429452366199186"><ele>244.0</ele><time>2026-05-02T15:50:06.001Z</time></trkpt><trkpt lat="46.11128942181792" lon="13.429413022461393"><ele>243.16666666666666</ele><time>2026-05-02T15:50:08.001Z</time></trkpt><trkpt lat="46.11122675982648" lon="13.429403176141923"><ele>242.33333333333331</ele><time>2026-05-02T15:50:10.001Z</time></trkpt><trkpt lat="46.111146347102355" lon="13.429350156371855"><ele>241.5</ele><time>2026-05-02T15:50:12.001Z</time></trkpt><trkpt lat="46.11107010462876" lon="13.42932979048846"><ele>240.66666666666669</ele><time>2026-05-02T15:50:14.001Z</time></trkpt><trkpt lat="46.11099019949967" lon="13.429261200362737"><ele>239.83333333333334</ele><time>2026-05-02T15:50:16.001Z</time></trkpt><trkpt lat="46.11091387729972" lon="13.429213973888109"><ele>239.0</ele><time>2026-05-02T15:50:18.001Z</time></trkpt><trkpt lat="46.11084537381656" lon="13.429153655537279"><ele>239.00000000000003</ele><time>2026-05-02T15:50:20.001Z</time></trkpt><trkpt lat="46.110783025994515" lon="13.42911718116321"><ele>239.0</ele><time>2026-05-02T15:50:22.001Z</time></trkpt><trkpt lat="46.11072625287131" lon="13.429042988566122"><ele>239.0</ele><time>2026-05-02T15:50:24.001Z</time></trkpt><trkpt lat="46.11067510877767" lon="13.428955519627122"><ele>239.0</ele><time>2026-05-02T15:50:26.001Z</time></trkpt><trkpt lat="46.11065616576393" lon="13.428822580645049"><ele>239.00000000000003</ele><time>2026-05-02T15:50:28Z</time></trkpt><trkpt lat="46.11068747198485" lon="13.42872060728352"><ele>239.0</ele><time>2026-05-02T15:50:30Z</time></trkpt><trkpt lat="46.110689186550665" lon="13.428612220000426"><ele>237.83333333333334</ele><time>2026-05-02T15:50:33Z</time></trkpt><trkpt lat="46.11063811262132" lon="13.428556948300738"><ele>236.66666666666669</ele><time>2026-05-02T15:53:35Z</time></trkpt><trkpt lat="46.110691776584275" lon="13.428624401173813"><ele>235.5</ele><time>2026-05-02T15:57:24Z</time></trkpt><trkpt lat="46.11077637543179" lon="13.428591346416825"><ele>234.33333333333331</ele><time>2026-05-02T15:57:27Z</time></trkpt><trkpt lat="46.1108584667006" lon="13.428532229583464"><ele>233.16666666666666</ele><time>2026-05-02T15:57:29Z</time></trkpt><trkpt lat="46.11093673512902" lon="13.428453430655154"><ele>232.0</ele><time>2026-05-02T15:58:21.001Z</time></trkpt><trkpt lat="46.11096564446178" lon="13.428340134191659"><ele>231.8</ele><time>2026-05-02T15:58:24.001Z</time></trkpt><trkpt lat="46.11100101822451" lon="13.428233117892933"><ele>231.6</ele><time>2026-05-02T15:58:26.001Z</time></trkpt><trkpt lat="46.11096605356715" lon="13.428085686224554"><ele>231.40000000000003</ele><time>2026-05-02T15:58:28.001Z</time></trkpt><trkpt lat="46.110922766268274" lon="13.428007782344658"><ele>231.20000000000002</ele><time>2026-05-02T15:58:29.001Z</time></trkpt><trkpt lat="46.11086863255375" lon="13.427909733331047"><ele>231.0</ele><time>2026-05-02T15:58:30.001Z</time></trkpt><trkpt lat="46.11080245379514" lon="13.427791430077454"><ele>229.16666666666666</ele><time>2026-05-02T15:58:31.001Z</time></trkpt><trkpt lat="46.11075221406434" lon="13.427656076903968"><ele>227.33333333333331</ele><time>2026-05-02T15:58:32.001Z</time></trkpt><trkpt lat="46.11072034431745" lon="13.427541653843692"><ele>225.5</ele><time>2026-05-02T15:58:33.001Z</time></trkpt><trkpt lat="46.110661869881106" lon="13.42745465388339"><ele>223.66666666666666</ele><time>2026-05-02T15:58:34.001Z</time></trkpt><trkpt lat="46.11058818536102" lon="13.42738960110595"><ele>221.83333333333331</ele><time>2026-05-02T15:58:35.001Z</time></trkpt><trkpt lat="46.110518141841894" lon="13.427386763983366"><ele>220.0</ele><time>2026-05-02T15:58:36.001Z</time></trkpt><trkpt lat="46.11044476685103" lon="13.427379623961672"><ele>219.99999999999997</ele><time>2026-05-02T15:58:37.001Z</time></trkpt><trkpt lat="46.11036566623251" lon="13.42740741100539"><ele>220.0</ele><time>2026-05-02T15:58:38.001Z</time></trkpt><trkpt lat="46.110288320538395" lon="13.427406741813384"><ele>220.0</ele><time>2026-05-02T15:58:39.001Z</time></trkpt><trkpt lat="46.1102152260444" lon="13.427396755550085"><ele>220.0</ele><time>2026-05-02T15:58:40.001Z</time></trkpt><trkpt lat="46.110146824626376" lon="13.427380958262187"><ele>219.99999999999997</ele><time>2026-05-02T15:58:41.001Z</time></trkpt><trkpt lat="46.11006949408939" lon="13.427356496062938"><ele>220.0</ele><time>2026-05-02T15:58:42.001Z</time></trkpt><trkpt lat="46.1099909037757" lon="13.427274088781834"><ele>219.99999999999997</ele><time>2026-05-02T15:58:43.001Z</time></trkpt><trkpt lat="46.109918451141446" lon="13.427202978177117"><ele>220.0</ele><time>2026-05-02T15:58:44.001Z</time></trkpt><trkpt lat="46.109856897902006" lon="13.42712601766922"><ele>220.0</ele><time>2026-05-02T15:58:45.001Z</time></trkpt><trkpt lat="46.10979712851" lon="13.42703781405874"><ele>220.0</ele><time>2026-05-02T15:58:46.001Z</time></trkpt><trkpt lat="46.10973980455095" lon="13.426952259737686"><ele>219.99999999999997</ele><time>2026-05-02T15:58:47.001Z</time></trkpt><trkpt lat="46.10969984139635" lon="13.426843876142716"><ele>220.0</ele><time>2026-05-02T15:58:48.001Z</time></trkpt><trkpt lat="46.10967337495327" lon="13.426724005633691"><ele>220.4</ele><time>2026-05-02T15:58:49.001Z</time></trkpt><trkpt lat="46.109647703180904" lon="13.426571953319115"><ele>220.8</ele><time>2026-05-02T15:58:50.001Z</time></trkpt><trkpt lat="46.10967139880324" lon="13.426432983494246"><ele>221.2</ele><time>2026-05-02T15:58:51Z</time></trkpt><trkpt lat="46.109655098368464" lon="13.426306470422643"><ele>221.6</ele><time>2026-05-02T15:58:52Z</time></trkpt><trkpt lat="46.10964482493745" lon="13.42618079359835"><ele>222.0</ele><time>2026-05-02T15:58:53Z</time></trkpt><trkpt lat="46.109675598799406" lon="13.426084451274988"><ele>222.83333333333334</ele><time>2026-05-02T15:58:54Z</time></trkpt><trkpt lat="46.10972118311705" lon="13.425950080241652"><ele>223.66666666666669</ele><time>2026-05-02T15:58:55Z</time></trkpt><trkpt lat="46.109741668696486" lon="13.425822534621425"><ele>224.5</ele><time>2026-05-02T15:58:56Z</time></trkpt><trkpt lat="46.10974631157418" lon="13.425701358630764"><ele>225.33333333333334</ele><time>2026-05-02T15:58:57Z</time></trkpt><trkpt lat="46.109752158977216" lon="13.425579487413055"><ele>226.16666666666669</ele><time>2026-05-02T15:58:58Z</time></trkpt><trkpt lat="46.10973602678958" lon="13.42547772018947"><ele>227.0</ele><time>2026-05-02T15:58:59Z</time></trkpt><trkpt lat="46.109725984384525" lon="13.4253704676114"><ele>227.66666666666669</ele><time>2026-05-02T15:59:00Z</time></trkpt><trkpt lat="46.10972134311153" lon="13.425270758767308"><ele>228.33333333333334</ele><time>2026-05-02T15:59:01Z</time></trkpt><trkpt lat="46.10974691497933" lon="13.425176643790374"><ele>229.0</ele><time>2026-05-02T15:59:02Z</time></trkpt><trkpt lat="46.109793416869344" lon="13.425100552214138"><ele>229.66666666666669</ele><time>2026-05-02T15:59:03Z</time></trkpt><trkpt lat="46.10982924398501" lon="13.424986667713776"><ele>230.33333333333334</ele><time>2026-05-02T15:59:04Z</time></trkpt><trkpt lat="46.10986551822394" lon="13.424872626025088"><ele>231.0</ele><time>2026-05-02T15:59:05Z</time></trkpt><trkpt lat="46.109905373363844" lon="13.424742670042734"><ele>228.83333333333334</ele><time>2026-05-02T15:59:06Z</time></trkpt><trkpt lat="46.109947563367484" lon="13.424619290295395"><ele>226.66666666666669</ele><time>2026-05-02T15:59:07Z</time></trkpt><trkpt lat="46.11000300873513" lon="13.424530041926342"><ele>224.5</ele><time>2026-05-02T15:59:08Z</time></trkpt><trkpt lat="46.11004292955816" lon="13.424440324501148"><ele>222.33333333333334</ele><time>2026-05-02T15:59:09Z</time></trkpt><trkpt lat="46.110050211130726" lon="13.42434472704825"><ele>220.16666666666669</ele><time>2026-05-02T15:59:10Z</time></trkpt><trkpt lat="46.11004731000522" lon="13.424197804590284"><ele>218.0</ele><time>2026-05-02T15:59:11Z</time></trkpt><trkpt lat="46.11006846266596" lon="13.424065722857465"><ele>218.00000000000003</ele><time>2026-05-02T15:59:12Z</time></trkpt><trkpt lat="46.11009795054407" lon="13.42393970778735"><ele>218.0</ele><time>2026-05-02T15:59:13Z</time></trkpt><trkpt lat="46.11019093564576" lon="13.423841703146651"><ele>218.0</ele><time>2026-05-02T15:59:14Z</time></trkpt><trkpt lat="46.11024409969642" lon="13.423759140444435"><ele>218.0</ele><time>2026-05-02T15:59:15Z</time></trkpt><trkpt lat="46.11029017334125" lon="13.423657780038956"><ele>218.00000000000003</ele><time>2026-05-02T15:59:16Z</time></trkpt><trkpt lat="46.110325975462814" lon="13.423576558712332"><ele>218.0</ele><time>2026-05-02T15:59:17Z</time></trkpt><trkpt lat="46.11036942986757" lon="13.423497538590006"><ele>218.00000000000003</ele><time>2026-05-02T15:59:19Z</time></trkpt><trkpt lat="46.1103092062931" lon="13.423453863547476"><ele>218.0</ele><time>2026-05-02T16:00:08.001Z</time></trkpt><trkpt lat="46.11029894167005" lon="13.423591929387566"><ele>218.0</ele><time>2026-05-02T16:00:17.001Z</time></trkpt><trkpt lat="46.11030218728429" lon="13.423720392734989"><ele>218.0</ele><time>2026-05-02T16:00:19.001Z</time></trkpt><trkpt lat="46.110262726920894" lon="13.42380649045175"><ele>218.00000000000003</ele><time>2026-05-02T16:00:20.001Z</time></trkpt><trkpt lat="46.11017602396137" lon="13.423893885217451"><ele>218.0</ele><time>2026-05-02T16:00:22.001Z</time></trkpt><trkpt lat="46.11008019368885" lon="13.424004917351985"><ele>218.0</ele><time>2026-05-02T16:00:24.001Z</time></trkpt><trkpt lat="46.110052610741924" lon="13.424107879040788"><ele>218.0</ele><time>2026-05-02T16:00:25.001Z</time></trkpt><trkpt lat="46.11003390717501" lon="13.424219137388592"><ele>218.0</ele><time>2026-05-02T16:00:26.001Z</time></trkpt><trkpt lat="46.11002601472604" lon="13.424333976055063"><ele>218.0</ele><time>2026-05-02T16:00:27.001Z</time></trkpt><trkpt lat="46.11002608746389" lon="13.424435614557666"><ele>218.0</ele><time>2026-05-02T16:00:28.001Z</time></trkpt><trkpt lat="46.11000773610016" lon="13.424525828757057"><ele>218.0</ele><time>2026-05-02T16:00:29.001Z</time></trkpt><trkpt lat="46.10997409554679" lon="13.424625740256094"><ele>218.0</ele><time>2026-05-02T16:00:30.001Z</time></trkpt><trkpt lat="46.10992302966319" lon="13.424706855781553"><ele>220.16666666666669</ele><time>2026-05-02T16:00:31.001Z</time></trkpt><trkpt lat="46.10988133268725" lon="13.424810468410612"><ele>222.33333333333334</ele><time>2026-05-02T16:00:32.001Z</time></trkpt><trkpt lat="46.10984955397227" lon="13.424938629805725"><ele>224.5</ele><time>2026-05-02T16:00:33.001Z</time></trkpt><trkpt lat="46.10980887021116" lon="13.425042541354237"><ele>226.66666666666669</ele><time>2026-05-02T16:00:34.001Z</time></trkpt><trkpt lat="46.10978717745461" lon="13.425145227898124"><ele>228.83333333333334</ele><time>2026-05-02T16:00:35.001Z</time></trkpt><trkpt lat="46.10977796581233" lon="13.425247190544244"><ele>231.0</ele><time>2026-05-02T16:00:36.001Z</time></trkpt><trkpt lat="46.109746116110784" lon="13.425351735010471"><ele>231.0</ele><time>2026-05-02T16:00:37.001Z</time></trkpt><trkpt lat="46.10970705246137" lon="13.425444293174786"><ele>231.0</ele><time>2026-05-02T16:00:38.001Z</time></trkpt><trkpt lat="46.10969816272776" lon="13.425609807783665"><ele>231.0</ele><time>2026-05-02T16:00:40.001Z</time></trkpt><trkpt lat="46.10972665979967" lon="13.425725494929893"><ele>231.0</ele><time>2026-05-02T16:00:41.001Z</time></trkpt><trkpt lat="46.109742129285394" lon="13.425828427406687"><ele>231.0</ele><time>2026-05-02T16:00:42.001Z</time></trkpt><trkpt lat="46.109751540737626" lon="13.425946828179375"><ele>231.0</ele><time>2026-05-02T16:00:43.001Z</time></trkpt><trkpt lat="46.109737942848895" lon="13.426067460332296"><ele>230.20000000000002</ele><time>2026-05-02T16:00:44.001Z</time></trkpt><trkpt lat="46.10971224222474" lon="13.426179588435506"><ele>229.40000000000003</ele><time>2026-05-02T16:00:45.001Z</time></trkpt><trkpt lat="46.109692991983486" lon="13.426300436305134"><ele>228.6</ele><time>2026-05-02T16:00:46.001Z</time></trkpt><trkpt lat="46.109673699688244" lon="13.426438850995472"><ele>227.8</ele><time>2026-05-02T16:00:47.001Z</time></trkpt><trkpt lat="46.109660549732794" lon="13.426571509048959"><ele>227.0</ele><time>2026-05-02T16:00:48.001Z</time></trkpt><trkpt lat="46.10970915450667" lon="13.426693351298733"><ele>226.16666666666669</ele><time>2026-05-02T16:00:49.001Z</time></trkpt><trkpt lat="46.1097472010209" lon="13.426797229941991"><ele>225.33333333333334</ele><time>2026-05-02T16:00:50.001Z</time></trkpt><trkpt lat="46.10977059407648" lon="13.426904954422525"><ele>224.5</ele><time>2026-05-02T16:00:51.001Z</time></trkpt><trkpt lat="46.10979281320032" lon="13.42699177808067"><ele>223.66666666666669</ele><time>2026-05-02T16:00:52.001Z</time></trkpt><trkpt lat="46.10982658508488" lon="13.427114942208773"><ele>222.83333333333334</ele><time>2026-05-02T16:00:54.001Z</time></trkpt><trkpt lat="46.109825275960596" lon="13.427210833902315"><ele>222.0</ele><time>2026-05-02T16:00:57Z</time></trkpt><trkpt lat="46.10976017668845" lon="13.427171249060772"><ele>222.0</ele><time>2026-05-02T16:01:02Z</time></trkpt><trkpt lat="46.10967886262263" lon="13.427052171934218"><ele>222.0</ele><time>2026-05-02T16:01:05Z</time></trkpt><trkpt lat="46.109597043088336" lon="13.426992891193018"><ele>222.0</ele><time>2026-05-02T16:01:06Z</time></trkpt><trkpt lat="46.109505915551175" lon="13.426929998323923"><ele>222.0</ele><time>2026-05-02T16:01:07Z</time></trkpt><trkpt lat="46.10942202060099" lon="13.426866367216387"><ele>222.0</ele><time>2026-05-02T16:01:08Z</time></trkpt><trkpt lat="46.109340833293736" lon="13.426787499712866"><ele>222.0</ele><time>2026-05-02T16:01:09Z</time></trkpt><trkpt lat="46.10924755921355" lon="13.426682899206378"><ele>222.0</ele><time>2026-05-02T16:01:10Z</time></trkpt><trkpt lat="46.109171345492854" lon="13.4265995888284"><ele>222.0</ele><time>2026-05-02T16:01:11Z</time></trkpt><trkpt lat="46.10910488556962" lon="13.426534749090322"><ele>222.0</ele><time>2026-05-02T16:01:12Z</time></trkpt><trkpt lat="46.109066153115414" lon="13.42643588425473"><ele>222.0</ele><time>2026-05-02T16:01:13Z</time></trkpt><trkpt lat="46.10905487414055" lon="13.426341650372398"><ele>222.0</ele><time>2026-05-02T16:01:14Z</time></trkpt><trkpt lat="46.109046746293096" lon="13.426239165398837"><ele>220.83333333333334</ele><time>2026-05-02T16:01:15Z</time></trkpt><trkpt lat="46.1090479492935" lon="13.426138215774156"><ele>219.66666666666669</ele><time>2026-05-02T16:01:16Z</time></trkpt><trkpt lat="46.10904260963594" lon="13.42598657006758"><ele>218.5</ele><time>2026-05-02T16:01:18Z</time></trkpt><trkpt lat="46.10902040203384" lon="13.425898865815666"><ele>217.33333333333334</ele><time>2026-05-02T16:01:19Z</time></trkpt><trkpt lat="46.10896254864067" lon="13.425792419509815"><ele>216.16666666666669</ele><time>2026-05-02T16:01:20Z</time></trkpt><trkpt lat="46.10890438038387" lon="13.42575091467636"><ele>215.0</ele><time>2026-05-02T16:01:21Z</time></trkpt><trkpt lat="46.1088199206747" lon="13.42572303228421"><ele>215.00000000000003</ele><time>2026-05-02T16:01:22Z</time></trkpt><trkpt lat="46.10872871701151" lon="13.425672768535042"><ele>215.0</ele><time>2026-05-02T16:01:23Z</time></trkpt><trkpt lat="46.10864430313186" lon="13.425612052933825"><ele>215.0</ele><time>2026-05-02T16:01:24Z</time></trkpt><trkpt lat="46.10858591661539" lon="13.425545274172503"><ele>215.0</ele><time>2026-05-02T16:01:25Z</time></trkpt><trkpt lat="46.10851696543082" lon="13.42547475125287"><ele>215.00000000000003</ele><time>2026-05-02T16:01:26Z</time></trkpt><trkpt lat="46.10844384965945" lon="13.425416818075552"><ele>215.0</ele><time>2026-05-02T16:01:27Z</time></trkpt><trkpt lat="46.10835658820328" lon="13.425383823189788"><ele>214.00000000000003</ele><time>2026-05-02T16:01:28Z</time></trkpt><trkpt lat="46.10825236422023" lon="13.425376214799217"><ele>213.0</ele><time>2026-05-02T16:01:29Z</time></trkpt><trkpt lat="46.10816938101057" lon="13.425387401158174"><ele>212.0</ele><time>2026-05-02T16:01:30Z</time></trkpt><trkpt lat="46.108085952993655" lon="13.425363945958342"><ele>211.0</ele><time>2026-05-02T16:01:32Z</time></trkpt><trkpt lat="46.10802261251749" lon="13.425337746926004"><ele>210.00000000000003</ele><time>2026-05-02T16:01:33Z</time></trkpt><trkpt lat="46.10793757956398" lon="13.42525289433397"><ele>209.0</ele><time>2026-05-02T16:01:35Z</time></trkpt><trkpt lat="46.10787038451439" lon="13.425121781342215"><ele>209.00000000000003</ele><time>2026-05-02T16:01:37Z</time></trkpt><trkpt lat="46.10783710164313" lon="13.425033552432389"><ele>209.0</ele><time>2026-05-02T16:01:38Z</time></trkpt><trkpt lat="46.107825639717525" lon="13.424869585386265"><ele>209.0</ele><time>2026-05-02T16:01:40Z</time></trkpt><trkpt lat="46.107804115991875" lon="13.42476672323586"><ele>209.0</ele><time>2026-05-02T16:01:41Z</time></trkpt><trkpt lat="46.10777769465371" lon="13.424674450914361"><ele>209.00000000000003</ele><time>2026-05-02T16:01:42Z</time></trkpt><trkpt lat="46.10773876557869" lon="13.424543532664716"><ele>209.0</ele><time>2026-05-02T16:01:44Z</time></trkpt><trkpt lat="46.10769014258138" lon="13.424424208797529"><ele>209.6</ele><time>2026-05-02T16:01:46Z</time></trkpt><trkpt lat="46.10761930741816" lon="13.424287607716558"><ele>210.2</ele><time>2026-05-02T16:01:48Z</time></trkpt><trkpt lat="46.107533431588976" lon="13.424119872008394"><ele>210.79999999999998</ele><time>2026-05-02T16:01:50Z</time></trkpt><trkpt lat="46.107468175447515" lon="13.424040842365825"><ele>211.39999999999998</ele><time>2026-05-02T16:01:51Z</time></trkpt><trkpt lat="46.107393647893645" lon="13.423975433109307"><ele>212.0</ele><time>2026-05-02T16:01:53Z</time></trkpt><trkpt lat="46.10730962079828" lon="13.424003971881868"><ele>211.00000000000003</ele><time>2026-05-02T16:01:55Z</time></trkpt><trkpt lat="46.107210708607376" lon="13.424048897637693"><ele>210.0</ele><time>2026-05-02T16:01:57Z</time></trkpt><trkpt lat="46.10714207540258" lon="13.424045902818232"><ele>209.0</ele><time>2026-05-02T16:01:58Z</time></trkpt><trkpt lat="46.10706969682797" lon="13.42405960641405"><ele>208.0</ele><time>2026-05-02T16:01:59Z</time></trkpt><trkpt lat="46.107004077815574" lon="13.424079369682962"><ele>207.00000000000003</ele><time>2026-05-02T16:02:00Z</time></trkpt><trkpt lat="46.10692483100011" lon="13.42408119046099"><ele>206.0</ele><time>2026-05-02T16:02:01Z</time></trkpt><trkpt lat="46.106860869150964" lon="13.424088546323022"><ele>206.0</ele><time>2026-05-02T16:02:02Z</time></trkpt><trkpt lat="46.10676530533047" lon="13.424108893983641"><ele>206.0</ele><time>2026-05-02T16:02:04Z</time></trkpt><trkpt lat="46.106658003771166" lon="13.424129854512387"><ele>206.0</ele><time>2026-05-02T16:02:06Z</time></trkpt><trkpt lat="46.10653888511808" lon="13.424182055898276"><ele>206.0</ele><time>2026-05-02T16:02:08.001Z</time></trkpt><trkpt lat="46.106468422461624" lon="13.424231767180743"><ele>206.0</ele><time>2026-05-02T16:02:09.001Z</time></trkpt><trkpt lat="46.106401409181515" lon="13.424296453512545"><ele>207.20000000000002</ele><time>2026-05-02T16:02:10.001Z</time></trkpt><trkpt lat="46.10632368719905" lon="13.424355877178101"><ele>208.4</ele><time>2026-05-02T16:02:11.001Z</time></trkpt><trkpt lat="46.10624446431728" lon="13.424422867069774"><ele>209.6</ele><time>2026-05-02T16:02:12.001Z</time></trkpt><trkpt lat="46.10615833448312" lon="13.424473455681664"><ele>210.8</ele><time>2026-05-02T16:02:13.001Z</time></trkpt><trkpt lat="46.106061972029224" lon="13.424512730435767"><ele>212.0</ele><time>2026-05-02T16:02:14.001Z</time></trkpt><trkpt lat="46.105956586898856" lon="13.424555362149276"><ele>212.0</ele><time>2026-05-02T16:02:15.001Z</time></trkpt><trkpt lat="46.105857452942324" lon="13.424586949544974"><ele>212.0</ele><time>2026-05-02T16:02:16.001Z</time></trkpt><trkpt lat="46.1057628455625" lon="13.42462763237008"><ele>212.0</ele><time>2026-05-02T16:02:17.001Z</time></trkpt><trkpt lat="46.105666161536625" lon="13.424674485932291"><ele>212.0</ele><time>2026-05-02T16:02:18.001Z</time></trkpt><trkpt lat="46.10556008430085" lon="13.4247095279746"><ele>212.0</ele><time>2026-05-02T16:02:19.001Z</time></trkpt><trkpt lat="46.10545033910205" lon="13.424721692089161"><ele>212.25</ele><time>2026-05-02T16:02:20.001Z</time></trkpt><trkpt lat="46.10533631144454" lon="13.424696427864525"><ele>212.5</ele><time>2026-05-02T16:02:21.001Z</time></trkpt><trkpt lat="46.10521945814962" lon="13.424652452052921"><ele>212.75</ele><time>2026-05-02T16:02:22.001Z</time></trkpt><trkpt lat="46.105101217327984" lon="13.4246169071391"><ele>213.0</ele><time>2026-05-02T16:02:23.001Z</time></trkpt><trkpt lat="46.1049750501703" lon="13.424602769485132"><ele>209.60000000000002</ele><time>2026-05-02T16:02:24.001Z</time></trkpt><trkpt lat="46.10485940200916" lon="13.424612845526061"><ele>206.20000000000002</ele><time>2026-05-02T16:02:25.001Z</time></trkpt><trkpt lat="46.10475178610754" lon="13.42461878976121"><ele>202.8</ele><time>2026-05-02T16:02:26.001Z</time></trkpt><trkpt lat="46.10464617196011" lon="13.424618290130693"><ele>199.4</ele><time>2026-05-02T16:02:27.001Z</time></trkpt><trkpt lat="46.10454481895903" lon="13.424593827788268"><ele>196.0</ele><time>2026-05-02T16:02:28.001Z</time></trkpt><trkpt lat="46.10442624162946" lon="13.424546370609264"><ele>196.0</ele><time>2026-05-02T16:02:29.001Z</time></trkpt><trkpt lat="46.104306161562356" lon="13.424503789470181"><ele>196.0</ele><time>2026-05-02T16:02:30.001Z</time></trkpt><trkpt lat="46.10418200613979" lon="13.424486706466787"><ele>196.0</ele><time>2026-05-02T16:02:31.001Z</time></trkpt><trkpt lat="46.10406424510898" lon="13.424482204315202"><ele>196.0</ele><time>2026-05-02T16:02:32.001Z</time></trkpt><trkpt lat="46.10395283494637" lon="13.424460903651488"><ele>194.60000000000002</ele><time>2026-05-02T16:02:33.001Z</time></trkpt><trkpt lat="46.10385451329591" lon="13.424371520985236"><ele>193.2</ele><time>2026-05-02T16:02:34.001Z</time></trkpt><trkpt lat="46.103757900771036" lon="13.424354048629244"><ele>191.8</ele><time>2026-05-02T16:02:35.001Z</time></trkpt><trkpt lat="46.1036676413707" lon="13.424362366187118"><ele>190.39999999999998</ele><time>2026-05-02T16:02:36.001Z</time></trkpt><trkpt lat="46.10355912273632" lon="13.424392857334318"><ele>189.0</ele><time>2026-05-02T16:02:37.001Z</time></trkpt><trkpt lat="46.10345981655748" lon="13.424450334270142"><ele>189.0</ele><time>2026-05-02T16:02:38.001Z</time></trkpt><trkpt lat="46.10338457391886" lon="13.424473724965297"><ele>189.0</ele><time>2026-05-02T16:02:39.001Z</time></trkpt><trkpt lat="46.1032986483316" lon="13.424404435664266"><ele>189.0</ele><time>2026-05-02T16:02:40.001Z</time></trkpt><trkpt lat="46.103222873845915" lon="13.424431636642806"><ele>189.0</ele><time>2026-05-02T16:02:41.001Z</time></trkpt><trkpt lat="46.10314086798605" lon="13.424457529013456"><ele>189.0</ele><time>2026-05-02T16:02:42.001Z</time></trkpt><trkpt lat="46.10305944402008" lon="13.42452683039195"><ele>189.0</ele><time>2026-05-02T16:02:43.001Z</time></trkpt><trkpt lat="46.1029765481792" lon="13.424526147339801"><ele>187.6</ele><time>2026-05-02T16:02:44.001Z</time></trkpt><trkpt lat="46.10289731785745" lon="13.424480065700651"><ele>186.2</ele><time>2026-05-02T16:02:45.001Z</time></trkpt><trkpt lat="46.10282274189103" lon="13.424415010439"><ele>184.79999999999998</ele><time>2026-05-02T16:02:46.001Z</time></trkpt><trkpt lat="46.10272413911869" lon="13.424339033787815"><ele>183.39999999999998</ele><time>2026-05-02T16:02:47.001Z</time></trkpt><trkpt lat="46.102628706914686" lon="13.424298239605893"><ele>182.0</ele><time>2026-05-02T16:02:48.001Z</time></trkpt><trkpt lat="46.1025469768137" lon="13.424247906917989"><ele>182.0</ele><time>2026-05-02T16:02:49.001Z</time></trkpt><trkpt lat="46.10247360355401" lon="13.42422467285777"><ele>182.0</ele><time>2026-05-02T16:02:50.001Z</time></trkpt><trkpt lat="46.102412886325446" lon="13.424200299327874"><ele>182.0</ele><time>2026-05-02T16:02:51.001Z</time></trkpt><trkpt lat="46.10231420771713" lon="13.424157736845974"><ele>182.0</ele><time>2026-05-02T16:02:53.001Z</time></trkpt><trkpt lat="46.10225132777652" lon="13.424177397231276"><ele>182.0</ele><time>2026-05-02T16:02:54.001Z</time></trkpt><trkpt lat="46.10218177715333" lon="13.42414916119394"><ele>182.0</ele><time>2026-05-02T16:02:55.001Z</time></trkpt><trkpt lat="46.10209232470527" lon="13.424131491095388"><ele>180.39999999999998</ele><time>2026-05-02T16:02:56.001Z</time></trkpt><trkpt lat="46.102000087400356" lon="13.42408589190961"><ele>178.79999999999998</ele><time>2026-05-02T16:02:58.001Z</time></trkpt><trkpt lat="46.101917967166244" lon="13.424052328512046"><ele>177.2</ele><time>2026-05-02T16:03:04Z</time></trkpt><trkpt lat="46.10178620029787" lon="13.423998724777215"><ele>175.6</ele><time>2026-05-02T16:03:06Z</time></trkpt><trkpt lat="46.101714342884456" lon="13.423987697492542"><ele>174.0</ele><time>2026-05-02T16:03:07Z</time></trkpt><trkpt lat="46.101644908643394" lon="13.423970333769605"><ele>173.0</ele><time>2026-05-02T16:03:08Z</time></trkpt><trkpt lat="46.101573824121466" lon="13.423934400954929"><ele>172.0</ele><time>2026-05-02T16:03:09Z</time></trkpt><trkpt lat="46.10150953900676" lon="13.423865106581282"><ele>171.0</ele><time>2026-05-02T16:03:10Z</time></trkpt><trkpt lat="46.1014524636996" lon="13.423772669847029"><ele>170.0</ele><time>2026-05-02T16:03:11Z</time></trkpt><trkpt lat="46.101386221723985" lon="13.423682927421101"><ele>169.0</ele><time>2026-05-02T16:03:12Z</time></trkpt><trkpt lat="46.101317933316146" lon="13.423599665365622"><ele>168.0</ele><time>2026-05-02T16:03:13Z</time></trkpt><trkpt lat="46.10124398522749" lon="13.423512276030577"><ele>168.0</ele><time>2026-05-02T16:03:14Z</time></trkpt><trkpt lat="46.10117105969559" lon="13.423434194150959"><ele>168.0</ele><time>2026-05-02T16:03:15Z</time></trkpt><trkpt lat="46.10109513060703" lon="13.423367827411811"><ele>168.0</ele><time>2026-05-02T16:03:16Z</time></trkpt><trkpt lat="46.10100761127401" lon="13.423326829581818"><ele>168.0</ele><time>2026-05-02T16:03:17Z</time></trkpt><trkpt lat="46.10091603141898" lon="13.423318658553788"><ele>168.0</ele><time>2026-05-02T16:03:18Z</time></trkpt><trkpt lat="46.10079794812068" lon="13.423356438297064"><ele>164.0</ele><time>2026-05-02T16:03:19Z</time></trkpt><trkpt lat="46.10069419899725" lon="13.423434267490723"><ele>160.0</ele><time>2026-05-02T16:03:20Z</time></trkpt><trkpt lat="46.100595203853324" lon="13.423561940578457"><ele>156.0</ele><time>2026-05-02T16:03:21Z</time></trkpt><trkpt lat="46.1005023458861" lon="13.423707626860498"><ele>152.0</ele><time>2026-05-02T16:03:22Z</time></trkpt><trkpt lat="46.100411885495284" lon="13.42386723511659"><ele>152.0</ele><time>2026-05-02T16:03:23Z</time></trkpt><trkpt lat="46.100328730799895" lon="13.424014869463097"><ele>152.0</ele><time>2026-05-02T16:03:24Z</time></trkpt><trkpt lat="46.100257011100965" lon="13.424164472055384"><ele>152.0</ele><time>2026-05-02T16:03:25Z</time></trkpt><trkpt lat="46.1002098556905" lon="13.42434014005204"><ele>152.0</ele><time>2026-05-02T16:03:26Z</time></trkpt><trkpt lat="46.10017311880671" lon="13.424513525767535"><ele>151.25</ele><time>2026-05-02T16:03:27Z</time></trkpt><trkpt lat="46.10014464232249" lon="13.424703032220997"><ele>150.5</ele><time>2026-05-02T16:03:28Z</time></trkpt><trkpt lat="46.1001239238458" lon="13.424893691510025"><ele>149.75</ele><time>2026-05-02T16:03:29Z</time></trkpt><trkpt lat="46.10010263879453" lon="13.425076169241372"><ele>149.0</ele><time>2026-05-02T16:03:30Z</time></trkpt><trkpt lat="46.100091860061696" lon="13.425267773097731"><ele>149.0</ele><time>2026-05-02T16:03:31Z</time></trkpt><trkpt lat="46.10010423615212" lon="13.425432948394914"><ele>149.0</ele><time>2026-05-02T16:03:32Z</time></trkpt><trkpt lat="46.100111071832714" lon="13.425604839821313"><ele>149.0</ele><time>2026-05-02T16:03:33Z</time></trkpt><trkpt lat="46.100134519498546" lon="13.425776336126352"><ele>149.0</ele><time>2026-05-02T16:03:34Z</time></trkpt><trkpt lat="46.100160262884685" lon="13.425961767685413"><ele>148.5</ele><time>2026-05-02T16:03:35Z</time></trkpt><trkpt lat="46.10016211427747" lon="13.426144466827706"><ele>148.0</ele><time>2026-05-02T16:03:36Z</time></trkpt><trkpt lat="46.10015279310047" lon="13.426321171548839"><ele>147.5</ele><time>2026-05-02T16:03:37Z</time></trkpt><trkpt lat="46.10008605736537" lon="13.426467691249629"><ele>147.0</ele><time>2026-05-02T16:03:38Z</time></trkpt><trkpt lat="46.09997603687844" lon="13.426570107666242"><ele>144.25</ele><time>2026-05-02T16:03:39Z</time></trkpt><trkpt lat="46.099873935201096" lon="13.426717285505836"><ele>141.5</ele><time>2026-05-02T16:03:40Z</time></trkpt><trkpt lat="46.09979286537303" lon="13.426842226311622"><ele>138.75</ele><time>2026-05-02T16:03:41Z</time></trkpt><trkpt lat="46.09972596270647" lon="13.426962953366155"><ele>136.0</ele><time>2026-05-02T16:03:42Z</time></trkpt><trkpt lat="46.099651353881875" lon="13.427055904575274"><ele>136.0</ele><time>2026-05-02T16:03:43Z</time></trkpt><trkpt lat="46.09955272835667" lon="13.427137463527762"><ele>136.0</ele><time>2026-05-02T16:03:44Z</time></trkpt><trkpt lat="46.0994341031897" lon="13.427125761416626"><ele>136.0</ele><time>2026-05-02T16:03:45Z</time></trkpt><trkpt lat="46.09931063210633" lon="13.42716645606561"><ele>136.0</ele><time>2026-05-02T16:03:46Z</time></trkpt><trkpt lat="46.0992008719154" lon="13.427082297411156"><ele>136.0</ele><time>2026-05-02T16:03:47Z</time></trkpt><trkpt lat="46.09909076847382" lon="13.427042626029134"><ele>136.0</ele><time>2026-05-02T16:03:48Z</time></trkpt><trkpt lat="46.098977864449814" lon="13.427020966638597"><ele>136.0</ele><time>2026-05-02T16:03:49Z</time></trkpt><trkpt lat="46.09886629855093" lon="13.426968045225433"><ele>136.0</ele><time>2026-05-02T16:03:50Z</time></trkpt><trkpt lat="46.09874929217809" lon="13.426928596714617"><ele>135.75</ele><time>2026-05-02T16:03:51Z</time></trkpt><trkpt lat="46.098633935219226" lon="13.42689669110646"><ele>135.5</ele><time>2026-05-02T16:03:52Z</time></trkpt><trkpt lat="46.098521174872666" lon="13.426854103368283"><ele>135.25</ele><time>2026-05-02T16:03:53Z</time></trkpt><trkpt lat="46.09841030599297" lon="13.42680923467868"><ele>135.0</ele><time>2026-05-02T16:03:54Z</time></trkpt><trkpt lat="46.09832139304968" lon="13.426724806624108"><ele>135.0</ele><time>2026-05-02T16:03:55Z</time></trkpt><trkpt lat="46.09825618487744" lon="13.426682882890917"><ele>135.0</ele><time>2026-05-02T16:03:56Z</time></trkpt><trkpt lat="46.09818525771885" lon="13.426653838040584"><ele>135.0</ele><time>2026-05-02T16:03:57Z</time></trkpt><trkpt lat="46.098118298719626" lon="13.426592195978733"><ele>135.0</ele><time>2026-05-02T16:03:58Z</time></trkpt><trkpt lat="46.09804548410088" lon="13.426541971498263"><ele>135.0</ele><time>2026-05-02T16:03:59Z</time></trkpt><trkpt lat="46.097970406352374" lon="13.42648865099038"><ele>135.0</ele><time>2026-05-02T16:04:00Z</time></trkpt><trkpt lat="46.09790175355352" lon="13.426439457509503"><ele>135.16666666666666</ele><time>2026-05-02T16:04:01Z</time></trkpt><trkpt lat="46.09783868012504" lon="13.426393553238894"><ele>135.33333333333334</ele><time>2026-05-02T16:04:02Z</time></trkpt><trkpt lat="46.09774736098363" lon="13.426329268502485"><ele>135.5</ele><time>2026-05-02T16:04:04Z</time></trkpt><trkpt lat="46.097685674600726" lon="13.42630287103435"><ele>135.66666666666669</ele><time>2026-05-02T16:04:06Z</time></trkpt><trkpt lat="46.09756362261463" lon="13.42640093534486"><ele>135.83333333333334</ele><time>2026-05-02T16:04:15.001Z</time></trkpt><trkpt lat="46.09751412603485" lon="13.426474941528253"><ele>136.0</ele><time>2026-05-02T16:04:16.001Z</time></trkpt><trkpt lat="46.09743631659058" lon="13.42652872875422"><ele>135.8</ele><time>2026-05-02T16:04:17.001Z</time></trkpt><trkpt lat="46.097353114827285" lon="13.426565607014664"><ele>135.6</ele><time>2026-05-02T16:04:18.001Z</time></trkpt><trkpt lat="46.09727198565245" lon="13.42659168562003"><ele>135.4</ele><time>2026-05-02T16:04:19.001Z</time></trkpt><trkpt lat="46.097184790100115" lon="13.426633022681132"><ele>135.2</ele><time>2026-05-02T16:04:20.001Z</time></trkpt><trkpt lat="46.097088402749165" lon="13.426666560317353"><ele>135.0</ele><time>2026-05-02T16:04:21.001Z</time></trkpt><trkpt lat="46.096994187356934" lon="13.426704524691658"><ele>135.0</ele><time>2026-05-02T16:04:22.001Z</time></trkpt><trkpt lat="46.09689384829545" lon="13.426741189420733"><ele>135.0</ele><time>2026-05-02T16:04:23.001Z</time></trkpt><trkpt lat="46.09679372728975" lon="13.42677764489109"><ele>135.0</ele><time>2026-05-02T16:04:24.001Z</time></trkpt><trkpt lat="46.0966902116265" lon="13.426823140979021"><ele>135.0</ele><time>2026-05-02T16:04:25.001Z</time></trkpt><trkpt lat="46.09658821573044" lon="13.426869731046589"><ele>135.0</ele><time>2026-05-02T16:04:26.001Z</time></trkpt><trkpt lat="46.09649025448798" lon="13.426917201810667"><ele>134.8</ele><time>2026-05-02T16:04:27.001Z</time></trkpt><trkpt lat="46.096392842942386" lon="13.4269644765565"><ele>134.6</ele><time>2026-05-02T16:04:28.001Z</time></trkpt><trkpt lat="46.096304109938096" lon="13.427011407360153"><ele>134.4</ele><time>2026-05-02T16:04:29.001Z</time></trkpt><trkpt lat="46.09621668397535" lon="13.427049768368539"><ele>134.2</ele><time>2026-05-02T16:04:30.001Z</time></trkpt><trkpt lat="46.0961338994473" lon="13.427077335594557"><ele>134.0</ele><time>2026-05-02T16:04:31.001Z</time></trkpt><trkpt lat="46.09605171776194" lon="13.427098511121368"><ele>134.0</ele><time>2026-05-02T16:04:32.001Z</time></trkpt><trkpt lat="46.09597293643383" lon="13.427081914149955"><ele>134.0</ele><time>2026-05-02T16:04:33.001Z</time></trkpt><trkpt lat="46.09590508926705" lon="13.427036392632848"><ele>134.0</ele><time>2026-05-02T16:04:34.001Z</time></trkpt><trkpt lat="46.09585057709784" lon="13.426939675443881"><ele>134.0</ele><time>2026-05-02T16:04:36.001Z</time></trkpt><trkpt lat="46.095819124158616" lon="13.426804066882852"><ele>134.0</ele><time>2026-05-02T16:04:43.001Z</time></trkpt><trkpt lat="46.09579867501134" lon="13.426618036329756"><ele>134.0</ele><time>2026-05-02T16:04:45.001Z</time></trkpt><trkpt lat="46.095802968261104" lon="13.42648483622257"><ele>134.0</ele><time>2026-05-02T16:04:46.001Z</time></trkpt><trkpt lat="46.09579808814793" lon="13.426312925866702"><ele>134.0</ele><time>2026-05-02T16:04:47.001Z</time></trkpt><trkpt lat="46.095789435637485" lon="13.426173387957498"><ele>134.0</ele><time>2026-05-02T16:04:48.001Z</time></trkpt><trkpt lat="46.095784297726176" lon="13.426011977128512"><ele>134.0</ele><time>2026-05-02T16:04:49.001Z</time></trkpt><trkpt lat="46.095780459950745" lon="13.42584075976297"><ele>134.0</ele><time>2026-05-02T16:04:50.001Z</time></trkpt><trkpt lat="46.09577800982805" lon="13.425663021099176"><ele>134.0</ele><time>2026-05-02T16:04:51.001Z</time></trkpt><trkpt lat="46.09577475728732" lon="13.425479118445665"><ele>134.0</ele><time>2026-05-02T16:04:52.001Z</time></trkpt><trkpt lat="46.09577542428207" lon="13.425295479689764"><ele>134.0</ele><time>2026-05-02T16:04:53.001Z</time></trkpt><trkpt lat="46.09577576301969" lon="13.425128370131114"><ele>134.0</ele><time>2026-05-02T16:04:54.001Z</time></trkpt><trkpt lat="46.09577793002061" lon="13.425000235892199"><ele>134.0</ele><time>2026-05-02T16:04:55.001Z</time></trkpt><trkpt lat="46.09579718909607" lon="13.424839017138684"><ele>134.0</ele><time>2026-05-02T16:04:57.001Z</time></trkpt><trkpt lat="46.09586472110162" lon="13.424679426873158"><ele>134.0</ele><time>2026-05-02T16:04:59.001Z</time></trkpt><trkpt lat="46.095914931834706" lon="13.424605733379124"><ele>134.0</ele><time>2026-05-02T16:05:00.001Z</time></trkpt><trkpt lat="46.09597769617128" lon="13.424477320636472"><ele>133.66666666666666</ele><time>2026-05-02T16:05:02.001Z</time></trkpt><trkpt lat="46.095978059948926" lon="13.42437786504833"><ele>133.33333333333331</ele><time>2026-05-02T16:05:03.001Z</time></trkpt><trkpt lat="46.09593890125068" lon="13.424285464322436"><ele>133.0</ele><time>2026-05-02T16:05:04.001Z</time></trkpt><trkpt lat="46.095873401848245" lon="13.424229213346846"><ele>132.66666666666666</ele><time>2026-05-02T16:05:05.001Z</time></trkpt><trkpt lat="46.09579753919778" lon="13.42421178667498"><ele>132.33333333333334</ele><time>2026-05-02T16:05:06.001Z</time></trkpt><trkpt lat="46.09572281087725" lon="13.424237660308854"><ele>132.0</ele><time>2026-05-02T16:05:07.001Z</time></trkpt><trkpt lat="46.09565031894477" lon="13.42428063228089"><ele>132.0</ele><time>2026-05-02T16:05:08.001Z</time></trkpt><trkpt lat="46.09557257047012" lon="13.424310344515593"><ele>132.0</ele><time>2026-05-02T16:05:09Z</time></trkpt><trkpt lat="46.095501136446" lon="13.424333808344992"><ele>132.0</ele><time>2026-05-02T16:05:10Z</time></trkpt><trkpt lat="46.09543146235321" lon="13.424345712963392"><ele>132.0</ele><time>2026-05-02T16:05:11Z</time></trkpt><trkpt lat="46.09535526332961" lon="13.424346186447282"><ele>132.0</ele><time>2026-05-02T16:05:12Z</time></trkpt><trkpt lat="46.09527727175658" lon="13.4243600772401"><ele>132.0</ele><time>2026-05-02T16:05:13Z</time></trkpt><trkpt lat="46.09519720674138" lon="13.424366282055624"><ele>132.0</ele><time>2026-05-02T16:05:14Z</time></trkpt><trkpt lat="46.09511937927776" lon="13.424365467549427"><ele>132.0</ele><time>2026-05-02T16:05:15Z</time></trkpt><trkpt lat="46.09503776157469" lon="13.424363024887416"><ele>132.0</ele><time>2026-05-02T16:05:16Z</time></trkpt><trkpt lat="46.09494501893021" lon="13.42435083452392"><ele>132.0</ele><time>2026-05-02T16:05:17Z</time></trkpt><trkpt lat="46.09485069580789" lon="13.424338427042002"><ele>132.0</ele><time>2026-05-02T16:05:18Z</time></trkpt><trkpt lat="46.09475779445718" lon="13.42434027033979"><ele>132.0</ele><time>2026-05-02T16:05:19Z</time></trkpt><trkpt lat="46.09466128571691" lon="13.424360331240425"><ele>132.2</ele><time>2026-05-02T16:05:20Z</time></trkpt><trkpt lat="46.09456330239319" lon="13.424384239878865"><ele>132.39999999999998</ele><time>2026-05-02T16:05:21Z</time></trkpt><trkpt lat="46.094457553115994" lon="13.424398426967564"><ele>132.60000000000002</ele><time>2026-05-02T16:05:22Z</time></trkpt><trkpt lat="46.09434768056107" lon="13.424403007296895"><ele>132.8</ele><time>2026-05-02T16:05:23Z</time></trkpt><trkpt lat="46.09423679107133" lon="13.42442427698719"><ele>133.0</ele><time>2026-05-02T16:05:24Z</time></trkpt><trkpt lat="46.094128421169835" lon="13.424445490704025"><ele>133.0</ele><time>2026-05-02T16:05:25Z</time></trkpt><trkpt lat="46.09402283406633" lon="13.424454365550806"><ele>133.0</ele><time>2026-05-02T16:05:26Z</time></trkpt><trkpt lat="46.093923303528705" lon="13.424459055531704"><ele>133.0</ele><time>2026-05-02T16:05:27Z</time></trkpt><trkpt lat="46.09381235781347" lon="13.424458683530778"><ele>133.0</ele><time>2026-05-02T16:05:28Z</time></trkpt><trkpt lat="46.09371227114519" lon="13.424454139233788"><ele>133.0</ele><time>2026-05-02T16:05:29Z</time></trkpt><trkpt lat="46.093599329383935" lon="13.42446150115723"><ele>133.0</ele><time>2026-05-02T16:05:30Z</time></trkpt><trkpt lat="46.0934914175186" lon="13.42447613455402"><ele>133.0</ele><time>2026-05-02T16:05:31Z</time></trkpt><trkpt lat="46.09337511491383" lon="13.424470104734104"><ele>133.0</ele><time>2026-05-02T16:05:32Z</time></trkpt><trkpt lat="46.0932729036027" lon="13.42447802984131"><ele>133.0</ele><time>2026-05-02T16:05:33Z</time></trkpt><trkpt lat="46.09317545690701" lon="13.424489003453633"><ele>133.0</ele><time>2026-05-02T16:05:34Z</time></trkpt><trkpt lat="46.09308204854508" lon="13.424496710694426"><ele>133.33333333333334</ele><time>2026-05-02T16:05:35Z</time></trkpt><trkpt lat="46.09298685598181" lon="13.424505627434094"><ele>133.66666666666669</ele><time>2026-05-02T16:05:36Z</time></trkpt><trkpt lat="46.09289420502508" lon="13.424517060586213"><ele>134.0</ele><time>2026-05-02T16:05:37Z</time></trkpt><trkpt lat="46.09280340770981" lon="13.424522782088767"><ele>134.33333333333334</ele><time>2026-05-02T16:05:38Z</time></trkpt><trkpt lat="46.092740823699316" lon="13.424533654070471"><ele>134.66666666666666</ele><time>2026-05-02T16:05:39Z</time></trkpt><trkpt lat="46.092674871002124" lon="13.42455643175539"><ele>135.0</ele><time>2026-05-02T16:05:40Z</time></trkpt><trkpt lat="46.09260757905534" lon="13.424586504646491"><ele>135.0</ele><time>2026-05-02T16:05:41Z</time></trkpt><trkpt lat="46.09253978123092" lon="13.42463676100105"><ele>135.0</ele><time>2026-05-02T16:05:42Z</time></trkpt><trkpt lat="46.09247528415856" lon="13.424709514178218"><ele>135.0</ele><time>2026-05-02T16:05:43Z</time></trkpt><trkpt lat="46.09241041781817" lon="13.424790091575925"><ele>135.0</ele><time>2026-05-02T16:05:44Z</time></trkpt><trkpt lat="46.09234901550571" lon="13.424884267554289"><ele>135.0</ele><time>2026-05-02T16:05:45Z</time></trkpt><trkpt lat="46.092286990251516" lon="13.424977224210886"><ele>135.0</ele><time>2026-05-02T16:05:46Z</time></trkpt><trkpt lat="46.09221746526443" lon="13.42506193930874"><ele>135.2</ele><time>2026-05-02T16:05:47Z</time></trkpt><trkpt lat="46.092136567136414" lon="13.425121417359641"><ele>135.4</ele><time>2026-05-02T16:05:48Z</time></trkpt><trkpt lat="46.092040052623545" lon="13.425167506451029"><ele>135.6</ele><time>2026-05-02T16:05:49Z</time></trkpt><trkpt lat="46.091944194979824" lon="13.425226552278765"><ele>135.8</ele><time>2026-05-02T16:05:50Z</time></trkpt><trkpt lat="46.09185440773692" lon="13.425279058568044"><ele>136.0</ele><time>2026-05-02T16:05:51Z</time></trkpt><trkpt lat="46.09177071656636" lon="13.425330485602878"><ele>136.0</ele><time>2026-05-02T16:05:52Z</time></trkpt><trkpt lat="46.091682027260994" lon="13.425378970014403"><ele>136.0</ele><time>2026-05-02T16:05:53Z</time></trkpt><trkpt lat="46.09159143953794" lon="13.425427465928658"><ele>136.0</ele><time>2026-05-02T16:05:54Z</time></trkpt><trkpt lat="46.09150569208222" lon="13.42547928627068"><ele>136.0</ele><time>2026-05-02T16:05:55Z</time></trkpt><trkpt lat="46.09141050477138" lon="13.42551839133337"><ele>136.0</ele><time>2026-05-02T16:05:56Z</time></trkpt><trkpt lat="46.091320644943295" lon="13.425571829654274"><ele>135.2</ele><time>2026-05-02T16:05:57Z</time></trkpt><trkpt lat="46.09123500375535" lon="13.425630057232102"><ele>134.39999999999998</ele><time>2026-05-02T16:05:58Z</time></trkpt><trkpt lat="46.091141120262286" lon="13.425673993309067"><ele>133.6</ele><time>2026-05-02T16:05:59Z</time></trkpt><trkpt lat="46.09104453956842" lon="13.425719947932565"><ele>132.79999999999998</ele><time>2026-05-02T16:06:00Z</time></trkpt><trkpt lat="46.090948904553855" lon="13.425782915628211"><ele>132.0</ele><time>2026-05-02T16:06:01Z</time></trkpt><trkpt lat="46.09084395126762" lon="13.42583541262662"><ele>130.0</ele><time>2026-05-02T16:06:02Z</time></trkpt><trkpt lat="46.090735788364185" lon="13.425880455990907"><ele>128.0</ele><time>2026-05-02T16:06:03Z</time></trkpt><trkpt lat="46.09062751764567" lon="13.425925953964462"><ele>126.0</ele><time>2026-05-02T16:06:04Z</time></trkpt><trkpt lat="46.09051680918217" lon="13.42596020976222"><ele>124.0</ele><time>2026-05-02T16:06:05Z</time></trkpt><trkpt lat="46.09040001389715" lon="13.426000039028626"><ele>124.0</ele><time>2026-05-02T16:06:06Z</time></trkpt><trkpt lat="46.090284247125474" lon="13.42603507405734"><ele>124.0</ele><time>2026-05-02T16:06:07Z</time></trkpt><trkpt lat="46.09017353753621" lon="13.426067508131338"><ele>124.0</ele><time>2026-05-02T16:06:08Z</time></trkpt><trkpt lat="46.090060923415045" lon="13.426101459969756"><ele>124.0</ele><time>2026-05-02T16:06:09Z</time></trkpt><trkpt lat="46.08994676585187" lon="13.426133418465682"><ele>124.2</ele><time>2026-05-02T16:06:10Z</time></trkpt><trkpt lat="46.08983567549822" lon="13.426158121139675"><ele>124.4</ele><time>2026-05-02T16:06:11Z</time></trkpt><trkpt lat="46.08972545545792" lon="13.426191581197365"><ele>124.6</ele><time>2026-05-02T16:06:12Z</time></trkpt><trkpt lat="46.08961613795789" lon="13.42622708109185"><ele>124.8</ele><time>2026-05-02T16:06:13Z</time></trkpt><trkpt lat="46.08951072754686" lon="13.426258195671975"><ele>125.0</ele><time>2026-05-02T16:06:14Z</time></trkpt><trkpt lat="46.08940182961553" lon="13.426295748962936"><ele>125.0</ele><time>2026-05-02T16:06:15Z</time></trkpt><trkpt lat="46.089290660734285" lon="13.426328378511279"><ele>125.0</ele><time>2026-05-02T16:06:16Z</time></trkpt><trkpt lat="46.08916663023932" lon="13.426351200681019"><ele>125.0</ele><time>2026-05-02T16:06:17Z</time></trkpt><trkpt lat="46.08904295027164" lon="13.426376735730393"><ele>125.0</ele><time>2026-05-02T16:06:18Z</time></trkpt><trkpt lat="46.0889154810934" lon="13.426383406042197"><ele>125.0</ele><time>2026-05-02T16:06:19Z</time></trkpt><trkpt lat="46.088790520483315" lon="13.42639864957179"><ele>125.0</ele><time>2026-05-02T16:06:20Z</time></trkpt><trkpt lat="46.08866220274666" lon="13.426407545175762"><ele>125.0</ele><time>2026-05-02T16:06:21Z</time></trkpt><trkpt lat="46.08853740752036" lon="13.426423938227787"><ele>125.0</ele><time>2026-05-02T16:06:22.001Z</time></trkpt><trkpt lat="46.088420359791904" lon="13.426451451066058"><ele>125.0</ele><time>2026-05-02T16:06:23.001Z</time></trkpt><trkpt lat="46.08830434398732" lon="13.426487097628222"><ele>125.0</ele><time>2026-05-02T16:06:24.001Z</time></trkpt><trkpt lat="46.08819316172327" lon="13.426539920193315"><ele>125.0</ele><time>2026-05-02T16:06:25.001Z</time></trkpt><trkpt lat="46.08809198832735" lon="13.426615754025795"><ele>125.0</ele><time>2026-05-02T16:06:26.001Z</time></trkpt><trkpt lat="46.08800282263378" lon="13.42670639613648"><ele>125.2</ele><time>2026-05-02T16:06:27.001Z</time></trkpt><trkpt lat="46.08791889355279" lon="13.426797450611039"><ele>125.4</ele><time>2026-05-02T16:06:28.001Z</time></trkpt><trkpt lat="46.0878468645523" lon="13.426890531537449"><ele>125.6</ele><time>2026-05-02T16:06:29.001Z</time></trkpt><trkpt lat="46.08778109103511" lon="13.426983965610006"><ele>125.8</ele><time>2026-05-02T16:06:30.001Z</time></trkpt><trkpt lat="46.08772021598319" lon="13.427083285418876"><ele>126.0</ele><time>2026-05-02T16:06:31.001Z</time></trkpt><trkpt lat="46.08766702437458" lon="13.427179942798784"><ele>127.16666666666667</ele><time>2026-05-02T16:06:32.001Z</time></trkpt><trkpt lat="46.08762220344484" lon="13.427279322952721"><ele>128.33333333333334</ele><time>2026-05-02T16:06:33.001Z</time></trkpt><trkpt lat="46.08757907584559" lon="13.42738181670682"><ele>129.5</ele><time>2026-05-02T16:06:34.001Z</time></trkpt><trkpt lat="46.08754087137814" lon="13.427479471141448"><ele>130.66666666666669</ele><time>2026-05-02T16:06:35.001Z</time></trkpt><trkpt lat="46.08750057006686" lon="13.427575400656453"><ele>131.83333333333334</ele><time>2026-05-02T16:06:36.001Z</time></trkpt><trkpt lat="46.087460971885385" lon="13.4276688656602"><ele>133.0</ele><time>2026-05-02T16:06:37.001Z</time></trkpt><trkpt lat="46.08742501691429" lon="13.427750243900027"><ele>133.0</ele><time>2026-05-02T16:06:38.001Z</time></trkpt><trkpt lat="46.08737616716914" lon="13.427874820743773"><ele>133.0</ele><time>2026-05-02T16:06:40.001Z</time></trkpt><trkpt lat="46.08733541796736" lon="13.42796722206906"><ele>133.0</ele><time>2026-05-02T16:06:42.001Z</time></trkpt><trkpt lat="46.08728640269975" lon="13.428051381790079"><ele>133.0</ele><time>2026-05-02T16:06:45.001Z</time></trkpt><trkpt lat="46.08724272652494" lon="13.428129087609149"><ele>133.0</ele><time>2026-05-02T16:06:52.001Z</time></trkpt><trkpt lat="46.08718387848334" lon="13.428216071247189"><ele>133.0</ele><time>2026-05-02T16:06:54.001Z</time></trkpt><trkpt lat="46.08716170412825" lon="13.428306418966773"><ele>133.0</ele><time>2026-05-02T16:06:56.001Z</time></trkpt><trkpt lat="46.08713241999534" lon="13.428438191158188"><ele>133.0</ele><time>2026-05-02T16:06:58.001Z</time></trkpt><trkpt lat="46.087179257873096" lon="13.428526905225937"><ele>133.0</ele><time>2026-05-02T16:06:59.001Z</time></trkpt><trkpt lat="46.08724386858149" lon="13.428606847109956"><ele>133.0</ele><time>2026-05-02T16:07:00.001Z</time></trkpt><trkpt lat="46.0873123389756" lon="13.428675244902092"><ele>133.0</ele><time>2026-05-02T16:07:01.001Z</time></trkpt><trkpt lat="46.08737184268379" lon="13.428747336776466"><ele>133.0</ele><time>2026-05-02T16:07:02.001Z</time></trkpt><trkpt lat="46.08743347243766" lon="13.428818909750724"><ele>132.8</ele><time>2026-05-02T16:07:03.001Z</time></trkpt><trkpt lat="46.08750015416108" lon="13.428896781047301"><ele>132.60000000000002</ele><time>2026-05-02T16:07:04.001Z</time></trkpt><trkpt lat="46.08756564324588" lon="13.428987811232862"><ele>132.39999999999998</ele><time>2026-05-02T16:07:05.001Z</time></trkpt><trkpt lat="46.08764388666422" lon="13.429078169993481"><ele>132.2</ele><time>2026-05-02T16:07:06.001Z</time></trkpt><trkpt lat="46.087716185774056" lon="13.429184520737914"><ele>132.0</ele><time>2026-05-02T16:07:07.001Z</time></trkpt><trkpt lat="46.087785153883054" lon="13.429285852585927"><ele>132.0</ele><time>2026-05-02T16:07:08.001Z</time></trkpt><trkpt lat="46.08784991129079" lon="13.429391602561767"><ele>132.0</ele><time>2026-05-02T16:07:09.001Z</time></trkpt><trkpt lat="46.0879141404192" lon="13.429499739144868"><ele>132.0</ele><time>2026-05-02T16:07:10.001Z</time></trkpt><trkpt lat="46.08797464624697" lon="13.429610844615038"><ele>132.0</ele><time>2026-05-02T16:07:11.001Z</time></trkpt><trkpt lat="46.08803401185377" lon="13.42972388156033"><ele>132.0</ele><time>2026-05-02T16:07:12.001Z</time></trkpt><trkpt lat="46.0880877923178" lon="13.429846494332635"><ele>132.0</ele><time>2026-05-02T16:07:13.001Z</time></trkpt><trkpt lat="46.088144747402424" lon="13.42997280798449"><ele>132.0</ele><time>2026-05-02T16:07:14.001Z</time></trkpt><trkpt lat="46.08819344956773" lon="13.430110206235474"><ele>132.0</ele><time>2026-05-02T16:07:15Z</time></trkpt><trkpt lat="46.08823726988228" lon="13.430249972266308"><ele>132.0</ele><time>2026-05-02T16:07:16Z</time></trkpt><trkpt lat="46.08829487557974" lon="13.430376727729282"><ele>132.0</ele><time>2026-05-02T16:07:17Z</time></trkpt><trkpt lat="46.08835057727118" lon="13.430513077696528"><ele>132.5</ele><time>2026-05-02T16:07:18Z</time></trkpt><trkpt lat="46.0884053864107" lon="13.430653475274607"><ele>133.0</ele><time>2026-05-02T16:07:19Z</time></trkpt><trkpt lat="46.088468115926126" lon="13.43079550259797"><ele>133.5</ele><time>2026-05-02T16:07:20Z</time></trkpt><trkpt lat="46.08852460501438" lon="13.430949605547564"><ele>134.0</ele><time>2026-05-02T16:07:21Z</time></trkpt><trkpt lat="46.08858167056519" lon="13.431103403084292"><ele>134.0</ele><time>2026-05-02T16:07:22Z</time></trkpt><trkpt lat="46.08865012042273" lon="13.431247519341635"><ele>134.0</ele><time>2026-05-02T16:07:23Z</time></trkpt><trkpt lat="46.08871178262777" lon="13.431401644328423"><ele>134.0</ele><time>2026-05-02T16:07:24Z</time></trkpt><trkpt lat="46.08877236552936" lon="13.431550084497532"><ele>134.0</ele><time>2026-05-02T16:07:25Z</time></trkpt><trkpt lat="46.088828249692874" lon="13.431696513124717"><ele>134.25</ele><time>2026-05-02T16:07:26Z</time></trkpt><trkpt lat="46.08888133886502" lon="13.431848131076062"><ele>134.5</ele><time>2026-05-02T16:07:27Z</time></trkpt><trkpt lat="46.08894584986948" lon="13.431990977464725"><ele>134.75</ele><time>2026-05-02T16:07:28Z</time></trkpt><trkpt lat="46.08900978644171" lon="13.432132855193993"><ele>135.0</ele><time>2026-05-02T16:07:29Z</time></trkpt><trkpt lat="46.08907083868798" lon="13.432261921249538"><ele>135.5</ele><time>2026-05-02T16:07:30Z</time></trkpt><trkpt lat="46.08912223900474" lon="13.432390318515369"><ele>136.0</ele><time>2026-05-02T16:07:31Z</time></trkpt><trkpt lat="46.08914105317668" lon="13.432478916503358"><ele>136.5</ele><time>2026-05-02T16:07:32Z</time></trkpt><trkpt lat="46.08919421354599" lon="13.43260460196498"><ele>137.0</ele><time>2026-05-02T16:07:34Z</time></trkpt><trkpt lat="46.089228437859965" lon="13.432692627187759"><ele>137.5</ele><time>2026-05-02T16:07:36Z</time></trkpt><trkpt lat="46.08923389585543" lon="13.43278452161743"><ele>138.0</ele><time>2026-05-02T16:08:06Z</time></trkpt><trkpt lat="46.089291479255024" lon="13.432879353758915"><ele>137.5</ele><time>2026-05-02T16:08:21Z</time></trkpt><trkpt lat="46.0893574976947" lon="13.432998452386409"><ele>137.0</ele><time>2026-05-02T16:08:23Z</time></trkpt><trkpt lat="46.08941627711359" lon="13.43310731544529"><ele>136.5</ele><time>2026-05-02T16:08:25Z</time></trkpt><trkpt lat="46.08946932261488" lon="13.433255489974687"><ele>136.0</ele><time>2026-05-02T16:08:27Z</time></trkpt><trkpt lat="46.089494381525085" lon="13.433339466756133"><ele>135.5</ele><time>2026-05-02T16:08:28.001Z</time></trkpt><trkpt lat="46.089522493423615" lon="13.433422593605725"><ele>135.0</ele><time>2026-05-02T16:08:29.001Z</time></trkpt><trkpt lat="46.08959271714008" lon="13.433573811639983"><ele>135.0</ele><time>2026-05-02T16:08:31.001Z</time></trkpt><trkpt lat="46.08964865754468" lon="13.433644055964228"><ele>135.0</ele><time>2026-05-02T16:08:32.001Z</time></trkpt><trkpt lat="46.08972868376977" lon="13.43371635135316"><ele>135.0</ele><time>2026-05-02T16:08:33.001Z</time></trkpt><trkpt lat="46.08979296885229" lon="13.43380640760215"><ele>135.0</ele><time>2026-05-02T16:08:34.001Z</time></trkpt><trkpt lat="46.08987441808295" lon="13.433876976096563"><ele>135.0</ele><time>2026-05-02T16:08:35.001Z</time></trkpt><trkpt lat="46.089945215389406" lon="13.4339618856637"><ele>135.0</ele><time>2026-05-02T16:08:36.001Z</time></trkpt><trkpt lat="46.09002306004561" lon="13.434049187938896"><ele>135.2</ele><time>2026-05-02T16:08:37.001Z</time></trkpt><trkpt lat="46.090090758615574" lon="13.434158009100663"><ele>135.4</ele><time>2026-05-02T16:08:38.001Z</time></trkpt><trkpt lat="46.09017230121836" lon="13.43425360146999"><ele>135.6</ele><time>2026-05-02T16:08:39.001Z</time></trkpt><trkpt lat="46.090248068358164" lon="13.434342423053078"><ele>135.8</ele><time>2026-05-02T16:08:40.001Z</time></trkpt><trkpt lat="46.09031669652955" lon="13.434422875986987"><ele>136.0</ele><time>2026-05-02T16:08:41.001Z</time></trkpt><trkpt lat="46.09037350113339" lon="13.434472922817267"><ele>135.4</ele><time>2026-05-02T16:08:42.001Z</time></trkpt><trkpt lat="46.090281701299666" lon="13.43466424891268"><ele>134.8</ele><time>2026-05-02T16:08:45.001Z</time></trkpt><trkpt lat="46.09022031202657" lon="13.434728513625394"><ele>134.20000000000002</ele><time>2026-05-02T16:08:46.001Z</time></trkpt><trkpt lat="46.09014894842944" lon="13.434807154420355"><ele>133.6</ele><time>2026-05-02T16:08:47.001Z</time></trkpt><trkpt lat="46.09009041881169" lon="13.434895377612039"><ele>133.0</ele><time>2026-05-02T16:08:48.001Z</time></trkpt><trkpt lat="46.090000881054564" lon="13.434968265328449"><ele>133.6</ele><time>2026-05-02T16:08:49.001Z</time></trkpt><trkpt lat="46.089919685602155" lon="13.435054139526384"><ele>134.20000000000002</ele><time>2026-05-02T16:08:50.001Z</time></trkpt><trkpt lat="46.08986438707395" lon="13.435131790789999"><ele>134.8</ele><time>2026-05-02T16:08:51.001Z</time></trkpt><trkpt lat="46.089805417242076" lon="13.435248414346058"><ele>135.4</ele><time>2026-05-02T16:08:52.001Z</time></trkpt><trkpt lat="46.089762988710795" lon="13.43536390467855"><ele>136.0</ele><time>2026-05-02T16:08:53.001Z</time></trkpt><trkpt lat="46.08973268101719" lon="13.435494849602193"><ele>136.0</ele><time>2026-05-02T16:08:54.001Z</time></trkpt><trkpt lat="46.08969019504577" lon="13.43561598374409"><ele>136.0</ele><time>2026-05-02T16:08:55.001Z</time></trkpt><trkpt lat="46.08967910421282" lon="13.435766354741336"><ele>136.0</ele><time>2026-05-02T16:08:56.001Z</time></trkpt><trkpt lat="46.089652613604905" lon="13.435916660236181"><ele>136.0</ele><time>2026-05-02T16:08:57.001Z</time></trkpt><trkpt lat="46.089624089387904" lon="13.436074614672098"><ele>136.0</ele><time>2026-05-02T16:08:58.001Z</time></trkpt><trkpt lat="46.08959612236907" lon="13.436249343007661"><ele>136.5</ele><time>2026-05-02T16:08:59.001Z</time></trkpt><trkpt lat="46.08957566884003" lon="13.436427435932806"><ele>137.0</ele><time>2026-05-02T16:09:00.001Z</time></trkpt><trkpt lat="46.08955526424483" lon="13.436613536806048"><ele>137.5</ele><time>2026-05-02T16:09:01.001Z</time></trkpt><trkpt lat="46.089532173834634" lon="13.436786702538512"><ele>138.0</ele><time>2026-05-02T16:09:02.001Z</time></trkpt><trkpt lat="46.08951156515001" lon="13.436927430346694"><ele>138.0</ele><time>2026-05-02T16:09:03.001Z</time></trkpt><trkpt lat="46.08948729094997" lon="13.437046499237727"><ele>138.0</ele><time>2026-05-02T16:09:04.001Z</time></trkpt><trkpt lat="46.089451493199675" lon="13.437176048409626"><ele>138.0</ele><time>2026-05-02T16:09:06.001Z</time></trkpt><trkpt lat="46.08938384393554" lon="13.437123096477261"><ele>138.0</ele><time>2026-05-02T16:09:09.001Z</time></trkpt><trkpt lat="46.08929943778305" lon="13.43720836983595"><ele>138.0</ele><time>2026-05-02T16:09:16.001Z</time></trkpt><trkpt lat="46.089299638516074" lon="13.437307197000234"><ele>138.0</ele><time>2026-05-02T16:09:17.001Z</time></trkpt><trkpt lat="46.08928978005027" lon="13.43741157277127"><ele>138.33333333333334</ele><time>2026-05-02T16:09:18.001Z</time></trkpt><trkpt lat="46.08927109948782" lon="13.437509071546817"><ele>138.66666666666666</ele><time>2026-05-02T16:09:19.001Z</time></trkpt><trkpt lat="46.08926828106376" lon="13.437614592100584"><ele>139.0</ele><time>2026-05-02T16:09:20.001Z</time></trkpt><trkpt lat="46.089271295347075" lon="13.437723945426235"><ele>139.33333333333331</ele><time>2026-05-02T16:09:21Z</time></trkpt><trkpt lat="46.089264498599846" lon="13.437828335971874"><ele>139.66666666666666</ele><time>2026-05-02T16:09:22Z</time></trkpt><trkpt lat="46.08924492708172" lon="13.437930170680128"><ele>140.0</ele><time>2026-05-02T16:09:23Z</time></trkpt><trkpt lat="46.089202852614584" lon="13.43804403152996"><ele>140.0</ele><time>2026-05-02T16:09:24Z</time></trkpt><trkpt lat="46.08915050703651" lon="13.438143810845972"><ele>140.0</ele><time>2026-05-02T16:09:25Z</time></trkpt><trkpt lat="46.089099312196694" lon="13.438257772622965"><ele>140.0</ele><time>2026-05-02T16:09:26Z</time></trkpt><trkpt lat="46.089062392686365" lon="13.438349402689996"><ele>140.0</ele><time>2026-05-02T16:09:27Z</time></trkpt><trkpt lat="46.08906329136077" lon="13.438448479896566"><ele>140.0</ele><time>2026-05-02T16:09:28Z</time></trkpt><trkpt lat="46.08911991197721" lon="13.438516143072253"><ele>140.0</ele><time>2026-05-02T16:09:29Z</time></trkpt><trkpt lat="46.089206088070206" lon="13.438547272248309"><ele>140.0</ele><time>2026-05-02T16:09:30Z</time></trkpt><trkpt lat="46.08932438263378" lon="13.438580805631679"><ele>140.0</ele><time>2026-05-02T16:09:31Z</time></trkpt><trkpt lat="46.08945665580972" lon="13.438618163113716"><ele>140.0</ele><time>2026-05-02T16:09:32Z</time></trkpt><trkpt lat="46.08960053355194" lon="13.438650750063617"><ele>140.0</ele><time>2026-05-02T16:09:33Z</time></trkpt><trkpt lat="46.08972356451199" lon="13.438595022239975"><ele>140.0</ele><time>2026-05-02T16:09:34Z</time></trkpt><trkpt lat="46.08982992240535" lon="13.438556601847083"><ele>140.0</ele><time>2026-05-02T16:09:35Z</time></trkpt><trkpt lat="46.089917100341644" lon="13.438530870455496"><ele>140.0</ele><time>2026-05-02T16:09:36Z</time></trkpt><trkpt lat="46.09001031724282" lon="13.438759084525215"><ele>140.0</ele><time>2026-05-02T16:09:38Z</time></trkpt><trkpt lat="46.09007041996927" lon="13.438952863348515"><ele>139.75</ele><time>2026-05-02T16:09:39Z</time></trkpt><trkpt lat="46.09013580944808" lon="13.439151020929112"><ele>139.5</ele><time>2026-05-02T16:09:40Z</time></trkpt><trkpt lat="46.09019507612565" lon="13.43935096705236"><ele>139.25</ele><time>2026-05-02T16:09:41Z</time></trkpt><trkpt lat="46.090249146968446" lon="13.43953886321716"><ele>139.0</ele><time>2026-05-02T16:09:42Z</time></trkpt><trkpt lat="46.09030428216038" lon="13.439711674063393"><ele>139.0</ele><time>2026-05-02T16:09:43Z</time></trkpt><trkpt lat="46.090352324396" lon="13.439874525177471"><ele>139.0</ele><time>2026-05-02T16:09:44Z</time></trkpt><trkpt lat="46.09038780707685" lon="13.440037129796718"><ele>139.0</ele><time>2026-05-02T16:09:45Z</time></trkpt><trkpt lat="46.090424952521374" lon="13.44019149954553"><ele>139.0</ele><time>2026-05-02T16:09:46Z</time></trkpt><trkpt lat="46.09046295420054" lon="13.440335543657026"><ele>138.6</ele><time>2026-05-02T16:09:47Z</time></trkpt><trkpt lat="46.09048095592034" lon="13.440478935724357"><ele>138.2</ele><time>2026-05-02T16:09:48Z</time></trkpt><trkpt lat="46.09051042384285" lon="13.440614682551228"><ele>137.79999999999998</ele><time>2026-05-02T16:09:49Z</time></trkpt><trkpt lat="46.09055566921859" lon="13.440747734753241"><ele>137.4</ele><time>2026-05-02T16:09:50Z</time></trkpt><trkpt lat="46.09058461901064" lon="13.440882252318842"><ele>137.0</ele><time>2026-05-02T16:09:51Z</time></trkpt><trkpt lat="46.090612786703936" lon="13.44102748424676"><ele>137.0</ele><time>2026-05-02T16:09:52Z</time></trkpt><trkpt lat="46.090643521317624" lon="13.441167718115459"><ele>137.0</ele><time>2026-05-02T16:09:53Z</time></trkpt><trkpt lat="46.09067448447124" lon="13.441317766793924"><ele>137.0</ele><time>2026-05-02T16:09:54Z</time></trkpt><trkpt lat="46.090709949184344" lon="13.441474300775836"><ele>137.0</ele><time>2026-05-02T16:09:55Z</time></trkpt><trkpt lat="46.09073703471569" lon="13.441629931675308"><ele>137.0</ele><time>2026-05-02T16:09:56Z</time></trkpt><trkpt lat="46.09077141934625" lon="13.441783097298567"><ele>137.25</ele><time>2026-05-02T16:09:57Z</time></trkpt><trkpt lat="46.09080446257564" lon="13.441935497512244"><ele>137.5</ele><time>2026-05-02T16:09:58Z</time></trkpt><trkpt lat="46.09083915660939" lon="13.44208917279626"><ele>137.75</ele><time>2026-05-02T16:09:59Z</time></trkpt><trkpt lat="46.09086752706884" lon="13.442247260506198"><ele>138.0</ele><time>2026-05-02T16:10:00Z</time></trkpt><trkpt lat="46.09090121022753" lon="13.442406920908159"><ele>138.0</ele><time>2026-05-02T16:10:01Z</time></trkpt><trkpt lat="46.09093392509674" lon="13.442555598029694"><ele>138.0</ele><time>2026-05-02T16:10:02Z</time></trkpt><trkpt lat="46.090974018646826" lon="13.442692764217743"><ele>138.0</ele><time>2026-05-02T16:10:03Z</time></trkpt><trkpt lat="46.091019173016925" lon="13.442832693827976"><ele>138.0</ele><time>2026-05-02T16:10:04Z</time></trkpt><trkpt lat="46.091059633328705" lon="13.442964429780504"><ele>138.0</ele><time>2026-05-02T16:10:05Z</time></trkpt><trkpt lat="46.09110118452926" lon="13.443100567562693"><ele>138.20000000000002</ele><time>2026-05-02T16:10:06Z</time></trkpt><trkpt lat="46.09114350858313" lon="13.443233260010086"><ele>138.4</ele><time>2026-05-02T16:10:07Z</time></trkpt><trkpt lat="46.091189325317075" lon="13.44336569801123"><ele>138.60000000000002</ele><time>2026-05-02T16:10:08Z</time></trkpt><trkpt lat="46.09123643414493" lon="13.443498089951351"><ele>138.8</ele><time>2026-05-02T16:10:09Z</time></trkpt><trkpt lat="46.09127899272163" lon="13.443641841495632"><ele>139.0</ele><time>2026-05-02T16:10:10Z</time></trkpt><trkpt lat="46.091321732419516" lon="13.443787645926168"><ele>138.8</ele><time>2026-05-02T16:10:11Z</time></trkpt><trkpt lat="46.09136504604369" lon="13.443934026883975"><ele>138.60000000000002</ele><time>2026-05-02T16:10:12Z</time></trkpt><trkpt lat="46.09140219784925" lon="13.444081706303738"><ele>138.4</ele><time>2026-05-02T16:10:13Z</time></trkpt><trkpt lat="46.09143474310909" lon="13.444232305606283"><ele>138.20000000000002</ele><time>2026-05-02T16:10:14Z</time></trkpt><trkpt lat="46.09146888226813" lon="13.444380358434186"><ele>138.0</ele><time>2026-05-02T16:10:15Z</time></trkpt><trkpt lat="46.09149545994047" lon="13.444526012864863"><ele>138.4</ele><time>2026-05-02T16:10:16Z</time></trkpt><trkpt lat="46.09151624725675" lon="13.444670071509492"><ele>138.8</ele><time>2026-05-02T16:10:17Z</time></trkpt><trkpt lat="46.09153740238982" lon="13.444802385200935"><ele>139.2</ele><time>2026-05-02T16:10:18Z</time></trkpt><trkpt lat="46.091555249085935" lon="13.444931275880696"><ele>139.6</ele><time>2026-05-02T16:10:19Z</time></trkpt><trkpt lat="46.09157035038325" lon="13.445058043632404"><ele>140.0</ele><time>2026-05-02T16:10:20Z</time></trkpt><trkpt lat="46.091582978036186" lon="13.445182120049848"><ele>140.16666666666666</ele><time>2026-05-02T16:10:21Z</time></trkpt><trkpt lat="46.09159481228252" lon="13.445305425736255"><ele>140.33333333333331</ele><time>2026-05-02T16:10:22Z</time></trkpt><trkpt lat="46.091612561526546" lon="13.445434122269372"><ele>140.5</ele><time>2026-05-02T16:10:23Z</time></trkpt><trkpt lat="46.09163182821517" lon="13.445558827387769"><ele>140.66666666666666</ele><time>2026-05-02T16:10:24Z</time></trkpt><trkpt lat="46.091648267160295" lon="13.445684626863825"><ele>140.83333333333334</ele><time>2026-05-02T16:10:25Z</time></trkpt><trkpt lat="46.09165777007542" lon="13.44581345337321"><ele>141.0</ele><time>2026-05-02T16:10:26Z</time></trkpt><trkpt lat="46.09168612886373" lon="13.445941169455315"><ele>141.0</ele><time>2026-05-02T16:10:27Z</time></trkpt><trkpt lat="46.09171982682536" lon="13.44606784411631"><ele>141.0</ele><time>2026-05-02T16:10:28Z</time></trkpt><trkpt lat="46.09175985944452" lon="13.446196106158856"><ele>141.0</ele><time>2026-05-02T16:10:29Z</time></trkpt><trkpt lat="46.09180215964414" lon="13.446317364476169"><ele>141.0</ele><time>2026-05-02T16:10:30Z</time></trkpt><trkpt lat="46.09185227132684" lon="13.446437204559953"><ele>141.0</ele><time>2026-05-02T16:10:31Z</time></trkpt><trkpt lat="46.091910114847074" lon="13.446545762715676"><ele>141.2</ele><time>2026-05-02T16:10:32Z</time></trkpt><trkpt lat="46.0919695970248" lon="13.44665325255579"><ele>141.39999999999998</ele><time>2026-05-02T16:10:33Z</time></trkpt><trkpt lat="46.092060694748504" lon="13.44670756376778"><ele>141.6</ele><time>2026-05-02T16:10:34Z</time></trkpt><trkpt lat="46.09215002507894" lon="13.446760471874569"><ele>141.79999999999998</ele><time>2026-05-02T16:10:35.001Z</time></trkpt><trkpt lat="46.09223590426456" lon="13.446825963892284"><ele>142.0</ele><time>2026-05-02T16:10:36.001Z</time></trkpt><trkpt lat="46.09231624796717" lon="13.446906862983028"><ele>142.0</ele><time>2026-05-02T16:10:37.001Z</time></trkpt><trkpt lat="46.092391888089075" lon="13.44700969828331"><ele>142.0</ele><time>2026-05-02T16:10:38.001Z</time></trkpt><trkpt lat="46.09247011941559" lon="13.447145475226947"><ele>142.0</ele><time>2026-05-02T16:10:39.001Z</time></trkpt><trkpt lat="46.092554827675805" lon="13.447304725641143"><ele>142.0</ele><time>2026-05-02T16:10:40.001Z</time></trkpt><trkpt lat="46.09264190137107" lon="13.447478092632528"><ele>141.33333333333334</ele><time>2026-05-02T16:10:41.001Z</time></trkpt><trkpt lat="46.09273200046214" lon="13.447655718743688"><ele>140.66666666666666</ele><time>2026-05-02T16:10:42.001Z</time></trkpt><trkpt lat="46.0928193308688" lon="13.447851212369802"><ele>140.0</ele><time>2026-05-02T16:10:43.001Z</time></trkpt><trkpt lat="46.09291666988202" lon="13.448038582340542"><ele>142.33333333333331</ele><time>2026-05-02T16:10:44.001Z</time></trkpt><trkpt lat="46.093011613257715" lon="13.448228306318237"><ele>144.66666666666666</ele><time>2026-05-02T16:10:45.001Z</time></trkpt><trkpt lat="46.09309803641949" lon="13.448412401383482"><ele>147.0</ele><time>2026-05-02T16:10:46.001Z</time></trkpt><trkpt lat="46.093181428926314" lon="13.448595267311978"><ele>143.25</ele><time>2026-05-02T16:10:47.001Z</time></trkpt><trkpt lat="46.09326408609459" lon="13.448772896758936"><ele>139.5</ele><time>2026-05-02T16:10:48.001Z</time></trkpt><trkpt lat="46.093354124851494" lon="13.448932008877435"><ele>135.75</ele><time>2026-05-02T16:10:49.001Z</time></trkpt><trkpt lat="46.09342686972292" lon="13.44908303914217"><ele>132.0</ele><time>2026-05-02T16:10:50.001Z</time></trkpt><trkpt lat="46.093484815989015" lon="13.449209304493161"><ele>131.79999999999998</ele><time>2026-05-02T16:10:51.001Z</time></trkpt><trkpt lat="46.093526659515156" lon="13.449310905450092"><ele>131.6</ele><time>2026-05-02T16:10:52.001Z</time></trkpt><trkpt lat="46.0935619136776" lon="13.449451760469882"><ele>131.39999999999998</ele><time>2026-05-02T16:10:54.001Z</time></trkpt><trkpt lat="46.09359888279571" lon="13.449545471320125"><ele>131.2</ele><time>2026-05-02T16:11:03.001Z</time></trkpt><trkpt lat="46.09357328197288" lon="13.449304891721503"><ele>131.0</ele><time>2026-05-02T16:11:19.001Z</time></trkpt><trkpt lat="46.093500294156236" lon="13.449176069568386"><ele>131.0</ele><time>2026-05-02T16:11:20.001Z</time></trkpt><trkpt lat="46.09341740376356" lon="13.449004234528516"><ele>131.0</ele><time>2026-05-02T16:11:21.001Z</time></trkpt><trkpt lat="46.09333141082131" lon="13.448813491594512"><ele>131.0</ele><time>2026-05-02T16:11:22.001Z</time></trkpt><trkpt lat="46.09323198271818" lon="13.448608672149096"><ele>136.33333333333331</ele><time>2026-05-02T16:11:23.001Z</time></trkpt><trkpt lat="46.09313744433871" lon="13.448412734526528"><ele>141.66666666666666</ele><time>2026-05-02T16:11:24.001Z</time></trkpt><trkpt lat="46.09304862910479" lon="13.448222767812114"><ele>147.0</ele><time>2026-05-02T16:11:25.001Z</time></trkpt><trkpt lat="46.092959125966544" lon="13.448033610697134"><ele>144.66666666666666</ele><time>2026-05-02T16:11:26.001Z</time></trkpt><trkpt lat="46.092863420811845" lon="13.447836163384245"><ele>142.33333333333331</ele><time>2026-05-02T16:11:27Z</time></trkpt><trkpt lat="46.09276212785241" lon="13.447647046464644"><ele>140.0</ele><time>2026-05-02T16:11:28Z</time></trkpt><trkpt lat="46.09267602656388" lon="13.447492815941107"><ele>140.0</ele><time>2026-05-02T16:11:29Z</time></trkpt><trkpt lat="46.092599029778974" lon="13.447348570813347"><ele>140.0</ele><time>2026-05-02T16:11:30Z</time></trkpt><trkpt lat="46.09252807646373" lon="13.447220911720551"><ele>140.0</ele><time>2026-05-02T16:11:31Z</time></trkpt><trkpt lat="46.092459032836636" lon="13.447092420424562"><ele>140.0</ele><time>2026-05-02T16:11:32Z</time></trkpt><trkpt lat="46.09240099034388" lon="13.446965014133273"><ele>140.4</ele><time>2026-05-02T16:11:33Z</time></trkpt><trkpt lat="46.092341077858165" lon="13.446856362078433"><ele>140.8</ele><time>2026-05-02T16:11:34Z</time></trkpt><trkpt lat="46.092264202950865" lon="13.44677297007633"><ele>141.2</ele><time>2026-05-02T16:11:35Z</time></trkpt><trkpt lat="46.09217830657271" lon="13.446726089459208"><ele>141.6</ele><time>2026-05-02T16:11:36Z</time></trkpt><trkpt lat="46.09209549306432" lon="13.446677025952527"><ele>142.0</ele><time>2026-05-02T16:11:37Z</time></trkpt><trkpt lat="46.09202059653774" lon="13.446642618780192"><ele>142.0</ele><time>2026-05-02T16:11:39Z</time></trkpt><trkpt lat="46.09196835940001" lon="13.44657394409948"><ele>142.0</ele><time>2026-05-02T16:11:41Z</time></trkpt><trkpt lat="46.09176089299851" lon="13.44669409863264"><ele>142.0</ele><time>2026-05-02T16:11:45Z</time></trkpt><trkpt lat="46.091897971189695" lon="13.446889402586976"><ele>142.0</ele><time>2026-05-02T16:11:46Z</time></trkpt><trkpt lat="46.09192941075929" lon="13.447033832793522"><ele>142.0</ele><time>2026-05-02T16:11:47Z</time></trkpt><trkpt lat="46.09198120440749" lon="13.44720684368547"><ele>142.0</ele><time>2026-05-02T16:11:48Z</time></trkpt><trkpt lat="46.09203484169742" lon="13.447437970391567"><ele>142.0</ele><time>2026-05-02T16:11:49Z</time></trkpt><trkpt lat="46.0921031273316" lon="13.447661361049827"><ele>142.75</ele><time>2026-05-02T16:11:50Z</time></trkpt><trkpt lat="46.09217899200901" lon="13.447875174952287"><ele>143.5</ele><time>2026-05-02T16:11:51Z</time></trkpt><trkpt lat="46.092246006333816" lon="13.44805842513136"><ele>144.25</ele><time>2026-05-02T16:11:52Z</time></trkpt><trkpt lat="46.092295826687476" lon="13.448204630869766"><ele>145.0</ele><time>2026-05-02T16:11:53Z</time></trkpt><trkpt lat="46.092330363874744" lon="13.448344853452136"><ele>146.25</ele><time>2026-05-02T16:11:54Z</time></trkpt><trkpt lat="46.09234106339607" lon="13.44850206827182"><ele>147.5</ele><time>2026-05-02T16:11:55Z</time></trkpt><trkpt lat="46.09227468520303" lon="13.44865600873636"><ele>148.75</ele><time>2026-05-02T16:11:56Z</time></trkpt><trkpt lat="46.09222535416972" lon="13.448835450796818"><ele>150.0</ele><time>2026-05-02T16:11:57Z</time></trkpt><trkpt lat="46.092179317574534" lon="13.449035502787618"><ele>150.5</ele><time>2026-05-02T16:11:58Z</time></trkpt><trkpt lat="46.09214117539136" lon="13.449229590711065"><ele>151.0</ele><time>2026-05-02T16:11:59Z</time></trkpt><trkpt lat="46.092109312397426" lon="13.44940998139109"><ele>151.5</ele><time>2026-05-02T16:12:00Z</time></trkpt><trkpt lat="46.09208015062777" lon="13.449578985852524"><ele>152.0</ele><time>2026-05-02T16:12:01Z</time></trkpt><trkpt lat="46.09205392557596" lon="13.44973080022367"><ele>153.2</ele><time>2026-05-02T16:12:02Z</time></trkpt><trkpt lat="46.092028345052476" lon="13.449878867244243"><ele>154.39999999999998</ele><time>2026-05-02T16:12:03Z</time></trkpt><trkpt lat="46.09200513246876" lon="13.45001034989352"><ele>155.60000000000002</ele><time>2026-05-02T16:12:04Z</time></trkpt><trkpt lat="46.091981810911896" lon="13.450139420441069"><ele>156.8</ele><time>2026-05-02T16:12:05Z</time></trkpt><trkpt lat="46.09195896075848" lon="13.450265881915339"><ele>158.0</ele><time>2026-05-02T16:12:06Z</time></trkpt><trkpt lat="46.09194984556104" lon="13.450407616034049"><ele>159.60000000000002</ele><time>2026-05-02T16:12:07Z</time></trkpt><trkpt lat="46.09193000847485" lon="13.450557972740022"><ele>161.20000000000002</ele><time>2026-05-02T16:12:08Z</time></trkpt><trkpt lat="46.0919098915336" lon="13.450709003644391"><ele>162.8</ele><time>2026-05-02T16:12:09Z</time></trkpt><trkpt lat="46.09189739396852" lon="13.450858236725441"><ele>164.4</ele><time>2026-05-02T16:12:10Z</time></trkpt><trkpt lat="46.09188683137943" lon="13.451013490381117"><ele>166.0</ele><time>2026-05-02T16:12:11Z</time></trkpt><trkpt lat="46.09187904198181" lon="13.451148414091577"><ele>166.0</ele><time>2026-05-02T16:12:12Z</time></trkpt><trkpt lat="46.09185062597774" lon="13.45127762842174"><ele>166.0</ele><time>2026-05-02T16:12:13Z</time></trkpt><trkpt lat="46.09183082445892" lon="13.451403505340577"><ele>166.0</ele><time>2026-05-02T16:12:14Z</time></trkpt><trkpt lat="46.09181764989798" lon="13.451540718811309"><ele>166.0</ele><time>2026-05-02T16:12:15Z</time></trkpt><trkpt lat="46.09178852987664" lon="13.451689414154808"><ele>166.0</ele><time>2026-05-02T16:12:16Z</time></trkpt><trkpt lat="46.09176480255899" lon="13.451832890299467"><ele>166.8</ele><time>2026-05-02T16:12:17Z</time></trkpt><trkpt lat="46.091743561470935" lon="13.451987877115736"><ele>167.60000000000002</ele><time>2026-05-02T16:12:18Z</time></trkpt><trkpt lat="46.09176528355243" lon="13.452134317661223"><ele>168.4</ele><time>2026-05-02T16:12:19Z</time></trkpt><trkpt lat="46.091803826482334" lon="13.452284449859022"><ele>169.2</ele><time>2026-05-02T16:12:20Z</time></trkpt><trkpt lat="46.091842307386884" lon="13.452439231836463"><ele>170.0</ele><time>2026-05-02T16:12:21Z</time></trkpt><trkpt lat="46.09189653338245" lon="13.452597484503315"><ele>170.0</ele><time>2026-05-02T16:12:22Z</time></trkpt><trkpt lat="46.09194884132842" lon="13.452763872948184"><ele>170.0</ele><time>2026-05-02T16:12:23Z</time></trkpt><trkpt lat="46.09199615428856" lon="13.4529367349697"><ele>170.0</ele><time>2026-05-02T16:12:24Z</time></trkpt><trkpt lat="46.092036098702856" lon="13.453114016870172"><ele>170.0</ele><time>2026-05-02T16:12:25Z</time></trkpt><trkpt lat="46.092070432941796" lon="13.45329085428066"><ele>170.0</ele><time>2026-05-02T16:12:26Z</time></trkpt><trkpt lat="46.09209415934764" lon="13.453471016520611"><ele>170.0</ele><time>2026-05-02T16:12:27Z</time></trkpt><trkpt lat="46.09210644667779" lon="13.453660475341978"><ele>170.0</ele><time>2026-05-02T16:12:28Z</time></trkpt><trkpt lat="46.09211142661417" lon="13.453852621128153"><ele>170.0</ele><time>2026-05-02T16:12:29Z</time></trkpt><trkpt lat="46.09211291822474" lon="13.454068154352708"><ele>170.0</ele><time>2026-05-02T16:12:30Z</time></trkpt><trkpt lat="46.0921137046523" lon="13.454297685273856"><ele>170.0</ele><time>2026-05-02T16:12:31Z</time></trkpt><trkpt lat="46.09211275609421" lon="13.454530376729664"><ele>170.0</ele><time>2026-05-02T16:12:32Z</time></trkpt><trkpt lat="46.0921140053587" lon="13.45475878298372"><ele>172.33333333333331</ele><time>2026-05-02T16:12:33Z</time></trkpt><trkpt lat="46.09209985275651" lon="13.455008508886833"><ele>174.66666666666666</ele><time>2026-05-02T16:12:34Z</time></trkpt><trkpt lat="46.09207509285295" lon="13.455269540555017"><ele>177.0</ele><time>2026-05-02T16:12:35Z</time></trkpt><trkpt lat="46.09204353086194" lon="13.45552586440732"><ele>180.0</ele><time>2026-05-02T16:12:36.001Z</time></trkpt><trkpt lat="46.09200986020904" lon="13.45576273723941"><ele>183.0</ele><time>2026-05-02T16:12:37.001Z</time></trkpt><trkpt lat="46.09197933871066" lon="13.455987104966509"><ele>186.0</ele><time>2026-05-02T16:12:38.001Z</time></trkpt><trkpt lat="46.09195180600475" lon="13.456207189408968"><ele>188.25</ele><time>2026-05-02T16:12:39.001Z</time></trkpt><trkpt lat="46.09191806105977" lon="13.456412967337531"><ele>190.5</ele><time>2026-05-02T16:12:40.001Z</time></trkpt><trkpt lat="46.091885140545685" lon="13.456619434007292"><ele>192.75</ele><time>2026-05-02T16:12:41.001Z</time></trkpt><trkpt lat="46.09184719340188" lon="13.456819577584396"><ele>195.0</ele><time>2026-05-02T16:12:42.001Z</time></trkpt><trkpt lat="46.091824738562" lon="13.457027945497249"><ele>195.66666666666669</ele><time>2026-05-02T16:12:43.001Z</time></trkpt><trkpt lat="46.091816273011645" lon="13.457238139449785"><ele>196.33333333333334</ele><time>2026-05-02T16:12:44.001Z</time></trkpt><trkpt lat="46.09180901764834" lon="13.45745753283878"><ele>197.0</ele><time>2026-05-02T16:12:45.001Z</time></trkpt><trkpt lat="46.0918027470769" lon="13.457680636125687"><ele>197.0</ele><time>2026-05-02T16:12:46.001Z</time></trkpt><trkpt lat="46.091788293589644" lon="13.457905122137891"><ele>197.0</ele><time>2026-05-02T16:12:47.001Z</time></trkpt><trkpt lat="46.09176463379083" lon="13.458134256460813"><ele>197.0</ele><time>2026-05-02T16:12:48.001Z</time></trkpt><trkpt lat="46.09173123302135" lon="13.458367878626111"><ele>194.66666666666669</ele><time>2026-05-02T16:12:49.001Z</time></trkpt><trkpt lat="46.091687818121116" lon="13.458596382947931"><ele>192.33333333333334</ele><time>2026-05-02T16:12:50.001Z</time></trkpt><trkpt lat="46.09163518064533" lon="13.458816549370567"><ele>190.0</ele><time>2026-05-02T16:12:51.001Z</time></trkpt><trkpt lat="46.091576952705466" lon="13.459016191786437"><ele>190.0</ele><time>2026-05-02T16:12:52.001Z</time></trkpt><trkpt lat="46.09150671855905" lon="13.459202880349423"><ele>190.0</ele><time>2026-05-02T16:12:53.001Z</time></trkpt><trkpt lat="46.09142851221875" lon="13.45937805612173"><ele>190.0</ele><time>2026-05-02T16:12:54.001Z</time></trkpt><trkpt lat="46.09136301546707" lon="13.459559704764144"><ele>190.0</ele><time>2026-05-02T16:12:55.001Z</time></trkpt><trkpt lat="46.09129660867381" lon="13.459761566384609"><ele>193.66666666666669</ele><time>2026-05-02T16:12:56.001Z</time></trkpt><trkpt lat="46.091258737522836" lon="13.459981360992153"><ele>197.33333333333334</ele><time>2026-05-02T16:12:57.001Z</time></trkpt><trkpt lat="46.09121654346689" lon="13.460208374034206"><ele>201.0</ele><time>2026-05-02T16:12:58.001Z</time></trkpt><trkpt lat="46.09117531000983" lon="13.460423267440683"><ele>203.75</ele><time>2026-05-02T16:12:59.001Z</time></trkpt><trkpt lat="46.09113300826447" lon="13.46062821464563"><ele>206.5</ele><time>2026-05-02T16:13:00.001Z</time></trkpt><trkpt lat="46.091089214004406" lon="13.460829337778266"><ele>209.25</ele><time>2026-05-02T16:13:01.001Z</time></trkpt><trkpt lat="46.09104449261152" lon="13.461028967908558"><ele>212.0</ele><time>2026-05-02T16:13:02.001Z</time></trkpt><trkpt lat="46.091002664724485" lon="13.461227766582525"><ele>214.5</ele><time>2026-05-02T16:13:03.001Z</time></trkpt><trkpt lat="46.09095518281058" lon="13.46142252458876"><ele>217.0</ele><time>2026-05-02T16:13:04.001Z</time></trkpt><trkpt lat="46.09088683381073" lon="13.461591093431295"><ele>219.5</ele><time>2026-05-02T16:13:05.001Z</time></trkpt><trkpt lat="46.09081122981604" lon="13.461739595510739"><ele>222.0</ele><time>2026-05-02T16:13:06.001Z</time></trkpt><trkpt lat="46.090764745845036" lon="13.461896348423926"><ele>223.0</ele><time>2026-05-02T16:13:07.001Z</time></trkpt><trkpt lat="46.09073791729911" lon="13.462059556776556"><ele>224.0</ele><time>2026-05-02T16:13:08.001Z</time></trkpt><trkpt lat="46.09072681085842" lon="13.46221717452552"><ele>225.0</ele><time>2026-05-02T16:13:09.001Z</time></trkpt><trkpt lat="46.090727018110464" lon="13.462375254690752"><ele>226.0</ele><time>2026-05-02T16:13:10.001Z</time></trkpt><trkpt lat="46.09073554130275" lon="13.462508540920064"><ele>227.0</ele><time>2026-05-02T16:13:11.001Z</time></trkpt><trkpt lat="46.090736012923266" lon="13.462614644122173"><ele>231.6</ele><time>2026-05-02T16:13:12.001Z</time></trkpt><trkpt lat="46.090744399552975" lon="13.462715485797974"><ele>236.2</ele><time>2026-05-02T16:13:13.001Z</time></trkpt><trkpt lat="46.090628317652865" lon="13.462776845708447"><ele>240.8</ele><time>2026-05-02T16:13:15.001Z</time></trkpt><trkpt lat="46.09057007612046" lon="13.462689705755707"><ele>245.4</ele><time>2026-05-02T16:13:16.001Z</time></trkpt><trkpt lat="46.0905896370234" lon="13.462525785910726"><ele>250.0</ele><time>2026-05-02T16:13:17.001Z</time></trkpt><trkpt lat="46.090550192424644" lon="13.462359668420765"><ele>250.0</ele><time>2026-05-02T16:13:18.001Z</time></trkpt><trkpt lat="46.09050441785336" lon="13.46219028354029"><ele>250.0</ele><time>2026-05-02T16:13:19.001Z</time></trkpt><trkpt lat="46.09044889402394" lon="13.462080901871747"><ele>250.0</ele><time>2026-05-02T16:13:20.001Z</time></trkpt><trkpt lat="46.090377453201135" lon="13.462018804855102"><ele>250.0</ele><time>2026-05-02T16:13:21.001Z</time></trkpt><trkpt lat="46.0902955790018" lon="13.462049186326361"><ele>250.0</ele><time>2026-05-02T16:13:22.001Z</time></trkpt><trkpt lat="46.09025200278656" lon="13.462144514605118"><ele>249.99999999999997</ele><time>2026-05-02T16:13:23.001Z</time></trkpt><trkpt lat="46.090265207605" lon="13.462238980879881"><ele>250.0</ele><time>2026-05-02T16:13:24.001Z</time></trkpt><trkpt lat="46.09031384712245" lon="13.46233026235834"><ele>250.0</ele><time>2026-05-02T16:13:25.001Z</time></trkpt><trkpt lat="46.09038277555834" lon="13.462394060528752"><ele>250.0</ele><time>2026-05-02T16:13:26.001Z</time></trkpt><trkpt lat="46.09042553834855" lon="13.462481727371916"><ele>249.99999999999997</ele><time>2026-05-02T16:13:27.001Z</time></trkpt><trkpt lat="46.090429861094805" lon="13.462597299234496"><ele>250.0</ele><time>2026-05-02T16:13:28.001Z</time></trkpt><trkpt lat="46.09037494405259" lon="13.462717668748228"><ele>250.0</ele><time>2026-05-02T16:13:29.001Z</time></trkpt><trkpt lat="46.090342569070295" lon="13.462930435721058"><ele>250.0</ele><time>2026-05-02T16:13:30.001Z</time></trkpt><trkpt lat="46.09027339359286" lon="13.463108357032695"><ele>250.0</ele><time>2026-05-02T16:13:31.001Z</time></trkpt><trkpt lat="46.09019689791728" lon="13.463281919671944"><ele>250.0</ele><time>2026-05-02T16:13:32.001Z</time></trkpt><trkpt lat="46.09011017882154" lon="13.463430030769883"><ele>251.75</ele><time>2026-05-02T16:13:33Z</time></trkpt><trkpt lat="46.09004456549675" lon="13.46360448797164"><ele>253.5</ele><time>2026-05-02T16:13:34Z</time></trkpt><trkpt lat="46.08994239757257" lon="13.463705517351176"><ele>255.25</ele><time>2026-05-02T16:13:35Z</time></trkpt><trkpt lat="46.08988467307376" lon="13.46381945676736"><ele>257.0</ele><time>2026-05-02T16:13:36Z</time></trkpt><trkpt lat="46.0898830236174" lon="13.463993106943693"><ele>262.8</ele><time>2026-05-02T16:13:37Z</time></trkpt><trkpt lat="46.08987370235899" lon="13.464124045088772"><ele>268.6</ele><time>2026-05-02T16:13:38Z</time></trkpt><trkpt lat="46.08981681340007" lon="13.464212367005079"><ele>274.40000000000003</ele><time>2026-05-02T16:13:40Z</time></trkpt><trkpt lat="46.089734429324416" lon="13.464155441623827"><ele>280.2</ele><time>2026-05-02T16:13:41Z</time></trkpt><trkpt lat="46.08970475062182" lon="13.464005838259736"><ele>286.0</ele><time>2026-05-02T16:13:42Z</time></trkpt><trkpt lat="46.08977388537479" lon="13.46383874045495"><ele>283.5</ele><time>2026-05-02T16:13:43Z</time></trkpt><trkpt lat="46.08978745362276" lon="13.463637522118573"><ele>281.0</ele><time>2026-05-02T16:13:44Z</time></trkpt><trkpt lat="46.08982589967602" lon="13.463441813056379"><ele>278.5</ele><time>2026-05-02T16:13:45Z</time></trkpt><trkpt lat="46.0898298812865" lon="13.463249869624455"><ele>276.0</ele><time>2026-05-02T16:13:46Z</time></trkpt><trkpt lat="46.08980223463887" lon="13.463090162052762"><ele>272.75</ele><time>2026-05-02T16:13:47Z</time></trkpt><trkpt lat="46.08975116123307" lon="13.462945169019275"><ele>269.5</ele><time>2026-05-02T16:13:48Z</time></trkpt><trkpt lat="46.08962590706494" lon="13.46286457456129"><ele>266.25</ele><time>2026-05-02T16:13:49Z</time></trkpt><trkpt lat="46.08948821556664" lon="13.46278409757932"><ele>263.0</ele><time>2026-05-02T16:13:50Z</time></trkpt><trkpt lat="46.08938972241837" lon="13.46267320609126"><ele>263.0</ele><time>2026-05-02T16:13:51Z</time></trkpt><trkpt lat="46.0892958344075" lon="13.462602321313526"><ele>263.0</ele><time>2026-05-02T16:13:52Z</time></trkpt><trkpt lat="46.08918823277715" lon="13.462577274561637"><ele>263.0</ele><time>2026-05-02T16:13:53Z</time></trkpt><trkpt lat="46.089093993226186" lon="13.462596500918155"><ele>263.0</ele><time>2026-05-02T16:13:54Z</time></trkpt><trkpt lat="46.08901080555166" lon="13.462681311388293"><ele>263.0</ele><time>2026-05-02T16:13:55Z</time></trkpt><trkpt lat="46.08892923533996" lon="13.462817123355808"><ele>265.1666666666667</ele><time>2026-05-02T16:13:56Z</time></trkpt><trkpt lat="46.08887179094979" lon="13.462952908326262"><ele>267.33333333333337</ele><time>2026-05-02T16:13:57Z</time></trkpt><trkpt lat="46.08884543231402" lon="13.463064186365859"><ele>269.5</ele><time>2026-05-02T16:13:58Z</time></trkpt><trkpt lat="46.08886039943965" lon="13.463163310298134"><ele>271.6666666666667</ele><time>2026-05-02T16:13:59Z</time></trkpt><trkpt lat="46.08890208315551" lon="13.463263976181738"><ele>273.8333333333333</ele><time>2026-05-02T16:14:00Z</time></trkpt><trkpt lat="46.08897658137196" lon="13.463338864038048"><ele>276.0</ele><time>2026-05-02T16:14:01Z</time></trkpt><trkpt lat="46.089077207237324" lon="13.463364816464914"><ele>276.0</ele><time>2026-05-02T16:14:02Z</time></trkpt><trkpt lat="46.08917296598213" lon="13.463414615183488"><ele>276.0</ele><time>2026-05-02T16:14:03Z</time></trkpt><trkpt lat="46.089244169754814" lon="13.463512911540088"><ele>276.0</ele><time>2026-05-02T16:14:04Z</time></trkpt><trkpt lat="46.089297462404836" lon="13.463667931605658"><ele>276.0</ele><time>2026-05-02T16:14:05Z</time></trkpt><trkpt lat="46.08932931189846" lon="13.463856193655444"><ele>278.5</ele><time>2026-05-02T16:14:06Z</time></trkpt><trkpt lat="46.089312844545454" lon="13.464074196895789"><ele>281.0</ele><time>2026-05-02T16:14:07Z</time></trkpt><trkpt lat="46.08924269958052" lon="13.46426832340744"><ele>283.5</ele><time>2026-05-02T16:14:08Z</time></trkpt><trkpt lat="46.08914861807378" lon="13.46441489424421"><ele>286.0</ele><time>2026-05-02T16:14:09Z</time></trkpt><trkpt lat="46.089077963087405" lon="13.464611791349007"><ele>289.0</ele><time>2026-05-02T16:14:10Z</time></trkpt><trkpt lat="46.08896995641618" lon="13.464816368012695"><ele>292.0</ele><time>2026-05-02T16:14:11Z</time></trkpt><trkpt lat="46.08887401618281" lon="13.46495166234531"><ele>295.0</ele><time>2026-05-02T16:14:12Z</time></trkpt><trkpt lat="46.08878358923204" lon="13.465052334482777"><ele>298.0</ele><time>2026-05-02T16:14:13Z</time></trkpt><trkpt lat="46.08867137380124" lon="13.465151803954432"><ele>298.0</ele><time>2026-05-02T16:14:14Z</time></trkpt><trkpt lat="46.088544548401046" lon="13.465247436076258"><ele>298.0</ele><time>2026-05-02T16:14:15Z</time></trkpt><trkpt lat="46.088414562805255" lon="13.46535322093177"><ele>298.0</ele><time>2026-05-02T16:14:16Z</time></trkpt><trkpt lat="46.08827847302931" lon="13.465433308365737"><ele>298.0</ele><time>2026-05-02T16:14:17Z</time></trkpt><trkpt lat="46.08815068925293" lon="13.465525967805192"><ele>301.5</ele><time>2026-05-02T16:14:18Z</time></trkpt><trkpt lat="46.08804254687437" lon="13.465656483565013"><ele>305.0</ele><time>2026-05-02T16:14:19Z</time></trkpt><trkpt lat="46.08793399474762" lon="13.465797186864007"><ele>308.5</ele><time>2026-05-02T16:14:20Z</time></trkpt><trkpt lat="46.08781563470269" lon="13.46593511970956"><ele>312.0</ele><time>2026-05-02T16:14:21Z</time></trkpt><trkpt lat="46.087704918659654" lon="13.466081990697496"><ele>312.0</ele><time>2026-05-02T16:14:22Z</time></trkpt><trkpt lat="46.087595642033435" lon="13.466237151915555"><ele>312.0</ele><time>2026-05-02T16:14:23Z</time></trkpt><trkpt lat="46.08747361553085" lon="13.46642060438617"><ele>312.0</ele><time>2026-05-02T16:14:24Z</time></trkpt><trkpt lat="46.08735735738302" lon="13.466622529793536"><ele>317.5</ele><time>2026-05-02T16:14:25Z</time></trkpt><trkpt lat="46.08726435672708" lon="13.466799777203"><ele>323.0</ele><time>2026-05-02T16:14:26Z</time></trkpt><trkpt lat="46.0871752576273" lon="13.46696092346518"><ele>328.5</ele><time>2026-05-02T16:14:27Z</time></trkpt><trkpt lat="46.08711566346261" lon="13.467098521966536"><ele>334.0</ele><time>2026-05-02T16:14:28Z</time></trkpt><trkpt lat="46.08709812276201" lon="13.467188724173768"><ele>334.0</ele><time>2026-05-02T16:14:29Z</time></trkpt><trkpt lat="46.08706628294515" lon="13.467307234725286"><ele>334.0</ele><time>2026-05-02T16:14:30Z</time></trkpt><trkpt lat="46.08705975711317" lon="13.467445982732924"><ele>334.0</ele><time>2026-05-02T16:14:31Z</time></trkpt><trkpt lat="46.08718789987912" lon="13.46759394546458"><ele>334.0</ele><time>2026-05-02T16:14:32Z</time></trkpt><trkpt lat="46.08721489114385" lon="13.467739991342018"><ele>334.0</ele><time>2026-05-02T16:14:33Z</time></trkpt><trkpt lat="46.08727960973208" lon="13.467945306668865"><ele>334.0</ele><time>2026-05-02T16:14:34Z</time></trkpt><trkpt lat="46.08732900515849" lon="13.468073347717668"><ele>334.0</ele><time>2026-05-02T16:14:35Z</time></trkpt><trkpt lat="46.08740105583098" lon="13.468161256083116"><ele>334.0</ele><time>2026-05-02T16:14:36Z</time></trkpt><trkpt lat="46.08749349025106" lon="13.468200964333272"><ele>334.0</ele><time>2026-05-02T16:14:37Z</time></trkpt><trkpt lat="46.08760342934573" lon="13.46812295963537"><ele>331.0</ele><time>2026-05-02T16:14:38Z</time></trkpt><trkpt lat="46.087732878763624" lon="13.468141713754543"><ele>328.0</ele><time>2026-05-02T16:14:39Z</time></trkpt><trkpt lat="46.087860352654516" lon="13.468125094774603"><ele>325.0</ele><time>2026-05-02T16:14:40Z</time></trkpt><trkpt lat="46.08796470323021" lon="13.468193960009389"><ele>322.0</ele><time>2026-05-02T16:14:41Z</time></trkpt><trkpt lat="46.088086856983196" lon="13.468310346412133"><ele>322.0</ele><time>2026-05-02T16:14:42Z</time></trkpt><trkpt lat="46.08818624035535" lon="13.46840949953384"><ele>322.0</ele><time>2026-05-02T16:14:43Z</time></trkpt><trkpt lat="46.088292698367646" lon="13.468518697733604"><ele>322.0</ele><time>2026-05-02T16:14:44Z</time></trkpt><trkpt lat="46.08838682361166" lon="13.468616218968238"><ele>322.0</ele><time>2026-05-02T16:14:45Z</time></trkpt><trkpt lat="46.08847919661553" lon="13.4687117710257"><ele>321.5</ele><time>2026-05-02T16:14:46Z</time></trkpt><trkpt lat="46.08856364706815" lon="13.468797888270458"><ele>321.0</ele><time>2026-05-02T16:14:47.001Z</time></trkpt><trkpt lat="46.08863919090964" lon="13.468851726799894"><ele>320.5</ele><time>2026-05-02T16:14:48.001Z</time></trkpt><trkpt lat="46.08871093657672" lon="13.468928928389245"><ele>320.0</ele><time>2026-05-02T16:14:49.001Z</time></trkpt><trkpt lat="46.0887660892565" lon="13.468976880543714"><ele>319.5</ele><time>2026-05-02T16:14:50.001Z</time></trkpt><trkpt lat="46.088845243546025" lon="13.46905525903704"><ele>319.0</ele><time>2026-05-02T16:14:52.001Z</time></trkpt><trkpt lat="46.0888856736941" lon="13.469180991041647"><ele>319.0</ele><time>2026-05-02T16:14:54.001Z</time></trkpt><trkpt lat="46.08885554863083" lon="13.46931298599674"><ele>319.0</ele><time>2026-05-02T16:14:56.001Z</time></trkpt><trkpt lat="46.08881036865029" lon="13.469380786965788"><ele>319.0</ele><time>2026-05-02T16:14:57.001Z</time></trkpt><trkpt lat="46.088727083838194" lon="13.469416308096747"><ele>319.0</ele><time>2026-05-02T16:14:58.001Z</time></trkpt><trkpt lat="46.0886084782268" lon="13.469438073542243"><ele>319.0</ele><time>2026-05-02T16:14:59.001Z</time></trkpt><trkpt lat="46.08848958474214" lon="13.469468429307058"><ele>319.0</ele><time>2026-05-02T16:15:00.001Z</time></trkpt><trkpt lat="46.088347251724315" lon="13.469515493747235"><ele>319.0</ele><time>2026-05-02T16:15:01.001Z</time></trkpt><trkpt lat="46.08818002701583" lon="13.469585137673995"><ele>319.0</ele><time>2026-05-02T16:15:02.001Z</time></trkpt><trkpt lat="46.087994265699955" lon="13.469687495655071"><ele>315.66666666666663</ele><time>2026-05-02T16:15:03.001Z</time></trkpt><trkpt lat="46.08782360134903" lon="13.469795212326312"><ele>312.3333333333333</ele><time>2026-05-02T16:15:04.001Z</time></trkpt><trkpt lat="46.087654491914606" lon="13.469878008437345"><ele>309.0</ele><time>2026-05-02T16:15:05.001Z</time></trkpt><trkpt lat="46.087505906819274" lon="13.469958369144146"><ele>310.25</ele><time>2026-05-02T16:15:06.001Z</time></trkpt><trkpt lat="46.08736571604371" lon="13.470018923193539"><ele>311.5</ele><time>2026-05-02T16:15:07.001Z</time></trkpt><trkpt lat="46.08725284700343" lon="13.470127000497229"><ele>312.75</ele><time>2026-05-02T16:15:08.001Z</time></trkpt><trkpt lat="46.08712836642137" lon="13.470244123068362"><ele>314.0</ele><time>2026-05-02T16:15:09.001Z</time></trkpt><trkpt lat="46.08703163849909" lon="13.470431352822418"><ele>311.6666666666667</ele><time>2026-05-02T16:15:10.001Z</time></trkpt><trkpt lat="46.08695883150495" lon="13.470612991448865"><ele>309.3333333333333</ele><time>2026-05-02T16:15:11.001Z</time></trkpt><trkpt lat="46.086915540541405" lon="13.47082832732977"><ele>307.0</ele><time>2026-05-02T16:15:12.001Z</time></trkpt><trkpt lat="46.086870338877624" lon="13.471097846264598"><ele>303.0</ele><time>2026-05-02T16:15:13.001Z</time></trkpt><trkpt lat="46.086850230477175" lon="13.47134979253539"><ele>299.0</ele><time>2026-05-02T16:15:14.001Z</time></trkpt><trkpt lat="46.08681814063696" lon="13.47157579535027"><ele>295.0</ele><time>2026-05-02T16:15:15.001Z</time></trkpt><trkpt lat="46.086778030721625" lon="13.471784331137883"><ele>295.0</ele><time>2026-05-02T16:15:16.001Z</time></trkpt><trkpt lat="46.08672047426974" lon="13.471964150731296"><ele>295.0</ele><time>2026-05-02T16:15:17.001Z</time></trkpt><trkpt lat="46.08666501368577" lon="13.472147385120037"><ele>295.0</ele><time>2026-05-02T16:15:18.001Z</time></trkpt><trkpt lat="46.086596652767454" lon="13.472307080512826"><ele>295.0</ele><time>2026-05-02T16:15:19.001Z</time></trkpt><trkpt lat="46.08651025324277" lon="13.47245278338788"><ele>290.0</ele><time>2026-05-02T16:15:20.001Z</time></trkpt><trkpt lat="46.086385590700985" lon="13.47260523186486"><ele>285.0</ele><time>2026-05-02T16:15:21.001Z</time></trkpt><trkpt lat="46.086261432571476" lon="13.472778721182987"><ele>280.0</ele><time>2026-05-02T16:15:22.001Z</time></trkpt><trkpt lat="46.08612716344073" lon="13.472935875302989"><ele>278.3333333333333</ele><time>2026-05-02T16:15:23.001Z</time></trkpt><trkpt lat="46.085996952980295" lon="13.473099637190915"><ele>276.6666666666667</ele><time>2026-05-02T16:15:24.001Z</time></trkpt><trkpt lat="46.08587479601663" lon="13.4732620702416"><ele>275.0</ele><time>2026-05-02T16:15:25.001Z</time></trkpt><trkpt lat="46.085760335789274" lon="13.473441626804053"><ele>273.33333333333337</ele><time>2026-05-02T16:15:26.001Z</time></trkpt><trkpt lat="46.08565878971139" lon="13.473619222907118"><ele>271.6666666666667</ele><time>2026-05-02T16:15:27.001Z</time></trkpt><trkpt lat="46.085577312068715" lon="13.473802812963076"><ele>270.0</ele><time>2026-05-02T16:15:28.001Z</time></trkpt><trkpt lat="46.0854894837557" lon="13.47397207848547"><ele>270.0</ele><time>2026-05-02T16:15:29.001Z</time></trkpt><trkpt lat="46.085412875891905" lon="13.474129336405937"><ele>270.0</ele><time>2026-05-02T16:15:30.001Z</time></trkpt><trkpt lat="46.08535677993614" lon="13.474275092029648"><ele>270.0</ele><time>2026-05-02T16:15:31.001Z</time></trkpt><trkpt lat="46.08531551884072" lon="13.474413234502288"><ele>270.0</ele><time>2026-05-02T16:15:32.001Z</time></trkpt><trkpt lat="46.08529971028912" lon="13.474556920684146"><ele>270.5</ele><time>2026-05-02T16:15:33.001Z</time></trkpt><trkpt lat="46.085285030280346" lon="13.474717513626242"><ele>271.0</ele><time>2026-05-02T16:15:34.001Z</time></trkpt><trkpt lat="46.08532168566079" lon="13.474885369315045"><ele>271.5</ele><time>2026-05-02T16:15:35.001Z</time></trkpt><trkpt lat="46.08535221252129" lon="13.47505629871157"><ele>272.0</ele><time>2026-05-02T16:15:36.001Z</time></trkpt><trkpt lat="46.08539253714615" lon="13.47522755819299"><ele>272.0</ele><time>2026-05-02T16:15:37.001Z</time></trkpt><trkpt lat="46.08544420787722" lon="13.475427443184534"><ele>272.0</ele><time>2026-05-02T16:15:38.001Z</time></trkpt><trkpt lat="46.08549840504368" lon="13.475654410585921"><ele>272.0</ele><time>2026-05-02T16:15:39Z</time></trkpt><trkpt lat="46.08555060076835" lon="13.475906417701138"><ele>271.6666666666667</ele><time>2026-05-02T16:15:40Z</time></trkpt><trkpt lat="46.085604635317836" lon="13.47615655073484"><ele>271.3333333333333</ele><time>2026-05-02T16:15:41Z</time></trkpt><trkpt lat="46.0856351570087" lon="13.476374970561734"><ele>271.0</ele><time>2026-05-02T16:15:42Z</time></trkpt><trkpt lat="46.08567442611921" lon="13.476568846347242"><ele>270.75</ele><time>2026-05-02T16:15:43Z</time></trkpt><trkpt lat="46.08572099561442" lon="13.476763486696719"><ele>270.5</ele><time>2026-05-02T16:15:44Z</time></trkpt><trkpt lat="46.08573972999254" lon="13.476955817934577"><ele>270.25</ele><time>2026-05-02T16:15:45Z</time></trkpt><trkpt lat="46.085747629820176" lon="13.477156437354509"><ele>270.0</ele><time>2026-05-02T16:15:46Z</time></trkpt><trkpt lat="46.08575104689529" lon="13.477360693916838"><ele>269.0</ele><time>2026-05-02T16:15:47Z</time></trkpt><trkpt lat="46.08575072238767" lon="13.477583156734575"><ele>268.0</ele><time>2026-05-02T16:15:48Z</time></trkpt><trkpt lat="46.085755425485274" lon="13.477819358211033"><ele>267.0</ele><time>2026-05-02T16:15:49Z</time></trkpt><trkpt lat="46.08578426220446" lon="13.478074014973808"><ele>275.0</ele><time>2026-05-02T16:15:50Z</time></trkpt><trkpt lat="46.08582224516475" lon="13.478326954160643"><ele>283.0</ele><time>2026-05-02T16:15:51Z</time></trkpt><trkpt lat="46.08588126371894" lon="13.478541456594566"><ele>291.0</ele><time>2026-05-02T16:15:52Z</time></trkpt><trkpt lat="46.085944290282825" lon="13.478740511498328"><ele>292.0</ele><time>2026-05-02T16:15:53Z</time></trkpt><trkpt lat="46.08601096958624" lon="13.478952854918917"><ele>293.0</ele><time>2026-05-02T16:15:54Z</time></trkpt><trkpt lat="46.08607999155355" lon="13.479180903129544"><ele>294.0</ele><time>2026-05-02T16:15:55Z</time></trkpt><trkpt lat="46.08613733696253" lon="13.479417307158034"><ele>294.0</ele><time>2026-05-02T16:15:56Z</time></trkpt><trkpt lat="46.08617958004996" lon="13.479623763093043"><ele>294.0</ele><time>2026-05-02T16:15:57Z</time></trkpt><trkpt lat="46.086212989032525" lon="13.479806921933406"><ele>294.0</ele><time>2026-05-02T16:15:58Z</time></trkpt><trkpt lat="46.08623740246026" lon="13.479940764361686"><ele>294.0</ele><time>2026-05-02T16:15:59Z</time></trkpt><trkpt lat="46.086255508483184" lon="13.480043096543262"><ele>294.0</ele><time>2026-05-02T16:16:00Z</time></trkpt><trkpt lat="46.0862984105978" lon="13.480196046383053"><ele>294.0</ele><time>2026-05-02T16:16:02Z</time></trkpt><trkpt lat="46.086313735950334" lon="13.480366222862164"><ele>294.0</ele><time>2026-05-02T16:16:04Z</time></trkpt><trkpt lat="46.08633035116668" lon="13.480473304406951"><ele>294.0</ele><time>2026-05-02T16:16:05Z</time></trkpt><trkpt lat="46.08634166096043" lon="13.480599126134948"><ele>294.0</ele><time>2026-05-02T16:16:06Z</time></trkpt><trkpt lat="46.08634429746904" lon="13.480751774252138"><ele>295.0</ele><time>2026-05-02T16:16:07Z</time></trkpt><trkpt lat="46.086331756034916" lon="13.48092291657237"><ele>296.0</ele><time>2026-05-02T16:16:08Z</time></trkpt><trkpt lat="46.08632005764369" lon="13.481098128328568"><ele>297.0</ele><time>2026-05-02T16:16:09Z</time></trkpt><trkpt lat="46.086303670489286" lon="13.481308125672955"><ele>298.0</ele><time>2026-05-02T16:16:10Z</time></trkpt><trkpt lat="46.08629374971885" lon="13.481539929770763"><ele>300.25</ele><time>2026-05-02T16:16:11Z</time></trkpt><trkpt lat="46.086288601106865" lon="13.481751898807358"><ele>302.5</ele><time>2026-05-02T16:16:12Z</time></trkpt><trkpt lat="46.08627065342378" lon="13.481906620641476"><ele>304.75</ele><time>2026-05-02T16:16:13Z</time></trkpt><trkpt lat="46.086303590775486" lon="13.482060921816517"><ele>307.0</ele><time>2026-05-02T16:16:14Z</time></trkpt><trkpt lat="46.086344661204095" lon="13.482211936719553"><ele>307.66666666666663</ele><time>2026-05-02T16:16:15Z</time></trkpt><trkpt lat="46.086423460825216" lon="13.482375473370093"><ele>308.3333333333333</ele><time>2026-05-02T16:16:16Z</time></trkpt><trkpt lat="46.086505460559735" lon="13.482568847531832"><ele>309.0</ele><time>2026-05-02T16:16:17Z</time></trkpt><trkpt lat="46.08659229474975" lon="13.48277136856858"><ele>313.3333333333333</ele><time>2026-05-02T16:16:18Z</time></trkpt><trkpt lat="46.0866678728376" lon="13.482958583275343"><ele>317.66666666666663</ele><time>2026-05-02T16:16:19Z</time></trkpt><trkpt lat="46.08676888138973" lon="13.483142060740205"><ele>322.0</ele><time>2026-05-02T16:16:20Z</time></trkpt><trkpt lat="46.08688918684155" lon="13.483338271115475"><ele>322.0</ele><time>2026-05-02T16:16:21Z</time></trkpt><trkpt lat="46.087002567593565" lon="13.483535903143599"><ele>322.0</ele><time>2026-05-02T16:16:22Z</time></trkpt><trkpt lat="46.0871002504127" lon="13.4837073416328"><ele>322.0</ele><time>2026-05-02T16:16:23Z</time></trkpt><trkpt lat="46.08715222318472" lon="13.483891804359422"><ele>319.75</ele><time>2026-05-02T16:16:24Z</time></trkpt><trkpt lat="46.08720050253193" lon="13.484088008545811"><ele>317.5</ele><time>2026-05-02T16:16:25Z</time></trkpt><trkpt lat="46.08724991280409" lon="13.484281352946544"><ele>315.25</ele><time>2026-05-02T16:16:26Z</time></trkpt><trkpt lat="46.08730946377453" lon="13.484447685358413"><ele>313.0</ele><time>2026-05-02T16:16:27Z</time></trkpt><trkpt lat="46.08739061889348" lon="13.48458558082679"><ele>319.0</ele><time>2026-05-02T16:16:28Z</time></trkpt><trkpt lat="46.08750130751059" lon="13.484684754620258"><ele>325.0</ele><time>2026-05-02T16:16:29Z</time></trkpt><trkpt lat="46.08763124613224" lon="13.484748977568985"><ele>331.0</ele><time>2026-05-02T16:16:30Z</time></trkpt><trkpt lat="46.08777458920039" lon="13.48479316754319"><ele>337.0</ele><time>2026-05-02T16:16:31Z</time></trkpt><trkpt lat="46.08792259979955" lon="13.48483373256175"><ele>337.0</ele><time>2026-05-02T16:16:32Z</time></trkpt><trkpt lat="46.08807247750914" lon="13.484890861236785"><ele>337.0</ele><time>2026-05-02T16:16:33Z</time></trkpt><trkpt lat="46.08823835971211" lon="13.484973471443718"><ele>337.0</ele><time>2026-05-02T16:16:34Z</time></trkpt><trkpt lat="46.0883997441938" lon="13.485103915340408"><ele>335.3333333333333</ele><time>2026-05-02T16:16:35Z</time></trkpt><trkpt lat="46.08854514974181" lon="13.485230767091029"><ele>333.6666666666667</ele><time>2026-05-02T16:16:36Z</time></trkpt><trkpt lat="46.08867833355542" lon="13.48535641885232"><ele>332.0</ele><time>2026-05-02T16:16:37Z</time></trkpt><trkpt lat="46.08880162961728" lon="13.485481723307055"><ele>332.0</ele><time>2026-05-02T16:16:38Z</time></trkpt><trkpt lat="46.0889298871026" lon="13.485590273029068"><ele>332.0</ele><time>2026-05-02T16:16:39Z</time></trkpt><trkpt lat="46.089047507363816" lon="13.485730753990165"><ele>332.0</ele><time>2026-05-02T16:16:40Z</time></trkpt><trkpt lat="46.08916693374414" lon="13.485857516947414"><ele>335.5</ele><time>2026-05-02T16:16:41Z</time></trkpt><trkpt lat="46.089249245601835" lon="13.486032689144519"><ele>339.0</ele><time>2026-05-02T16:16:42Z</time></trkpt><trkpt lat="46.08931770712246" lon="13.486205773152015"><ele>342.5</ele><time>2026-05-02T16:16:43Z</time></trkpt><trkpt lat="46.08937077242269" lon="13.486421381844178"><ele>346.0</ele><time>2026-05-02T16:16:44Z</time></trkpt><trkpt lat="46.08939923025218" lon="13.48662940250162"><ele>346.0</ele><time>2026-05-02T16:16:45Z</time></trkpt><trkpt lat="46.089413259700436" lon="13.486817418893704"><ele>346.0</ele><time>2026-05-02T16:16:46Z</time></trkpt><trkpt lat="46.089428939645906" lon="13.486989976616705"><ele>346.0</ele><time>2026-05-02T16:16:47Z</time></trkpt><trkpt lat="46.089482098357365" lon="13.487149896680082"><ele>346.0</ele><time>2026-05-02T16:16:48Z</time></trkpt><trkpt lat="46.08953446835663" lon="13.487325146773598"><ele>343.0</ele><time>2026-05-02T16:16:49Z</time></trkpt><trkpt lat="46.089607226504036" lon="13.48749357622897"><ele>340.0</ele><time>2026-05-02T16:16:50Z</time></trkpt><trkpt lat="46.08969762970756" lon="13.48768574380534"><ele>337.0</ele><time>2026-05-02T16:16:51Z</time></trkpt><trkpt lat="46.08981090873771" lon="13.48788177020579"><ele>333.3333333333333</ele><time>2026-05-02T16:16:52.001Z</time></trkpt><trkpt lat="46.08991662876562" lon="13.48806843411519"><ele>329.6666666666667</ele><time>2026-05-02T16:16:53.001Z</time></trkpt><trkpt lat="46.09002420849558" lon="13.488244597169146"><ele>326.0</ele><time>2026-05-02T16:16:54.001Z</time></trkpt><trkpt lat="46.09011956680259" lon="13.488407929312435"><ele>332.75</ele><time>2026-05-02T16:16:55.001Z</time></trkpt><trkpt lat="46.0901857150887" lon="13.488569125885643"><ele>339.5</ele><time>2026-05-02T16:16:56.001Z</time></trkpt><trkpt lat="46.0902222517976" lon="13.488718209486949"><ele>346.25</ele><time>2026-05-02T16:16:57.001Z</time></trkpt><trkpt lat="46.09022556278179" lon="13.488883789170734"><ele>353.0</ele><time>2026-05-02T16:16:58.001Z</time></trkpt><trkpt lat="46.09020173562581" lon="13.489065924104517"><ele>353.6666666666667</ele><time>2026-05-02T16:16:59.001Z</time></trkpt><trkpt lat="46.090197049622404" lon="13.489265560490482"><ele>354.3333333333333</ele><time>2026-05-02T16:17:00.001Z</time></trkpt><trkpt lat="46.090167893952945" lon="13.489491512041521"><ele>355.0</ele><time>2026-05-02T16:17:01.001Z</time></trkpt><trkpt lat="46.09015030753044" lon="13.489716557592038"><ele>356.0</ele><time>2026-05-02T16:17:02.001Z</time></trkpt><trkpt lat="46.090133845474746" lon="13.489959104686742"><ele>357.0</ele><time>2026-05-02T16:17:03.001Z</time></trkpt><trkpt lat="46.090099290814784" lon="13.49022426678806"><ele>358.0</ele><time>2026-05-02T16:17:04.001Z</time></trkpt><trkpt lat="46.09004902732391" lon="13.490488788843974"><ele>359.66666666666663</ele><time>2026-05-02T16:17:05.001Z</time></trkpt><trkpt lat="46.09000300791504" lon="13.490767263515316"><ele>361.3333333333333</ele><time>2026-05-02T16:17:06.001Z</time></trkpt><trkpt lat="46.08997232605631" lon="13.491051875262164"><ele>363.0</ele><time>2026-05-02T16:17:07.001Z</time></trkpt><trkpt lat="46.089956366325815" lon="13.491310382007315"><ele>365.0</ele><time>2026-05-02T16:17:08.001Z</time></trkpt><trkpt lat="46.089940578611504" lon="13.491545498050307"><ele>367.0</ele><time>2026-05-02T16:17:09.001Z</time></trkpt><trkpt lat="46.08993834491538" lon="13.49179086035143"><ele>369.0</ele><time>2026-05-02T16:17:10.001Z</time></trkpt><trkpt lat="46.08992256840081" lon="13.492073925747585"><ele>363.6666666666667</ele><time>2026-05-02T16:17:11.001Z</time></trkpt><trkpt lat="46.08991789521355" lon="13.492345330815933"><ele>358.33333333333337</ele><time>2026-05-02T16:17:12.001Z</time></trkpt><trkpt lat="46.089911658062626" lon="13.492591331022957"><ele>353.0</ele><time>2026-05-02T16:17:13.001Z</time></trkpt><trkpt lat="46.08990546647296" lon="13.492810263351762"><ele>358.33333333333337</ele><time>2026-05-02T16:17:14.001Z</time></trkpt><trkpt lat="46.08990820632271" lon="13.493030547880446"><ele>363.6666666666667</ele><time>2026-05-02T16:17:15.001Z</time></trkpt><trkpt lat="46.08990961159708" lon="13.493258171746678"><ele>369.0</ele><time>2026-05-02T16:17:16.001Z</time></trkpt><trkpt lat="46.089907016200726" lon="13.493463120482845"><ele>369.0</ele><time>2026-05-02T16:17:17.001Z</time></trkpt><trkpt lat="46.089876699984586" lon="13.493665821636172"><ele>369.0</ele><time>2026-05-02T16:17:18.001Z</time></trkpt><trkpt lat="46.08983498700045" lon="13.49386415726912"><ele>369.0</ele><time>2026-05-02T16:17:19.001Z</time></trkpt><trkpt lat="46.08978567603302" lon="13.49405679915375"><ele>369.0</ele><time>2026-05-02T16:17:20.001Z</time></trkpt><trkpt lat="46.0897244128633" lon="13.494247687601332"><ele>373.0</ele><time>2026-05-02T16:17:21.001Z</time></trkpt><trkpt lat="46.089646837664546" lon="13.494345579098137"><ele>377.0</ele><time>2026-05-02T16:17:22.001Z</time></trkpt><trkpt lat="46.089553321997286" lon="13.494398830539819"><ele>381.0</ele><time>2026-05-02T16:17:23.001Z</time></trkpt><trkpt lat="46.08945869543956" lon="13.494365437224873"><ele>385.0</ele><time>2026-05-02T16:17:24.001Z</time></trkpt><trkpt lat="46.089367544800695" lon="13.494371761771383"><ele>389.0</ele><time>2026-05-02T16:17:25.001Z</time></trkpt><trkpt lat="46.08930262829826" lon="13.494406539024242"><ele>389.0</ele><time>2026-05-02T16:17:26.001Z</time></trkpt><trkpt lat="46.08928223069647" lon="13.494567987568665"><ele>389.0</ele><time>2026-05-02T16:17:27.001Z</time></trkpt><trkpt lat="46.08927716566636" lon="13.494760372868699"><ele>389.0</ele><time>2026-05-02T16:17:28.001Z</time></trkpt><trkpt lat="46.08924542477046" lon="13.494906823718319"><ele>389.0</ele><time>2026-05-02T16:17:29.001Z</time></trkpt><trkpt lat="46.08925059536432" lon="13.495021852295148"><ele>389.0</ele><time>2026-05-02T16:17:30.001Z</time></trkpt><trkpt lat="46.08932932927478" lon="13.49510869367488"><ele>390.8333333333333</ele><time>2026-05-02T16:17:32.001Z</time></trkpt><trkpt lat="46.08940531492841" lon="13.495079765331065"><ele>392.66666666666663</ele><time>2026-05-02T16:17:33.001Z</time></trkpt><trkpt lat="46.089477764332266" lon="13.494977137997587"><ele>394.5</ele><time>2026-05-02T16:17:34.001Z</time></trkpt><trkpt lat="46.08952712372343" lon="13.494828166405805"><ele>396.33333333333337</ele><time>2026-05-02T16:17:35.001Z</time></trkpt><trkpt lat="46.089574400586976" lon="13.49474473240741"><ele>398.1666666666667</ele><time>2026-05-02T16:17:36.001Z</time></trkpt><trkpt lat="46.08964633070815" lon="13.49474278428846"><ele>400.0</ele><time>2026-05-02T16:17:37.001Z</time></trkpt><trkpt lat="46.08977921118685" lon="13.494842656066524"><ele>400.0</ele><time>2026-05-02T16:17:38.001Z</time></trkpt><trkpt lat="46.08989501417794" lon="13.494905430842714"><ele>400.0</ele><time>2026-05-02T16:17:39.001Z</time></trkpt><trkpt lat="46.08998871467316" lon="13.49496725902394"><ele>400.0</ele><time>2026-05-02T16:17:40.001Z</time></trkpt><trkpt lat="46.090067160816055" lon="13.495070466890102"><ele>400.0</ele><time>2026-05-02T16:17:41.001Z</time></trkpt><trkpt lat="46.09012448363816" lon="13.495208179887245"><ele>400.0</ele><time>2026-05-02T16:17:42.001Z</time></trkpt><trkpt lat="46.09013948743394" lon="13.495399536812446"><ele>406.6666666666667</ele><time>2026-05-02T16:17:43.001Z</time></trkpt><trkpt lat="46.09015865649929" lon="13.49562455187333"><ele>413.33333333333337</ele><time>2026-05-02T16:17:44.001Z</time></trkpt><trkpt lat="46.0901802652345" lon="13.495880382867472"><ele>420.0</ele><time>2026-05-02T16:17:45Z</time></trkpt><trkpt lat="46.090200821158604" lon="13.496136379948958"><ele>420.0</ele><time>2026-05-02T16:17:46Z</time></trkpt><trkpt lat="46.090220794468074" lon="13.496395070148493"><ele>420.0</ele><time>2026-05-02T16:17:47Z</time></trkpt><trkpt lat="46.09023998516176" lon="13.496644793582114"><ele>420.0</ele><time>2026-05-02T16:17:48Z</time></trkpt><trkpt lat="46.09026047969134" lon="13.496889655570115"><ele>420.0</ele><time>2026-05-02T16:17:49Z</time></trkpt><trkpt lat="46.09029948798268" lon="13.497146737325831"><ele>420.0</ele><time>2026-05-02T16:17:50Z</time></trkpt><trkpt lat="46.09036706861117" lon="13.497409607433406"><ele>420.0</ele><time>2026-05-02T16:17:51Z</time></trkpt><trkpt lat="46.090439065629624" lon="13.497677442194293"><ele>419.0</ele><time>2026-05-02T16:17:52Z</time></trkpt><trkpt lat="46.09050063689421" lon="13.497944530566873"><ele>418.0</ele><time>2026-05-02T16:17:53Z</time></trkpt><trkpt lat="46.09057347875615" lon="13.498196593143568"><ele>417.0</ele><time>2026-05-02T16:17:54Z</time></trkpt><trkpt lat="46.09063241233023" lon="13.498433336043986"><ele>417.0</ele><time>2026-05-02T16:17:55Z</time></trkpt><trkpt lat="46.09068708241467" lon="13.498669905849285"><ele>417.0</ele><time>2026-05-02T16:17:56Z</time></trkpt><trkpt lat="46.090743070771936" lon="13.498910426522139"><ele>417.0</ele><time>2026-05-02T16:17:57Z</time></trkpt><trkpt lat="46.0907776158528" lon="13.499169174320356"><ele>425.0</ele><time>2026-05-02T16:17:58Z</time></trkpt><trkpt lat="46.09082151613051" lon="13.499401123958615"><ele>433.0</ele><time>2026-05-02T16:17:59Z</time></trkpt><trkpt lat="46.09087257220118" lon="13.49961680134575"><ele>441.0</ele><time>2026-05-02T16:18:00Z</time></trkpt><trkpt lat="46.09092682360061" lon="13.499814845720175"><ele>441.0</ele><time>2026-05-02T16:18:01Z</time></trkpt><trkpt lat="46.09098288513269" lon="13.500002626916027"><ele>441.0</ele><time>2026-05-02T16:18:02Z</time></trkpt><trkpt lat="46.09104486049047" lon="13.500188233723222"><ele>441.0</ele><time>2026-05-02T16:18:03Z</time></trkpt><trkpt lat="46.09107492772956" lon="13.500402023148476"><ele>441.0</ele><time>2026-05-02T16:18:04Z</time></trkpt><trkpt lat="46.091101729447715" lon="13.500609325316614"><ele>442.66666666666663</ele><time>2026-05-02T16:18:05Z</time></trkpt><trkpt lat="46.091103128392255" lon="13.500829365538147"><ele>444.3333333333333</ele><time>2026-05-02T16:18:06Z</time></trkpt><trkpt lat="46.091101164711894" lon="13.501062857814205"><ele>446.0</ele><time>2026-05-02T16:18:07Z</time></trkpt><trkpt lat="46.09109805734586" lon="13.501297535726271"><ele>447.3333333333333</ele><time>2026-05-02T16:18:08Z</time></trkpt><trkpt lat="46.09109547270917" lon="13.501527386242701"><ele>448.66666666666663</ele><time>2026-05-02T16:18:09Z</time></trkpt><trkpt lat="46.09110663057182" lon="13.501762857877676"><ele>450.0</ele><time>2026-05-02T16:18:10Z</time></trkpt><trkpt lat="46.091090585519225" lon="13.502002744974682"><ele>451.0</ele><time>2026-05-02T16:18:11Z</time></trkpt><trkpt lat="46.09108737461386" lon="13.502221890174331"><ele>452.0</ele><time>2026-05-02T16:18:12Z</time></trkpt><trkpt lat="46.09109717534703" lon="13.502435032954667"><ele>453.0</ele><time>2026-05-02T16:18:13Z</time></trkpt><trkpt lat="46.09109609931372" lon="13.50263466670581"><ele>454.0</ele><time>2026-05-02T16:18:14Z</time></trkpt><trkpt lat="46.091105742220435" lon="13.502823100804667"><ele>453.25</ele><time>2026-05-02T16:18:15Z</time></trkpt><trkpt lat="46.091144124719456" lon="13.503012823576523"><ele>452.5</ele><time>2026-05-02T16:18:16Z</time></trkpt><trkpt lat="46.09119286879619" lon="13.503204209974337"><ele>451.75</ele><time>2026-05-02T16:18:17Z</time></trkpt><trkpt lat="46.09129176969422" lon="13.503361563920416"><ele>451.0</ele><time>2026-05-02T16:18:18Z</time></trkpt><trkpt lat="46.09138916319906" lon="13.50352517632461"><ele>451.0</ele><time>2026-05-02T16:18:19Z</time></trkpt><trkpt lat="46.09148836934374" lon="13.50369057369054"><ele>451.0</ele><time>2026-05-02T16:18:20Z</time></trkpt><trkpt lat="46.09159152322837" lon="13.503869802136066"><ele>451.0</ele><time>2026-05-02T16:18:21Z</time></trkpt><trkpt lat="46.09170446295897" lon="13.504047942702018"><ele>456.25</ele><time>2026-05-02T16:18:22Z</time></trkpt><trkpt lat="46.0918136961363" lon="13.504231878796507"><ele>461.5</ele><time>2026-05-02T16:18:23Z</time></trkpt><trkpt lat="46.09191376870616" lon="13.50438035930698"><ele>466.75</ele><time>2026-05-02T16:18:24Z</time></trkpt><trkpt lat="46.09200114995579" lon="13.504514021410724"><ele>472.0</ele><time>2026-05-02T16:18:25Z</time></trkpt><trkpt lat="46.09206024203828" lon="13.504630377982265"><ele>472.0</ele><time>2026-05-02T16:18:26Z</time></trkpt><trkpt lat="46.09211419060067" lon="13.504739151865882"><ele>472.00000000000006</ele><time>2026-05-02T16:18:27Z</time></trkpt><trkpt lat="46.09216013350313" lon="13.50483400144038"><ele>472.00000000000006</ele><time>2026-05-02T16:18:28Z</time></trkpt><trkpt lat="46.092238725788484" lon="13.50492057196317"><ele>472.0</ele><time>2026-05-02T16:18:29Z</time></trkpt><trkpt lat="46.09235488148994" lon="13.504998769092234"><ele>472.0</ele><time>2026-05-02T16:18:30Z</time></trkpt><trkpt lat="46.09248428465079" lon="13.505039340817154"><ele>477.0</ele><time>2026-05-02T16:18:31Z</time></trkpt><trkpt lat="46.092607152024726" lon="13.505075302590875"><ele>482.0</ele><time>2026-05-02T16:18:32Z</time></trkpt><trkpt lat="46.09272635729116" lon="13.505099317619438"><ele>487.0</ele><time>2026-05-02T16:18:33Z</time></trkpt><trkpt lat="46.09284214690211" lon="13.505093748558531"><ele>492.0</ele><time>2026-05-02T16:18:34Z</time></trkpt><trkpt lat="46.09296173964492" lon="13.505092421067147"><ele>492.0</ele><time>2026-05-02T16:18:35Z</time></trkpt><trkpt lat="46.09307020577581" lon="13.505057663551566"><ele>492.0</ele><time>2026-05-02T16:18:36Z</time></trkpt><trkpt lat="46.093150008274016" lon="13.505031844676811"><ele>492.0</ele><time>2026-05-02T16:18:37Z</time></trkpt><trkpt lat="46.09321264963869" lon="13.505115056631627"><ele>492.0</ele><time>2026-05-02T16:18:39Z</time></trkpt><trkpt lat="46.09319570732419" lon="13.505203496120124"><ele>492.0</ele><time>2026-05-02T16:18:40Z</time></trkpt><trkpt lat="46.09312251060147" lon="13.505293438905456"><ele>492.0</ele><time>2026-05-02T16:18:41Z</time></trkpt><trkpt lat="46.093048490386586" lon="13.50538286895918"><ele>492.5</ele><time>2026-05-02T16:18:42Z</time></trkpt><trkpt lat="46.09299371891505" lon="13.505525577770468"><ele>493.0</ele><time>2026-05-02T16:18:43Z</time></trkpt><trkpt lat="46.09295091240679" lon="13.505699570185023"><ele>493.5</ele><time>2026-05-02T16:18:44Z</time></trkpt><trkpt lat="46.09294292433914" lon="13.50591597250297"><ele>494.0</ele><time>2026-05-02T16:18:45Z</time></trkpt><trkpt lat="46.092949694274765" lon="13.506121454321255"><ele>494.0</ele><time>2026-05-02T16:18:46Z</time></trkpt><trkpt lat="46.09296684412551" lon="13.506289112563055"><ele>494.0</ele><time>2026-05-02T16:18:47Z</time></trkpt><trkpt lat="46.09299298289367" lon="13.506389668424536"><ele>494.0</ele><time>2026-05-02T16:18:48Z</time></trkpt><trkpt lat="46.09305525642454" lon="13.506458861867907"><ele>494.0</ele><time>2026-05-02T16:18:49Z</time></trkpt><trkpt lat="46.09316412043014" lon="13.506401489821702"><ele>494.0</ele><time>2026-05-02T16:18:51Z</time></trkpt><trkpt lat="46.09317562275611" lon="13.506207696736645"><ele>494.0</ele><time>2026-05-02T16:18:52Z</time></trkpt><trkpt lat="46.09316943409489" lon="13.506053149593113"><ele>494.0</ele><time>2026-05-02T16:18:53Z</time></trkpt><trkpt lat="46.093236472166154" lon="13.50595266986395"><ele>494.0</ele><time>2026-05-02T16:18:54Z</time></trkpt><trkpt lat="46.09330507679458" lon="13.505932649942267"><ele>494.0</ele><time>2026-05-02T16:18:55Z</time></trkpt><trkpt lat="46.09336532225784" lon="13.506050474498437"><ele>494.0</ele><time>2026-05-02T16:18:56Z</time></trkpt><trkpt lat="46.093386196615285" lon="13.506273433389833"><ele>500.0</ele><time>2026-05-02T16:18:57Z</time></trkpt><trkpt lat="46.09355774376267" lon="13.506378247152272"><ele>506.0</ele><time>2026-05-02T16:18:58Z</time></trkpt><trkpt lat="46.09357586568236" lon="13.506570056205986"><ele>512.0</ele><time>2026-05-02T16:18:59.001Z</time></trkpt><trkpt lat="46.0936089949995" lon="13.506659296073227"><ele>518.0</ele><time>2026-05-02T16:19:00.001Z</time></trkpt><trkpt lat="46.09361094958218" lon="13.5067673993808"><ele>518.0</ele><time>2026-05-02T16:19:01.001Z</time></trkpt><trkpt lat="46.09358714950823" lon="13.506903828742786"><ele>518.0</ele><time>2026-05-02T16:19:02.001Z</time></trkpt><trkpt lat="46.093551965857095" lon="13.507029828561608"><ele>518.0</ele><time>2026-05-02T16:19:03.001Z</time></trkpt><trkpt lat="46.09351095192656" lon="13.507153273594438"><ele>518.0</ele><time>2026-05-02T16:19:04.001Z</time></trkpt><trkpt lat="46.09348615644834" lon="13.507300766792241"><ele>518.0</ele><time>2026-05-02T16:19:05.001Z</time></trkpt><trkpt lat="46.09347998372484" lon="13.507466320483665"><ele>519.0</ele><time>2026-05-02T16:19:06.001Z</time></trkpt><trkpt lat="46.093486612736214" lon="13.507626866379622"><ele>520.0</ele><time>2026-05-02T16:19:07.001Z</time></trkpt><trkpt lat="46.09348891848612" lon="13.50777985428439"><ele>521.0</ele><time>2026-05-02T16:19:08.001Z</time></trkpt><trkpt lat="46.09348510573615" lon="13.507916499453936"><ele>522.0</ele><time>2026-05-02T16:19:09.001Z</time></trkpt><trkpt lat="46.093483832579466" lon="13.508057497932548"><ele>523.0</ele><time>2026-05-02T16:19:10.001Z</time></trkpt><trkpt lat="46.09348750813116" lon="13.508199046267658"><ele>524.8</ele><time>2026-05-02T16:19:11.001Z</time></trkpt><trkpt lat="46.09349164242488" lon="13.508331339193564"><ele>526.5999999999999</ele><time>2026-05-02T16:19:12.001Z</time></trkpt><trkpt lat="46.09348241230245" lon="13.508472362736828"><ele>528.4000000000001</ele><time>2026-05-02T16:19:13.001Z</time></trkpt><trkpt lat="46.09349947705976" lon="13.508608316670458"><ele>530.2</ele><time>2026-05-02T16:19:14.001Z</time></trkpt><trkpt lat="46.09350079424611" lon="13.5087423131485"><ele>532.0</ele><time>2026-05-02T16:19:15.001Z</time></trkpt><trkpt lat="46.093504640689055" lon="13.50886609780308"><ele>533.8333333333334</ele><time>2026-05-02T16:19:16.001Z</time></trkpt><trkpt lat="46.09351376294515" lon="13.50898248469432"><ele>535.6666666666667</ele><time>2026-05-02T16:19:17.001Z</time></trkpt><trkpt lat="46.09352608107715" lon="13.509096679131138"><ele>537.5</ele><time>2026-05-02T16:19:18.001Z</time></trkpt><trkpt lat="46.093527668149825" lon="13.509196697062828"><ele>539.3333333333334</ele><time>2026-05-02T16:19:19.001Z</time></trkpt><trkpt lat="46.09353079209536" lon="13.509306211372714"><ele>541.1666666666666</ele><time>2026-05-02T16:19:20.001Z</time></trkpt><trkpt lat="46.09353489819969" lon="13.509420820974821"><ele>543.0</ele><time>2026-05-02T16:19:21.001Z</time></trkpt><trkpt lat="46.09353555275181" lon="13.509535974763857"><ele>544.5</ele><time>2026-05-02T16:19:22.001Z</time></trkpt><trkpt lat="46.093529278408404" lon="13.509647722202974"><ele>546.0</ele><time>2026-05-02T16:19:23.001Z</time></trkpt><trkpt lat="46.09351964231474" lon="13.509755145592502"><ele>547.5</ele><time>2026-05-02T16:19:24.001Z</time></trkpt><trkpt lat="46.09349655728724" lon="13.509868574326273"><ele>549.0</ele><time>2026-05-02T16:19:25.001Z</time></trkpt><trkpt lat="46.09347977989561" lon="13.509977093222101"><ele>550.5</ele><time>2026-05-02T16:19:26.001Z</time></trkpt><trkpt lat="46.09345942526474" lon="13.510083650343361"><ele>552.0</ele><time>2026-05-02T16:19:27.001Z</time></trkpt><trkpt lat="46.093444828989604" lon="13.510188336814776"><ele>552.0</ele><time>2026-05-02T16:19:28.001Z</time></trkpt><trkpt lat="46.093436362760094" lon="13.510298107144031"><ele>552.0</ele><time>2026-05-02T16:19:29.001Z</time></trkpt><trkpt lat="46.09342099744413" lon="13.510408815371852"><ele>552.0</ele><time>2026-05-02T16:19:30.001Z</time></trkpt><trkpt lat="46.09338364774967" lon="13.510517147754566"><ele>552.0</ele><time>2026-05-02T16:19:31.001Z</time></trkpt><trkpt lat="46.09335428770154" lon="13.510631821972323"><ele>552.0</ele><time>2026-05-02T16:19:32.001Z</time></trkpt><trkpt lat="46.093330825257205" lon="13.510764526916676"><ele>552.0</ele><time>2026-05-02T16:19:33.001Z</time></trkpt><trkpt lat="46.09327766898527" lon="13.510866693043601"><ele>552.2</ele><time>2026-05-02T16:19:34.001Z</time></trkpt><trkpt lat="46.09324084974927" lon="13.510999037085165"><ele>552.4000000000001</ele><time>2026-05-02T16:19:35.001Z</time></trkpt><trkpt lat="46.0931732805797" lon="13.511108105318083"><ele>552.5999999999999</ele><time>2026-05-02T16:19:36.001Z</time></trkpt><trkpt lat="46.0931229497454" lon="13.511251285131644"><ele>552.8</ele><time>2026-05-02T16:19:37.001Z</time></trkpt><trkpt lat="46.09306214018256" lon="13.511377642029792"><ele>553.0</ele><time>2026-05-02T16:19:38.001Z</time></trkpt><trkpt lat="46.09299125522291" lon="13.511535095437855"><ele>556.6666666666667</ele><time>2026-05-02T16:19:39.001Z</time></trkpt><trkpt lat="46.09290963777283" lon="13.51171128705513"><ele>560.3333333333334</ele><time>2026-05-02T16:19:40.001Z</time></trkpt><trkpt lat="46.09281353729539" lon="13.511905024685706"><ele>564.0</ele><time>2026-05-02T16:19:41.001Z</time></trkpt><trkpt lat="46.09274392180111" lon="13.51207590308131"><ele>565.0</ele><time>2026-05-02T16:19:42.001Z</time></trkpt><trkpt lat="46.09270581245495" lon="13.512217098068954"><ele>566.0</ele><time>2026-05-02T16:19:43.001Z</time></trkpt><trkpt lat="46.092660584911606" lon="13.512370149046369"><ele>567.0</ele><time>2026-05-02T16:19:44.001Z</time></trkpt><trkpt lat="46.0926379599359" lon="13.51248005858557"><ele>568.0</ele><time>2026-05-02T16:19:45.001Z</time></trkpt><trkpt lat="46.09261007882789" lon="13.512619133989686"><ele>569.0</ele><time>2026-05-02T16:19:47.001Z</time></trkpt><trkpt lat="46.09268312788962" lon="13.51256477386558"><ele>569.0</ele><time>2026-05-02T16:20:23Z</time></trkpt><trkpt lat="46.092696443794296" lon="13.512465553730213"><ele>569.0</ele><time>2026-05-02T16:20:24Z</time></trkpt><trkpt lat="46.09271228669824" lon="13.512343054245585"><ele>569.0</ele><time>2026-05-02T16:20:25Z</time></trkpt><trkpt lat="46.092737348523315" lon="13.512217650113124"><ele>569.0</ele><time>2026-05-02T16:20:26Z</time></trkpt><trkpt lat="46.092782743160086" lon="13.512069888014835"><ele>569.0</ele><time>2026-05-02T16:20:27Z</time></trkpt><trkpt lat="46.09284044788217" lon="13.51192394177228"><ele>567.75</ele><time>2026-05-02T16:20:28Z</time></trkpt><trkpt lat="46.09290373163632" lon="13.511764218565338"><ele>566.5</ele><time>2026-05-02T16:20:29Z</time></trkpt><trkpt lat="46.09296916527127" lon="13.511615147218507"><ele>565.25</ele><time>2026-05-02T16:20:30Z</time></trkpt><trkpt lat="46.09304059698936" lon="13.511466588393477"><ele>564.0</ele><time>2026-05-02T16:20:31Z</time></trkpt><trkpt lat="46.09311733104754" lon="13.511324869184062"><ele>562.5</ele><time>2026-05-02T16:20:32Z</time></trkpt><trkpt lat="46.09319479719436" lon="13.511181982216344"><ele>561.0</ele><time>2026-05-02T16:20:33Z</time></trkpt><trkpt lat="46.093261495430305" lon="13.511029656896014"><ele>559.5</ele><time>2026-05-02T16:20:34Z</time></trkpt><trkpt lat="46.09333388308343" lon="13.510880080326059"><ele>558.0</ele><time>2026-05-02T16:20:35Z</time></trkpt><trkpt lat="46.09338940203213" lon="13.510718257810446"><ele>558.0</ele><time>2026-05-02T16:20:36Z</time></trkpt><trkpt lat="46.09343659520823" lon="13.510534826874025"><ele>558.0</ele><time>2026-05-02T16:20:37Z</time></trkpt><trkpt lat="46.093478654903045" lon="13.510340348051084"><ele>558.0</ele><time>2026-05-02T16:20:38Z</time></trkpt><trkpt lat="46.093510586490055" lon="13.510138316191448"><ele>558.0</ele><time>2026-05-02T16:20:39Z</time></trkpt><trkpt lat="46.09354324699464" lon="13.509949385569035"><ele>556.5</ele><time>2026-05-02T16:20:40Z</time></trkpt><trkpt lat="46.093576621084345" lon="13.509773176649388"><ele>555.0</ele><time>2026-05-02T16:20:41Z</time></trkpt><trkpt lat="46.09359525081853" lon="13.509580656667936"><ele>553.5</ele><time>2026-05-02T16:20:42Z</time></trkpt><trkpt lat="46.09359456548717" lon="13.509375879839178"><ele>552.0</ele><time>2026-05-02T16:20:43Z</time></trkpt><trkpt lat="46.093572755920924" lon="13.509159229308318"><ele>549.0</ele><time>2026-05-02T16:20:44Z</time></trkpt><trkpt lat="46.093563232801095" lon="13.508937484627399"><ele>546.0</ele><time>2026-05-02T16:20:45Z</time></trkpt><trkpt lat="46.093531819296096" lon="13.508730992512687"><ele>543.0</ele><time>2026-05-02T16:20:46Z</time></trkpt><trkpt lat="46.093525337591004" lon="13.508499450713177"><ele>540.25</ele><time>2026-05-02T16:20:47Z</time></trkpt><trkpt lat="46.09351653021924" lon="13.508292681755268"><ele>537.5</ele><time>2026-05-02T16:20:48Z</time></trkpt><trkpt lat="46.09353336288747" lon="13.508089278955175"><ele>534.75</ele><time>2026-05-02T16:20:49Z</time></trkpt><trkpt lat="46.093535956157965" lon="13.507879126896816"><ele>532.0</ele><time>2026-05-02T16:20:50Z</time></trkpt><trkpt lat="46.093517759642694" lon="13.507680645222742"><ele>529.75</ele><time>2026-05-02T16:20:51Z</time></trkpt><trkpt lat="46.09351638321962" lon="13.507483744553598"><ele>527.5</ele><time>2026-05-02T16:20:52Z</time></trkpt><trkpt lat="46.09352027944978" lon="13.50728729614346"><ele>525.25</ele><time>2026-05-02T16:20:53Z</time></trkpt><trkpt lat="46.09354198354529" lon="13.507098874985521"><ele>523.0</ele><time>2026-05-02T16:20:54Z</time></trkpt><trkpt lat="46.09358485570113" lon="13.50693613841325"><ele>521.75</ele><time>2026-05-02T16:20:55Z</time></trkpt><trkpt lat="46.09361267707484" lon="13.5067811426919"><ele>520.5</ele><time>2026-05-02T16:20:56Z</time></trkpt><trkpt lat="46.093591817872024" lon="13.506624181731938"><ele>519.25</ele><time>2026-05-02T16:20:57Z</time></trkpt><trkpt lat="46.093542259707874" lon="13.506460571398984"><ele>518.0</ele><time>2026-05-02T16:20:58Z</time></trkpt><trkpt lat="46.093473853187874" lon="13.506303696713552"><ele>516.1999999999999</ele><time>2026-05-02T16:20:59Z</time></trkpt><trkpt lat="46.093408720329904" lon="13.506173974176845"><ele>514.4</ele><time>2026-05-02T16:21:00Z</time></trkpt><trkpt lat="46.09335246434434" lon="13.506062317402176"><ele>512.5999999999999</ele><time>2026-05-02T16:21:01Z</time></trkpt><trkpt lat="46.09330293947092" lon="13.505969016507235"><ele>510.79999999999995</ele><time>2026-05-02T16:21:02Z</time></trkpt><trkpt lat="46.09324415602952" lon="13.505935872221837"><ele>509.0</ele><time>2026-05-02T16:21:03Z</time></trkpt><trkpt lat="46.09313055897733" lon="13.505975343781918"><ele>506.0</ele><time>2026-05-02T16:21:05.001Z</time></trkpt><trkpt lat="46.093112627703775" lon="13.506084526412067"><ele>503.0</ele><time>2026-05-02T16:21:06.001Z</time></trkpt><trkpt lat="46.093111458749036" lon="13.506194880330105"><ele>500.0</ele><time>2026-05-02T16:21:07.001Z</time></trkpt><trkpt lat="46.093100963998985" lon="13.506317960519638"><ele>497.0</ele><time>2026-05-02T16:21:09.001Z</time></trkpt><trkpt lat="46.092988222703795" lon="13.50623114700472"><ele>494.0</ele><time>2026-05-02T16:21:11.001Z</time></trkpt><trkpt lat="46.09298168235743" lon="13.5060737557493"><ele>494.0</ele><time>2026-05-02T16:21:12.001Z</time></trkpt><trkpt lat="46.0929879745026" lon="13.505865605198485"><ele>494.0</ele><time>2026-05-02T16:21:13.001Z</time></trkpt><trkpt lat="46.09299299003556" lon="13.50567805513589"><ele>494.0</ele><time>2026-05-02T16:21:14.001Z</time></trkpt><trkpt lat="46.0930214010629" lon="13.505502898485176"><ele>494.0</ele><time>2026-05-02T16:21:15.001Z</time></trkpt><trkpt lat="46.09305926475377" lon="13.505340242678932"><ele>493.6</ele><time>2026-05-02T16:21:16.001Z</time></trkpt><trkpt lat="46.093139605759056" lon="13.50520538095055"><ele>493.2</ele><time>2026-05-02T16:21:17.001Z</time></trkpt><trkpt lat="46.093251165143215" lon="13.505119132377967"><ele>492.80000000000007</ele><time>2026-05-02T16:21:18.001Z</time></trkpt><trkpt lat="46.093293587132145" lon="13.505050897381455"><ele>492.40000000000003</ele><time>2026-05-02T16:21:19.001Z</time></trkpt><trkpt lat="46.0932595136636" lon="13.504954110096678"><ele>492.0</ele><time>2026-05-02T16:21:20.001Z</time></trkpt><trkpt lat="46.09317862102637" lon="13.504924885466986"><ele>492.0</ele><time>2026-05-02T16:21:21.001Z</time></trkpt><trkpt lat="46.09306252646487" lon="13.504974750075618"><ele>492.0</ele><time>2026-05-02T16:21:22.001Z</time></trkpt><trkpt lat="46.0929622712552" lon="13.505017843903849"><ele>492.0</ele><time>2026-05-02T16:21:23.001Z</time></trkpt><trkpt lat="46.09282855132005" lon="13.505048015272942"><ele>492.0</ele><time>2026-05-02T16:21:24.001Z</time></trkpt><trkpt lat="46.09270876177659" lon="13.50505601955259"><ele>492.0</ele><time>2026-05-02T16:21:25.001Z</time></trkpt><trkpt lat="46.09259950436708" lon="13.505045331804514"><ele>492.0</ele><time>2026-05-02T16:21:26.001Z</time></trkpt><trkpt lat="46.0925643898651" lon="13.504910500663037"><ele>492.0</ele><time>2026-05-02T16:21:28.001Z</time></trkpt><trkpt lat="46.09259482802748" lon="13.504829869793575"><ele>492.0</ele><time>2026-05-02T16:21:30.001Z</time></trkpt><trkpt lat="46.0926636028399" lon="13.504836840220594"><ele>492.0</ele><time>2026-05-02T16:21:32.001Z</time></trkpt><trkpt lat="46.0927654742367" lon="13.504832950903157"><ele>492.0</ele><time>2026-05-02T16:21:34.001Z</time></trkpt><trkpt lat="46.09287345406114" lon="13.504830063713635"><ele>492.0</ele><time>2026-05-02T16:21:36.001Z</time></trkpt><trkpt lat="46.092965892534785" lon="13.50480869112312"><ele>492.00000000000006</ele><time>2026-05-02T16:21:37.001Z</time></trkpt><trkpt lat="46.09307321565962" lon="13.50478617269796"><ele>492.00000000000006</ele><time>2026-05-02T16:21:38.001Z</time></trkpt><trkpt lat="46.0931712276927" lon="13.504765249947091"><ele>492.0</ele><time>2026-05-02T16:21:39.001Z</time></trkpt><trkpt lat="46.09326379149795" lon="13.504758010416198"><ele>492.0</ele><time>2026-05-02T16:21:40.001Z</time></trkpt><trkpt lat="46.09337342170826" lon="13.5047797589122"><ele>493.66666666666663</ele><time>2026-05-02T16:21:41.001Z</time></trkpt><trkpt lat="46.09347182203287" lon="13.504836581233004"><ele>495.3333333333333</ele><time>2026-05-02T16:21:42.001Z</time></trkpt><trkpt lat="46.09364395027652" lon="13.50498403832947"><ele>497.0</ele><time>2026-05-02T16:21:43.001Z</time></trkpt><trkpt lat="46.09378505186717" lon="13.50512633219232"><ele>497.0</ele><time>2026-05-02T16:21:44.001Z</time></trkpt><trkpt lat="46.09388986928399" lon="13.505242174457456"><ele>497.0</ele><time>2026-05-02T16:21:45.001Z</time></trkpt><trkpt lat="46.093985562796604" lon="13.505323073156013"><ele>497.0</ele><time>2026-05-02T16:21:46.001Z</time></trkpt><trkpt lat="46.09407294398223" lon="13.505460594386705"><ele>497.0</ele><time>2026-05-02T16:21:47.001Z</time></trkpt><trkpt lat="46.09417199061038" lon="13.505555569937362"><ele>497.0</ele><time>2026-05-02T16:21:48.001Z</time></trkpt><trkpt lat="46.09428527690153" lon="13.505590037218477"><ele>497.00000000000006</ele><time>2026-05-02T16:21:49.001Z</time></trkpt><trkpt lat="46.09439131198126" lon="13.505613677700294"><ele>497.00000000000006</ele><time>2026-05-02T16:21:50.001Z</time></trkpt><trkpt lat="46.0944916097984" lon="13.505626848949046"><ele>497.0</ele><time>2026-05-02T16:21:51.001Z</time></trkpt><trkpt lat="46.09460002892249" lon="13.50563284501378"><ele>497.0</ele><time>2026-05-02T16:21:52.001Z</time></trkpt><trkpt lat="46.09469608114378" lon="13.505597144584568"><ele>497.0</ele><time>2026-05-02T16:21:53.001Z</time></trkpt><trkpt lat="46.09477786806346" lon="13.505537499931934"><ele>497.00000000000006</ele><time>2026-05-02T16:21:54.001Z</time></trkpt><trkpt lat="46.09485006827697" lon="13.505419257941556"><ele>497.00000000000006</ele><time>2026-05-02T16:21:55.001Z</time></trkpt><trkpt lat="46.094932833431194" lon="13.505332113553235"><ele>497.0</ele><time>2026-05-02T16:21:56.001Z</time></trkpt><trkpt lat="46.09500663289255" lon="13.50525607713081"><ele>497.0</ele><time>2026-05-02T16:21:57Z</time></trkpt><trkpt lat="46.095084061317536" lon="13.505217710028669"><ele>491.20000000000005</ele><time>2026-05-02T16:21:58Z</time></trkpt><trkpt lat="46.09517259021707" lon="13.505201181654519"><ele>485.40000000000003</ele><time>2026-05-02T16:21:59Z</time></trkpt><trkpt lat="46.09529933663859" lon="13.505286373690444"><ele>479.59999999999997</ele><time>2026-05-02T16:22:00Z</time></trkpt><trkpt lat="46.095389870349024" lon="13.505311507192742"><ele>473.79999999999995</ele><time>2026-05-02T16:22:01Z</time></trkpt><trkpt lat="46.09548050847945" lon="13.505294214297571"><ele>468.0</ele><time>2026-05-02T16:22:02Z</time></trkpt><trkpt lat="46.09556816169717" lon="13.50519837970612"><ele>468.0</ele><time>2026-05-02T16:22:03Z</time></trkpt><trkpt lat="46.09565672706606" lon="13.505070007485935"><ele>468.0</ele><time>2026-05-02T16:22:04Z</time></trkpt><trkpt lat="46.09573463784114" lon="13.504941402878774"><ele>468.0</ele><time>2026-05-02T16:22:05Z</time></trkpt><trkpt lat="46.095809187449426" lon="13.504798475486384"><ele>468.0</ele><time>2026-05-02T16:22:06Z</time></trkpt><trkpt lat="46.09588263672037" lon="13.504651638838633"><ele>464.5</ele><time>2026-05-02T16:22:07Z</time></trkpt><trkpt lat="46.095960871772476" lon="13.504523308473168"><ele>461.0</ele><time>2026-05-02T16:22:08Z</time></trkpt><trkpt lat="46.09604231535909" lon="13.504400532474754"><ele>457.5</ele><time>2026-05-02T16:22:09Z</time></trkpt><trkpt lat="46.09612663338056" lon="13.504293273543551"><ele>454.0</ele><time>2026-05-02T16:22:10Z</time></trkpt><trkpt lat="46.09621909078608" lon="13.504182314990743"><ele>454.0</ele><time>2026-05-02T16:22:11Z</time></trkpt><trkpt lat="46.09631198329457" lon="13.504083974418666"><ele>454.0</ele><time>2026-05-02T16:22:12Z</time></trkpt><trkpt lat="46.09642093006234" lon="13.503989745738997"><ele>454.0</ele><time>2026-05-02T16:22:13Z</time></trkpt><trkpt lat="46.09654404078078" lon="13.503892502215894"><ele>454.0</ele><time>2026-05-02T16:22:14Z</time></trkpt><trkpt lat="46.096661273389195" lon="13.50380097107414"><ele>452.5</ele><time>2026-05-02T16:22:15Z</time></trkpt><trkpt lat="46.096764525140166" lon="13.503685017761178"><ele>451.0</ele><time>2026-05-02T16:22:16Z</time></trkpt><trkpt lat="46.09686658245522" lon="13.503573943044684"><ele>449.5</ele><time>2026-05-02T16:22:17Z</time></trkpt><trkpt lat="46.09697476428018" lon="13.503443376827653"><ele>448.0</ele><time>2026-05-02T16:22:18Z</time></trkpt><trkpt lat="46.09711881962835" lon="13.503328229591645"><ele>448.0</ele><time>2026-05-02T16:22:19Z</time></trkpt><trkpt lat="46.097260146808196" lon="13.50326724636257"><ele>448.0</ele><time>2026-05-02T16:22:20Z</time></trkpt><trkpt lat="46.09739480760867" lon="13.503180494074009"><ele>448.0</ele><time>2026-05-02T16:22:21Z</time></trkpt><trkpt lat="46.097561879519894" lon="13.503116648907849"><ele>446.33333333333337</ele><time>2026-05-02T16:22:22Z</time></trkpt><trkpt lat="46.097687365687605" lon="13.503023418316383"><ele>444.66666666666663</ele><time>2026-05-02T16:22:23Z</time></trkpt><trkpt lat="46.09785566067782" lon="13.502942653421085"><ele>443.0</ele><time>2026-05-02T16:22:24Z</time></trkpt><trkpt lat="46.098010286186614" lon="13.50288881151705"><ele>443.0</ele><time>2026-05-02T16:22:25Z</time></trkpt><trkpt lat="46.0981369367853" lon="13.502845647732878"><ele>442.99999999999994</ele><time>2026-05-02T16:22:26Z</time></trkpt><trkpt lat="46.09824832397894" lon="13.502798695274834"><ele>442.99999999999994</ele><time>2026-05-02T16:22:27Z</time></trkpt><trkpt lat="46.09830668425453" lon="13.502759222387454"><ele>443.0</ele><time>2026-05-02T16:22:28Z</time></trkpt><trkpt lat="46.09842228665852" lon="13.50268649219858"><ele>443.0</ele><time>2026-05-02T16:22:29Z</time></trkpt><trkpt lat="46.09854778974525" lon="13.502571141340423"><ele>440.75</ele><time>2026-05-02T16:22:30Z</time></trkpt><trkpt lat="46.098636402657796" lon="13.502382869355753"><ele>438.5</ele><time>2026-05-02T16:22:31Z</time></trkpt><trkpt lat="46.09871215236086" lon="13.502227973899936"><ele>436.25</ele><time>2026-05-02T16:22:32Z</time></trkpt><trkpt lat="46.098801249395784" lon="13.502103456894138"><ele>434.0</ele><time>2026-05-02T16:22:33Z</time></trkpt><trkpt lat="46.09888038867701" lon="13.50196290804578"><ele>432.25</ele><time>2026-05-02T16:22:34Z</time></trkpt><trkpt lat="46.09895728264153" lon="13.501815930208641"><ele>430.5</ele><time>2026-05-02T16:22:35Z</time></trkpt><trkpt lat="46.09903666218422" lon="13.501687358073543"><ele>428.75</ele><time>2026-05-02T16:22:36Z</time></trkpt><trkpt lat="46.09909910329062" lon="13.50155531586889"><ele>427.0</ele><time>2026-05-02T16:22:37Z</time></trkpt><trkpt lat="46.09920192894615" lon="13.501469491325125"><ele>426.75</ele><time>2026-05-02T16:22:38Z</time></trkpt><trkpt lat="46.0992755235302" lon="13.501403478656776"><ele>426.5</ele><time>2026-05-02T16:22:39Z</time></trkpt><trkpt lat="46.099343565187226" lon="13.501264059332387"><ele>426.25</ele><time>2026-05-02T16:22:40Z</time></trkpt><trkpt lat="46.09938564590422" lon="13.501082386574689"><ele>426.0</ele><time>2026-05-02T16:22:41Z</time></trkpt><trkpt lat="46.09941904903284" lon="13.5009037299565"><ele>424.5</ele><time>2026-05-02T16:22:42Z</time></trkpt><trkpt lat="46.09945050854363" lon="13.50074038103251"><ele>423.0</ele><time>2026-05-02T16:22:43Z</time></trkpt><trkpt lat="46.0994732210031" lon="13.500583117230708"><ele>421.5</ele><time>2026-05-02T16:22:44Z</time></trkpt><trkpt lat="46.09948833228394" lon="13.50041221759523"><ele>420.0</ele><time>2026-05-02T16:22:45Z</time></trkpt><trkpt lat="46.09950925610442" lon="13.500256782624557"><ele>418.6</ele><time>2026-05-02T16:22:46Z</time></trkpt><trkpt lat="46.09952649929544" lon="13.50009659935937"><ele>417.2</ele><time>2026-05-02T16:22:47Z</time></trkpt><trkpt lat="46.099544113267385" lon="13.49994173626271"><ele>415.79999999999995</ele><time>2026-05-02T16:22:48Z</time></trkpt><trkpt lat="46.09956194616677" lon="13.49979244008816"><ele>414.4</ele><time>2026-05-02T16:22:49Z</time></trkpt><trkpt lat="46.099570419298225" lon="13.499647687225487"><ele>413.0</ele><time>2026-05-02T16:22:50Z</time></trkpt><trkpt lat="46.09958346292331" lon="13.499486631701297"><ele>411.25</ele><time>2026-05-02T16:22:51Z</time></trkpt><trkpt lat="46.09962048467297" lon="13.499340566988689"><ele>409.5</ele><time>2026-05-02T16:22:52Z</time></trkpt><trkpt lat="46.09967250200596" lon="13.499208398265191"><ele>407.75</ele><time>2026-05-02T16:22:53Z</time></trkpt><trkpt lat="46.0997337264755" lon="13.49904846038094"><ele>406.0</ele><time>2026-05-02T16:22:54Z</time></trkpt><trkpt lat="46.09979386097566" lon="13.498871084467407"><ele>402.75</ele><time>2026-05-02T16:22:55Z</time></trkpt><trkpt lat="46.09986672756363" lon="13.498683698285944"><ele>399.5</ele><time>2026-05-02T16:22:56Z</time></trkpt><trkpt lat="46.09993957398284" lon="13.498508681728746"><ele>396.25</ele><time>2026-05-02T16:22:57Z</time></trkpt><trkpt lat="46.10000371886594" lon="13.498344264900435"><ele>393.0</ele><time>2026-05-02T16:22:58Z</time></trkpt><trkpt lat="46.10005906406481" lon="13.498170203232714"><ele>398.75</ele><time>2026-05-02T16:22:59Z</time></trkpt><trkpt lat="46.10010432327107" lon="13.498002434622213"><ele>404.5</ele><time>2026-05-02T16:23:00Z</time></trkpt><trkpt lat="46.10015834182532" lon="13.4978684608529"><ele>410.25</ele><time>2026-05-02T16:23:01Z</time></trkpt><trkpt lat="46.10020564373751" lon="13.497703112905967"><ele>416.0</ele><time>2026-05-02T16:23:02Z</time></trkpt><trkpt lat="46.10025379743674" lon="13.49753654428015"><ele>416.0</ele><time>2026-05-02T16:23:03Z</time></trkpt><trkpt lat="46.100297220006674" lon="13.497375330841585"><ele>416.0</ele><time>2026-05-02T16:23:04Z</time></trkpt><trkpt lat="46.100324175181555" lon="13.497239665675353"><ele>416.0</ele><time>2026-05-02T16:23:05Z</time></trkpt><trkpt lat="46.10034780734971" lon="13.497124900000912"><ele>416.0</ele><time>2026-05-02T16:23:06Z</time></trkpt><trkpt lat="46.10038005169849" lon="13.49700307847543"><ele>416.0</ele><time>2026-05-02T16:23:07Z</time></trkpt><trkpt lat="46.10042137014323" lon="13.496911527680524"><ele>414.4</ele><time>2026-05-02T16:23:08Z</time></trkpt><trkpt lat="46.100436682848986" lon="13.496795000522184"><ele>412.8</ele><time>2026-05-02T16:23:09.001Z</time></trkpt><trkpt lat="46.10044363887737" lon="13.496681319967427"><ele>411.2</ele><time>2026-05-02T16:23:10.001Z</time></trkpt><trkpt lat="46.10048381129279" lon="13.496508847206375"><ele>409.59999999999997</ele><time>2026-05-02T16:23:12.001Z</time></trkpt><trkpt lat="46.100499505929776" lon="13.496418609567323"><ele>408.0</ele><time>2026-05-02T16:23:13.001Z</time></trkpt><trkpt lat="46.10053353784704" lon="13.49624985136035"><ele>405.4</ele><time>2026-05-02T16:23:15.001Z</time></trkpt><trkpt lat="46.100580329839204" lon="13.496067006624736"><ele>402.79999999999995</ele><time>2026-05-02T16:23:17.001Z</time></trkpt><trkpt lat="46.10061290155261" lon="13.495885033562287"><ele>400.2</ele><time>2026-05-02T16:23:19.001Z</time></trkpt><trkpt lat="46.10063647388258" lon="13.495791585902841"><ele>397.6</ele><time>2026-05-02T16:23:20.001Z</time></trkpt><trkpt lat="46.10066437404076" lon="13.495677651741937"><ele>395.0</ele><time>2026-05-02T16:23:21.001Z</time></trkpt><trkpt lat="46.10071259351337" lon="13.495598919328547"><ele>394.99999999999994</ele><time>2026-05-02T16:23:22.001Z</time></trkpt><trkpt lat="46.10074804727376" lon="13.495498980614649"><ele>395.0</ele><time>2026-05-02T16:23:23.001Z</time></trkpt><trkpt lat="46.10078490765038" lon="13.495399706885587"><ele>395.0</ele><time>2026-05-02T16:23:24.001Z</time></trkpt><trkpt lat="46.100832703317614" lon="13.49531240708216"><ele>395.0</ele><time>2026-05-02T16:23:25.001Z</time></trkpt><trkpt lat="46.10087165060276" lon="13.495219283580388"><ele>394.99999999999994</ele><time>2026-05-02T16:23:26.001Z</time></trkpt><trkpt lat="46.10091391860761" lon="13.495137451647874"><ele>395.0</ele><time>2026-05-02T16:23:27.001Z</time></trkpt><trkpt lat="46.10095449984926" lon="13.495052572843157"><ele>396.16666666666663</ele><time>2026-05-02T16:23:28.001Z</time></trkpt><trkpt lat="46.10099647544622" lon="13.494950010070792"><ele>397.3333333333333</ele><time>2026-05-02T16:23:29.001Z</time></trkpt><trkpt lat="46.10104324588791" lon="13.49484630903597"><ele>398.5</ele><time>2026-05-02T16:23:30.001Z</time></trkpt><trkpt lat="46.10108895564788" lon="13.49474179456834"><ele>399.66666666666663</ele><time>2026-05-02T16:23:31.001Z</time></trkpt><trkpt lat="46.10113653675126" lon="13.494644521878627"><ele>400.8333333333333</ele><time>2026-05-02T16:23:32.001Z</time></trkpt><trkpt lat="46.10117737697751" lon="13.494563357872225"><ele>402.0</ele><time>2026-05-02T16:23:33.001Z</time></trkpt><trkpt lat="46.1012281666457" lon="13.494505883799281"><ele>402.0</ele><time>2026-05-02T16:25:07Z</time></trkpt><trkpt lat="46.10122806653561" lon="13.494414253207287"><ele>402.0</ele><time>2026-05-02T16:26:53Z</time></trkpt><trkpt lat="46.1011535073498" lon="13.494418295420559"><ele>402.0</ele><time>2026-05-02T16:37:44.001Z</time></trkpt><trkpt lat="46.10123504878385" lon="13.494451544920796"><ele>402.0</ele><time>2026-05-02T16:40:16.001Z</time></trkpt><trkpt lat="46.10116832556822" lon="13.494440795050139"><ele>402.0</ele><time>2026-05-02T16:42:19.001Z</time></trkpt><trkpt lat="46.10123446727512" lon="13.494413437110019"><ele>402.0</ele><time>2026-05-02T16:43:12Z</time></trkpt><trkpt lat="46.1012957088265" lon="13.494294690021269"><ele>402.0</ele><time>2026-05-02T16:45:13Z</time></trkpt><trkpt lat="46.101333427662524" lon="13.494217909026181"><ele>402.0</ele><time>2026-05-02T16:45:15Z</time></trkpt><trkpt lat="46.10137665168444" lon="13.494146525856621"><ele>402.0</ele><time>2026-05-02T16:45:22Z</time></trkpt><trkpt lat="46.10142420071474" lon="13.494038279817229"><ele>402.0</ele><time>2026-05-02T16:45:27Z</time></trkpt><trkpt lat="46.101485214311396" lon="13.493905714437393"><ele>402.0</ele><time>2026-05-02T16:45:29Z</time></trkpt><trkpt lat="46.10157120810153" lon="13.49374767245137"><ele>402.0</ele><time>2026-05-02T16:45:31Z</time></trkpt><trkpt lat="46.10160694414566" lon="13.493658875969038"><ele>402.0</ele><time>2026-05-02T16:45:32Z</time></trkpt><trkpt lat="46.10165533304092" lon="13.493577406654321"><ele>402.0</ele><time>2026-05-02T16:45:33Z</time></trkpt><trkpt lat="46.1017171058527" lon="13.493498745492003"><ele>402.0</ele><time>2026-05-02T16:45:34Z</time></trkpt><trkpt lat="46.10179933848097" lon="13.493413133807769"><ele>402.0</ele><time>2026-05-02T16:45:35Z</time></trkpt><trkpt lat="46.10187878524886" lon="13.493339184991179"><ele>402.0</ele><time>2026-05-02T16:45:36Z</time></trkpt><trkpt lat="46.10195924187851" lon="13.493260521154186"><ele>402.0</ele><time>2026-05-02T16:45:37Z</time></trkpt><trkpt lat="46.10203232719957" lon="13.49313911947503"><ele>402.0</ele><time>2026-05-02T16:45:38Z</time></trkpt><trkpt lat="46.10208448869756" lon="13.49299250196608"><ele>402.0</ele><time>2026-05-02T16:45:39Z</time></trkpt><trkpt lat="46.102130212561825" lon="13.492844753236232"><ele>402.0</ele><time>2026-05-02T16:45:40Z</time></trkpt><trkpt lat="46.102186728175305" lon="13.492702184061466"><ele>399.25</ele><time>2026-05-02T16:45:41Z</time></trkpt><trkpt lat="46.10224029636632" lon="13.492555271350255"><ele>396.5</ele><time>2026-05-02T16:45:42Z</time></trkpt><trkpt lat="46.102299429384956" lon="13.492393714180494"><ele>393.75</ele><time>2026-05-02T16:45:43Z</time></trkpt><trkpt lat="46.10235377739975" lon="13.492238231497026"><ele>391.0</ele><time>2026-05-02T16:45:44Z</time></trkpt><trkpt lat="46.10240829067973" lon="13.492096940495985"><ele>393.6</ele><time>2026-05-02T16:45:45Z</time></trkpt><trkpt lat="46.1024565068649" lon="13.491972447590536"><ele>396.20000000000005</ele><time>2026-05-02T16:45:46Z</time></trkpt><trkpt lat="46.102503437850785" lon="13.491857913594307"><ele>398.79999999999995</ele><time>2026-05-02T16:45:47Z</time></trkpt><trkpt lat="46.102543462640945" lon="13.491740460780099"><ele>401.4</ele><time>2026-05-02T16:45:48Z</time></trkpt><trkpt lat="46.10259323086694" lon="13.491612145766037"><ele>404.0</ele><time>2026-05-02T16:45:49Z</time></trkpt><trkpt lat="46.10264094339124" lon="13.491472127291964"><ele>404.0</ele><time>2026-05-02T16:45:50Z</time></trkpt><trkpt lat="46.102684595401236" lon="13.491330312068781"><ele>404.0</ele><time>2026-05-02T16:45:51Z</time></trkpt><trkpt lat="46.102733311561984" lon="13.49119061546319"><ele>404.0</ele><time>2026-05-02T16:45:52Z</time></trkpt><trkpt lat="46.102776179431295" lon="13.491085815021385"><ele>404.0</ele><time>2026-05-02T16:45:53Z</time></trkpt><trkpt lat="46.10281814279895" lon="13.49099986323187"><ele>404.0</ele><time>2026-05-02T16:45:54Z</time></trkpt><trkpt lat="46.102882940026014" lon="13.490927590261977"><ele>402.49999999999994</ele><time>2026-05-02T16:45:55Z</time></trkpt><trkpt lat="46.102953461023446" lon="13.490918602713618"><ele>401.0</ele><time>2026-05-02T16:45:56Z</time></trkpt><trkpt lat="46.103026089514515" lon="13.490943274491215"><ele>399.5</ele><time>2026-05-02T16:45:57Z</time></trkpt><trkpt lat="46.10310613179099" lon="13.490995881862508"><ele>398.0</ele><time>2026-05-02T16:45:58Z</time></trkpt><trkpt lat="46.103106700234484" lon="13.490830231523349"><ele>396.49999999999994</ele><time>2026-05-02T16:46:00.001Z</time></trkpt><trkpt lat="46.10304572495919" lon="13.490740049559125"><ele>395.0</ele><time>2026-05-02T16:46:01.001Z</time></trkpt><trkpt lat="46.10295805945057" lon="13.49065412050973"><ele>395.0</ele><time>2026-05-02T16:46:02.001Z</time></trkpt><trkpt lat="46.10288364391686" lon="13.490539565967481"><ele>395.0</ele><time>2026-05-02T16:46:03.001Z</time></trkpt><trkpt lat="46.102809732494386" lon="13.49040565909266"><ele>395.0</ele><time>2026-05-02T16:46:04.001Z</time></trkpt><trkpt lat="46.10274427082174" lon="13.490324411057573"><ele>395.0</ele><time>2026-05-02T16:46:05.001Z</time></trkpt><trkpt lat="46.10270193028015" lon="13.490239643532156"><ele>395.0</ele><time>2026-05-02T16:46:06.001Z</time></trkpt><trkpt lat="46.10269700498065" lon="13.490103332747903"><ele>391.0</ele><time>2026-05-02T16:46:08.001Z</time></trkpt><trkpt lat="46.102764044548124" lon="13.490088197703235"><ele>387.0</ele><time>2026-05-02T16:46:09.001Z</time></trkpt><trkpt lat="46.10293271400303" lon="13.490106082889783"><ele>383.0</ele><time>2026-05-02T16:46:11.001Z</time></trkpt><trkpt lat="46.10303642624975" lon="13.490016250596446"><ele>379.0</ele><time>2026-05-02T16:46:12.001Z</time></trkpt><trkpt lat="46.1030817019636" lon="13.489861867201721"><ele>379.0</ele><time>2026-05-02T16:46:13.001Z</time></trkpt><trkpt lat="46.10310308195888" lon="13.489700856152155"><ele>379.0</ele><time>2026-05-02T16:46:14.001Z</time></trkpt><trkpt lat="46.10310569118599" lon="13.489524670173816"><ele>379.0</ele><time>2026-05-02T16:46:15.001Z</time></trkpt><trkpt lat="46.103105938942555" lon="13.489361783074047"><ele>379.0</ele><time>2026-05-02T16:46:16.001Z</time></trkpt><trkpt lat="46.10310927751462" lon="13.48921620210675"><ele>375.2</ele><time>2026-05-02T16:46:17.001Z</time></trkpt><trkpt lat="46.10310679407681" lon="13.489080591598803"><ele>371.4</ele><time>2026-05-02T16:46:18.001Z</time></trkpt><trkpt lat="46.103097287314476" lon="13.488941867824773"><ele>367.6</ele><time>2026-05-02T16:46:19.001Z</time></trkpt><trkpt lat="46.10307474492914" lon="13.48878576874776"><ele>363.8</ele><time>2026-05-02T16:46:20.001Z</time></trkpt><trkpt lat="46.10306326704859" lon="13.488634277813437"><ele>360.0</ele><time>2026-05-02T16:46:21.001Z</time></trkpt><trkpt lat="46.103078496538" lon="13.488465514372946"><ele>358.4</ele><time>2026-05-02T16:46:22.001Z</time></trkpt><trkpt lat="46.10308339847209" lon="13.488317275015131"><ele>356.8</ele><time>2026-05-02T16:46:23.001Z</time></trkpt><trkpt lat="46.103110909893104" lon="13.4881881681755"><ele>355.20000000000005</ele><time>2026-05-02T16:46:24.001Z</time></trkpt><trkpt lat="46.10313337697662" lon="13.488064106224142"><ele>353.6</ele><time>2026-05-02T16:46:25.001Z</time></trkpt><trkpt lat="46.103123978194866" lon="13.487955055794549"><ele>352.0</ele><time>2026-05-02T16:46:26.001Z</time></trkpt><trkpt lat="46.10310706622219" lon="13.487820246767242"><ele>351.3333333333333</ele><time>2026-05-02T16:46:27.001Z</time></trkpt><trkpt lat="46.10305765566382" lon="13.487707606542504"><ele>350.66666666666663</ele><time>2026-05-02T16:46:28.001Z</time></trkpt><trkpt lat="46.10303928521586" lon="13.487611141383162"><ele>350.0</ele><time>2026-05-02T16:46:29.001Z</time></trkpt><trkpt lat="46.103021552326645" lon="13.487511748120012"><ele>349.3333333333333</ele><time>2026-05-02T16:46:30.001Z</time></trkpt><trkpt lat="46.103011050864914" lon="13.487389442978778"><ele>348.6666666666667</ele><time>2026-05-02T16:46:31.001Z</time></trkpt><trkpt lat="46.103020258481116" lon="13.487269263674508"><ele>348.0</ele><time>2026-05-02T16:46:32.001Z</time></trkpt><trkpt lat="46.1030564222234" lon="13.487145072759777"><ele>346.2</ele><time>2026-05-02T16:46:33.001Z</time></trkpt><trkpt lat="46.10313271756545" lon="13.48702255336649"><ele>344.4</ele><time>2026-05-02T16:46:34.001Z</time></trkpt><trkpt lat="46.1031808371474" lon="13.486881439959324"><ele>342.59999999999997</ele><time>2026-05-02T16:46:35.001Z</time></trkpt><trkpt lat="46.10321220087361" lon="13.486759172734919"><ele>340.79999999999995</ele><time>2026-05-02T16:46:36.001Z</time></trkpt><trkpt lat="46.1032393503352" lon="13.486633675605049"><ele>339.0</ele><time>2026-05-02T16:46:37.001Z</time></trkpt><trkpt lat="46.103246910829235" lon="13.486498579377113"><ele>336.75</ele><time>2026-05-02T16:46:38.001Z</time></trkpt><trkpt lat="46.10325236412481" lon="13.486363832562489"><ele>334.5</ele><time>2026-05-02T16:46:39.001Z</time></trkpt><trkpt lat="46.10324312794154" lon="13.486206682880397"><ele>332.25</ele><time>2026-05-02T16:46:40.001Z</time></trkpt><trkpt lat="46.10324272228376" lon="13.486039813022078"><ele>330.0</ele><time>2026-05-02T16:46:41.001Z</time></trkpt><trkpt lat="46.10321934307725" lon="13.485849200755853"><ele>330.0</ele><time>2026-05-02T16:46:42.001Z</time></trkpt><trkpt lat="46.10320357605689" lon="13.485681464899072"><ele>330.0</ele><time>2026-05-02T16:46:43.001Z</time></trkpt><trkpt lat="46.10319074755755" lon="13.485524458585608"><ele>330.0</ele><time>2026-05-02T16:46:44.001Z</time></trkpt><trkpt lat="46.10317424434345" lon="13.485364495370662"><ele>330.0</ele><time>2026-05-02T16:46:45.001Z</time></trkpt><trkpt lat="46.1031721414743" lon="13.485229384667216"><ele>330.0</ele><time>2026-05-02T16:46:46.001Z</time></trkpt><trkpt lat="46.10317393469537" lon="13.485071508919438"><ele>329.2</ele><time>2026-05-02T16:46:47.001Z</time></trkpt><trkpt lat="46.103182789170575" lon="13.48493488762195"><ele>328.4</ele><time>2026-05-02T16:46:48.001Z</time></trkpt><trkpt lat="46.103193584742364" lon="13.48479547973244"><ele>327.6</ele><time>2026-05-02T16:46:49.001Z</time></trkpt><trkpt lat="46.10320290401506" lon="13.484649166019858"><ele>326.8</ele><time>2026-05-02T16:46:50.001Z</time></trkpt><trkpt lat="46.103216542676265" lon="13.484498927637832"><ele>326.0</ele><time>2026-05-02T16:46:51.001Z</time></trkpt><trkpt lat="46.103228638927185" lon="13.484364286826715"><ele>324.8</ele><time>2026-05-02T16:46:52.001Z</time></trkpt><trkpt lat="46.10324580911422" lon="13.48421026065362"><ele>323.6</ele><time>2026-05-02T16:46:53.001Z</time></trkpt><trkpt lat="46.103267918991854" lon="13.484066823885854"><ele>322.4</ele><time>2026-05-02T16:46:54.001Z</time></trkpt><trkpt lat="46.103283910380135" lon="13.48393286327267"><ele>321.2</ele><time>2026-05-02T16:46:55.001Z</time></trkpt><trkpt lat="46.1033135466106" lon="13.483803260820727"><ele>320.0</ele><time>2026-05-02T16:46:56.001Z</time></trkpt><trkpt lat="46.10334890872087" lon="13.483669083805642"><ele>323.0</ele><time>2026-05-02T16:46:57.001Z</time></trkpt><trkpt lat="46.10336271072295" lon="13.483548480507137"><ele>326.0</ele><time>2026-05-02T16:46:58Z</time></trkpt><trkpt lat="46.10337001469822" lon="13.483395636080367"><ele>329.0</ele><time>2026-05-02T16:46:59Z</time></trkpt><trkpt lat="46.10338694309391" lon="13.48326591298915"><ele>332.0</ele><time>2026-05-02T16:47:00Z</time></trkpt><trkpt lat="46.10341117094675" lon="13.483144484921977"><ele>335.0</ele><time>2026-05-02T16:47:01Z</time></trkpt><trkpt lat="46.10345627993728" lon="13.483004352200354"><ele>332.2</ele><time>2026-05-02T16:47:02Z</time></trkpt><trkpt lat="46.103517239706285" lon="13.482880270744348"><ele>329.4</ele><time>2026-05-02T16:47:03Z</time></trkpt><trkpt lat="46.103587604886584" lon="13.482791224213065"><ele>326.6</ele><time>2026-05-02T16:47:04Z</time></trkpt><trkpt lat="46.1036805060925" lon="13.482751707394394"><ele>323.8</ele><time>2026-05-02T16:47:05Z</time></trkpt><trkpt lat="46.10377131703755" lon="13.482711765568503"><ele>321.0</ele><time>2026-05-02T16:47:06Z</time></trkpt><trkpt lat="46.10383969340625" lon="13.48277338997685"><ele>321.0</ele><time>2026-05-02T16:47:07Z</time></trkpt><trkpt lat="46.10393317901189" lon="13.482769409406956"><ele>321.0</ele><time>2026-05-02T16:47:08Z</time></trkpt><trkpt lat="46.10402521569417" lon="13.482726091771246"><ele>321.0</ele><time>2026-05-02T16:47:09Z</time></trkpt><trkpt lat="46.10407576641772" lon="13.482620052510194"><ele>321.0</ele><time>2026-05-02T16:47:10Z</time></trkpt><trkpt lat="46.10409012559627" lon="13.48246688499618"><ele>321.0</ele><time>2026-05-02T16:47:11Z</time></trkpt><trkpt lat="46.10412348086074" lon="13.482305737879328"><ele>320.6666666666667</ele><time>2026-05-02T16:47:12Z</time></trkpt><trkpt lat="46.10415715367806" lon="13.482187658328145"><ele>320.3333333333333</ele><time>2026-05-02T16:47:13Z</time></trkpt><trkpt lat="46.1042062165601" lon="13.482060194874911"><ele>320.0</ele><time>2026-05-02T16:47:14Z</time></trkpt><trkpt lat="46.104249239174706" lon="13.481955674392902"><ele>319.66666666666663</ele><time>2026-05-02T16:47:15Z</time></trkpt><trkpt lat="46.10428485577447" lon="13.481834590362457"><ele>319.3333333333333</ele><time>2026-05-02T16:47:16Z</time></trkpt><trkpt lat="46.104332405472334" lon="13.481735667352089"><ele>319.0</ele><time>2026-05-02T16:47:17Z</time></trkpt><trkpt lat="46.10438485826649" lon="13.481631701136436"><ele>319.0</ele><time>2026-05-02T16:47:18Z</time></trkpt><trkpt lat="46.10446486321183" lon="13.481538789957078"><ele>319.0</ele><time>2026-05-02T16:47:19Z</time></trkpt><trkpt lat="46.10455802391639" lon="13.481490993873386"><ele>319.0</ele><time>2026-05-02T16:47:20Z</time></trkpt><trkpt lat="46.10463479129539" lon="13.481458089605425"><ele>319.0</ele><time>2026-05-02T16:47:21Z</time></trkpt><trkpt lat="46.10470969695185" lon="13.481413688637696"><ele>319.0</ele><time>2026-05-02T16:47:22Z</time></trkpt><trkpt lat="46.104786246261504" lon="13.4813925519438"><ele>319.0</ele><time>2026-05-02T16:47:23Z</time></trkpt><trkpt lat="46.10486956922934" lon="13.481403783082664"><ele>320.0</ele><time>2026-05-02T16:47:24Z</time></trkpt><trkpt lat="46.104954963305055" lon="13.481485553268362"><ele>321.0</ele><time>2026-05-02T16:47:25Z</time></trkpt><trkpt lat="46.10501774233041" lon="13.481623346189862"><ele>322.0</ele><time>2026-05-02T16:47:26Z</time></trkpt><trkpt lat="46.10509748666429" lon="13.481746700901605"><ele>323.0</ele><time>2026-05-02T16:47:27Z</time></trkpt><trkpt lat="46.1051720466017" lon="13.48185965251799"><ele>324.0</ele><time>2026-05-02T16:47:28Z</time></trkpt><trkpt lat="46.10524629494862" lon="13.481942327471177"><ele>324.0</ele><time>2026-05-02T16:47:29Z</time></trkpt><trkpt lat="46.10530799145833" lon="13.482019582931292"><ele>324.0</ele><time>2026-05-02T16:47:30Z</time></trkpt><trkpt lat="46.10536352730291" lon="13.48210236854108"><ele>324.0</ele><time>2026-05-02T16:47:31Z</time></trkpt><trkpt lat="46.10542492721595" lon="13.482131958588974"><ele>324.0</ele><time>2026-05-02T16:47:32Z</time></trkpt><trkpt lat="46.10549866332964" lon="13.482087950996156"><ele>324.0</ele><time>2026-05-02T16:47:33Z</time></trkpt><trkpt lat="46.105519693428754" lon="13.481955247409411"><ele>324.0</ele><time>2026-05-02T16:47:34Z</time></trkpt><trkpt lat="46.105543222839266" lon="13.481836543414465"><ele>324.0</ele><time>2026-05-02T16:47:35Z</time></trkpt><trkpt lat="46.10559900013452" lon="13.481728764146935"><ele>324.0</ele><time>2026-05-02T16:47:36Z</time></trkpt><trkpt lat="46.105670336287446" lon="13.481587672179481"><ele>324.0</ele><time>2026-05-02T16:47:37Z</time></trkpt><trkpt lat="46.1057492299014" lon="13.481470729302766"><ele>324.0</ele><time>2026-05-02T16:47:38Z</time></trkpt><trkpt lat="46.10582725089305" lon="13.481356433499384"><ele>324.0</ele><time>2026-05-02T16:47:39Z</time></trkpt><trkpt lat="46.10591263107758" lon="13.481255131174546"><ele>317.5</ele><time>2026-05-02T16:47:40Z</time></trkpt><trkpt lat="46.10599891884221" lon="13.48114249730261"><ele>311.0</ele><time>2026-05-02T16:47:41Z</time></trkpt><trkpt lat="46.10608526312256" lon="13.481010221431903"><ele>304.5</ele><time>2026-05-02T16:47:42Z</time></trkpt><trkpt lat="46.10617669256527" lon="13.480874711156348"><ele>298.0</ele><time>2026-05-02T16:47:43Z</time></trkpt><trkpt lat="46.106271718456384" lon="13.480742807664388"><ele>298.0</ele><time>2026-05-02T16:47:44Z</time></trkpt><trkpt lat="46.106360380672115" lon="13.480630798479618"><ele>298.0</ele><time>2026-05-02T16:47:45Z</time></trkpt><trkpt lat="46.10645765774387" lon="13.480518085868404"><ele>298.0</ele><time>2026-05-02T16:47:46Z</time></trkpt><trkpt lat="46.106535055662604" lon="13.48040245850673"><ele>298.0</ele><time>2026-05-02T16:47:47Z</time></trkpt><trkpt lat="46.10661433483519" lon="13.480291484401368"><ele>296.0</ele><time>2026-05-02T16:47:48Z</time></trkpt><trkpt lat="46.10671020929773" lon="13.480219101935214"><ele>294.0</ele><time>2026-05-02T16:47:49Z</time></trkpt><trkpt lat="46.10681747495585" lon="13.480162331003337"><ele>292.0</ele><time>2026-05-02T16:47:50Z</time></trkpt><trkpt lat="46.10691548398579" lon="13.48011340882131"><ele>290.0</ele><time>2026-05-02T16:47:51Z</time></trkpt><trkpt lat="46.107000855277" lon="13.480070489859097"><ele>288.0</ele><time>2026-05-02T16:47:52Z</time></trkpt><trkpt lat="46.107083670838016" lon="13.480042382692965"><ele>288.0</ele><time>2026-05-02T16:47:53Z</time></trkpt><trkpt lat="46.10714779023812" lon="13.48005930183488"><ele>288.0</ele><time>2026-05-02T16:47:54Z</time></trkpt><trkpt lat="46.10723719790575" lon="13.480085322231202"><ele>288.0</ele><time>2026-05-02T16:47:56Z</time></trkpt><trkpt lat="46.10731050797777" lon="13.4801040518113"><ele>288.0</ele><time>2026-05-02T16:48:03Z</time></trkpt><trkpt lat="46.10736110035031" lon="13.480179534641358"><ele>288.0</ele><time>2026-05-02T16:48:06.001Z</time></trkpt><trkpt lat="46.10736785947012" lon="13.480298468784433"><ele>288.0</ele><time>2026-05-02T16:48:08.001Z</time></trkpt><trkpt lat="46.107381433197816" lon="13.480396166443455"><ele>290.2</ele><time>2026-05-02T16:48:09.001Z</time></trkpt><trkpt lat="46.10741059584827" lon="13.48059813102563"><ele>292.4</ele><time>2026-05-02T16:48:11.001Z</time></trkpt><trkpt lat="46.107426406491044" lon="13.480694607883843"><ele>294.59999999999997</ele><time>2026-05-02T16:48:12.001Z</time></trkpt><trkpt lat="46.10743971156814" lon="13.480800195080466"><ele>296.8</ele><time>2026-05-02T16:48:13.001Z</time></trkpt><trkpt lat="46.10748014809268" lon="13.480941465123575"><ele>299.0</ele><time>2026-05-02T16:48:14.001Z</time></trkpt><trkpt lat="46.107502050501665" lon="13.481082785923704"><ele>299.0</ele><time>2026-05-02T16:48:15.001Z</time></trkpt><trkpt lat="46.1075355578513" lon="13.481235302049251"><ele>299.0</ele><time>2026-05-02T16:48:16.001Z</time></trkpt><trkpt lat="46.10757803644107" lon="13.48135281495774"><ele>299.0</ele><time>2026-05-02T16:48:17.001Z</time></trkpt><trkpt lat="46.10761418114813" lon="13.48145697705371"><ele>299.0</ele><time>2026-05-02T16:48:18.001Z</time></trkpt><trkpt lat="46.10766276691001" lon="13.48157972974628"><ele>299.0</ele><time>2026-05-02T16:48:19.001Z</time></trkpt><trkpt lat="46.10770727976817" lon="13.481682820877067"><ele>303.0</ele><time>2026-05-02T16:48:20.001Z</time></trkpt><trkpt lat="46.10779494705662" lon="13.481808413705007"><ele>307.0</ele><time>2026-05-02T16:48:21.001Z</time></trkpt><trkpt lat="46.10787902531562" lon="13.481941911746802"><ele>311.0</ele><time>2026-05-02T16:48:22.001Z</time></trkpt><trkpt lat="46.107944234373534" lon="13.482047901808006"><ele>315.0</ele><time>2026-05-02T16:48:23.001Z</time></trkpt><trkpt lat="46.108007448101304" lon="13.482162618233206"><ele>319.0</ele><time>2026-05-02T16:48:24.001Z</time></trkpt><trkpt lat="46.10806341612214" lon="13.482258290452803"><ele>322.6</ele><time>2026-05-02T16:48:25.001Z</time></trkpt><trkpt lat="46.108110370922546" lon="13.482326506198268"><ele>326.2</ele><time>2026-05-02T16:48:26.001Z</time></trkpt><trkpt lat="46.108154344273714" lon="13.482419627061349"><ele>329.8</ele><time>2026-05-02T16:48:27.001Z</time></trkpt><trkpt lat="46.108203986082295" lon="13.482523047758013"><ele>333.40000000000003</ele><time>2026-05-02T16:48:28.001Z</time></trkpt><trkpt lat="46.10815064375275" lon="13.482706887549599"><ele>337.0</ele><time>2026-05-02T16:48:30.001Z</time></trkpt><trkpt lat="46.10810789476283" lon="13.482921233364719"><ele>338.0</ele><time>2026-05-02T16:48:31.001Z</time></trkpt><trkpt lat="46.10811974243271" lon="13.483047441828855"><ele>339.0</ele><time>2026-05-02T16:48:32.001Z</time></trkpt><trkpt lat="46.10812798125412" lon="13.483184140213263"><ele>340.0</ele><time>2026-05-02T16:48:33.001Z</time></trkpt><trkpt lat="46.108113954357506" lon="13.483316750203794"><ele>341.0</ele><time>2026-05-02T16:48:34.001Z</time></trkpt><trkpt lat="46.10810237996699" lon="13.483453756588949"><ele>342.0</ele><time>2026-05-02T16:48:35.001Z</time></trkpt><trkpt lat="46.10804826362032" lon="13.483573567176824"><ele>342.0</ele><time>2026-05-02T16:48:36.001Z</time></trkpt><trkpt lat="46.10798011744529" lon="13.483683233464303"><ele>342.0</ele><time>2026-05-02T16:48:37.001Z</time></trkpt><trkpt lat="46.107938061100235" lon="13.48378427605946"><ele>342.0</ele><time>2026-05-02T16:48:38.001Z</time></trkpt><trkpt lat="46.10790552409577" lon="13.483881110629685"><ele>342.0</ele><time>2026-05-02T16:48:39.001Z</time></trkpt><trkpt lat="46.10787168603806" lon="13.484053157134918"><ele>342.0</ele><time>2026-05-02T16:48:41.001Z</time></trkpt><trkpt lat="46.1078617245" lon="13.48418055629325"><ele>341.1666666666667</ele><time>2026-05-02T16:48:42.001Z</time></trkpt><trkpt lat="46.10785929172933" lon="13.484290759965402"><ele>340.3333333333333</ele><time>2026-05-02T16:48:43.001Z</time></trkpt><trkpt lat="46.10785378545789" lon="13.484401902091236"><ele>339.5</ele><time>2026-05-02T16:48:44.001Z</time></trkpt><trkpt lat="46.10784872217926" lon="13.48452517831895"><ele>338.66666666666663</ele><time>2026-05-02T16:48:45.001Z</time></trkpt><trkpt lat="46.10784728655003" lon="13.484636604235478"><ele>337.8333333333333</ele><time>2026-05-02T16:48:46.001Z</time></trkpt><trkpt lat="46.107850258100726" lon="13.484768408010991"><ele>337.0</ele><time>2026-05-02T16:48:47.001Z</time></trkpt><trkpt lat="46.107874132625916" lon="13.484932520652825"><ele>335.25</ele><time>2026-05-02T16:48:48.001Z</time></trkpt><trkpt lat="46.107931125679535" lon="13.485084597714513"><ele>333.5</ele><time>2026-05-02T16:48:49.001Z</time></trkpt><trkpt lat="46.1079815943767" lon="13.485251376158677"><ele>331.75</ele><time>2026-05-02T16:48:50.001Z</time></trkpt><trkpt lat="46.10802300679036" lon="13.485398215304526"><ele>330.0</ele><time>2026-05-02T16:48:51.001Z</time></trkpt><trkpt lat="46.108067592174336" lon="13.485577478308509"><ele>330.0</ele><time>2026-05-02T16:48:52.001Z</time></trkpt><trkpt lat="46.108096175428436" lon="13.485708809710008"><ele>330.0</ele><time>2026-05-02T16:48:53.001Z</time></trkpt><trkpt lat="46.1081545300355" lon="13.485844338634099"><ele>330.0</ele><time>2026-05-02T16:48:54.001Z</time></trkpt><trkpt lat="46.108202425024665" lon="13.485939464586863"><ele>330.0</ele><time>2026-05-02T16:48:55.001Z</time></trkpt><trkpt lat="46.10824092261625" lon="13.48602794928949"><ele>330.0</ele><time>2026-05-02T16:48:56.001Z</time></trkpt><trkpt lat="46.108273552468695" lon="13.486141827362284"><ele>330.0</ele><time>2026-05-02T16:48:57.001Z</time></trkpt><trkpt lat="46.10830694788709" lon="13.486273510923533"><ele>323.0</ele><time>2026-05-02T16:48:58.001Z</time></trkpt><trkpt lat="46.10830380029003" lon="13.486414609048715"><ele>316.0</ele><time>2026-05-02T16:48:59.001Z</time></trkpt><trkpt lat="46.10829806056387" lon="13.486564751074896"><ele>309.0</ele><time>2026-05-02T16:49:00.001Z</time></trkpt><trkpt lat="46.10829216915556" lon="13.486759845105402"><ele>302.0</ele><time>2026-05-02T16:49:01.001Z</time></trkpt><trkpt lat="46.1083055190817" lon="13.486905942067386"><ele>295.0</ele><time>2026-05-02T16:49:02.001Z</time></trkpt><trkpt lat="46.108319862015605" lon="13.487045792721394"><ele>296.75</ele><time>2026-05-02T16:49:03.001Z</time></trkpt><trkpt lat="46.10834673440929" lon="13.487213079263391"><ele>298.5</ele><time>2026-05-02T16:49:04Z</time></trkpt><trkpt lat="46.10836772162007" lon="13.487389487487114"><ele>300.25</ele><time>2026-05-02T16:49:05Z</time></trkpt><trkpt lat="46.108376192042975" lon="13.487549406069958"><ele>302.0</ele><time>2026-05-02T16:49:06Z</time></trkpt><trkpt lat="46.10837960092553" lon="13.487709359164946"><ele>302.0</ele><time>2026-05-02T16:49:07Z</time></trkpt><trkpt lat="46.10837380045627" lon="13.487848328789038"><ele>302.0</ele><time>2026-05-02T16:49:08Z</time></trkpt><trkpt lat="46.10835095767188" lon="13.488009660449285"><ele>302.0</ele><time>2026-05-02T16:49:09Z</time></trkpt><trkpt lat="46.10833595952921" lon="13.488188175543192"><ele>302.0</ele><time>2026-05-02T16:49:10Z</time></trkpt><trkpt lat="46.108308349871045" lon="13.488424606858704"><ele>301.4</ele><time>2026-05-02T16:49:11Z</time></trkpt><trkpt lat="46.10828475010833" lon="13.488600953131307"><ele>300.79999999999995</ele><time>2026-05-02T16:49:12Z</time></trkpt><trkpt lat="46.10826730965129" lon="13.488737602175576"><ele>300.2</ele><time>2026-05-02T16:49:13Z</time></trkpt><trkpt lat="46.108231377778864" lon="13.48887502244418"><ele>299.59999999999997</ele><time>2026-05-02T16:49:14Z</time></trkpt><trkpt lat="46.10821635731275" lon="13.488993102709745"><ele>299.0</ele><time>2026-05-02T16:49:15Z</time></trkpt><trkpt lat="46.10822187736831" lon="13.48911412195875"><ele>300.4</ele><time>2026-05-02T16:49:16Z</time></trkpt><trkpt lat="46.108282300551885" lon="13.489232780617089"><ele>301.79999999999995</ele><time>2026-05-02T16:49:17Z</time></trkpt><trkpt lat="46.108330728509095" lon="13.489334128008272"><ele>303.20000000000005</ele><time>2026-05-02T16:49:18Z</time></trkpt><trkpt lat="46.108431310878565" lon="13.489374300325512"><ele>304.6</ele><time>2026-05-02T16:49:19Z</time></trkpt><trkpt lat="46.10856910872547" lon="13.489366399698408"><ele>306.0</ele><time>2026-05-02T16:49:20Z</time></trkpt><trkpt lat="46.10868764850784" lon="13.489438864675767"><ele>306.0</ele><time>2026-05-02T16:49:21Z</time></trkpt><trkpt lat="46.10879548683278" lon="13.489508268975387"><ele>306.0</ele><time>2026-05-02T16:49:22Z</time></trkpt><trkpt lat="46.108878498190826" lon="13.489570958132996"><ele>306.0</ele><time>2026-05-02T16:49:23Z</time></trkpt><trkpt lat="46.10896470779547" lon="13.4896476773407"><ele>306.0</ele><time>2026-05-02T16:49:24Z</time></trkpt><trkpt lat="46.10902947568431" lon="13.48974561340274"><ele>306.0</ele><time>2026-05-02T16:49:25Z</time></trkpt><trkpt lat="46.1090596227739" lon="13.489864792480356"><ele>305.1666666666667</ele><time>2026-05-02T16:49:26Z</time></trkpt><trkpt lat="46.109084230685596" lon="13.48998178456359"><ele>304.3333333333333</ele><time>2026-05-02T16:49:27Z</time></trkpt><trkpt lat="46.109091631579496" lon="13.49007695957637"><ele>303.5</ele><time>2026-05-02T16:49:28Z</time></trkpt><trkpt lat="46.10909733260097" lon="13.490210167731004"><ele>302.66666666666663</ele><time>2026-05-02T16:49:29Z</time></trkpt><trkpt lat="46.10908205624109" lon="13.490338521566986"><ele>301.8333333333333</ele><time>2026-05-02T16:49:30Z</time></trkpt><trkpt lat="46.10909209230039" lon="13.490451782143861"><ele>301.0</ele><time>2026-05-02T16:49:31Z</time></trkpt><trkpt lat="46.10910421545735" lon="13.490545681654384"><ele>303.0</ele><time>2026-05-02T16:49:32Z</time></trkpt><trkpt lat="46.10910814430536" lon="13.490646595420827"><ele>305.0</ele><time>2026-05-02T16:49:33Z</time></trkpt><trkpt lat="46.10911632452266" lon="13.49077262368771"><ele>307.0</ele><time>2026-05-02T16:49:34Z</time></trkpt><trkpt lat="46.10912847974293" lon="13.490895033545549"><ele>309.0</ele><time>2026-05-02T16:49:35Z</time></trkpt><trkpt lat="46.10915698808113" lon="13.490988350073806"><ele>311.0</ele><time>2026-05-02T16:49:36Z</time></trkpt><trkpt lat="46.10919710265235" lon="13.491103980538528"><ele>313.0</ele><time>2026-05-02T16:49:37Z</time></trkpt><trkpt lat="46.109261259523485" lon="13.491186513389081"><ele>312.8</ele><time>2026-05-02T16:49:38Z</time></trkpt><trkpt lat="46.10932781422601" lon="13.491277602336329"><ele>312.6</ele><time>2026-05-02T16:49:39Z</time></trkpt><trkpt lat="46.10940266186274" lon="13.49134247405484"><ele>312.4</ele><time>2026-05-02T16:49:40Z</time></trkpt><trkpt lat="46.109510199544864" lon="13.491402691209945"><ele>312.2</ele><time>2026-05-02T16:49:41Z</time></trkpt><trkpt lat="46.10960657616347" lon="13.491438422303993"><ele>312.0</ele><time>2026-05-02T16:49:42Z</time></trkpt><trkpt lat="46.10969333912965" lon="13.491446598975045"><ele>312.0</ele><time>2026-05-02T16:49:43Z</time></trkpt><trkpt lat="46.109781656006064" lon="13.491459755968746"><ele>312.0</ele><time>2026-05-02T16:49:44Z</time></trkpt><trkpt lat="46.109856096187826" lon="13.49150203822388"><ele>312.0</ele><time>2026-05-02T16:49:45Z</time></trkpt><trkpt lat="46.10991399343801" lon="13.491573143257595"><ele>312.0</ele><time>2026-05-02T16:49:46Z</time></trkpt><trkpt lat="46.10989329209671" lon="13.491705352081002"><ele>312.0</ele><time>2026-05-02T16:49:47Z</time></trkpt><trkpt lat="46.10992358293968" lon="13.491833362034093"><ele>312.0</ele><time>2026-05-02T16:49:48Z</time></trkpt><trkpt lat="46.10991870994396" lon="13.49199458085158"><ele>309.4</ele><time>2026-05-02T16:49:49Z</time></trkpt><trkpt lat="46.109941105021306" lon="13.492100501642343"><ele>306.79999999999995</ele><time>2026-05-02T16:49:50Z</time></trkpt><trkpt lat="46.10994907006991" lon="13.492225566962682"><ele>304.2</ele><time>2026-05-02T16:49:51Z</time></trkpt><trkpt lat="46.10993842825887" lon="13.492358125283946"><ele>301.59999999999997</ele><time>2026-05-02T16:49:52Z</time></trkpt><trkpt lat="46.10991663496893" lon="13.492501308348883"><ele>299.0</ele><time>2026-05-02T16:49:53Z</time></trkpt><trkpt lat="46.10989988362305" lon="13.49263912979416"><ele>299.0</ele><time>2026-05-02T16:49:54Z</time></trkpt><trkpt lat="46.10987787022346" lon="13.492762894224851"><ele>299.0</ele><time>2026-05-02T16:49:55Z</time></trkpt><trkpt lat="46.109847299445796" lon="13.492874110419805"><ele>299.0</ele><time>2026-05-02T16:49:56Z</time></trkpt><trkpt lat="46.10981824016207" lon="13.492984266437812"><ele>299.0</ele><time>2026-05-02T16:49:57Z</time></trkpt><trkpt lat="46.10977195173076" lon="13.493096212264296"><ele>299.0</ele><time>2026-05-02T16:49:58Z</time></trkpt><trkpt lat="46.10971816543219" lon="13.493201268363585"><ele>299.0</ele><time>2026-05-02T16:49:59Z</time></trkpt><trkpt lat="46.10963573527862" lon="13.493281209930007"><ele>296.83333333333337</ele><time>2026-05-02T16:50:00Z</time></trkpt><trkpt lat="46.10956098441378" lon="13.493374411760984"><ele>294.6666666666667</ele><time>2026-05-02T16:50:01Z</time></trkpt><trkpt lat="46.10948180445728" lon="13.493378534368988"><ele>292.5</ele><time>2026-05-02T16:50:02Z</time></trkpt><trkpt lat="46.109395373419424" lon="13.493424288642737"><ele>290.3333333333333</ele><time>2026-05-02T16:50:03Z</time></trkpt><trkpt lat="46.109309097388305" lon="13.49345310272582"><ele>288.16666666666663</ele><time>2026-05-02T16:50:04Z</time></trkpt><trkpt lat="46.10921995659583" lon="13.493474729702855"><ele>286.0</ele><time>2026-05-02T16:50:05Z</time></trkpt><trkpt lat="46.109141049120815" lon="13.493467163470502"><ele>283.16666666666663</ele><time>2026-05-02T16:50:06Z</time></trkpt><trkpt lat="46.109059328462806" lon="13.493455934540899"><ele>280.3333333333333</ele><time>2026-05-02T16:50:07Z</time></trkpt><trkpt lat="46.10897756068188" lon="13.493449633742749"><ele>277.5</ele><time>2026-05-02T16:50:08Z</time></trkpt><trkpt lat="46.10889327219992" lon="13.493396954938582"><ele>274.6666666666667</ele><time>2026-05-02T16:50:09Z</time></trkpt><trkpt lat="46.108838162321774" lon="13.493320432422454"><ele>271.83333333333337</ele><time>2026-05-02T16:50:10Z</time></trkpt><trkpt lat="46.10875976169911" lon="13.493250450561238"><ele>269.0</ele><time>2026-05-02T16:50:11Z</time></trkpt><trkpt lat="46.10866666580483" lon="13.493187729740153"><ele>269.0</ele><time>2026-05-02T16:50:12Z</time></trkpt><trkpt lat="46.108598387613306" lon="13.493100933648913"><ele>269.0</ele><time>2026-05-02T16:50:13Z</time></trkpt><trkpt lat="46.108517820671665" lon="13.493052474296874"><ele>269.0</ele><time>2026-05-02T16:50:14Z</time></trkpt><trkpt lat="46.1084497049917" lon="13.493003833364067"><ele>269.0</ele><time>2026-05-02T16:50:15Z</time></trkpt><trkpt lat="46.108397349190476" lon="13.492943212383366"><ele>269.0</ele><time>2026-05-02T16:50:16.001Z</time></trkpt><trkpt lat="46.10834426113382" lon="13.492869604867057"><ele>269.0</ele><time>2026-05-02T16:50:17.001Z</time></trkpt><trkpt lat="46.108282910998646" lon="13.492814323028417"><ele>270.0</ele><time>2026-05-02T16:50:18.001Z</time></trkpt><trkpt lat="46.108158440391975" lon="13.492877862549841"><ele>271.0</ele><time>2026-05-02T16:50:20.001Z</time></trkpt><trkpt lat="46.10810725128583" lon="13.492946594254347"><ele>272.0</ele><time>2026-05-02T16:50:21.001Z</time></trkpt><trkpt lat="46.10806446780153" lon="13.493036767139891"><ele>273.0</ele><time>2026-05-02T16:50:22.001Z</time></trkpt><trkpt lat="46.108015544874426" lon="13.49311215679764"><ele>274.0</ele><time>2026-05-02T16:50:23.001Z</time></trkpt><trkpt lat="46.10797336488118" lon="13.493190289387153"><ele>275.0</ele><time>2026-05-02T16:50:24.001Z</time></trkpt><trkpt lat="46.10792410597204" lon="13.493275518502875"><ele>271.83333333333337</ele><time>2026-05-02T16:50:25.001Z</time></trkpt><trkpt lat="46.10786878120475" lon="13.493328153594991"><ele>268.6666666666667</ele><time>2026-05-02T16:50:26.001Z</time></trkpt><trkpt lat="46.10774948057789" lon="13.49341367352673"><ele>265.5</ele><time>2026-05-02T16:50:28.001Z</time></trkpt><trkpt lat="46.10766743372619" lon="13.493422264139339"><ele>262.3333333333333</ele><time>2026-05-02T16:50:29.001Z</time></trkpt><trkpt lat="46.10759571267531" lon="13.493425695484687"><ele>259.16666666666663</ele><time>2026-05-02T16:50:30.001Z</time></trkpt><trkpt lat="46.10752088565396" lon="13.493426312202446"><ele>256.0</ele><time>2026-05-02T16:50:31.001Z</time></trkpt><trkpt lat="46.10744999208612" lon="13.493403584166177"><ele>254.83333333333331</ele><time>2026-05-02T16:50:32.001Z</time></trkpt><trkpt lat="46.107385287442455" lon="13.493356085989143"><ele>253.66666666666666</ele><time>2026-05-02T16:50:33.001Z</time></trkpt><trkpt lat="46.10733417792703" lon="13.493276553435194"><ele>252.5</ele><time>2026-05-02T16:50:34.001Z</time></trkpt><trkpt lat="46.10727992973997" lon="13.49318413797012"><ele>251.33333333333331</ele><time>2026-05-02T16:50:35.001Z</time></trkpt><trkpt lat="46.107220453038344" lon="13.493098667968672"><ele>250.16666666666666</ele><time>2026-05-02T16:50:36.001Z</time></trkpt><trkpt lat="46.10714350795807" lon="13.493070209303664"><ele>249.0</ele><time>2026-05-02T16:50:37.001Z</time></trkpt><trkpt lat="46.107078115404775" lon="13.493059312936193"><ele>249.0</ele><time>2026-05-02T16:50:38.001Z</time></trkpt><trkpt lat="46.107013075420234" lon="13.493033447153953"><ele>248.99999999999997</ele><time>2026-05-02T16:50:39.001Z</time></trkpt><trkpt lat="46.10693817381394" lon="13.492992113301337"><ele>249.0</ele><time>2026-05-02T16:50:40.001Z</time></trkpt><trkpt lat="46.10686798139833" lon="13.492991273011928"><ele>249.0</ele><time>2026-05-02T16:50:41.001Z</time></trkpt><trkpt lat="46.10680121312085" lon="13.493015057572203"><ele>248.99999999999997</ele><time>2026-05-02T16:50:42.001Z</time></trkpt><trkpt lat="46.10673682005191" lon="13.493087755661596"><ele>249.0</ele><time>2026-05-02T16:50:43.001Z</time></trkpt><trkpt lat="46.10670323828552" lon="13.493175719703943"><ele>249.0</ele><time>2026-05-02T16:50:44.001Z</time></trkpt><trkpt lat="46.106653906951614" lon="13.493264419737635"><ele>249.0</ele><time>2026-05-02T16:50:45.001Z</time></trkpt><trkpt lat="46.106588242200125" lon="13.493364938563138"><ele>249.0</ele><time>2026-05-02T16:50:46.001Z</time></trkpt><trkpt lat="46.10653381715269" lon="13.493452829323068"><ele>249.0</ele><time>2026-05-02T16:50:47.001Z</time></trkpt><trkpt lat="46.10647861351456" lon="13.493553910211263"><ele>249.0</ele><time>2026-05-02T16:50:48.001Z</time></trkpt><trkpt lat="46.10642044687005" lon="13.493616356282281"><ele>249.0</ele><time>2026-05-02T16:50:49.001Z</time></trkpt><trkpt lat="46.106340358790774" lon="13.49362664536005"><ele>249.0</ele><time>2026-05-02T16:50:50.001Z</time></trkpt><trkpt lat="46.10625839221212" lon="13.493627962010851"><ele>250.6</ele><time>2026-05-02T16:50:51.001Z</time></trkpt><trkpt lat="46.10619158065332" lon="13.493594324163908"><ele>252.2</ele><time>2026-05-02T16:50:52.001Z</time></trkpt><trkpt lat="46.106131829341294" lon="13.493445049462968"><ele>253.79999999999998</ele><time>2026-05-02T16:50:53.001Z</time></trkpt><trkpt lat="46.10609052870313" lon="13.493304941738044"><ele>255.39999999999998</ele><time>2026-05-02T16:50:54.001Z</time></trkpt><trkpt lat="46.10601465790388" lon="13.493170446336027"><ele>257.0</ele><time>2026-05-02T16:50:55.001Z</time></trkpt><trkpt lat="46.10590545326173" lon="13.493094021972844"><ele>257.0</ele><time>2026-05-02T16:50:56.001Z</time></trkpt><trkpt lat="46.10582404426247" lon="13.493014355873834"><ele>257.0</ele><time>2026-05-02T16:50:57.001Z</time></trkpt><trkpt lat="46.105724033474544" lon="13.492945906167336"><ele>257.0</ele><time>2026-05-02T16:50:58.001Z</time></trkpt><trkpt lat="46.10561592039626" lon="13.492935711424604"><ele>257.0</ele><time>2026-05-02T16:50:59.001Z</time></trkpt><trkpt lat="46.105531048482455" lon="13.492927578723869"><ele>257.0</ele><time>2026-05-02T16:51:00.001Z</time></trkpt><trkpt lat="46.1054702130531" lon="13.493011325121627"><ele>265.6</ele><time>2026-05-02T16:51:01.001Z</time></trkpt><trkpt lat="46.10547358449301" lon="13.49314868236504"><ele>274.2</ele><time>2026-05-02T16:51:02.001Z</time></trkpt><trkpt lat="46.10549253284971" lon="13.49327047674943"><ele>282.8</ele><time>2026-05-02T16:51:03.001Z</time></trkpt><trkpt lat="46.10553478122887" lon="13.4933869767716"><ele>291.4</ele><time>2026-05-02T16:51:04.001Z</time></trkpt><trkpt lat="46.10557918270355" lon="13.493504716131397"><ele>300.0</ele><time>2026-05-02T16:51:05.001Z</time></trkpt><trkpt lat="46.1055983503518" lon="13.493630568829017"><ele>300.6</ele><time>2026-05-02T16:51:06.001Z</time></trkpt><trkpt lat="46.105638403821615" lon="13.493794921113526"><ele>301.2</ele><time>2026-05-02T16:51:07.001Z</time></trkpt><trkpt lat="46.10566419584198" lon="13.493933412619885"><ele>301.8</ele><time>2026-05-02T16:51:08.001Z</time></trkpt><trkpt lat="46.10568160679741" lon="13.494055116308504"><ele>302.4</ele><time>2026-05-02T16:51:09.001Z</time></trkpt><trkpt lat="46.10566825063728" lon="13.494205650705979"><ele>303.0</ele><time>2026-05-02T16:51:10Z</time></trkpt><trkpt lat="46.10558525192907" lon="13.49434353596196"><ele>303.0</ele><time>2026-05-02T16:51:11Z</time></trkpt><trkpt lat="46.105537751686185" lon="13.49449115497156"><ele>303.0</ele><time>2026-05-02T16:51:12Z</time></trkpt><trkpt lat="46.105522402618156" lon="13.49470614199708"><ele>303.0</ele><time>2026-05-02T16:51:13Z</time></trkpt><trkpt lat="46.10552822314061" lon="13.494854855061584"><ele>303.0</ele><time>2026-05-02T16:51:14Z</time></trkpt><trkpt lat="46.10552184387553" lon="13.494991009654784"><ele>299.6666666666667</ele><time>2026-05-02T16:51:15Z</time></trkpt><trkpt lat="46.10551648361955" lon="13.495083521766785"><ele>296.3333333333333</ele><time>2026-05-02T16:51:16Z</time></trkpt><trkpt lat="46.105509727655914" lon="13.495195522096767"><ele>293.0</ele><time>2026-05-02T16:51:17Z</time></trkpt><trkpt lat="46.10547065086951" lon="13.495357705401098"><ele>289.66666666666663</ele><time>2026-05-02T16:51:19Z</time></trkpt><trkpt lat="46.1054112878324" lon="13.495439573340043"><ele>286.3333333333333</ele><time>2026-05-02T16:51:20Z</time></trkpt><trkpt lat="46.10536919098539" lon="13.495515874725278"><ele>283.0</ele><time>2026-05-02T16:51:21Z</time></trkpt><trkpt lat="46.10532675232567" lon="13.495598905253832"><ele>279.2</ele><time>2026-05-02T16:51:22Z</time></trkpt><trkpt lat="46.105248807272034" lon="13.495684066456871"><ele>275.4</ele><time>2026-05-02T16:51:23Z</time></trkpt><trkpt lat="46.10519246372291" lon="13.495762788487578"><ele>271.59999999999997</ele><time>2026-05-02T16:51:24Z</time></trkpt><trkpt lat="46.105134585617385" lon="13.495896132412346"><ele>267.8</ele><time>2026-05-02T16:51:25Z</time></trkpt><trkpt lat="46.105054270665775" lon="13.496011170065502"><ele>264.0</ele><time>2026-05-02T16:51:26Z</time></trkpt><trkpt lat="46.104994625023146" lon="13.496100557360538"><ele>264.0</ele><time>2026-05-02T16:51:27Z</time></trkpt><trkpt lat="46.10493212865333" lon="13.496207188463371"><ele>264.0</ele><time>2026-05-02T16:51:28Z</time></trkpt><trkpt lat="46.104872627749984" lon="13.49628860522203"><ele>264.0</ele><time>2026-05-02T16:51:29Z</time></trkpt><trkpt lat="46.10482012781726" lon="13.496377767581771"><ele>264.0</ele><time>2026-05-02T16:51:30Z</time></trkpt><trkpt lat="46.10478169970503" lon="13.496508854000254"><ele>264.0</ele><time>2026-05-02T16:51:31Z</time></trkpt><trkpt lat="46.10475347445364" lon="13.496648094513882"><ele>270.1666666666667</ele><time>2026-05-02T16:51:32Z</time></trkpt><trkpt lat="46.104711926860915" lon="13.496751271717864"><ele>276.3333333333333</ele><time>2026-05-02T16:51:33Z</time></trkpt><trkpt lat="46.104655445592" lon="13.496867426384531"><ele>282.5</ele><time>2026-05-02T16:51:34Z</time></trkpt><trkpt lat="46.104607656630876" lon="13.496976493599616"><ele>288.66666666666663</ele><time>2026-05-02T16:51:35Z</time></trkpt><trkpt lat="46.10455433495736" lon="13.497086780515172"><ele>294.8333333333333</ele><time>2026-05-02T16:51:36Z</time></trkpt><trkpt lat="46.10450422484329" lon="13.497174879586236"><ele>301.0</ele><time>2026-05-02T16:51:37Z</time></trkpt><trkpt lat="46.10445803608405" lon="13.497287258127535"><ele>302.6</ele><time>2026-05-02T16:51:38Z</time></trkpt><trkpt lat="46.1044692942698" lon="13.497405005588647"><ele>304.20000000000005</ele><time>2026-05-02T16:51:39Z</time></trkpt><trkpt lat="46.10451927068296" lon="13.497504828461677"><ele>305.79999999999995</ele><time>2026-05-02T16:51:40Z</time></trkpt><trkpt lat="46.10467534013258" lon="13.49749891228005"><ele>307.4</ele><time>2026-05-02T16:51:42Z</time></trkpt><trkpt lat="46.10477212965862" lon="13.497501210451121"><ele>309.0</ele><time>2026-05-02T16:51:43Z</time></trkpt><trkpt lat="46.10487749810853" lon="13.49750391561552"><ele>304.8</ele><time>2026-05-02T16:51:44Z</time></trkpt><trkpt lat="46.10496783474417" lon="13.497530862173928"><ele>300.59999999999997</ele><time>2026-05-02T16:51:45Z</time></trkpt><trkpt lat="46.10504095761029" lon="13.497616456353786"><ele>296.4</ele><time>2026-05-02T16:51:46Z</time></trkpt><trkpt lat="46.10509372236602" lon="13.49773590191858"><ele>292.2</ele><time>2026-05-02T16:51:47Z</time></trkpt><trkpt lat="46.105165321767366" lon="13.497863583990304"><ele>288.0</ele><time>2026-05-02T16:51:48Z</time></trkpt><trkpt lat="46.105212068966196" lon="13.497952274714061"><ele>288.0</ele><time>2026-05-02T16:51:49Z</time></trkpt><trkpt lat="46.105286404741335" lon="13.4980404335756"><ele>288.0</ele><time>2026-05-02T16:51:50Z</time></trkpt><trkpt lat="46.10533279413118" lon="13.498149665795003"><ele>288.0</ele><time>2026-05-02T16:51:51Z</time></trkpt><trkpt lat="46.10540571822492" lon="13.498266093551425"><ele>288.0</ele><time>2026-05-02T16:51:52Z</time></trkpt><trkpt lat="46.105461925620766" lon="13.498399959175403"><ele>288.0</ele><time>2026-05-02T16:51:53Z</time></trkpt><trkpt lat="46.105523122466664" lon="13.498525818911551"><ele>288.0</ele><time>2026-05-02T16:51:54Z</time></trkpt><trkpt lat="46.105557010883764" lon="13.498656286200134"><ele>288.0</ele><time>2026-05-02T16:51:55Z</time></trkpt><trkpt lat="46.10560846522863" lon="13.498782296854555"><ele>288.0</ele><time>2026-05-02T16:51:56Z</time></trkpt><trkpt lat="46.10569674524829" lon="13.49887977301269"><ele>288.0</ele><time>2026-05-02T16:51:57Z</time></trkpt><trkpt lat="46.105758760277666" lon="13.498960723728548"><ele>288.0</ele><time>2026-05-02T16:51:58Z</time></trkpt><trkpt lat="46.105836471734875" lon="13.499024441407354"><ele>286.0</ele><time>2026-05-02T16:51:59Z</time></trkpt><trkpt lat="46.10591381000677" lon="13.499096217512417"><ele>284.0</ele><time>2026-05-02T16:52:00Z</time></trkpt><trkpt lat="46.10598931868745" lon="13.499163200905974"><ele>282.0</ele><time>2026-05-02T16:52:01Z</time></trkpt><trkpt lat="46.106072463844335" lon="13.499208537353924"><ele>280.0</ele><time>2026-05-02T16:52:02Z</time></trkpt><trkpt lat="46.106161530308476" lon="13.499229203494709"><ele>278.0</ele><time>2026-05-02T16:52:03Z</time></trkpt><trkpt lat="46.10624485612399" lon="13.49923133441543"><ele>276.0</ele><time>2026-05-02T16:52:04Z</time></trkpt><trkpt lat="46.10635331266446" lon="13.4991659290966"><ele>276.0</ele><time>2026-05-02T16:52:05Z</time></trkpt><trkpt lat="46.1064261254093" lon="13.499069126616268"><ele>276.0</ele><time>2026-05-02T16:52:06Z</time></trkpt><trkpt lat="46.10649786582068" lon="13.498993448234804"><ele>276.0</ele><time>2026-05-02T16:52:07Z</time></trkpt><trkpt lat="46.106581123635515" lon="13.498939133459974"><ele>276.0</ele><time>2026-05-02T16:52:08Z</time></trkpt><trkpt lat="46.106665881487146" lon="13.498918604250022"><ele>276.0</ele><time>2026-05-02T16:52:09Z</time></trkpt><trkpt lat="46.106746828283676" lon="13.498943541989767"><ele>276.0</ele><time>2026-05-02T16:52:10Z</time></trkpt><trkpt lat="46.10683290207388" lon="13.498985654430895"><ele>271.8333333333333</ele><time>2026-05-02T16:52:11Z</time></trkpt><trkpt lat="46.10691679261845" lon="13.499017695971574"><ele>267.6666666666667</ele><time>2026-05-02T16:52:12Z</time></trkpt><trkpt lat="46.10699704004739" lon="13.499019680983736"><ele>263.5</ele><time>2026-05-02T16:52:13Z</time></trkpt><trkpt lat="46.10707808772106" lon="13.498988239930974"><ele>259.33333333333337</ele><time>2026-05-02T16:52:14Z</time></trkpt><trkpt lat="46.10714965765898" lon="13.498979455696611"><ele>255.16666666666669</ele><time>2026-05-02T16:52:15Z</time></trkpt><trkpt lat="46.10721624427188" lon="13.498987472916738"><ele>251.0</ele><time>2026-05-02T16:52:16Z</time></trkpt><trkpt lat="46.10728636097203" lon="13.49899364703342"><ele>250.99999999999997</ele><time>2026-05-02T16:52:17Z</time></trkpt><trkpt lat="46.10736025323359" lon="13.499001995539015"><ele>251.0</ele><time>2026-05-02T16:52:18Z</time></trkpt><trkpt lat="46.10742730089786" lon="13.499011401223697"><ele>250.99999999999997</ele><time>2026-05-02T16:52:19Z</time></trkpt><trkpt lat="46.1074911199534" lon="13.499011302890263"><ele>250.99999999999997</ele><time>2026-05-02T16:52:20.001Z</time></trkpt><trkpt lat="46.10756325584752" lon="13.499016758703075"><ele>251.0</ele><time>2026-05-02T16:52:21.001Z</time></trkpt><trkpt lat="46.10763097763646" lon="13.499037914382015"><ele>250.99999999999997</ele><time>2026-05-02T16:52:22.001Z</time></trkpt><trkpt lat="46.107703915926976" lon="13.499058952527797"><ele>250.99999999999997</ele><time>2026-05-02T16:52:23.001Z</time></trkpt><trkpt lat="46.10778483338044" lon="13.499086620613852"><ele>249.33333333333334</ele><time>2026-05-02T16:52:24.001Z</time></trkpt><trkpt lat="46.1078538984124" lon="13.499125566288443"><ele>247.66666666666669</ele><time>2026-05-02T16:52:25.001Z</time></trkpt><trkpt lat="46.10792669911391" lon="13.499165441044486"><ele>246.0</ele><time>2026-05-02T16:52:26.001Z</time></trkpt><trkpt lat="46.107997397857176" lon="13.499247312317774"><ele>244.33333333333331</ele><time>2026-05-02T16:52:27.001Z</time></trkpt><trkpt lat="46.108059091161635" lon="13.499354892766625"><ele>242.66666666666666</ele><time>2026-05-02T16:52:28.001Z</time></trkpt><trkpt lat="46.10812599174319" lon="13.499465364874032"><ele>241.0</ele><time>2026-05-02T16:52:29.001Z</time></trkpt><trkpt lat="46.10814626918023" lon="13.499621462465015"><ele>241.0</ele><time>2026-05-02T16:52:30.001Z</time></trkpt><trkpt lat="46.1081617703362" lon="13.499779115730153"><ele>241.00000000000003</ele><time>2026-05-02T16:52:31.001Z</time></trkpt><trkpt lat="46.108187598551936" lon="13.499928878545083"><ele>241.00000000000003</ele><time>2026-05-02T16:52:32.001Z</time></trkpt><trkpt lat="46.10817929964631" lon="13.500066446531426"><ele>241.0</ele><time>2026-05-02T16:52:33.001Z</time></trkpt><trkpt lat="46.108165313407625" lon="13.50019740883399"><ele>241.0</ele><time>2026-05-02T16:52:34.001Z</time></trkpt><trkpt lat="46.10818275483725" lon="13.500330130350259"><ele>239.49999999999997</ele><time>2026-05-02T16:52:35.001Z</time></trkpt><trkpt lat="46.10820692657869" lon="13.50043843881885"><ele>238.0</ele><time>2026-05-02T16:52:36.001Z</time></trkpt><trkpt lat="46.108255300572786" lon="13.500511686899339"><ele>236.5</ele><time>2026-05-02T16:52:37.001Z</time></trkpt><trkpt lat="46.1083182370813" lon="13.500562762044142"><ele>235.0</ele><time>2026-05-02T16:52:38.001Z</time></trkpt><trkpt lat="46.10839634229097" lon="13.500608811395006"><ele>233.49999999999997</ele><time>2026-05-02T16:52:39.001Z</time></trkpt><trkpt lat="46.108522665442685" lon="13.50052492790418"><ele>232.0</ele><time>2026-05-02T16:52:40.001Z</time></trkpt><trkpt lat="46.10862956441019" lon="13.500525737398899"><ele>228.83333333333331</ele><time>2026-05-02T16:52:41.001Z</time></trkpt><trkpt lat="46.10873259211165" lon="13.500504371056572"><ele>225.66666666666666</ele><time>2026-05-02T16:52:42.001Z</time></trkpt><trkpt lat="46.10881816019588" lon="13.500483065569982"><ele>222.5</ele><time>2026-05-02T16:52:43.001Z</time></trkpt><trkpt lat="46.10889621521255" lon="13.50045914739824"><ele>219.33333333333331</ele><time>2026-05-02T16:52:44.001Z</time></trkpt><trkpt lat="46.10896208610393" lon="13.500415194315622"><ele>216.16666666666666</ele><time>2026-05-02T16:52:45.001Z</time></trkpt><trkpt lat="46.10902972155511" lon="13.500388069539989"><ele>213.0</ele><time>2026-05-02T16:52:46.001Z</time></trkpt><trkpt lat="46.10909768455275" lon="13.500347334983115"><ele>209.2</ele><time>2026-05-02T16:52:47.001Z</time></trkpt><trkpt lat="46.109175817639986" lon="13.500314495609068"><ele>205.4</ele><time>2026-05-02T16:52:48.001Z</time></trkpt><trkpt lat="46.10928116332844" lon="13.500318674416153"><ele>201.6</ele><time>2026-05-02T16:52:49.001Z</time></trkpt><trkpt lat="46.10936199659819" lon="13.500306498436876"><ele>197.79999999999998</ele><time>2026-05-02T16:52:50.001Z</time></trkpt><trkpt lat="46.10944202562147" lon="13.500303448121954"><ele>194.0</ele><time>2026-05-02T16:52:51.001Z</time></trkpt><trkpt lat="46.10955581053602" lon="13.500315456869082"><ele>194.0</ele><time>2026-05-02T16:52:52.001Z</time></trkpt><trkpt lat="46.109664403900446" lon="13.500333553538916"><ele>194.0</ele><time>2026-05-02T16:52:53.001Z</time></trkpt><trkpt lat="46.109769240362034" lon="13.500369241257928"><ele>194.0</ele><time>2026-05-02T16:52:54.001Z</time></trkpt><trkpt lat="46.10983132193895" lon="13.500416365278985"><ele>194.0</ele><time>2026-05-02T16:52:55.001Z</time></trkpt><trkpt lat="46.109902233019604" lon="13.500481213164862"><ele>194.0</ele><time>2026-05-02T16:52:56.001Z</time></trkpt><trkpt lat="46.10995722640581" lon="13.500563676553774"><ele>191.0</ele><time>2026-05-02T16:52:57.001Z</time></trkpt><trkpt lat="46.11001997142827" lon="13.500686921041757"><ele>188.0</ele><time>2026-05-02T16:52:58.001Z</time></trkpt><trkpt lat="46.11010351413987" lon="13.500770120322631"><ele>185.0</ele><time>2026-05-02T16:52:59.001Z</time></trkpt><trkpt lat="46.110203958316966" lon="13.500935478445838"><ele>182.0</ele><time>2026-05-02T16:53:00.001Z</time></trkpt><trkpt lat="46.11031121679034" lon="13.501052687888789"><ele>182.0</ele><time>2026-05-02T16:53:01.001Z</time></trkpt><trkpt lat="46.11040559207977" lon="13.501167275388225"><ele>182.0</ele><time>2026-05-02T16:53:02.001Z</time></trkpt><trkpt lat="46.11049641446412" lon="13.501289552139733"><ele>182.0</ele><time>2026-05-02T16:53:03.001Z</time></trkpt><trkpt lat="46.11056785059331" lon="13.501395691770757"><ele>182.0</ele><time>2026-05-02T16:53:04.001Z</time></trkpt><trkpt lat="46.110607164774585" lon="13.501502344963733"><ele>182.0</ele><time>2026-05-02T16:53:05.001Z</time></trkpt><trkpt lat="46.110653565798515" lon="13.501608049661781"><ele>180.5</ele><time>2026-05-02T16:53:06.001Z</time></trkpt><trkpt lat="46.11067538881843" lon="13.501725669125427"><ele>179.0</ele><time>2026-05-02T16:53:07.001Z</time></trkpt><trkpt lat="46.11068261123893" lon="13.501838969980618"><ele>177.5</ele><time>2026-05-02T16:53:08.001Z</time></trkpt><trkpt lat="46.110686831071064" lon="13.50198468498667"><ele>176.0</ele><time>2026-05-02T16:53:09.001Z</time></trkpt><trkpt lat="46.110701619719315" lon="13.502105812724519"><ele>174.5</ele><time>2026-05-02T16:53:10.001Z</time></trkpt><trkpt lat="46.110763820803996" lon="13.502208930759393"><ele>173.0</ele><time>2026-05-02T16:53:11.001Z</time></trkpt><trkpt lat="46.11084086138118" lon="13.502301000685875"><ele>170.60000000000002</ele><time>2026-05-02T16:53:12.001Z</time></trkpt><trkpt lat="46.110915516597615" lon="13.502389602243001"><ele>168.20000000000002</ele><time>2026-05-02T16:53:13.001Z</time></trkpt><trkpt lat="46.11097517114837" lon="13.502510342546948"><ele>165.8</ele><time>2026-05-02T16:53:14.001Z</time></trkpt><trkpt lat="46.11105501030651" lon="13.502606279102821"><ele>163.4</ele><time>2026-05-02T16:53:15.001Z</time></trkpt><trkpt lat="46.11113103629373" lon="13.502672860169257"><ele>161.0</ele><time>2026-05-02T16:53:16Z</time></trkpt><trkpt lat="46.111217940668595" lon="13.502751725141458"><ele>161.0</ele><time>2026-05-02T16:53:17Z</time></trkpt><trkpt lat="46.11129065685845" lon="13.502789628304933"><ele>161.0</ele><time>2026-05-02T16:53:18Z</time></trkpt><trkpt lat="46.111407714281775" lon="13.50284114886287"><ele>161.0</ele><time>2026-05-02T16:53:20Z</time></trkpt><trkpt lat="46.11146130520258" lon="13.502909151293485"><ele>161.0</ele><time>2026-05-02T16:53:23Z</time></trkpt><trkpt lat="46.111497889899994" lon="13.502985155774056"><ele>161.0</ele><time>2026-05-02T16:53:34Z</time></trkpt><trkpt lat="46.11159414449451" lon="13.50300580374193"><ele>161.0</ele><time>2026-05-02T16:53:37Z</time></trkpt><trkpt lat="46.1116721378927" lon="13.50299822406318"><ele>159.20000000000002</ele><time>2026-05-02T16:53:38Z</time></trkpt><trkpt lat="46.11174867700688" lon="13.50301109851681"><ele>157.4</ele><time>2026-05-02T16:53:39Z</time></trkpt><trkpt lat="46.111841128599934" lon="13.50302093579146"><ele>155.6</ele><time>2026-05-02T16:53:40Z</time></trkpt><trkpt lat="46.111938643654355" lon="13.503031897312535"><ele>153.8</ele><time>2026-05-02T16:53:41Z</time></trkpt><trkpt lat="46.11204888606354" lon="13.50306299283826"><ele>152.0</ele><time>2026-05-02T16:53:42Z</time></trkpt><trkpt lat="46.11214595085632" lon="13.503085779750757"><ele>152.0</ele><time>2026-05-02T16:53:43Z</time></trkpt><trkpt lat="46.11222326162034" lon="13.503108508259624"><ele>152.0</ele><time>2026-05-02T16:53:44Z</time></trkpt><trkpt lat="46.11229122599388" lon="13.50315874333643"><ele>152.0</ele><time>2026-05-02T16:53:45Z</time></trkpt><trkpt lat="46.112314383023616" lon="13.503280070884285"><ele>152.0</ele><time>2026-05-02T16:53:46Z</time></trkpt><trkpt lat="46.11224485696768" lon="13.503465848177617"><ele>152.0</ele><time>2026-05-02T16:53:47Z</time></trkpt><trkpt lat="46.112222337417776" lon="13.50367648061848"><ele>151.33333333333331</ele><time>2026-05-02T16:53:48Z</time></trkpt><trkpt lat="46.11216379801498" lon="13.503861483681895"><ele>150.66666666666666</ele><time>2026-05-02T16:53:49Z</time></trkpt><trkpt lat="46.11207689185238" lon="13.5041121202612"><ele>150.0</ele><time>2026-05-02T16:53:50Z</time></trkpt><trkpt lat="46.11198490723665" lon="13.504371401142295"><ele>150.0</ele><time>2026-05-02T16:53:51Z</time></trkpt><trkpt lat="46.11189930585529" lon="13.504618341836727"><ele>150.0</ele><time>2026-05-02T16:53:52Z</time></trkpt><trkpt lat="46.11183806938436" lon="13.504816698201976"><ele>150.0</ele><time>2026-05-02T16:53:53Z</time></trkpt><trkpt lat="46.11181021085983" lon="13.504981006865739"><ele>150.0</ele><time>2026-05-02T16:53:54Z</time></trkpt><trkpt lat="46.111781128288996" lon="13.505123872952115"><ele>150.0</ele><time>2026-05-02T16:53:55Z</time></trkpt><trkpt lat="46.11179146686973" lon="13.50527211675873"><ele>150.0</ele><time>2026-05-02T16:53:56Z</time></trkpt><trkpt lat="46.11186504496706" lon="13.5054345328149"><ele>150.0</ele><time>2026-05-02T16:53:57Z</time></trkpt><trkpt lat="46.11197589566403" lon="13.50557357499217"><ele>153.25</ele><time>2026-05-02T16:53:58Z</time></trkpt><trkpt lat="46.1120669840519" lon="13.505726359858345"><ele>156.5</ele><time>2026-05-02T16:53:59Z</time></trkpt><trkpt lat="46.11216798062165" lon="13.50588311543432"><ele>159.75</ele><time>2026-05-02T16:54:00Z</time></trkpt><trkpt lat="46.11226159458894" lon="13.50602394189595"><ele>163.0</ele><time>2026-05-02T16:54:01Z</time></trkpt><trkpt lat="46.11235309729046" lon="13.506152101147658"><ele>166.0</ele><time>2026-05-02T16:54:02Z</time></trkpt><trkpt lat="46.11243458054507" lon="13.506295813208144"><ele>169.0</ele><time>2026-05-02T16:54:03Z</time></trkpt><trkpt lat="46.11252502248578" lon="13.506423753847569"><ele>172.0</ele><time>2026-05-02T16:54:04Z</time></trkpt><trkpt lat="46.112625299878225" lon="13.506537900459266"><ele>175.0</ele><time>2026-05-02T16:54:05Z</time></trkpt><trkpt lat="46.11269736530267" lon="13.506661504998151"><ele>175.0</ele><time>2026-05-02T16:54:06Z</time></trkpt><trkpt lat="46.11279644365552" lon="13.506766556274078"><ele>175.0</ele><time>2026-05-02T16:54:07Z</time></trkpt><trkpt lat="46.11287441584785" lon="13.506876401473642"><ele>175.0</ele><time>2026-05-02T16:54:08Z</time></trkpt><trkpt lat="46.11294846221315" lon="13.506968465699726"><ele>175.0</ele><time>2026-05-02T16:54:09Z</time></trkpt><trkpt lat="46.113006422327544" lon="13.507061953051515"><ele>175.0</ele><time>2026-05-02T16:54:10Z</time></trkpt><trkpt lat="46.11306752996083" lon="13.507195597753224"><ele>176.6</ele><time>2026-05-02T16:54:11Z</time></trkpt><trkpt lat="46.11314402026163" lon="13.507342457558442"><ele>178.2</ele><time>2026-05-02T16:54:12Z</time></trkpt><trkpt lat="46.11319819738584" lon="13.507486611913391"><ele>179.8</ele><time>2026-05-02T16:54:13Z</time></trkpt><trkpt lat="46.11326405856436" lon="13.507596338406016"><ele>181.4</ele><time>2026-05-02T16:54:14Z</time></trkpt><trkpt lat="46.11328474107076" lon="13.507711045774416"><ele>183.0</ele><time>2026-05-02T16:54:16Z</time></trkpt><trkpt lat="46.113300128630755" lon="13.507834565459577"><ele>177.4</ele><time>2026-05-02T16:54:18Z</time></trkpt><trkpt lat="46.11331804341997" lon="13.507922053847096"><ele>171.8</ele><time>2026-05-02T16:54:19Z</time></trkpt><trkpt lat="46.113345903506314" lon="13.508030661423735"><ele>166.2</ele><time>2026-05-02T16:54:20Z</time></trkpt><trkpt lat="46.11337029162972" lon="13.508184722881836"><ele>160.6</ele><time>2026-05-02T16:54:21Z</time></trkpt><trkpt lat="46.11345883862043" lon="13.508342983250628"><ele>155.0</ele><time>2026-05-02T16:54:22Z</time></trkpt><trkpt lat="46.11353007077336" lon="13.508492742449432"><ele>155.0</ele><time>2026-05-02T16:54:23Z</time></trkpt><trkpt lat="46.11362004083314" lon="13.508607591742765"><ele>155.0</ele><time>2026-05-02T16:54:24Z</time></trkpt><trkpt lat="46.11370386765237" lon="13.50874329689506"><ele>155.0</ele><time>2026-05-02T16:54:25Z</time></trkpt><trkpt lat="46.113786055628964" lon="13.508849164763378"><ele>155.0</ele><time>2026-05-02T16:54:26Z</time></trkpt><trkpt lat="46.11384908775045" lon="13.508954397320782"><ele>155.5</ele><time>2026-05-02T16:54:27Z</time></trkpt><trkpt lat="46.113910960138625" lon="13.509029653291567"><ele>156.0</ele><time>2026-05-02T16:54:28Z</time></trkpt><trkpt lat="46.11395688646118" lon="13.509109003793943"><ele>156.5</ele><time>2026-05-02T16:54:29Z</time></trkpt><trkpt lat="46.11400259610511" lon="13.50919258527863"><ele>157.0</ele><time>2026-05-02T16:54:31.001Z</time></trkpt><trkpt lat="46.11387289765237" lon="13.509266731017066"><ele>157.5</ele><time>2026-05-02T16:54:33.001Z</time></trkpt><trkpt lat="46.113791551723146" lon="13.509292983282943"><ele>158.0</ele><time>2026-05-02T16:54:35.001Z</time></trkpt><trkpt lat="46.113698655781434" lon="13.509410282311224"><ele>158.0</ele><time>2026-05-02T16:54:37.001Z</time></trkpt><trkpt lat="46.11370496661297" lon="13.50954390038508"><ele>158.0</ele><time>2026-05-02T16:54:38.001Z</time></trkpt><trkpt lat="46.113733460244205" lon="13.509664241239458"><ele>158.0</ele><time>2026-05-02T16:54:39.001Z</time></trkpt><trkpt lat="46.113746128853464" lon="13.509797416174521"><ele>158.0</ele><time>2026-05-02T16:54:40.001Z</time></trkpt><trkpt lat="46.113757902893305" lon="13.50994978494861"><ele>158.0</ele><time>2026-05-02T16:54:41.001Z</time></trkpt><trkpt lat="46.113769459350486" lon="13.51011735443759"><ele>158.8</ele><time>2026-05-02T16:54:42.001Z</time></trkpt><trkpt lat="46.1137790987876" lon="13.510254513739975"><ele>159.60000000000002</ele><time>2026-05-02T16:54:43.001Z</time></trkpt><trkpt lat="46.11380555687786" lon="13.510389229252947"><ele>160.39999999999998</ele><time>2026-05-02T16:54:44.001Z</time></trkpt><trkpt lat="46.113815054802444" lon="13.510525361779473"><ele>161.2</ele><time>2026-05-02T16:54:45.001Z</time></trkpt><trkpt lat="46.11382575596974" lon="13.51068172543509"><ele>162.0</ele><time>2026-05-02T16:54:46.001Z</time></trkpt><trkpt lat="46.11383683919097" lon="13.510801565056466"><ele>162.0</ele><time>2026-05-02T16:54:47.001Z</time></trkpt><trkpt lat="46.11384695337715" lon="13.5108969370764"><ele>162.0</ele><time>2026-05-02T16:54:48.001Z</time></trkpt><trkpt lat="46.113859333657715" lon="13.511006498874135"><ele>162.0</ele><time>2026-05-02T16:54:49.001Z</time></trkpt><trkpt lat="46.11389563143589" lon="13.511106281847182"><ele>162.0</ele><time>2026-05-02T16:54:50.001Z</time></trkpt><trkpt lat="46.11392581575195" lon="13.511209560604875"><ele>162.0</ele><time>2026-05-02T16:54:51.001Z</time></trkpt><trkpt lat="46.113854746832544" lon="13.511370159991056"><ele>162.0</ele><time>2026-05-02T16:54:52.001Z</time></trkpt><trkpt lat="46.11385795492325" lon="13.511500162111382"><ele>162.2</ele><time>2026-05-02T16:54:53.001Z</time></trkpt><trkpt lat="46.113849644907546" lon="13.511635979406273"><ele>162.39999999999998</ele><time>2026-05-02T16:54:54.001Z</time></trkpt><trkpt lat="46.113840936536526" lon="13.511778350188429"><ele>162.60000000000002</ele><time>2026-05-02T16:54:55.001Z</time></trkpt><trkpt lat="46.113859597013374" lon="13.51192561790177"><ele>162.8</ele><time>2026-05-02T16:54:56.001Z</time></trkpt><trkpt lat="46.113909018579456" lon="13.512077755923073"><ele>163.0</ele><time>2026-05-02T16:54:57.001Z</time></trkpt><trkpt lat="46.1139439522209" lon="13.512213405392297"><ele>160.8</ele><time>2026-05-02T16:54:58.001Z</time></trkpt><trkpt lat="46.11397556901879" lon="13.512336041221966"><ele>158.60000000000002</ele><time>2026-05-02T16:54:59.001Z</time></trkpt><trkpt lat="46.114017533638524" lon="13.512450927960979"><ele>156.39999999999998</ele><time>2026-05-02T16:55:00.001Z</time></trkpt><trkpt lat="46.114034510270535" lon="13.512586514838572"><ele>154.2</ele><time>2026-05-02T16:55:01.001Z</time></trkpt><trkpt lat="46.114067423242965" lon="13.512716729213727"><ele>152.0</ele><time>2026-05-02T16:55:02.001Z</time></trkpt><trkpt lat="46.11408608974097" lon="13.51284499842789"><ele>154.0</ele><time>2026-05-02T16:55:03.001Z</time></trkpt><trkpt lat="46.11409397870151" lon="13.512992392597555"><ele>156.0</ele><time>2026-05-02T16:55:04.001Z</time></trkpt><trkpt lat="46.11410315221594" lon="13.513145718447912"><ele>158.0</ele><time>2026-05-02T16:55:05.001Z</time></trkpt><trkpt lat="46.114128997285086" lon="13.513305132964614"><ele>160.0</ele><time>2026-05-02T16:55:06.001Z</time></trkpt><trkpt lat="46.114158838069756" lon="13.513469963366369"><ele>162.0</ele><time>2026-05-02T16:55:07.001Z</time></trkpt><trkpt lat="46.114194235262715" lon="13.513609233383743"><ele>162.6</ele><time>2026-05-02T16:55:08.001Z</time></trkpt><trkpt lat="46.11425643482006" lon="13.513760123245842"><ele>163.2</ele><time>2026-05-02T16:55:09.001Z</time></trkpt><trkpt lat="46.11427922278899" lon="13.513864907806033"><ele>163.8</ele><time>2026-05-02T16:55:10.001Z</time></trkpt><trkpt lat="46.11432363571414" lon="13.513982672194755"><ele>164.4</ele><time>2026-05-02T16:55:11.001Z</time></trkpt><trkpt lat="46.11434746647103" lon="13.514110592546249"><ele>165.0</ele><time>2026-05-02T16:55:12.001Z</time></trkpt><trkpt lat="46.114389096993186" lon="13.514267514679796"><ele>165.0</ele><time>2026-05-02T16:55:13.001Z</time></trkpt><trkpt lat="46.11439775591328" lon="13.514458508890122"><ele>165.0</ele><time>2026-05-02T16:55:14.001Z</time></trkpt><trkpt lat="46.11443328204193" lon="13.51467383477367"><ele>165.0</ele><time>2026-05-02T16:55:15.001Z</time></trkpt><trkpt lat="46.11444660762801" lon="13.514887972424846"><ele>165.0</ele><time>2026-05-02T16:55:16.001Z</time></trkpt><trkpt lat="46.114452302215014" lon="13.515062830608208"><ele>165.8</ele><time>2026-05-02T16:55:17.001Z</time></trkpt><trkpt lat="46.114445677321626" lon="13.51522268864635"><ele>166.6</ele><time>2026-05-02T16:55:18.001Z</time></trkpt><trkpt lat="46.11446044683251" lon="13.515379251116814"><ele>167.39999999999998</ele><time>2026-05-02T16:55:19.001Z</time></trkpt><trkpt lat="46.11447155130307" lon="13.51553991337636"><ele>168.2</ele><time>2026-05-02T16:55:20.001Z</time></trkpt><trkpt lat="46.11446587834116" lon="13.51567445444291"><ele>169.0</ele><time>2026-05-02T16:55:21.001Z</time></trkpt><trkpt lat="46.11444606523369" lon="13.515792302847029"><ele>169.6</ele><time>2026-05-02T16:55:22Z</time></trkpt><trkpt lat="46.114468552364784" lon="13.515895225065988"><ele>170.2</ele><time>2026-05-02T16:55:23Z</time></trkpt><trkpt lat="46.11450880768316" lon="13.516039833893299"><ele>170.79999999999998</ele><time>2026-05-02T16:55:24Z</time></trkpt><trkpt lat="46.114552128066585" lon="13.516185220232408"><ele>171.39999999999998</ele><time>2026-05-02T16:55:25Z</time></trkpt><trkpt lat="46.11459633309743" lon="13.516323664422647"><ele>172.0</ele><time>2026-05-02T16:55:26Z</time></trkpt><trkpt lat="46.11462120827864" lon="13.516469873421203"><ele>172.0</ele><time>2026-05-02T16:55:27Z</time></trkpt><trkpt lat="46.11465886246563" lon="13.516589037674152"><ele>172.0</ele><time>2026-05-02T16:55:28Z</time></trkpt><trkpt lat="46.11470941706387" lon="13.51670047704249"><ele>172.0</ele><time>2026-05-02T16:55:29Z</time></trkpt><trkpt lat="46.114782552825396" lon="13.516800024442006"><ele>172.0</ele><time>2026-05-02T16:55:30Z</time></trkpt><trkpt lat="46.11485163091756" lon="13.516908588197932"><ele>172.0</ele><time>2026-05-02T16:55:31Z</time></trkpt><trkpt lat="46.11491300083142" lon="13.516998153629604"><ele>168.0</ele><time>2026-05-02T16:55:32Z</time></trkpt><trkpt lat="46.114966362447554" lon="13.517104353924037"><ele>164.0</ele><time>2026-05-02T16:55:33Z</time></trkpt><trkpt lat="46.11502013094037" lon="13.517221567226006"><ele>160.0</ele><time>2026-05-02T16:55:34Z</time></trkpt><trkpt lat="46.11508163117168" lon="13.517336621373031"><ele>156.0</ele><time>2026-05-02T16:55:35Z</time></trkpt><trkpt lat="46.11516051519885" lon="13.517442197091277"><ele>152.0</ele><time>2026-05-02T16:55:36Z</time></trkpt><trkpt lat="46.11523419268739" lon="13.517526267119495"><ele>152.0</ele><time>2026-05-02T16:55:37Z</time></trkpt><trkpt lat="46.11529592549002" lon="13.517647745018866"><ele>152.0</ele><time>2026-05-02T16:55:38Z</time></trkpt><trkpt lat="46.11536456840332" lon="13.517752405492821"><ele>152.0</ele><time>2026-05-02T16:55:39Z</time></trkpt><trkpt lat="46.11543128127013" lon="13.517856753681153"><ele>152.0</ele><time>2026-05-02T16:55:40Z</time></trkpt><trkpt lat="46.11548843866988" lon="13.517926043207792"><ele>152.0</ele><time>2026-05-02T16:55:41Z</time></trkpt><trkpt lat="46.11554740256899" lon="13.518013326999185"><ele>151.79999999999998</ele><time>2026-05-02T16:55:42Z</time></trkpt><trkpt lat="46.11561405822189" lon="13.518094780959348"><ele>151.6</ele><time>2026-05-02T16:55:43Z</time></trkpt><trkpt lat="46.115693929374835" lon="13.518155274399426"><ele>151.39999999999998</ele><time>2026-05-02T16:55:44Z</time></trkpt><trkpt lat="46.11577674956864" lon="13.51823973685995"><ele>151.2</ele><time>2026-05-02T16:55:45Z</time></trkpt><trkpt lat="46.11586727403913" lon="13.518299989618926"><ele>151.0</ele><time>2026-05-02T16:55:46Z</time></trkpt><trkpt lat="46.11594607195573" lon="13.518373741829121"><ele>151.0</ele><time>2026-05-02T16:55:47Z</time></trkpt><trkpt lat="46.116037266811155" lon="13.518421381641659"><ele>151.0</ele><time>2026-05-02T16:55:48Z</time></trkpt><trkpt lat="46.116126378921436" lon="13.518487660017874"><ele>151.0</ele><time>2026-05-02T16:55:49Z</time></trkpt><trkpt lat="46.11621486748157" lon="13.51856106479294"><ele>151.0</ele><time>2026-05-02T16:55:50Z</time></trkpt><trkpt lat="46.11629921846615" lon="13.518639460794752"><ele>151.0</ele><time>2026-05-02T16:55:51Z</time></trkpt><trkpt lat="46.11637135046822" lon="13.518741835805285"><ele>151.0</ele><time>2026-05-02T16:55:52Z</time></trkpt><trkpt lat="46.11643091949196" lon="13.518837499405642"><ele>151.0</ele><time>2026-05-02T16:55:53Z</time></trkpt><trkpt lat="46.1165047448598" lon="13.518942296007614"><ele>151.0</ele><time>2026-05-02T16:55:54Z</time></trkpt><trkpt lat="46.11659751072178" lon="13.519005535338218"><ele>151.0</ele><time>2026-05-02T16:55:55Z</time></trkpt><trkpt lat="46.11667717749572" lon="13.519067231576063"><ele>151.0</ele><time>2026-05-02T16:55:56Z</time></trkpt><trkpt lat="46.11675290338245" lon="13.519134665610943"><ele>151.6</ele><time>2026-05-02T16:55:57Z</time></trkpt><trkpt lat="46.116825716364865" lon="13.51918501892937"><ele>152.2</ele><time>2026-05-02T16:55:58Z</time></trkpt><trkpt lat="46.116904380488855" lon="13.519263231256753"><ele>152.8</ele><time>2026-05-02T16:55:59Z</time></trkpt><trkpt lat="46.11698308421462" lon="13.519320288153507"><ele>153.4</ele><time>2026-05-02T16:56:00Z</time></trkpt><trkpt lat="46.11707839796444" lon="13.519440439685068"><ele>154.0</ele><time>2026-05-02T16:56:01Z</time></trkpt><trkpt lat="46.11717816865309" lon="13.519552512484621"><ele>153.6</ele><time>2026-05-02T16:56:02Z</time></trkpt><trkpt lat="46.1172614655224" lon="13.519625443794531"><ele>153.2</ele><time>2026-05-02T16:56:03Z</time></trkpt><trkpt lat="46.11732985065828" lon="13.519700070066918"><ele>152.79999999999998</ele><time>2026-05-02T16:56:04Z</time></trkpt><trkpt lat="46.11737768982229" lon="13.519798908044448"><ele>152.4</ele><time>2026-05-02T16:56:05Z</time></trkpt><trkpt lat="46.11741944037513" lon="13.519929002898149"><ele>152.0</ele><time>2026-05-02T16:56:06Z</time></trkpt><trkpt lat="46.11746132236522" lon="13.520081193718987"><ele>152.0</ele><time>2026-05-02T16:56:07Z</time></trkpt><trkpt lat="46.117465921393155" lon="13.52025412558303"><ele>152.0</ele><time>2026-05-02T16:56:08Z</time></trkpt><trkpt lat="46.117487614035646" lon="13.520415334356883"><ele>152.0</ele><time>2026-05-02T16:56:09Z</time></trkpt><trkpt lat="46.117562734416005" lon="13.520536867141978"><ele>152.0</ele><time>2026-05-02T16:56:10Z</time></trkpt><trkpt lat="46.117641037246" lon="13.52063189161359"><ele>152.0</ele><time>2026-05-02T16:56:11Z</time></trkpt><trkpt lat="46.117711519540784" lon="13.520736104738093"><ele>152.2</ele><time>2026-05-02T16:56:12Z</time></trkpt><trkpt lat="46.11779056902677" lon="13.520830698595875"><ele>152.39999999999998</ele><time>2026-05-02T16:56:13Z</time></trkpt><trkpt lat="46.117874366211744" lon="13.520897991082323"><ele>152.60000000000002</ele><time>2026-05-02T16:56:14Z</time></trkpt><trkpt lat="46.11795135094648" lon="13.520967085297482"><ele>152.8</ele><time>2026-05-02T16:56:15Z</time></trkpt><trkpt lat="46.118041131816796" lon="13.521046664157925"><ele>153.0</ele><time>2026-05-02T16:56:16Z</time></trkpt><trkpt lat="46.118121533351456" lon="13.521103976218797"><ele>153.0</ele><time>2026-05-02T16:56:17Z</time></trkpt><trkpt lat="46.118177790808076" lon="13.521146665874083"><ele>153.0</ele><time>2026-05-02T16:56:18Z</time></trkpt><trkpt lat="46.11820491081265" lon="13.521266596892708"><ele>153.0</ele><time>2026-05-02T16:56:20Z</time></trkpt><trkpt lat="46.11818110514631" lon="13.52137062854513"><ele>153.0</ele><time>2026-05-02T16:56:21Z</time></trkpt><trkpt lat="46.118149274476984" lon="13.521484712046458"><ele>153.0</ele><time>2026-05-02T16:56:22Z</time></trkpt><trkpt lat="46.118122852900555" lon="13.521593432734514"><ele>153.0</ele><time>2026-05-02T16:56:23Z</time></trkpt><trkpt lat="46.11808886604525" lon="13.521733091232264"><ele>153.0</ele><time>2026-05-02T16:56:25Z</time></trkpt><trkpt lat="46.11812320798571" lon="13.521832816477325"><ele>153.0</ele><time>2026-05-02T16:56:28Z</time></trkpt><trkpt lat="46.118212038606245" lon="13.521863159580127"><ele>153.0</ele><time>2026-05-02T16:56:30Z</time></trkpt><trkpt lat="46.11831614665201" lon="13.521839052984978"><ele>153.0</ele><time>2026-05-02T16:56:31Z</time></trkpt><trkpt lat="46.11842143019855" lon="13.521865398055331"><ele>153.0</ele><time>2026-05-02T16:56:32Z</time></trkpt><trkpt lat="46.118545653637774" lon="13.521933812892899"><ele>153.0</ele><time>2026-05-02T16:56:33Z</time></trkpt><trkpt lat="46.11865533600656" lon="13.522008215985165"><ele>153.0</ele><time>2026-05-02T16:56:34Z</time></trkpt><trkpt lat="46.118753636305776" lon="13.522068132266453"><ele>153.0</ele><time>2026-05-02T16:56:35.001Z</time></trkpt><trkpt lat="46.11884527975669" lon="13.522117503050968"><ele>153.0</ele><time>2026-05-02T16:56:36.001Z</time></trkpt><trkpt lat="46.11892990868095" lon="13.522157528033349"><ele>153.0</ele><time>2026-05-02T16:56:37.001Z</time></trkpt><trkpt lat="46.119014341975316" lon="13.522246172353864"><ele>153.4</ele><time>2026-05-02T16:56:38.001Z</time></trkpt><trkpt lat="46.11910477450092" lon="13.522288180458872"><ele>153.8</ele><time>2026-05-02T16:56:39.001Z</time></trkpt><trkpt lat="46.11920400053109" lon="13.52232005467954"><ele>154.2</ele><time>2026-05-02T16:56:40.001Z</time></trkpt><trkpt lat="46.11930886903448" lon="13.522307910628399"><ele>154.6</ele><time>2026-05-02T16:56:41.001Z</time></trkpt><trkpt lat="46.11941120396777" lon="13.52229111940324"><ele>155.0</ele><time>2026-05-02T16:56:42.001Z</time></trkpt><trkpt lat="46.11949623910954" lon="13.522270615750553"><ele>155.0</ele><time>2026-05-02T16:56:43.001Z</time></trkpt><trkpt lat="46.119584218475566" lon="13.522295325009678"><ele>155.0</ele><time>2026-05-02T16:56:44.001Z</time></trkpt><trkpt lat="46.11961864468167" lon="13.522430913717919"><ele>155.0</ele><time>2026-05-02T16:56:45.001Z</time></trkpt><trkpt lat="46.11968117523011" lon="13.522514579933294"><ele>155.0</ele><time>2026-05-02T16:56:46.001Z</time></trkpt><trkpt lat="46.119746130454494" lon="13.522597724248751"><ele>155.0</ele><time>2026-05-02T16:56:47.001Z</time></trkpt><trkpt lat="46.11980458640445" lon="13.522678385382939"><ele>155.0</ele><time>2026-05-02T16:56:48.001Z</time></trkpt><trkpt lat="46.119850916359205" lon="13.522755169455351"><ele>155.0</ele><time>2026-05-02T16:56:49.001Z</time></trkpt><trkpt lat="46.11989863383088" lon="13.522844099658558"><ele>155.0</ele><time>2026-05-02T16:56:50.001Z</time></trkpt><trkpt lat="46.11994347476011" lon="13.522936740091126"><ele>155.0</ele><time>2026-05-02T16:56:51.001Z</time></trkpt><trkpt lat="46.119988257645794" lon="13.523030814982414"><ele>155.0</ele><time>2026-05-02T16:56:52.001Z</time></trkpt><trkpt lat="46.12003093422709" lon="13.523119858007478"><ele>155.0</ele><time>2026-05-02T16:56:53.001Z</time></trkpt><trkpt lat="46.12007839588061" lon="13.52321472350527"><ele>155.0</ele><time>2026-05-02T16:56:54.001Z</time></trkpt><trkpt lat="46.1201229037637" lon="13.523303685067622"><ele>155.0</ele><time>2026-05-02T16:56:55.001Z</time></trkpt><trkpt lat="46.12016836784357" lon="13.523394557848288"><ele>155.0</ele><time>2026-05-02T16:56:56.001Z</time></trkpt><trkpt lat="46.120225290365106" lon="13.523467958075152"><ele>155.0</ele><time>2026-05-02T16:56:57.001Z</time></trkpt><trkpt lat="46.12026530706239" lon="13.523553831168565"><ele>155.0</ele><time>2026-05-02T16:56:58.001Z</time></trkpt><trkpt lat="46.120298711004935" lon="13.523696146369774"><ele>155.0</ele><time>2026-05-02T16:57:00.001Z</time></trkpt><trkpt lat="46.120232943935264" lon="13.523922114079053"><ele>155.0</ele><time>2026-05-02T16:57:03.001Z</time></trkpt><trkpt lat="46.12017394203462" lon="13.523988602963513"><ele>155.0</ele><time>2026-05-02T16:57:05.001Z</time></trkpt><trkpt lat="46.12009354493887" lon="13.523936514402246"><ele>155.0</ele><time>2026-05-02T16:57:06.001Z</time></trkpt><trkpt lat="46.120018315279" lon="13.524002362343635"><ele>155.0</ele><time>2026-05-02T16:57:08.001Z</time></trkpt><trkpt lat="46.11995375634028" lon="13.524055773649138"><ele>155.0</ele><time>2026-05-02T16:57:10.001Z</time></trkpt><trkpt lat="46.11988226130669" lon="13.524090602228869"><ele>155.0</ele><time>2026-05-02T16:57:12.001Z</time></trkpt><trkpt lat="46.11981089634219" lon="13.524004516875028"><ele>155.0</ele><time>2026-05-02T16:57:14.001Z</time></trkpt><trkpt lat="46.1197179388447" lon="13.523915156720381"><ele>155.0</ele><time>2026-05-02T16:57:16.001Z</time></trkpt><trkpt lat="46.119621067040285" lon="13.52395407036153"><ele>155.0</ele><time>2026-05-02T16:57:18.001Z</time></trkpt><trkpt lat="46.11955906049884" lon="13.524004768461948"><ele>155.0</ele><time>2026-05-02T16:57:22.001Z</time></trkpt><trkpt lat="46.11958587140151" lon="13.5241637100488"><ele>155.0</ele><time>2026-05-02T16:57:48Z</time></trkpt><trkpt lat="46.119570526236195" lon="13.524075187914473"><ele>155.0</ele><time>2026-05-02T17:01:32.001Z</time></trkpt><trkpt lat="46.11948421662623" lon="13.524102316528992"><ele>155.0</ele><time>2026-05-02T17:10:21Z</time></trkpt><trkpt lat="46.119549123265294" lon="13.524070452628884"><ele>155.0</ele><time>2026-05-02T17:15:39.001Z</time></trkpt><trkpt lat="46.11954978381315" lon="13.524167568206154"><ele>155.0</ele><time>2026-05-02T17:53:39.001Z</time></trkpt><trkpt lat="46.11957605722444" lon="13.524081148176732"><ele>155.0</ele><time>2026-05-02T17:53:46.001Z</time></trkpt><trkpt lat="46.119615983401886" lon="13.524004086788866"><ele>155.0</ele><time>2026-05-02T17:54:24Z</time></trkpt><trkpt lat="46.11967618652773" lon="13.523974062565628"><ele>155.0</ele><time>2026-05-02T17:54:32Z</time></trkpt><trkpt lat="46.11977448569125" lon="13.52397083597154"><ele>155.0</ele><time>2026-05-02T17:54:44Z</time></trkpt><trkpt lat="46.11983610949754" lon="13.524011646561968"><ele>155.0</ele><time>2026-05-02T17:54:53Z</time></trkpt><trkpt lat="46.11987485818385" lon="13.524085948817175"><ele>155.0</ele><time>2026-05-02T17:55:01Z</time></trkpt><trkpt lat="46.11988828190106" lon="13.524178024112771"><ele>155.0</ele><time>2026-05-02T17:55:11.001Z</time></trkpt><trkpt lat="46.11992715569933" lon="13.52425990882925"><ele>155.0</ele><time>2026-05-02T17:55:20.001Z</time></trkpt><trkpt lat="46.11993787905281" lon="13.524165410414014"><ele>155.0</ele><time>2026-05-02T17:55:36.001Z</time></trkpt><trkpt lat="46.11999701848682" lon="13.52420345745779"><ele>155.0</ele><time>2026-05-02T17:55:57.001Z</time></trkpt><trkpt lat="46.120051504523296" lon="13.524147524773978"><ele>155.0</ele><time>2026-05-02T17:56:04.001Z</time></trkpt><trkpt lat="46.1200637853395" lon="13.524056709062421"><ele>155.0</ele><time>2026-05-02T17:56:14.001Z</time></trkpt><trkpt lat="46.12009364778602" lon="13.524140437100924"><ele>155.0</ele><time>2026-05-02T17:56:31Z</time></trkpt><trkpt lat="46.12015294093343" lon="13.524195306881971"><ele>155.0</ele><time>2026-05-02T17:56:38Z</time></trkpt><trkpt lat="46.12019989563904" lon="13.524280013413227"><ele>155.0</ele><time>2026-05-02T17:56:45Z</time></trkpt><trkpt lat="46.12026303170084" lon="13.524311294301715"><ele>155.0</ele><time>2026-05-02T17:56:51Z</time></trkpt><trkpt lat="46.12031614631272" lon="13.524376111311845"><ele>155.0</ele><time>2026-05-02T17:57:00Z</time></trkpt><trkpt lat="46.12035154278194" lon="13.52447300100846"><ele>155.0</ele><time>2026-05-02T17:57:05Z</time></trkpt><trkpt lat="46.12035273783781" lon="13.524567748141495"><ele>155.0</ele><time>2026-05-02T17:57:11.001Z</time></trkpt><trkpt lat="46.120427002393335" lon="13.524596128198038"><ele>155.0</ele><time>2026-05-02T17:57:31.001Z</time></trkpt><trkpt lat="46.120366551778936" lon="13.52449359919253"><ele>155.0</ele><time>2026-05-02T19:20:35Z</time></trkpt><trkpt lat="46.120322166371345" lon="13.524415855557608"><ele>155.0</ele><time>2026-05-02T19:20:39Z</time></trkpt><trkpt lat="46.12027746998701" lon="13.524336304053818"><ele>155.0</ele><time>2026-05-02T19:20:44Z</time></trkpt><trkpt lat="46.120223770563776" lon="13.524288896620684"><ele>155.0</ele><time>2026-05-02T19:20:49Z</time></trkpt><trkpt lat="46.12016847722736" lon="13.524236454383502"><ele>155.0</ele><time>2026-05-02T19:20:59Z</time></trkpt><trkpt lat="46.120124697231894" lon="13.524167083476781"><ele>155.0</ele><time>2026-05-02T19:21:03Z</time></trkpt><trkpt lat="46.120060262161694" lon="13.524169719561467"><ele>155.0</ele><time>2026-05-02T19:21:07Z</time></trkpt><trkpt lat="46.119979886248" lon="13.524176063236535"><ele>155.0</ele><time>2026-05-02T19:21:12Z</time></trkpt><trkpt lat="46.119901882167376" lon="13.524164181887215"><ele>155.0</ele><time>2026-05-02T19:21:18Z</time></trkpt><trkpt lat="46.119858321286515" lon="13.524075941565993"><ele>155.0</ele><time>2026-05-02T19:21:22.001Z</time></trkpt><trkpt lat="46.1198142743372" lon="13.524007950197008"><ele>155.0</ele><time>2026-05-02T19:21:27.001Z</time></trkpt><trkpt lat="46.119747446884226" lon="13.524035173097879"><ele>155.0</ele><time>2026-05-02T19:21:38.001Z</time></trkpt><trkpt lat="46.11968457521781" lon="13.524029155202243"><ele>155.0</ele><time>2026-05-02T19:21:43.001Z</time></trkpt><trkpt lat="46.11962086939624" lon="13.52404408017289"><ele>155.0</ele><time>2026-05-02T19:21:47.001Z</time></trkpt><trkpt lat="46.119554818364826" lon="13.5239893949567"><ele>155.0</ele><time>2026-05-02T19:23:16Z</time></trkpt><trkpt lat="46.11955814322018" lon="13.52411639657697"><ele>155.0</ele><time>2026-05-02T19:23:37.001Z</time></trkpt><trkpt lat="46.11958905705437" lon="13.52401809239882"><ele>155.0</ele><time>2026-05-02T19:24:15.001Z</time></trkpt><trkpt lat="46.119652844833475" lon="13.523956484510983"><ele>155.0</ele><time>2026-05-02T19:24:21.001Z</time></trkpt><trkpt lat="46.11971755092741" lon="13.523949338822"><ele>155.0</ele><time>2026-05-02T19:24:27.001Z</time></trkpt><trkpt lat="46.119785315219424" lon="13.523958819611073"><ele>155.0</ele><time>2026-05-02T19:24:33Z</time></trkpt><trkpt lat="46.1198414938679" lon="13.52401636167078"><ele>155.0</ele><time>2026-05-02T19:24:41Z</time></trkpt><trkpt lat="46.119882260553894" lon="13.52409038275579"><ele>155.0</ele><time>2026-05-02T19:24:49Z</time></trkpt><trkpt lat="46.11995797504956" lon="13.524095128703422"><ele>155.0</ele><time>2026-05-02T19:25:03Z</time></trkpt><trkpt lat="46.12002111973881" lon="13.524017589997516"><ele>155.0</ele><time>2026-05-02T19:25:07Z</time></trkpt><trkpt lat="46.12008931967428" lon="13.523981942373227"><ele>155.0</ele><time>2026-05-02T19:25:21Z</time></trkpt><trkpt lat="46.12014766918571" lon="13.524055638263127"><ele>155.0</ele><time>2026-05-02T19:25:26Z</time></trkpt><trkpt lat="46.12019729278197" lon="13.524142135572728"><ele>155.0</ele><time>2026-05-02T19:25:29Z</time></trkpt><trkpt lat="46.12022106080719" lon="13.524236232611555"><ele>155.0</ele><time>2026-05-02T19:25:36Z</time></trkpt><trkpt lat="46.1202648918044" lon="13.524321956579893"><ele>155.0</ele><time>2026-05-02T19:25:43.001Z</time></trkpt><trkpt lat="46.1202671681051" lon="13.524429687334845"><ele>155.0</ele><time>2026-05-02T19:25:50.001Z</time></trkpt><trkpt lat="46.1202693164427" lon="13.52453013623313"><ele>155.0</ele><time>2026-05-02T19:25:59.001Z</time></trkpt><trkpt lat="46.12039938921474" lon="13.524558355485874"><ele>155.0</ele><time>2026-05-02T19:26:02.001Z</time></trkpt><trkpt lat="46.12039311701652" lon="13.524651459720348"><ele>155.0</ele><time>2026-05-02T19:27:42Z</time></trkpt><trkpt lat="46.120384329607994" lon="13.524745165216489"><ele>155.0</ele><time>2026-05-02T19:30:15.001Z</time></trkpt><trkpt lat="46.12038183859262" lon="13.524636664643712"><ele>155.0</ele><time>2026-05-02T19:31:37Z</time></trkpt><trkpt lat="46.12039294685817" lon="13.524726451037097"><ele>155.0</ele><time>2026-05-02T19:32:18.001Z</time></trkpt><trkpt lat="46.12037970013125" lon="13.524613597203459"><ele>155.0</ele><time>2026-05-02T19:35:56Z</time></trkpt><trkpt lat="46.120429353070726" lon="13.524679691290535"><ele>155.0</ele><time>2026-05-02T19:38:40.001Z</time></trkpt><trkpt lat="46.12036991432929" lon="13.524711834451955"><ele>155.0</ele><time>2026-05-02T19:50:59.001Z</time></trkpt><trkpt lat="46.12042975285234" lon="13.524679421947221"><ele>155.0</ele><time>2026-05-02T19:55:02.001Z</time></trkpt><trkpt lat="46.12037914041432" lon="13.524619326514996"><ele>155.0</ele><time>2026-05-02T20:24:54.001Z</time></trkpt><trkpt lat="46.12033458379023" lon="13.524548808293064"><ele>155.0</ele><time>2026-05-02T20:25:11.001Z</time></trkpt><trkpt lat="46.12031082307327" lon="13.524462331375467"><ele>155.0</ele><time>2026-05-02T20:25:18.001Z</time></trkpt><trkpt lat="46.12030282679474" lon="13.524371565887456"><ele>155.0</ele><time>2026-05-02T20:25:24Z</time></trkpt><trkpt lat="46.12026055380447" lon="13.524294905117372"><ele>155.0</ele><time>2026-05-02T20:25:32Z</time></trkpt><trkpt lat="46.120194826782026" lon="13.524270246072426"><ele>155.0</ele><time>2026-05-02T20:25:38Z</time></trkpt><trkpt lat="46.12013163936236" lon="13.524313179421581"><ele>155.0</ele><time>2026-05-02T20:25:44Z</time></trkpt><trkpt lat="46.12007513333097" lon="13.52426105004906"><ele>155.0</ele><time>2026-05-02T20:25:51Z</time></trkpt><trkpt lat="46.120019447010634" lon="13.52420431307498"><ele>155.0</ele><time>2026-05-02T20:25:57Z</time></trkpt><trkpt lat="46.119960102099604" lon="13.524158913947103"><ele>155.0</ele><time>2026-05-02T20:26:06Z</time></trkpt><trkpt lat="46.11990607572799" lon="13.52411191604139"><ele>155.0</ele><time>2026-05-02T20:26:14Z</time></trkpt><trkpt lat="46.119852978523916" lon="13.524059106794722"><ele>155.0</ele><time>2026-05-02T20:26:22Z</time></trkpt><trkpt lat="46.11980938328442" lon="13.523982775027205"><ele>155.0</ele><time>2026-05-02T20:26:31.001Z</time></trkpt><trkpt lat="46.11974423610388" lon="13.523917493716107"><ele>155.0</ele><time>2026-05-02T20:26:39.001Z</time></trkpt><trkpt lat="46.119678619514445" lon="13.523949656647648"><ele>155.0</ele><time>2026-05-02T20:26:46.001Z</time></trkpt><trkpt lat="46.119620910372795" lon="13.523996378815964"><ele>155.0</ele><time>2026-05-02T20:26:55.001Z</time></trkpt><trkpt lat="46.11953492998145" lon="13.524078764642526"><ele>155.0</ele><time>2026-05-02T20:27:33Z</time></trkpt><trkpt lat="46.119559518544776" lon="13.52399395566009"><ele>155.0</ele><time>2026-05-02T20:27:55Z</time></trkpt><trkpt lat="46.119625507565075" lon="13.52397535180527"><ele>155.0</ele><time>2026-05-02T20:28:13Z</time></trkpt><trkpt lat="46.119692256608495" lon="13.52394131057976"><ele>155.0</ele><time>2026-05-02T20:28:24Z</time></trkpt><trkpt lat="46.119756178164266" lon="13.523933026035351"><ele>155.0</ele><time>2026-05-02T20:28:32.001Z</time></trkpt><trkpt lat="46.11981864285526" lon="13.523945954771886"><ele>155.0</ele><time>2026-05-02T20:28:41.001Z</time></trkpt><trkpt lat="46.11986921746368" lon="13.523867775415392"><ele>155.0</ele><time>2026-05-02T20:28:58.001Z</time></trkpt><trkpt lat="46.11992850837633" lon="13.523810197602895"><ele>155.0</ele><time>2026-05-02T20:29:05.001Z</time></trkpt><trkpt lat="46.119994017260694" lon="13.523768367100512"><ele>155.0</ele><time>2026-05-02T20:29:11.001Z</time></trkpt><trkpt lat="46.12005139970907" lon="13.523727372281824"><ele>155.0</ele><time>2026-05-02T20:29:18.001Z</time></trkpt><trkpt lat="46.12010658008983" lon="13.523675182913998"><ele>155.0</ele><time>2026-05-02T20:29:26.001Z</time></trkpt><trkpt lat="46.1201957088924" lon="13.5236117508338"><ele>155.0</ele><time>2026-05-02T20:31:49Z</time></trkpt><trkpt lat="46.120095228478355" lon="13.52356738505546"><ele>155.0</ele><time>2026-05-02T20:31:58Z</time></trkpt><trkpt lat="46.12014568843755" lon="13.523638859622917"><ele>155.0</ele><time>2026-05-02T20:33:33.001Z</time></trkpt><trkpt lat="46.12008974334498" lon="13.523703697512316"><ele>155.0</ele><time>2026-05-02T20:33:36.001Z</time></trkpt><trkpt lat="46.120045876302" lon="13.52378950932197"><ele>155.0</ele><time>2026-05-02T20:33:41.001Z</time></trkpt><trkpt lat="46.11999761972917" lon="13.523863804838513"><ele>155.0</ele><time>2026-05-02T20:33:48Z</time></trkpt><trkpt lat="46.119941588400216" lon="13.523909280394765"><ele>155.0</ele><time>2026-05-02T20:33:57Z</time></trkpt><trkpt lat="46.11988370207111" lon="13.523962508202587"><ele>155.0</ele><time>2026-05-02T20:34:07Z</time></trkpt><trkpt lat="46.1198267837351" lon="13.524012839748364"><ele>155.0</ele><time>2026-05-02T20:34:15Z</time></trkpt><trkpt lat="46.11975518992403" lon="13.524003149485038"><ele>155.0</ele><time>2026-05-02T20:34:23Z</time></trkpt><trkpt lat="46.11969287659243" lon="13.523981914151854"><ele>155.0</ele><time>2026-05-02T20:34:30Z</time></trkpt><trkpt lat="46.11963135537647" lon="13.524016947994358"><ele>155.0</ele><time>2026-05-02T20:34:38Z</time></trkpt></trkseg></trk></gpx>